SondeTracker

Meteorological Radiosondes Database

Operations
Statistics for the Launch Site: Cuneo-Levaldigi (IT)

2933

19

37852.00 m / 31754.98 m / 32764.00 m

4.79 m/s / 4.84 m/s

11.17 m/s / 9.90 m/s

660

728

26

Radiosondes Table with Launch Site: Cuneo-Levaldigi (IT) (2933)
Number Type Last Frame [UTC] φ λ Course Speed Altitude Climbing Frequency Nearest City Distance from QTH Status
T4240209 RS41 2022-09-26 00:41:30 44.7637 9.13027 81 ° 63 km/h 5695 m -9.2 m/s 402.80 MHz Voghera (IT) 0.00 km UNKNOWN
T4250478 RS41 2022-09-25 12:49:17 45.1799 9.11543 158 ° 4 km/h 162 m -3.5 m/s 402.80 MHz Pavia (IT) 0.00 km UNKNOWN
T4240215 RS41 2022-09-25 00:57:02 45.0021 8.5395 50 ° 39 km/h 5064 m -10.0 m/s 402.80 MHz Valenza (IT) 0.00 km UNKNOWN
T4250475 RS41 2022-09-24 12:20:20 45.0175 8.70606 205 ° 11 km/h 179 m -9.4 m/s 402.80 MHz Valenza (IT) 0.00 km LOST
T4250477 RS41 2022-09-24 01:03:51 44.7965 9.04732 348 ° 20 km/h 561 m -3.6 m/s 402.80 MHz Tortona (IT) 0.00 km UNKNOWN
T4250508 RS41 2022-09-23 12:42:42 44.387 8.3389 12 ° 19 km/h 604 m -2.7 m/s 402.80 MHz Cairo Montenotte (IT) 0.00 km UNKNOWN
T4250510 RS41 2022-09-23 00:35:52 43.9082 7.81769 156 ° 7 km/h 1565 m -6.2 m/s 402.80 MHz Taggia (IT) 0.00 km UNKNOWN
T4230642 RS41 2022-09-22 13:21:33 43.8297 8.38285 329 ° 22 km/h 75 m -2.8 m/s 402.800 MHz Alassio (IT) 0.00 km LOST
T4240205 RS41 2022-09-22 00:39:22 44.0189 8.03286 241 ° 17 km/h 1396 m -6.9 m/s 402.80 MHz 0.00 km UNKNOWN
T4240206 RS41-SG 2022-09-21 12:37:44 44.053 8.52556 176 ° 41 km/h 62 m -5.2 m/s 402.800 MHz Finale Ligure (IT) 0.00 km LOST
T4240216 RS41 2022-09-21 01:30:23 43.6034 9.06386 351 ° 9 km/h 115 m -2.5 m/s 402.80 MHz Sestri Levante (IT) 0.00 km LOST
T4240193 RS41 2022-09-20 12:40:12 44.081 8.79144 54 ° 6 km/h 59 m -4.1 m/s 402.80 MHz Vado Ligure (IT) 0.00 km LOST
T4250504 RS41 2022-09-20 01:53:31 43.7649 9.31618 231 ° 17 km/h 518 m -2.4 m/s 402.80 MHz La Spezia (IT) 0.00 km LOST
T4240380 RS41 2022-09-19 12:48:18 43.9955 9.32774 349 ° 17 km/h 349 m -4.2 m/s 402.80 MHz Sestri Levante (IT) 0.00 km LOST
T4250479 RS41 2022-09-19 01:25:32 43.8321 10.0648 92 ° 48 km/h 2880 m -1.9 m/s 402.80 MHz Viareggio (IT) 0.00 km LOST
T4250506 RS41 2022-09-18 12:18:35 44.1747 8.88019 331 ° 17 km/h 119 m -13.2 m/s 402.80 MHz Genoa (IT) 0.00 km LOST
T4250509 RS41 2022-09-18 00:43:58 44.1934 8.93639 114 ° 122 km/h 12269 m -14.6 m/s 402.80 MHz Genoa (IT) 0.00 km LOST
T4250507 RS41 2022-09-17 13:07:39 43.8209 9.80934 158 ° 20 km/h 525 m -3.3 m/s 402.80 MHz Lerici (IT) 0.00 km LOST
T4240098 RS41 2022-09-17 01:00:20 44.7187 10.0326 291 ° 19 km/h 551 m -2.6 m/s 405.000 MHz Medesano (IT) 0.00 km UNKNOWN
T4250502 RS41 2022-09-16 12:39:18 44.5747 8.9833 17 ° 26 km/h 1041 m -3.4 m/s 402.80 MHz Serra Riccò (IT) 0.00 km UNKNOWN
T4250501 RS41 2022-09-16 00:51:42 44.532 8.5641 322 ° 19 km/h 789 m -5.9 m/s 402.80 MHz Ovada (IT) 0.00 km UNKNOWN
T4240381 RS41 2022-09-15 12:17:12 44.7637 8.83963 3 ° 30 km/h 299 m -7.8 m/s 402.80 MHz Novi Ligure (IT) 0.00 km UNKNOWN
T4240383 RS41 2022-09-15 01:02:42 45.1755 9.72996 186 ° 13 km/h 115 m -3.9 m/s 402.80 MHz Codogno (IT) 0.00 km UNKNOWN
T4240384 RS41 2022-09-14 13:50:28 45.3994 10.2386 59 ° 37 km/h 1002 m -2.0 m/s 402.80 MHz Ghedi (IT) 0.00 km FOUND
T4240194 RS41-SG 2022-09-14 01:49:39 45.134 9.5467 280 ° 7 km/h 138 m -2.8 m/s 402.800 MHz Rottofreno (IT) 0.00 km UNKNOWN
T4240434 RS41 2022-09-13 12:24:39 44.4511 8.34722 327 ° 28 km/h 692 m -8.7 m/s 402.800 MHz Cairo Montenotte (IT) 0.00 km UNKNOWN
T4250505 RS41 2022-09-13 00:37:13 44.1297 8.34912 140 ° 6 km/h 61 m -5.9 m/s 402.80 MHz Finale Ligure (IT) 0.00 km LOST
T4250002 RS41 2022-09-12 12:40:19 44.2456 8.43349 353 ° 15 km/h 410 m -4.2 m/s 402.80 MHz Vado Ligure (IT) 0.00 km UNKNOWN
T4240243 RS41 2022-09-12 01:44:51 43.9601 8.71196 308 ° 6 km/h 414 m -5.6 m/s 402.800 MHz Finale Ligure (IT) 0.00 km LOST
T4250001 RS41 2022-09-11 12:46:48 43.8341 9.13703 224 ° 6 km/h 224 m -4.7 m/s 402.80 MHz Sestri Levante (IT) 0.00 km LOST
T4240242 RS41 2022-09-11 00:52:32 44.0438 9.43293 315 ° 17 km/h 884 m -5.3 m/s 402.80 MHz Sestri Levante (IT) 0.00 km LOST
T4230635 RS41 2022-09-10 12:24:49 44.2468 9.23772 351 ° 9 km/h 95 m -14.6 m/s 402.80 MHz Santa Margherita Ligure (IT) 0.00 km LOST
T4230634 RS41-SG 2022-09-09 23:41:25 44.4843 8.66461 103 ° 19 km/h 1004 m -5.3 m/s 402.80 MHz Arenzano (IT) 0.00 km UNKNOWN
T4240241 RS41 2022-09-09 12:12:54 44.7561 9.32969 117 ° 28 km/h 1202 m -12.3 m/s 402.80 MHz Voghera (IT) 0.00 km UNKNOWN
T4240210 RS41 2022-09-09 01:11:53 44.7653 9.60611 57 ° 11 km/h 534 m -1.9 m/s 402.80 MHz Podenzano (IT) 0.00 km UNKNOWN
T4230631 RS41 2022-09-08 12:57:51 45.0315 9.43003 168 ° 15 km/h 241 m -5.8 m/s 402.80 MHz Borgonovo Val Tidone (IT) 0.00 km UNKNOWN
T4240438 RS41-SG 2022-09-08 01:37:29 45.1515 9.31833 301 ° 19 km/h 160 m -1.9 m/s 402.80 MHz Stradella (IT) 0.00 km FOUND
T4240441 RS41-SG 2022-09-07 13:12:53 45.0185 9.0344 244 ° 19 km/h 173 m -3.0 m/s 402.80 MHz Voghera (IT) 0.00 km FOUND
T4240202 RS41 2022-09-07 01:14:05 44.7153 9.07528 336 ° 13 km/h 785 m -2.8 m/s 402.80 MHz Novi Ligure (IT) 0.00 km UNKNOWN
T4240439 RS41 2022-09-06 13:07:15 44.7938 9.12442 106 ° 13 km/h 688 m -2.6 m/s 402.800 MHz Voghera (IT) 0.00 km UNKNOWN
T4241111 RS41 2022-09-06 01:01:01 44.5643 8.89357 337 ° 15 km/h 886 m -3.9 m/s 402.800 MHz Serra Riccò (IT) 0.00 km UNKNOWN
T4230573 RS41 2022-09-05 12:22:17 44.6693 8.85268 213 ° 9 km/h 764 m -11.0 m/s 402.80 MHz Novi Ligure (IT) 0.00 km UNKNOWN
T4151071 RS41 2022-09-05 00:56:11 44.6601 8.71998 79 ° 11 km/h 393 m -4.8 m/s 402.80 MHz Ovada (IT) 0.00 km UNKNOWN
T4151072 RS41 2022-09-04 12:16:36 44.4579 8.05243 158 ° 7 km/h 851 m -12.4 m/s 402.80 MHz Monesiglio (IT) 0.00 km FOUND
T4151073 RS41 2022-09-04 00:51:53 44.7126 8.43118 18 ° 6 km/h 483 m -3.5 m/s 402.80 MHz Acqui Terme (IT) 0.00 km UNKNOWN
T4250006 RS41-SG 2022-09-03 12:35:08 44.8754 8.97214 158 ° 20 km/h 428 m -7.0 m/s 402.800 MHz Tortona (IT) 0.00 km FOUND
T4250003 RS41 2022-09-03 00:14:48 44.699 9.17053 25 ° 19 km/h 1484 m -9.6 m/s 402.800 MHz Serra Riccò (IT) 0.00 km UNKNOWN
T4250005 RS41 2022-09-02 12:50:39 44.6029 8.87097 75 ° 19 km/h 1038 m -3.5 m/s 405.000 MHz Serra Riccò (IT) 0.00 km UNKNOWN
T4151093 RS41 2022-09-02 01:06:39 44.4385 8.94803 59 ° 7 km/h 429 m -3.9 m/s 402.80 MHz Genoa (IT) 0.00 km UNKNOWN
T4151074 RS41 2022-09-01 00:51:30 44.5367 8.12498 338 ° 2 km/h 824 m -7.5 m/s 402.80 MHz Monesiglio (IT) 0.00 km UNKNOWN
T4151070 RS41-SG 2022-08-31 00:29:49 44.4654 8.17147 44 ° 11 km/h 1017 m -6.3 m/s 405.000 MHz Monesiglio (IT) 0.00 km UNKNOWN
T4150931 RS41 2022-08-30 13:06:18 44.5408 8.48769 70 ° 17 km/h 776 m -2.5 m/s 402.80 MHz Acqui Terme (IT) 0.00 km UNKNOWN
T4240224 RS41 2022-08-30 01:39:26 44.2908 8.44305 227 ° 15 km/h 126 m -2.2 m/s 402.80 MHz Vado Ligure (IT) 0.00 km UNKNOWN
T4151095 RS41 2022-08-29 12:38:39 44.4409 8.08561 239 ° 13 km/h 826 m -5.4 m/s 402.80 MHz Monesiglio (IT) 0.00 km FOUND
T4151094 RS41 2022-08-29 01:56:03 44.1839 8.27903 212 ° 11 km/h 297 m -2.3 m/s 402.800 MHz Pietra Ligure (IT) 0.00 km UNKNOWN
T4151096 RS41 2022-08-28 12:33:02 44.7151 7.8612 23 ° 7 km/h 447 m -6.6 m/s 402.800 MHz Bra (IT) 0.00 km UNKNOWN
T4150932 RS41 2022-08-28 01:20:31 44.5446 7.82786 150 ° 2 km/h 471 m -2.4 m/s 402.80 MHz Fossano (IT) 0.00 km UNKNOWN
T4150503 RS41-SG 2022-08-27 11:32:15 44.5957 7.84364 309 ° 9 km/h 535 m -10.4 m/s 405.00 MHz Cherasco (IT) 0.00 km FOUND
T4150502 RS41 2022-08-27 01:03:07 44.6567 7.84132 288 ° 6 km/h 691 m -3.2 m/s 402.80 MHz Cherasco (IT) 0.00 km UNKNOWN
T4151097 RS41 2022-08-26 12:49:48 44.7516 7.82927 201 ° 6 km/h 1220 m -4.6 m/s 405.001 MHz Bra (IT) 0.00 km UNKNOWN
T4151098 RS41 2022-08-26 01:19:16 44.5365 7.6819 253 ° 7 km/h 884 m -2.8 m/s 402.80 MHz Fossano (IT) 0.00 km FOUND
T4150499 RS41 2022-08-25 11:49:12 44.4191 7.70425 248 ° 9 km/h 1107 m -8.0 m/s 402.80 MHz Mondovì (IT) 0.00 km UNKNOWN
T4150500 RS41 2022-08-25 00:56:32 44.3328 7.50327 211 ° 4 km/h 1546 m -4.7 m/s 402.80 MHz Borgo San Dalmazzo (IT) 0.00 km UNKNOWN
T4150504 RS41 2022-08-24 12:13:55 44.4608 7.49083 265 ° 11 km/h 1315 m -8.8 m/s 402.80 MHz Busca (IT) 0.00 km UNKNOWN
T4150501 RS41-SG 2022-08-24 00:32:27 44.2941 7.5435 251 ° 4 km/h 1520 m -5.9 m/s 402.80 MHz Boves (IT) 0.00 km UNKNOWN
T4240226 RS41 2022-08-23 12:35:38 44.0766 7.69019 186 ° 41 km/h 5329 m -9.2 m/s 402.80 MHz Taggia (IT) 0.00 km UNKNOWN
T4240227 RS41 2022-08-22 12:16:46 43.5914 7.93796 212 ° 9 km/h 1653 m -7.1 m/s 402.80 MHz San Remo (IT) 0.00 km LOST
T4240217 RS41 2022-08-22 00:50:04 43.7475 8.12562 252 ° 11 km/h 128 m -2.5 m/s 402.80 MHz Imperia (IT) 0.00 km LOST
T4240218 RS41 2022-08-21 12:13:55 44.2417 7.90181 22 ° 6 km/h 2444 m -6.5 m/s 402.80 MHz Mondovì (IT) 0.00 km FOUND
T4240228 RS41 2022-08-21 01:56:04 44.0534 8.56042 223 ° 9 km/h 112 m -2.6 m/s 402.80 MHz Finale Ligure (IT) 0.00 km LOST
T4240213 RS41 2022-08-20 12:54:35 44.261 8.72575 38 ° 22 km/h 77 m -2.9 m/s 402.80 MHz Cogoleto (IT) 0.00 km LOST
T4240214 RS41 2022-08-20 01:08:21 44.2217 8.25449 166 ° 13 km/h 1193 m -3.0 m/s 402.80 MHz Pietra Ligure (IT) 0.00 km UNKNOWN
T4240211 RS41 2022-08-19 12:21:02 44.0856 7.73465 169 ° 28 km/h 2466 m -3.7 m/s 402.80 MHz Taggia (IT) 0.00 km UNKNOWN
T4240212 RS41 2022-08-19 00:30:12 44.6412 7.46776 134 ° 6 km/h 1280 m -5.5 m/s 402.80 MHz Saluzzo (IT) 0.00 km FOUND
T4240221 RS41 2022-08-18 12:48:08 45.2463 7.46875 233 ° 11 km/h 1297 m -1.6 m/s 402.80 MHz Ciriè (IT) 0.00 km NEED ATTENTION
T4220481 RS41 2022-08-18 00:38:26 45.3076 7.95489 146 ° 22 km/h 667 m -9.6 m/s 402.80 MHz Vestignè (IT) 0.00 km UNKNOWN
T4240222 RS41 2022-08-17 12:23:38 45.3455 8.14121 287 ° 9 km/h 383 m -6.3 m/s 402.80 MHz Santhià (IT) 0.00 km UNKNOWN
T4250480 RS41 2022-08-17 01:35:16 45.4315 8.45694 232 ° 28 km/h 260 m -1.9 m/s 402.80 MHz Novara (IT) 0.00 km UNKNOWN
T4220483 RS41 2022-08-16 13:01:19 44.9512 8.05581 80 ° 24 km/h 2888 m -4.5 m/s 402.80 MHz Asti (IT) 0.00 km UNKNOWN
T4240220 RS41 2022-08-16 01:58:47 44.2971 8.4452 14 ° 7 km/h 163 m -1.6 m/s 402.80 MHz Savona (IT) 0.00 km UNKNOWN
T4220484 RS41 2022-08-15 13:25:24 44.9276 8.82384 16 ° 26 km/h 228 m -2.6 m/s 402.80 MHz Tortona (IT) 0.00 km UNKNOWN
T4220485 RS41 2022-08-15 00:38:55 44.762 8.14264 107 ° 11 km/h 652 m -5.3 m/s 402.80 MHz Alba (IT) 0.00 km FOUND
T4220482 RS41 2022-08-14 13:07:59 44.8095 8.21685 279 ° 4 km/h 435 m -2.3 m/s 402.800 MHz Asti (IT) 0.00 km UNKNOWN
T1831620 RS41 2022-08-14 01:20:24 43.9936 8.55302 196 ° 11 km/h 132 m -3.3 m/s 402.80 MHz Finale Ligure (IT) 0.00 km LOST
T4220486 RS41 2022-08-13 12:44:09 43.8116 8.41341 272 ° 33 km/h 89 m -4.1 m/s 402.80 MHz Alassio (IT) 0.00 km LOST
T1840351 RS41 2022-08-13 00:32:54 43.9925 7.92688 226 ° 9 km/h 849 m -8.8 m/s 402.80 MHz Imperia (IT) 0.00 km FOUND
T1840872 RS41 2022-08-12 13:02:40 43.4196 7.72402 170 ° 50 km/h 5127 m -2.6 m/s 402.80 MHz Bordighera (IT) 0.00 km LOST
T1831617 RS41 2022-08-12 00:34:17 43.9159 7.23424 310 ° 4 km/h 1244 m -6.5 m/s 402.80 MHz Contes (FR) 0.00 km UNKNOWN
T1840006 RS41 2022-08-11 00:39:20 44.3238 7.59117 198 ° 11 km/h 1751 m -6.4 m/s 402.80 MHz Boves (IT) 0.00 km FOUND
T1831619 RS41-SG 2022-08-10 12:25:48 44.3934 7.60353 102 ° 54 km/h 12660 m -15.7 m/s 402.80 MHz Cuneo (IT) 0.00 km FOUND
T1840856 RS41 2022-08-10 00:39:50 44.3342 7.46157 198 ° 9 km/h 1603 m -12.1 m/s 402.80 MHz Borgo San Dalmazzo (IT) 0.00 km UNKNOWN
T1840858 RS41 2022-08-09 13:18:40 44.1839 7.45957 117 ° 17 km/h 3344 m -2.3 m/s 402.80 MHz Borgo San Dalmazzo (IT) 0.00 km UNKNOWN
T1840366 RS41 2022-08-09 01:44:31 44.0416 7.47677 192 ° 19 km/h 2336 m -2.9 m/s 402.80 MHz Contes (FR) 0.00 km UNKNOWN
T1840853 RS41 2022-08-08 12:07:41 44.325 7.6509 156 ° 17 km/h 2023 m -9.0 m/s 402.80 MHz Boves (IT) 0.00 km FOUND
T1840855 RS41 2022-08-08 01:02:45 44.3065 8.20382 102 ° 37 km/h 952 m -3.1 m/s 402.80 MHz Cairo Montenotte (IT) 0.00 km UNKNOWN
T1840854 RS41 2022-08-07 13:24:04 44.6632 8.36651 246 ° 7 km/h 449 m -2.4 m/s 402.80 MHz Acqui Terme (IT) 0.00 km UNKNOWN
T1831615 RS41 2022-08-07 02:08:30 44.4844 7.9216 45 ° 31 km/h 3937 m -2.2 m/s 402.80 MHz Mondovì (IT) 0.00 km FOUND
T1830906 RS41 2022-08-06 12:23:43 44.7568 7.86217 240 ° 17 km/h 842 m -6.8 m/s 402.80 MHz Bra (IT) 0.00 km UNKNOWN
T1830917 RS41 2022-08-06 00:53:20 44.8438 7.9744 149 ° 19 km/h 561 m -4.3 m/s 402.80 MHz Poirino (IT) 0.00 km UNKNOWN
T1840857 RS41 2022-08-05 13:31:41 45.1301 7.94891 261 ° 15 km/h 738 m -1.6 m/s 402.80 MHz Chivasso (IT) 0.00 km FOUND
T1850840 RS41 2022-08-05 01:07:36 44.9459 7.66981 197 ° 24 km/h 465 m -3.5 m/s 402.80 MHz La Loggia (IT) 0.00 km FOUND
T1840408 RS41 2022-08-04 12:26:57 44.8105 7.72397 33 ° 7 km/h 340 m -2.8 m/s 402.80 MHz Carmagnola (IT) 0.00 km FOUND
T1840406 RS41 2022-08-04 00:50:40 44.656 7.42498 333 ° 2 km/h 550 m -4.0 m/s 402.80 MHz Saluzzo (IT) 0.00 km NEED ATTENTION
T1840005 RS41 2022-08-03 12:17:56 44.5382 7.25205 346 ° 13 km/h 2167 m -12.3 m/s 402.80 MHz Busca (IT) 0.00 km UNKNOWN
T2040936 RS41 2022-08-03 01:16:10 44.0736 6.96356 65 ° 7 km/h 3299 m -3.5 m/s 402.80 MHz Carros (FR) 0.00 km UNKNOWN
T1831618 RS41 2022-08-02 12:54:04 43.805 7.27673 341 ° 13 km/h 908 m -4.6 m/s 405.00 MHz Contes (FR) 0.00 km UNKNOWN
T1850837 RS41 2022-08-02 01:10:15 44.131 8.24617 62 ° 7 km/h 1126 m -4.3 m/s 402.80 MHz Loano (IT) 0.00 km FOUND
T1850839 RS41 2022-08-01 12:48:26 44.3823 8.46251 328 ° 15 km/h 482 m -3.5 m/s 402.80 MHz Savona (IT) 0.00 km UNKNOWN
T1830918 RS41 2022-08-01 02:13:32 44.0686 8.09514 339 ° 11 km/h 2370 m -2.0 m/s 402.80 MHz Alassio (IT) 0.00 km UNKNOWN
T1840362 RS41 2022-07-31 12:14:55 44.3154 7.72858 303 ° 11 km/h 1685 m -14.6 m/s 402.80 MHz Mondovì (IT) 0.00 km FOUND
T1840914 RS41 2022-07-31 01:39:33 43.9904 8.45548 187 ° 22 km/h 329 m -2.2 m/s 402.80 MHz Albenga (IT) 0.00 km LOST
T1840916 RS41 2022-07-30 13:35:05 43.8887 8.52456 207 ° 13 km/h 223 m -2.4 m/s 402.80 MHz Albenga (IT) 0.00 km LOST
T1840272 RS41 2022-07-30 01:47:49 44.481 8.74559 194 ° 33 km/h 1116 m -3.7 m/s 405.00 MHz Arenzano (IT) 0.00 km UNKNOWN
T1840271 RS41 2022-07-29 12:16:56 44.9402 8.57063 220 ° 6 km/h 210 m -5.5 m/s 402.80 MHz Alessandria (IT) 0.00 km UNKNOWN
T1840349 RS41 2022-07-29 00:40:43 44.6955 8.21957 243 ° 19 km/h 589 m -4.3 m/s 402.80 MHz Canelli (IT) 0.00 km UNKNOWN
T1840357 RS41 2022-07-28 12:17:31 44.8941 8.29076 237 ° 7 km/h 585 m -8.4 m/s 402.80 MHz Asti (IT) 0.00 km FOUND
T1840915 RS41 2022-07-28 00:45:31 44.4472 8.06872 157 ° 11 km/h 877 m -6.6 m/s 402.80 MHz Monesiglio (IT) 0.00 km UNKNOWN
T1840359 RS41 2022-07-27 12:31:26 44.4851 7.89194 133 ° 35 km/h 7849 m -12.2 m/s 402.80 MHz Mondovì (IT) 0.00 km FOUND
T1840356 RS41 2022-07-27 01:03:37 44.6546 7.93073 208 ° 19 km/h 1082 m -2.8 m/s 402.80 MHz Cherasco (IT) 0.00 km FOUND
T1840917 RS41 2022-07-26 12:44:21 44.7525 8.53015 346 ° 22 km/h 451 m -4.1 m/s 402.80 MHz Acqui Terme (IT) 0.00 km UNKNOWN
T1840918 RS41-SG 2022-07-25 14:09:45 45.0616 8.53978 273 ° 11 km/h 182 m -2.4 m/s 402.80 MHz Valenza (IT) 0.00 km UNKNOWN
T1840418 RS41 2022-07-25 01:10:33 44.4816 7.92899 46 ° 13 km/h 612 m -4.2 m/s 402.80 MHz Mondovì (IT) 0.00 km FOUND
T1840913 RS41 2022-07-24 12:40:23 44.2846 7.74199 276 ° 17 km/h 1083 m -5.6 m/s 402.80 MHz Mondovì (IT) 0.00 km FOUND
T1840419 RS41 2022-07-24 00:48:16 44.3148 7.77786 143 ° 13 km/h 1314 m -7.7 m/s 402.80 MHz Mondovì (IT) 0.00 km UNKNOWN
T1840907 RS41 2022-07-23 12:17:08 44.5679 7.93081 321 ° 28 km/h 533 m -14.4 m/s 402.80 MHz Cherasco (IT) 0.00 km FOUND
T1851205 RS41 2022-07-22 12:55:25 44.851 7.77647 78 ° 7 km/h 305 m -3.7 m/s 402.80 MHz Carmagnola (IT) 0.00 km UNKNOWN
T2040935 RS41 2022-07-22 00:56:00 44.4424 7.60192 77 ° 17 km/h 545 m -5.7 m/s 402.80 MHz Cuneo (IT) 0.00 km FOUND
T1851201 RS41 2022-07-21 12:49:44 44.3773 7.67373 148 ° 13 km/h 854 m -6.1 m/s 402.80 MHz Cuneo (IT) 0.00 km FOUND
T2040933 RS41 2022-07-21 00:46:17 44.4449 7.59821 321 ° 22 km/h 537 m -4.9 m/s 402.80 MHz Cuneo (IT) 0.00 km FOUND
T1851202 RS41 2022-07-20 12:50:58 44.9382 7.54624 332 ° 4 km/h 398 m -4.6 m/s 402.80 MHz None (IT) 0.00 km FOUND
T2040932 RS41 2022-07-20 01:11:27 44.7156 7.37241 139 ° 11 km/h 351 m -3.8 m/s 402.80 MHz Barge (IT) 0.00 km UNKNOWN
T1841388 RS41 2022-07-19 13:06:14 44.6429 7.30258 0 ° 7 km/h 882 m -3.1 m/s 402.80 MHz Barge (IT) 0.00 km UNKNOWN
T1851115 RS41 2022-07-19 01:26:45 44.3436 7.19923 86 ° 7 km/h 2355 m -2.3 m/s 402.80 MHz Borgo San Dalmazzo (IT) 0.00 km UNKNOWN
T2040953 RS41 2022-07-18 12:59:24 44.0969 7.55281 179 ° 11 km/h 2504 m -3.9 m/s 402.80 MHz Boves (IT) 0.00 km UNKNOWN
T1851204 RS41 2022-07-18 00:29:18 44.2178 7.74625 149 ° 7 km/h 2412 m -6.0 m/s 402.80 MHz Mondovì (IT) 0.00 km UNKNOWN
T1851203 RS41 2022-07-17 12:56:46 44.1357 7.91167 140 ° 7 km/h 5723 m -5.0 m/s 402.80 MHz Alassio (IT) 0.00 km UNKNOWN
T2040952 RS41 2022-07-17 01:48:29 43.9912 8.42495 237 ° 11 km/h 319 m -1.6 m/s 402.80 MHz Albenga (IT) 0.00 km LOST
T2040869 RS41 2022-07-16 12:22:41 44.3735 8.11827 258 ° 9 km/h 913 m -4.5 m/s 402.80 MHz Monesiglio (IT) 0.00 km UNKNOWN
T2040954 RS41 2022-07-16 00:37:47 44.3468 8.04443 82 ° 17 km/h 1159 m -15.0 m/s 402.80 MHz Monesiglio (IT) 0.00 km UNKNOWN
T2040931 RS41 2022-07-15 13:45:37 44.137 8.63752 356 ° 11 km/h 111 m -2.5 m/s 402.80 MHz Vado Ligure (IT) 0.00 km LOST
T2040950 RS41 2022-07-15 00:55:00 44.1627 8.23819 142 ° 9 km/h 1221 m -5.4 m/s 402.80 MHz Pietra Ligure (IT) 0.00 km UNKNOWN
T1851127 RS41 2022-07-14 12:46:44 44.4849 8.39427 10 ° 2 km/h 2817 m -4.5 m/s 402.80 MHz Cairo Montenotte (IT) 0.00 km UNKNOWN
T2040951 RS41 2022-07-14 01:27:09 44.704 8.02991 48 ° 17 km/h 499 m -2.7 m/s 402.80 MHz Alba (IT) 0.00 km UNKNOWN
T1851126 RS41 2022-07-13 01:37:40 43.8284 7.24049 353 ° 4 km/h 605 m -2.8 m/s 402.80 MHz Contes (FR) 0.00 km UNKNOWN
T1851221 RS41 2022-07-12 13:36:30 43.6976 7.56145 14 ° 7 km/h 206 m -2.9 m/s 405.00 MHz Menton (FR) 0.00 km LOST
T1841391 RS41 2022-07-12 00:50:18 44.0496 8.02973 65 ° 9 km/h 1242 m -6.5 m/s 402.80 MHz Alassio (IT) 0.00 km UNKNOWN
T1851113 RS41 2022-07-11 13:29:03 43.9583 8.48622 45 ° 22 km/h 232 m -1.8 m/s 402.80 MHz Albenga (IT) 0.00 km LOST
T1851116 RS41 2022-07-11 00:58:28 43.8464 7.86162 208 ° 2 km/h 389 m -8.3 m/s 402.80 MHz Taggia (IT) 0.00 km UNKNOWN
T1851224 RS41 2022-07-10 12:41:17 43.9873 7.53553 61 ° 7 km/h 1652 m -11.7 m/s 402.80 MHz Ventimiglia (IT) 0.00 km UNKNOWN
T1851217 RS41 2022-07-10 01:39:12 43.7754 7.10391 268 ° 6 km/h 858 m -2.5 m/s 402.80 MHz Vence (FR) 0.00 km UNKNOWN
T1851218 RS41 2022-07-09 13:12:51 43.9054 8.02415 339 ° 9 km/h 159 m -3.5 m/s 402.80 MHz Imperia (IT) 0.00 km UNKNOWN
T1841389 RS41 2022-07-09 02:02:58 43.6342 7.86225 226 ° 20 km/h 2499 m -2.4 m/s 402.80 MHz San Remo (IT) 0.00 km LOST
T1841392 RS41 2022-07-08 12:59:37 43.7314 7.34972 319 ° 15 km/h 609 m -4.1 m/s 402.80 MHz La Trinité (FR) 0.00 km UNKNOWN
T1851124 RS41 2022-07-08 00:51:19 43.7228 7.2014 215 ° 20 km/h 214 m -5.8 m/s 405.00 MHz La Gaude (FR) 0.00 km UNKNOWN
T1851125 RS41 2022-07-07 12:21:28 44.1097 7.55007 232 ° 6 km/h 2280 m -13.0 m/s 402.80 MHz Boves (IT) 0.00 km UNKNOWN
T1851123 RS41 2022-07-07 00:55:06 44.4193 8.02196 124 ° 7 km/h 812 m -6.4 m/s 405.00 MHz Monesiglio (IT) 0.00 km UNKNOWN
T1841390 RS41 2022-07-06 12:59:17 44.5486 8.60703 207 ° 19 km/h 808 m -4.4 m/s 402.80 MHz Ovada (IT) 0.00 km UNKNOWN
T1831491 RS41 2022-07-06 00:46:23 44.4988 8.60122 150 ° 6 km/h 925 m -9.6 m/s 402.80 MHz Arenzano (IT) 0.00 km UNKNOWN
T1831407 RS41 2022-07-05 12:58:05 44.4562 8.36601 302 ° 15 km/h 840 m -4.6 m/s 402.80 MHz Cairo Montenotte (IT) 0.00 km UNKNOWN
T1831403 RS41 2022-07-05 00:52:26 44.6741 8.3693 126 ° 7 km/h 370 m -3.0 m/s 402.80 MHz Acqui Terme (IT) 0.00 km UNKNOWN
T1831402 RS41 2022-07-04 13:39:31 44.9056 8.78486 124 ° 4 km/h 178 m -4.2 m/s 402.80 MHz Tortona (IT) 0.00 km UNKNOWN
T1851223 RS41 2022-07-04 00:42:35 44.6607 8.11408 182 ° 17 km/h 947 m -8.9 m/s 402.80 MHz Alba (IT) 0.00 km UNKNOWN
T1851222 RS41 2022-07-03 12:26:10 44.7348 8.02935 237 ° 6 km/h 707 m -9.3 m/s 402.80 MHz Alba (IT) 0.00 km FOUND
T1851215 RS41 2022-07-02 11:17:32 45.1344 7.83742 237 ° 9 km/h 415 m -1.7 m/s 402.80 MHz Gassino Torinese (IT) 0.00 km UNKNOWN
T1851214 RS41-SG 2022-07-01 13:46:17 44.6707 8.89483 357 ° 31 km/h 817 m -2.2 m/s 405.00 MHz Novi Ligure (IT) 0.00 km FOUND
T1841387 RS41 2022-07-01 01:11:33 45.3224 8.20221 218 ° 33 km/h 316 m -5.1 m/s 402.80 MHz Santhià (IT) 0.00 km UNKNOWN
T1851206 RS41 2022-06-30 12:39:48 45.0949 8.18544 272 ° 4 km/h 571 m -5.2 m/s 402.80 MHz Crescentino (IT) 0.00 km UNKNOWN
T1851216 RS41 2022-06-30 01:17:38 45.0608 7.81268 157 ° 11 km/h 664 m -4.5 m/s 402.80 MHz Pino Troinese (IT) 0.00 km UNKNOWN
T1831410 RS41-SG 2022-06-29 12:49:19 44.6851 7.805 234 ° 13 km/h 350 m -5.6 m/s 402.80 MHz Bra (IT) 0.00 km FOUND
T1831405 RS41 2022-06-26 12:18:07 45.2191 8.11032 5 ° 11 km/h 1617 m -13.2 m/s 405.00 MHz Crescentino (IT) 0.00 km UNKNOWN
T1831401 RS41 2022-06-26 00:51:00 45.1036 8.35373 164 ° 6 km/h 452 m -6.3 m/s 402.80 MHz Casale Monferrato (IT) 0.00 km UNKNOWN
T1831400 RS41 2022-06-25 12:55:19 45.1788 8.08075 279 ° 9 km/h 281 m -4.2 m/s 402.80 MHz Crescentino (IT) 0.00 km UNKNOWN
T1831408 RS41 2022-06-25 01:32:23 44.9845 8.32012 225 ° 9 km/h 485 m -2.7 m/s 402.80 MHz Asti (IT) 0.00 km UNKNOWN
T1831409 RS41 2022-06-24 13:23:56 45.7952 9.10133 339 ° 30 km/h 672 m -2.4 m/s 402.80 MHz Como (IT) 0.00 km FOUND
T1831399 RS41-SG 2022-06-24 00:34:44 45.1124 8.66873 9 ° 17 km/h 323 m -12.3 m/s 402.80 MHz Valenza (IT) 0.00 km UNKNOWN
T1831492 RS41 2022-06-23 13:22:42 45.4024 9.08952 1 ° 13 km/h 202 m -2.7 m/s 402.80 MHz Trezzano sul Naviglio (IT) 0.00 km UNKNOWN
T1831493 RS41-SG 2022-06-23 01:30:25 44.8945 9.09114 103 ° 9 km/h 520 m -3.7 m/s 402.80 MHz Voghera (IT) 0.00 km FOUND
T1841240 RS41-SG 2022-06-22 13:49:45 45.5113 8.8755 175 ° 6 km/h 473 m -2.3 m/s 405.00 MHz Inveruno (IT) 0.00 km FOUND
T1831406 RS41 2022-06-22 01:31:48 44.9442 8.48747 5 ° 17 km/h 305 m -3.1 m/s 402.80 MHz Alessandria (IT) 0.00 km UNKNOWN
T1831490 RS41 2022-06-21 12:28:26 44.8854 8.22381 0 ° 24 km/h 475 m -6.6 m/s 402.80 MHz Asti (IT) 0.00 km UNKNOWN
T1831489 RS41 2022-06-21 01:48:35 44.9871 9.12158 287 ° 7 km/h 287 m -2.2 m/s 402.80 MHz Voghera (IT) 0.00 km UNKNOWN
T1821572 RS41 2022-06-20 13:44:33 45.1425 8.91141 21 ° 35 km/h 342 m -1.8 m/s 402.80 MHz Garlasco (IT) 0.00 km UNKNOWN
T1821534 RS41 2022-06-20 01:00:30 44.8053 7.77088 46 ° 57 km/h 8318 m -16.8 m/s 402.80 MHz Carmagnola (IT) 0.00 km FOUND
T1821536 RS41 2022-06-19 13:12:43 45.0109 7.85482 46 ° 6 km/h 806 m -5.2 m/s 402.80 MHz Chieri (IT) 0.00 km FOUND
T1841425 RS41 2022-06-19 01:14:59 44.7483 7.42332 259 ° 9 km/h 1195 m -2.7 m/s 402.80 MHz Barge (IT) 0.00 km UNKNOWN
T1841239 RS41 2022-06-18 13:03:15 44.5098 7.23597 329 ° 7 km/h 1689 m -3.8 m/s 402.80 MHz Busca (IT) 0.00 km UNKNOWN
T1841367 RS41 2022-06-18 00:48:04 44.1928 6.94527 251 ° 11 km/h 3508 m -9.4 m/s 402.80 MHz Borgo San Dalmazzo (IT) 0.00 km UNKNOWN
T1841424 RS41 2022-06-17 12:49:15 43.847 7.46304 16 ° 6 km/h 1215 m -4.1 m/s 402.80 MHz Menton (FR) 0.00 km UNKNOWN
T1841420 RS41 2022-06-17 00:43:02 43.8611 7.56509 233 ° 19 km/h 1572 m -14.6 m/s 402.80 MHz Ventimiglia (IT) 0.00 km UNKNOWN
T1831494 RS41 2022-06-16 12:59:57 43.7479 7.78614 144 ° 4 km/h 1151 m -3.8 m/s 402.80 MHz San Remo (IT) 0.00 km LOST
T1841423 RS41-SG 2022-06-16 00:55:56 43.8845 7.84669 139 ° 44 km/h 5013 m -6.6 m/s 402.80 MHz Taggia (IT) 0.00 km UNKNOWN
T1841428 RS41 2022-06-15 12:47:18 44.1578 7.92941 90 ° 17 km/h 2225 m -9.0 m/s 402.80 MHz Alassio (IT) 0.00 km FOUND
T1841427 RS41 2022-06-15 02:01:54 43.7674 8.31873 92 ° 13 km/h 113 m -2.1 m/s 402.80 MHz Imperia (IT) 0.00 km LOST
T1841254 RS41-SG 2022-06-14 12:08:19 44.1833 7.83457 336 ° 2 km/h 2078 m -9.8 m/s 405.00 MHz Mondovì (IT) 0.00 km UNKNOWN
T1841237 RS41-SG 2022-06-14 00:36:32 44.1135 7.8009 234 ° 7 km/h 2312 m -10.0 m/s 402.80 MHz Mondovì (IT) 0.00 km UNKNOWN
T1841155 RS41 2022-06-13 12:40:06 44.3559 7.96015 108 ° 83 km/h 9713 m -8.5 m/s 402.80 MHz Mondovì (IT) 0.00 km UNKNOWN
T1841642 RS41 2022-06-13 00:30:02 44.3305 7.76801 105 ° 7 km/h 1488 m -12.5 m/s 402.80 MHz Mondovì (IT) 0.00 km FOUND
T1841238 RS41 2022-06-12 12:22:13 44.2019 7.77266 100 ° 9 km/h 2423 m -7.0 m/s 402.80 MHz Mondovì (IT) 0.00 km UNKNOWN
T1841643 RS41 2022-06-12 00:39:56 44.1204 7.57231 233 ° 7 km/h 2629 m -8.3 m/s 405.00 MHz Boves (IT) 0.00 km UNKNOWN
T1841242 RS41 2022-06-11 12:19:57 44.2312 7.91376 203 ° 7 km/h 1531 m -5.4 m/s 402.80 MHz Mondovì (IT) 0.00 km UNKNOWN
T1840335 RS41 2022-06-11 01:57:01 43.7741 8.0412 250 ° 17 km/h 104 m -2.3 m/s 405.00 MHz Imperia (IT) 0.00 km LOST
T1840890 RS41 2022-06-10 12:19:15 43.8297 7.48285 13 ° 19 km/h 1263 m -12.0 m/s 405.00 MHz Menton (FR) 0.00 km UNKNOWN
T1841253 RS41 2022-06-10 00:17:36 43.2819 7.98055 176 ° 106 km/h 5022 m -5.4 m/s 402.80 MHz Bordighera (IT) 0.00 km LOST
T1841252 RS41 2022-06-09 12:20:50 43.2981 8.16086 158 ° 96 km/h 4351 m -6.0 m/s 402.80 MHz San Remo (IT) 0.00 km LOST
T1840876 RS41 2022-06-09 01:09:51 43.4974 8.57636 168 ° 15 km/h 109 m -4.0 m/s 402.80 MHz Imperia (IT) 0.00 km LOST
T1840892 RS41 2022-06-08 12:42:17 44.4774 8.03369 306 ° 28 km/h 798 m -7.0 m/s 402.80 MHz Monesiglio (IT) 0.00 km FOUND
T1841241 RS41 2022-06-08 01:48:16 43.8499 8.58196 216 ° 22 km/h 389 m -2.0 m/s 402.80 MHz Albenga (IT) 0.00 km LOST
T1841417 RS41 2022-06-07 12:35:49 44.4999 8.25416 243 ° 20 km/h 738 m -6.9 m/s 402.80 MHz Cairo Montenotte (IT) 0.00 km UNKNOWN
T1840889 RS41 2022-06-07 01:59:40 44.7917 8.56611 40 ° 13 km/h 344 m -1.7 m/s 402.80 MHz Alessandria (IT) 0.00 km UNKNOWN
T1840878 RS41 2022-06-06 12:47:33 44.8518 8.32842 341 ° 7 km/h 552 m -4.8 m/s 402.80 MHz Nizza Monferrato (IT) 0.00 km UNKNOWN
T1840891 RS41 2022-06-06 00:37:07 44.5903 8.88013 178 ° 13 km/h 1156 m -8.0 m/s 402.80 MHz Serra Riccò (IT) 0.00 km UNKNOWN
T1840893 RS41 2022-06-05 13:10:49 45.4594 9.08112 12 ° 33 km/h 2061 m -3.2 m/s 402.80 MHz Trezzano sul Naviglio (IT) 0.00 km FOUND
T1840877 RS41 2022-06-05 01:14:58 45.2522 8.92309 273 ° 7 km/h 165 m -3.5 m/s 402.80 MHz Gambolò (IT) 0.00 km UNKNOWN
T1840332 RS41 2022-06-04 13:31:22 45.129 9.0085 88 ° 13 km/h 414 m -2.3 m/s 405.000 MHz Garlasco (IT) 0.00 km UNKNOWN
T1831123 RS41 2022-06-04 00:53:57 44.8836 8.57087 161 ° 6 km/h 247 m -7.6 m/s 402.80 MHz Alessandria (IT) 0.00 km UNKNOWN
T1840331 RS41 2022-06-03 12:55:58 45.1565 8.46221 57 ° 4 km/h 296 m -5.4 m/s 402.80 MHz Casale Monferrato (IT) 0.00 km FOUND
T1831124 RS41 2022-06-03 01:25:26 44.7851 8.75138 29 ° 9 km/h 312 m -2.9 m/s 402.80 MHz Novi Ligure (IT) 0.00 km UNKNOWN
T1831126 RS41 2022-06-02 13:19:06 44.829 8.77961 275 ° 4 km/h 1731 m -4.2 m/s 402.80 MHz Novi Ligure (IT) 0.00 km FOUND
T1840334 RS41 2022-06-02 00:49:28 44.6941 8.68099 36 ° 17 km/h 738 m -13.4 m/s 405.00 MHz Ovada (IT) 0.00 km FOUND
T1840333 RS41 2022-06-01 13:01:22 44.6357 9.32749 27 ° 15 km/h 1386 m -3.4 m/s 402.80 MHz Rapallo (IT) 0.00 km UNKNOWN
T1831128 RS41 2022-06-01 01:44:25 44.4247 9.79093 33 ° 17 km/h 1453 m -1.8 m/s 405.00 MHz Aulla (IT) 0.00 km UNKNOWN
T1841216 RS41 2022-05-31 13:37:07 44.39 9.96206 12 ° 11 km/h 1448 m -2.2 m/s 402.80 MHz Aulla (IT) 0.00 km UNKNOWN
T1851044 RS41 2022-05-31 01:46:20 44.718 9.14588 355 ° 6 km/h 1346 m -2.0 m/s 402.80 MHz Serra Riccò (IT) 0.00 km UNKNOWN
T1851041 RS41 2022-05-30 13:01:36 44.8457 8.86815 185 ° 7 km/h 293 m -4.5 m/s 402.80 MHz Tortona (IT) 0.00 km FOUND
T1851040 RS41 2022-05-30 01:14:45 44.7634 8.96634 350 ° 9 km/h 701 m -3.7 m/s 402.80 MHz Novi Ligure (IT) 0.00 km UNKNOWN
T1831125 RS41 2022-05-29 12:27:27 44.4196 8.65304 72 ° 7 km/h 1373 m -6.0 m/s 405.00 MHz Arenzano (IT) 0.00 km UNKNOWN
T1831127 RS41 2022-05-29 02:11:19 44.2068 8.71393 151 ° 63 km/h 94 m -2.6 m/s 402.80 MHz Varazze (IT) 0.00 km LOST
T1840336 RS41 2022-05-28 12:25:43 44.3831 7.83832 176 ° 7 km/h 1285 m -12.0 m/s 402.80 MHz Mondovì (IT) 0.00 km FOUND
T1841626 RS41 2022-05-28 00:53:48 44.3089 7.45403 95 ° 6 km/h 1828 m -6.0 m/s 402.80 MHz Borgo San Dalmazzo (IT) 0.00 km FOUND
T1841214 RS41 2022-05-27 13:16:14 44.4891 7.47465 92 ° 26 km/h 3373 m -3.8 m/s 402.80 MHz Busca (IT) 0.00 km UNKNOWN
T1841298 RS41 2022-05-27 00:42:13 44.6027 7.57574 172 ° 4 km/h 1608 m -8.5 m/s 402.80 MHz Savigliano (IT) 0.00 km FOUND
T1851042 RS41-SG 2022-05-26 13:35:00 44.8128 7.6294 57 ° 13 km/h 365 m -2.0 m/s 405.00 MHz Racconigi (IT) 0.00 km UNKNOWN
T1841213 RS41 2022-05-26 01:09:08 44.5875 7.31713 215 ° 15 km/h 2170 m -3.2 m/s 405.00 MHz Busca (IT) 0.00 km NEED ATTENTION
T1841217 RS41 2022-05-25 12:12:26 44.7648 7.98069 134 ° 2 km/h 541 m -7.5 m/s 402.80 MHz Alba (IT) 0.00 km UNKNOWN
T1851021 RS41 2022-05-25 01:24:40 45.2783 8.61852 199 ° 24 km/h 185 m -3.5 m/s 402.80 MHz Mortara (IT) 0.00 km UNKNOWN
T2040970 RS41 2022-05-24 00:50:27 44.8166 8.20632 346 ° 28 km/h 371 m -10.7 m/s 402.80 MHz Asti (IT) 0.00 km UNKNOWN
T2040866 RS41 2022-05-23 13:07:24 45.1182 8.32886 356 ° 11 km/h 409 m -3.9 m/s 402.80 MHz Casale Monferrato (IT) 0.00 km FOUND
T1851043 RS41-SG 2022-05-23 00:58:56 44.5037 7.91565 3 ° 13 km/h 937 m -5.5 m/s 402.80 MHz Fossano (IT) 0.00 km FOUND
T1851187 RS41 2022-05-22 12:38:09 44.3432 8.02307 347 ° 15 km/h 1114 m -8.3 m/s 402.80 MHz Monesiglio (IT) 0.00 km FOUND
T1841301 RS41 2022-05-22 02:11:15 43.857 8.28078 166 ° 20 km/h 2817 m -2.7 m/s 402.80 MHz Alassio (IT) 0.00 km LOST
T1851022 RS41 2022-05-21 12:21:56 44.254 7.87272 350 ° 4 km/h 1447 m -8.0 m/s 402.80 MHz Mondovì (IT) 0.00 km FOUND
T1841299 RS41 2022-05-21 00:59:49 44.2539 8.06494 96 ° 11 km/h 1363 m -6.6 m/s 402.80 MHz Loano (IT) 0.00 km UNKNOWN
T1841297 RS41 2022-05-20 12:41:07 44.3251 7.83956 136 ° 22 km/h 771 m -4.9 m/s 402.80 MHz Mondovì (IT) 0.00 km FOUND
T1851185 RS41 2022-05-20 01:38:00 44.1988 7.81018 273 ° 11 km/h 1981 m -2.8 m/s 402.80 MHz Mondovì (IT) 0.00 km UNKNOWN
S3141498 RS41 2022-05-19 12:43:24 44.4696 7.81238 189 ° 11 km/h 512 m -6.1 m/s 402.80 MHz Mondovì (IT) 0.00 km FOUND
S3141440 RS41 2022-05-19 00:58:58 44.2956 7.5909 164 ° 4 km/h 1562 m -3.6 m/s 402.80 MHz Boves (IT) 0.00 km UNKNOWN
S3141533 RS41 2022-05-18 12:25:27 44.0213 8.01376 246 ° 28 km/h 1230 m -3.2 m/s 402.80 MHz Alassio (IT) 0.00 km UNKNOWN
S3150066 RS41-SG 2022-05-18 01:09:13 44.1096 7.96646 187 ° 9 km/h 1444 m -2.7 m/s 402.80 MHz Alassio (IT) 0.00 km UNKNOWN
S3210237 RS41-SG 2022-05-17 12:09:58 43.9837 7.93264 332 ° 7 km/h 1504 m -6.8 m/s 405.00 MHz Imperia (IT) 0.00 km UNKNOWN
S3210236 RS41 2022-05-17 01:04:40 43.9593 8.09111 19 ° 9 km/h 988 m -5.6 m/s 402.80 MHz Alassio (IT) 0.00 km UNKNOWN
S3141439 RS41 2022-05-16 12:22:18 44.5871 7.96603 221 ° 4 km/h 957 m -15.2 m/s 405.00 MHz Cherasco (IT) 0.00 km FOUND
S3141497 RS41 2022-05-16 00:56:15 44.5647 7.85875 185 ° 7 km/h 1049 m -7.8 m/s 402.80 MHz Cherasco (IT) 0.00 km FOUND
S3141849 RS41 2022-05-15 12:14:26 44.5685 7.80583 280 ° 13 km/h 1036 m -8.5 m/s 402.80 MHz Fossano (IT) 0.00 km FOUND
S3141850 RS41 2022-05-15 01:01:04 44.4734 7.8269 265 ° 9 km/h 3957 m -13.2 m/s 402.80 MHz Mondovì (IT) 0.00 km FOUND
S3220096 RS41 2022-05-14 12:32:59 44.396 7.98652 262 ° 11 km/h 881 m -5.7 m/s 402.80 MHz Monesiglio (IT) 0.00 km FOUND
S3210235 RS41 2022-05-14 01:27:20 44.599 8.17088 133 ° 19 km/h 900 m -1.9 m/s 402.80 MHz Monesiglio (IT) 0.00 km UNKNOWN
S3220152 RS41 2022-05-13 12:14:48 44.6464 8.14098 333 ° 13 km/h 756 m -8.1 m/s 402.80 MHz Alba (IT) 0.00 km UNKNOWN
S3141500 RS41 2022-05-13 00:31:43 44.6005 8.36566 9 ° 26 km/h 680 m -4.8 m/s 402.80 MHz Acqui Terme (IT) 0.00 km UNKNOWN
S3141499 RS41 2022-05-12 12:12:29 44.6201 8.0584 286 ° 11 km/h 801 m -11.4 m/s 402.80 MHz Alba (IT) 0.00 km UNKNOWN
S3141437 RS41 2022-05-12 01:01:34 44.5793 7.90429 185 ° 7 km/h 1234 m -6.5 m/s 402.80 MHz Cherasco (IT) 0.00 km FOUND
S3141496 RS41 2022-05-11 12:37:31 44.4721 7.53315 229 ° 13 km/h 830 m -6.5 m/s 402.80 MHz Busca (IT) 0.00 km FOUND
S3141438 RS41 2022-05-11 00:27:07 44.1553 7.38784 214 ° 6 km/h 2934 m -9.4 m/s 402.80 MHz Borgo San Dalmazzo (IT) 0.00 km UNKNOWN
S3141495 RS41 2022-05-10 12:21:51 43.942 7.13665 50 ° 9 km/h 1747 m -8.0 m/s 402.80 MHz Carros (FR) 0.00 km UNKNOWN
S3141524 RS41 2022-05-10 01:38:34 43.7869 7.11519 99 ° 6 km/h 1082 m -2.6 m/s 402.80 MHz Carros (FR) 0.00 km UNKNOWN
S3220140 RS41 2022-05-09 12:25:03 44.3325 7.29496 231 ° 11 km/h 2128 m -5.5 m/s 402.80 MHz Borgo San Dalmazzo (IT) 0.00 km FOUND
S3220151 RS41 2022-05-09 00:56:07 44.2618 7.29202 181 ° 15 km/h 2387 m -4.9 m/s 402.80 MHz Borgo San Dalmazzo (IT) 0.00 km UNKNOWN
S3220215 RS41 2022-05-08 12:21:00 44.3321 7.27446 183 ° 6 km/h 1779 m -5.1 m/s 402.800 MHz Borgo San Dalmazzo (IT) 0.00 km FOUND
S3220216 RS41-SG 2022-05-08 01:07:30 44.3477 7.48532 115 ° 6 km/h 810 m -5.5 m/s 405.000 MHz Borgo San Dalmazzo (IT) 0.00 km LOST
S3220154 RS41 2022-05-07 12:52:00 44.3337 7.43172 288 ° 9 km/h 786 m -4.4 m/s 402.800 MHz Borgo San Dalmazzo (IT) 0.00 km FOUND
S3220202 RS41 2022-05-07 01:03:00 44.2602 7.43441 153 ° 13 km/h 1643 m -3.5 m/s 402.800 MHz Borgo San Dalmazzo (IT) 0.00 km UNKNOWN
S3220166 RS41 2022-05-06 01:41:40 44.6811 7.56401 179 ° 43 km/h 899 m -3.6 m/s 402.80 MHz Savigliano (IT) 0.00 km FOUND
S3220156 RS41 2022-05-05 01:37:16 44.8751 8.56786 94 ° 7 km/h 264 m -1.9 m/s 402.80 MHz Alessandria (IT) 0.00 km UNKNOWN
S3220167 RS41-SG 2022-05-04 12:17:47 44.6891 8.24848 226 ° 11 km/h 646 m -12.2 m/s 402.80 MHz Canelli (IT) 0.00 km UNKNOWN
S3220155 RS41 2022-05-04 00:55:09 44.6885 8.06723 21 ° 6 km/h 440 m -4.3 m/s 402.80 MHz Alba (IT) 0.00 km FOUND
S3220153 RS41 2022-05-03 13:12:26 44.7944 8.1001 262 ° 11 km/h 332 m -3.6 m/s 402.80 MHz Alba (IT) 0.00 km FOUND
S3220142 RS41 2022-05-03 01:03:12 44.5124 7.98756 113 ° 19 km/h 1090 m -5.3 m/s 402.80 MHz Monesiglio (IT) 0.00 km FOUND
S3220165 RS41 2022-05-02 12:44:16 44.3274 8.06228 347 ° 11 km/h 899 m -5.5 m/s 402.80 MHz Monesiglio (IT) 0.00 km FOUND
S3220163 RS41 2022-05-02 01:04:16 44.0141 8.0896 152 ° 17 km/h 1300 m -5.4 m/s 402.80 MHz Alassio (IT) 0.00 km UNKNOWN
S3220547 RS41 2022-05-01 12:54:16 43.4922 8.15272 174 ° 26 km/h 3161 m -3.4 m/s 402.80 MHz Imperia (IT) 0.00 km LOST
S3220139 RS41 2022-05-01 01:19:47 44.0549 8.15599 179 ° 13 km/h 1438 m -3.0 m/s 402.80 MHz Albenga (IT) 0.00 km UNKNOWN
S3220143 RS41 2022-04-30 12:43:20 44.4447 8.27762 225 ° 11 km/h 555 m -7.0 m/s 402.80 MHz Cairo Montenotte (IT) 0.00 km UNKNOWN
S3220203 RS41 2022-04-30 01:28:33 44.444 8.31751 136 ° 17 km/h 965 m -3.7 m/s 405.001 MHz Cairo Montenotte (IT) 0.00 km UNKNOWN
S3220164 RS41 2022-04-29 12:25:28 44.2734 7.61714 269 ° 7 km/h 1799 m -7.1 m/s 402.80 MHz Boves (IT) 0.00 km UNKNOWN
S3220535 RS41 2022-04-29 01:47:17 44.06 7.26963 165 ° 6 km/h 2255 m -2.8 m/s 402.80 MHz Contes (FR) 0.00 km UNKNOWN
S3220141 RS41 2022-04-28 12:37:43 44.2215 8.02775 152 ° 30 km/h 1519 m -6.8 m/s 402.80 MHz Loano (IT) 0.00 km UNKNOWN
S3220536 RS41-SG 2022-04-28 01:01:21 44.2728 8.25462 177 ° 19 km/h 807 m -2.8 m/s 402.80 MHz Finale Ligure (IT) 0.00 km UNKNOWN
S3220173 RS41 2022-04-27 12:33:50 44.4673 8.27947 323 ° 7 km/h 631 m -8.6 m/s 402.80 MHz Cairo Montenotte (IT) 0.00 km UNKNOWN
S3220526 RS41 2022-04-27 00:47:10 44.4386 8.96056 336 ° 11 km/h 445 m -7.6 m/s 402.80 MHz Genoa (IT) 0.00 km UNKNOWN
S3220171 RS41 2022-04-26 13:35:42 44.5564 9.40934 43 ° 17 km/h 1837 m -3.2 m/s 405.00 MHz Rapallo (IT) 0.00 km UNKNOWN
S3220551 RS41 2022-04-26 01:20:41 44.3792 8.65697 257 ° 24 km/h 76 m -4.3 m/s 402.80 MHz Cogoleto (IT) 0.00 km LOST
S3220549 RS41 2022-04-25 01:10:15 44.5827 8.26697 350 ° 19 km/h 1129 m -6.1 m/s 405.00 MHz Canelli (IT) 0.00 km UNKNOWN
S3220538 RS41-SG 2022-04-24 02:06:44 45.3867 8.35726 289 ° 26 km/h 261 m -1.8 m/s 402.80 MHz Vercelli (IT) 0.00 km UNKNOWN
S3220529 RS41 2022-04-23 00:49:33 44.9991 8.16248 315 ° 26 km/h 432 m -7.1 m/s 402.80 MHz Asti (IT) 0.00 km UNKNOWN
S3220578 RS41 2022-04-22 01:05:11 44.7585 7.32229 142 ° 20 km/h 1153 m -3.9 m/s 402.80 MHz Barge (IT) 0.00 km UNKNOWN
S3141511 RS41-SG 2022-04-21 00:53:41 44.7867 7.52304 202 ° 13 km/h 758 m -9.3 m/s 402.80 MHz Racconigi (IT) 0.00 km UNKNOWN
S3220546 RS41-SG 2022-04-20 12:37:26 44.6759 8.0081 179 ° 11 km/h 539 m -7.3 m/s 402.80 MHz Alba (IT) 0.00 km FOUND
S3220590 RS41 2022-04-20 01:04:30 44.322 8.08735 210 ° 2 km/h 2018 m -5.8 m/s 405.00 MHz Monesiglio (IT) 0.00 km UNKNOWN
S3220550 RS41 2022-04-19 12:29:40 44.0444 8.06172 34 ° 7 km/h 1447 m -5.2 m/s 402.80 MHz Alassio (IT) 0.00 km UNKNOWN
S3220527 RS41 2022-04-19 00:31:21 43.8819 7.67475 85 ° 11 km/h 2703 m -8.1 m/s 402.80 MHz San Remo (IT) 0.00 km UNKNOWN
S3220531 RS41-SG 2022-04-18 12:16:42 43.9127 7.36542 189 ° 26 km/h 4735 m -10.1 m/s 402.80 MHz Contes (FR) 0.00 km UNKNOWN
S3220523 RS41 2022-04-18 00:46:50 43.3944 7.45855 172 ° 76 km/h 5219 m -5.2 m/s 402.800 MHz Antibes (FR) 0.00 km LOST
S3220528 RS41 2022-04-17 13:48:53 42.9461 6.36923 203 ° 41 km/h 2901 m -2.6 m/s 402.80 MHz Le Lavandou (FR) 0.00 km LOST
S3220539 RS41 2022-04-17 01:15:52 43.5559 7.145 190 ° 52 km/h 16912 m -18.9 m/s 402.800 MHz Antibes (FR) 0.00 km LOST
S3220540 RS41 2022-04-16 12:38:00 43.7645 7.59721 214 ° 37 km/h 3808 m -4.5 m/s 402.800 MHz Ventimiglia (IT) 0.00 km LOST
S3220524 RS41 2022-04-16 00:55:46 43.9128 7.52384 159 ° 20 km/h 3670 m -2.2 m/s 402.800 MHz Ventimiglia (IT) 0.00 km UNKNOWN
S3220174 RS41 2022-04-15 12:16:08 44.2054 7.48272 204 ° 13 km/h 3561 m -5.8 m/s 402.80 MHz Borgo San Dalmazzo (IT) 0.00 km UNKNOWN
S3220169 RS41 2022-04-15 00:51:59 44.2119 7.68958 170 ° 9 km/h 2187 m -4.8 m/s 402.80 MHz Boves (IT) 0.00 km UNKNOWN
S3220525 RS41 2022-04-14 13:01:58 44.371 7.65551 216 ° 17 km/h 646 m -2.6 m/s 402.80 MHz Cuneo (IT) 0.00 km FOUND
S3220201 RS41 2022-04-14 01:08:27 44.4086 7.53256 331 ° 4 km/h 1081 m -1.9 m/s 402.80 MHz Cuneo (IT) 0.00 km FOUND
S3220120 RS41 2022-04-13 13:30:02 44.6332 7.62636 289 ° 9 km/h 419 m -3.1 m/s 402.80 MHz Savigliano (IT) 0.00 km FOUND
S3220044 RS41 2022-04-13 01:38:13 44.7456 7.95649 60 ° 2 km/h 682 m -2.1 m/s 402.80 MHz Alba (IT) 0.00 km UNKNOWN
S3220116 RS41 2022-04-12 13:10:33 44.8266 8.45085 336 ° 6 km/h 640 m -2.8 m/s 402.80 MHz Nizza Monferrato (IT) 0.00 km UNKNOWN
S3220168 RS41 2022-04-12 00:23:20 44.5278 8.34167 344 ° 24 km/h 746 m -13.3 m/s 402.80 MHz Cairo Montenotte (IT) 0.00 km UNKNOWN
S3220047 RS41-SG 2022-04-11 12:45:17 44.2944 8.87261 327 ° 11 km/h 140 m -4.2 m/s 402.80 MHz Genoa (IT) 0.00 km LOST
S3220170 RS41 2022-04-11 00:34:26 44.1413 9.16047 346 ° 17 km/h 1900 m -6.7 m/s 402.80 MHz Santa Margherita Ligure (IT) 0.00 km LOST
S3220118 RS41 2022-04-10 12:21:12 43.2927 9.24069 110 ° 11 km/h 470 m -3.0 m/s 402.80 MHz Bastia (FR) 0.00 km LOST
S3220115 RS41 2022-04-10 00:36:02 43.6118 8.73769 179 ° 44 km/h 238 m -5.5 m/s 402.800 MHz Alassio (IT) 0.00 km LOST
S3220119 RS41 2022-04-09 12:05:03 44.4672 8.83285 17 ° 15 km/h 700 m -11.2 m/s 402.80 MHz Serra Riccò (IT) 0.00 km UNKNOWN
S3210252 RS41 2022-04-09 01:19:26 44.6953 10.4148 29 ° 57 km/h 160 m -1.8 m/s 402.800 MHz Montechiarugolo (IT) 0.00 km FOUND
S3210209 RS41 2022-04-08 12:03:53 44.5024 9.26245 5 ° 52 km/h 1600 m -8.6 m/s 402.80 MHz Rapallo (IT) 0.00 km UNKNOWN
S3220117 RS41-SG 2022-04-08 00:16:49 44.2203 9.44166 315 ° 26 km/h 347 m -5.9 m/s 402.80 MHz Sestri Levante (IT) 0.00 km LOST
S3220048 RS41 2022-04-07 12:26:02 43.953 8.8976 325 ° 22 km/h 182 m -6.6 m/s 402.80 MHz Santa Margherita Ligure (IT) 0.00 km LOST
S3210205 RS41 2022-04-07 00:54:17 44.144 8.64691 39 ° 9 km/h 229 m -4.7 m/s 402.80 MHz Vado Ligure (IT) 0.00 km LOST
S3420828 RS41 2022-04-06 12:16:50 44.5645 8.19506 186 ° 7 km/h 801 m -6.3 m/s 402.80 MHz Monesiglio (IT) 0.00 km FOUND
S3511146 RS41 2022-04-06 00:29:34 44.327 8.36606 307 ° 15 km/h 863 m -13.4 m/s 402.80 MHz Vado Ligure (IT) 0.00 km UNKNOWN
S3511143 RS41 2022-04-05 12:18:06 44.2481 8.3434 36 ° 7 km/h 1483 m -4.2 m/s 405.00 MHz Vado Ligure (IT) 0.00 km FOUND
S3430664 RS41 2022-04-04 00:34:15 44.2231 8.82318 216 ° 20 km/h 162 m -3.3 m/s 402.80 MHz Genoa (IT) 0.00 km LOST
S3430670 RS41 2022-04-03 00:42:31 44.1013 8.64154 162 ° 26 km/h 231 m -7.1 m/s 402.800 MHz Vado Ligure (IT) 0.00 km LOST
S3511162 RS41 2022-04-02 00:18:09 44.3734 8.39066 290 ° 33 km/h 892 m -16.8 m/s 402.80 MHz Cairo Montenotte (IT) 0.00 km UNKNOWN
S3511147 RS41 2022-04-01 00:30:20 44.5689 9.11045 345 ° 24 km/h 1576 m -14.7 m/s 402.80 MHz Serra Riccò (IT) 0.00 km UNKNOWN
S3511148 RS41 2022-03-31 00:20:22 44.7074 8.52429 169 ° 28 km/h 292 m -4.1 m/s 402.80 MHz Acqui Terme (IT) 0.00 km UNKNOWN
S3430667 RS41 2022-03-30 12:26:26 44.327 8.95183 160 ° 6 km/h 234 m -5.7 m/s 402.80 MHz Genoa (IT) 0.00 km LOST
S3210208 RS41 2022-03-30 00:14:36 44.3873 8.90876 41 ° 26 km/h 2215 m -12.1 m/s 405.001 MHz Genoa (IT) 0.00 km LOST
S3430665 RS41-SG 2022-03-29 12:33:24 44.2598 9.17653 33 ° 24 km/h 1887 m -6.0 m/s 405.000 MHz Santa Margherita Ligure (IT) 0.00 km LOST
S3511149 RS41 2022-03-29 00:52:16 44.216 8.84616 262 ° 15 km/h 57 m -5.7 m/s 402.80 MHz Genoa (IT) 0.00 km LOST
S3430662 RS41 2022-03-28 12:52:01 44.0177 8.74058 107 ° 6 km/h 168 m -2.8 m/s 402.80 MHz Finale Ligure (IT) 0.00 km LOST
S3511150 RS41 2022-03-28 00:58:20 43.9824 8.21398 169 ° 39 km/h 255 m -3.4 m/s 402.80 MHz Alassio (IT) 0.00 km LOST
S3420557 RS41-SG 2022-03-27 13:25:20 44.1339 7.96973 182 ° 48 km/h 1910 m -5.0 m/s 402.80 MHz Alassio (IT) 0.00 km UNKNOWN
S3430669 RS41 2022-03-27 01:37:07 44.5635 7.77047 135 ° 9 km/h 471 m -3.4 m/s 402.80 MHz Fossano (IT) 0.00 km FOUND
S3430666 RS41 2022-03-26 13:40:30 44.4883 8.60638 197 ° 19 km/h 943 m -3.9 m/s 402.80 MHz Arenzano (IT) 0.00 km FOUND
S3430668 RS41 2022-03-26 02:28:27 44.2719 8.80009 358 ° 6 km/h 132 m -3.8 m/s 402.800 MHz Arenzano (IT) 0.00 km LOST
S3510562 RS41 2022-03-25 13:36:41 44.3133 8.40757 304 ° 13 km/h 632 m -7.7 m/s 402.80 MHz Vado Ligure (IT) 0.00 km UNKNOWN
S3511159 RS41 2022-03-25 01:51:07 44.2081 8.17628 358 ° 6 km/h 1346 m -7.9 m/s 402.80 MHz Pietra Ligure (IT) 0.00 km UNKNOWN
S3430661 RS41 2022-03-24 13:54:33 44.4544 7.87766 113 ° 7 km/h 574 m -3.4 m/s 402.80 MHz Mondovì (IT) 0.00 km FOUND
S3420556 RS41-SG 2022-03-24 02:21:36 44.3999 7.54434 27 ° 22 km/h 733 m -2.0 m/s 402.80 MHz Cuneo (IT) 0.00 km UNKNOWN
S3420544 RS41 2022-03-23 13:17:08 44.6507 7.50332 184 ° 6 km/h 397 m -5.2 m/s 402.80 MHz Saluzzo (IT) 0.00 km FOUND
S3420541 RS41 2022-03-23 02:16:02 44.34 7.47699 297 ° 24 km/h 5190 m -7.0 m/s 402.80 MHz Borgo San Dalmazzo (IT) 0.00 km FOUND
S3420545 RS41 2022-03-22 13:49:28 44.6365 7.2349 255 ° 17 km/h 1834 m -2.6 m/s 402.80 MHz Barge (IT) 0.00 km UNKNOWN
S3510559 RS41 2022-03-22 02:28:31 44.3188 7.12151 250 ° 17 km/h 2303 m -3.1 m/s 402.80 MHz Borgo San Dalmazzo (IT) 0.00 km UNKNOWN
S3510561 RS41 2022-03-21 13:55:44 44.4597 7.04869 214 ° 6 km/h 2651 m -4.2 m/s 402.80 MHz Busca (IT) 0.00 km UNKNOWN
S3510564 RS41 2022-03-21 02:00:15 43.9992 7.49431 221 ° 11 km/h 2933 m -3.3 m/s 402.80 MHz Menton (FR) 0.00 km UNKNOWN
S3420992 RS41 2022-03-20 13:01:48 44.3917 7.61124 228 ° 7 km/h 689 m -6.8 m/s 402.80 MHz Cuneo (IT) 0.00 km UNKNOWN
S3420543 RS41 2022-03-20 02:19:22 44.1617 7.85398 145 ° 56 km/h 1909 m -6.5 m/s 402.80 MHz Mondovì (IT) 0.00 km UNKNOWN
S3420555 RS41 2022-03-19 13:36:30 44.323 7.42155 180 ° 7 km/h 1091 m -4.6 m/s 405.000 MHz Borgo San Dalmazzo (IT) 0.00 km LOST
S3510574 RS41 2022-03-19 01:46:00 44.3301 6.96196 267 ° 43 km/h 2935 m -4.4 m/s 402.80 MHz Borgo San Dalmazzo (IT) 0.00 km UNKNOWN
S3510560 RS41 2022-03-18 13:36:33 44.3897 7.14346 262 ° 24 km/h 2374 m -2.1 m/s 402.80 MHz Borgo San Dalmazzo (IT) 0.00 km UNKNOWN
S3430632 RS41 2022-03-18 02:05:27 44.4754 7.26995 221 ° 9 km/h 1493 m -5.1 m/s 402.80 MHz Busca (IT) 0.00 km UNKNOWN
S3420920 RS41 2022-03-17 13:44:00 44.5069 7.42024 164 ° 6 km/h 1147 m -5.5 m/s 402.80 MHz Busca (IT) 0.00 km FOUND
S3420768 RS41 2022-03-17 03:10:31 44.605 7.55726 175 ° 11 km/h 441 m -1.8 m/s 402.80 MHz Saluzzo (IT) 0.00 km FOUND
S3420558 RS41 2022-03-16 13:41:27 44.556 7.85188 290 ° 7 km/h 537 m -3.9 m/s 402.80 MHz Fossano (IT) 0.00 km FOUND
S3421591 RS41 2022-03-16 03:11:48 44.2906 8.40407 41 ° 11 km/h 157 m -2.4 m/s 402.80 MHz Vado Ligure (IT) 0.00 km UNKNOWN
S3420981 RS41 2022-03-15 13:31:11 44.5743 8.73951 88 ° 6 km/h 1035 m -6.9 m/s 402.80 MHz Ovada (IT) 0.00 km UNKNOWN
S3420994 RS41 2022-03-15 02:31:40 44.6617 9.34691 218 ° 9 km/h 1115 m -2.6 m/s 402.80 MHz Rapallo (IT) 0.00 km UNKNOWN
S3320760 RS41 2022-03-14 01:53:56 44.4597 8.57877 162 ° 15 km/h 1013 m -7.1 m/s 402.80 MHz Cogoleto (IT) 0.00 km FOUND
S3320757 RS41 2022-03-13 14:21:48 44.6013 8.34102 243 ° 11 km/h 482 m -2.4 m/s 402.80 MHz Acqui Terme (IT) 0.00 km UNKNOWN
S3320733 RS41 2022-03-13 02:00:52 44.1807 8.06395 159 ° 35 km/h 1370 m -7.4 m/s 402.80 MHz Loano (IT) 0.00 km UNKNOWN
S3320725 RS41 2022-03-12 13:41:55 44.5396 8.17747 132 ° 20 km/h 757 m -5.4 m/s 402.800 MHz Monesiglio (IT) 0.00 km UNKNOWN
S3320709 RS41 2022-03-12 03:06:55 44.183 9.31817 151 ° 11 km/h 101 m -1.9 m/s 402.80 MHz Sestri Levante (IT) 0.00 km LOST
S3420731 RS41 2022-03-11 13:59:36 44.3974 9.47543 234 ° 15 km/h 1467 m -1.8 m/s 402.80 MHz Lavagna (IT) 0.00 km UNKNOWN
S3320762 RS41 2022-03-11 01:17:30 44.6726 8.08272 121 ° 2 km/h 635 m -3.4 m/s 402.800 MHz Alba (IT) 0.00 km FOUND
S3320495 RS41 2022-03-10 14:10:40 44.834 8.83484 208 ° 9 km/h 239 m -3.7 m/s 402.80 MHz Tortona (IT) 0.00 km FOUND
S3320590 RS41 2022-03-10 01:31:10 44.6662 8.27638 27 ° 11 km/h 599 m -8.2 m/s 402.800 MHz Canelli (IT) 0.00 km UNKNOWN
S3320759 RS41 2022-03-09 14:29:44 44.5411 7.88748 119 ° 13 km/h 518 m -1.9 m/s 402.80 MHz Cherasco (IT) 0.00 km FOUND
S3320530 RS41 2022-03-09 01:32:08 44.3461 7.80633 99 ° 6 km/h 796 m -7.4 m/s 402.80 MHz Mondovì (IT) 0.00 km FOUND
S3320766 RS41 2022-03-08 13:28:37 44.2411 7.90443 95 ° 9 km/h 1457 m -4.0 m/s 402.80 MHz Mondovì (IT) 0.00 km UNKNOWN
S3320551 RS41 2022-03-08 01:31:45 44.179 7.84623 177 ° 15 km/h 2251 m -8.5 m/s 402.80 MHz Mondovì (IT) 0.00 km UNKNOWN
S3320768 RS41 2022-03-07 13:05:20 44.1288 7.76491 119 ° 11 km/h 2608 m -2.8 m/s 402.800 MHz Boves (IT) 0.00 km UNKNOWN
S3320724 RS41 2022-03-07 01:40:39 43.7845 7.75765 204 ° 22 km/h 2867 m -9.3 m/s 402.800 MHz San Remo (IT) 0.00 km LOST
S3320543 RS41 2022-03-05 01:46:06 43.7037 7.51453 155 ° 31 km/h 4084 m -9.9 m/s 402.80 MHz Menton (FR) 0.00 km LOST
S3320545 RS41 2022-03-04 13:33:14 43.6636 7.6223 154 ° 78 km/h 3939 m -4.6 m/s 402.80 MHz Bordighera (IT) 0.00 km LOST
S3320593 RS41 2022-03-04 01:54:37 43.8753 7.89967 89 ° 17 km/h 823 m -7.4 m/s 402.80 MHz Taggia (IT) 0.00 km FOUND
S3320761 RS41 2022-03-03 14:00:22 44.0388 7.57043 152 ° 19 km/h 2841 m -4.9 m/s 402.80 MHz Ventimiglia (IT) 0.00 km UNKNOWN
S3320592 RS41-SG 2022-03-03 02:46:43 44.1227 7.72679 187 ° 15 km/h 2605 m -4.1 m/s 402.80 MHz Boves (IT) 0.00 km UNKNOWN
S3420734 RS41 2022-03-02 13:30:01 44.1184 7.81987 83 ° 6 km/h 2236 m -6.1 m/s 402.80 MHz Mondovì (IT) 0.00 km UNKNOWN
S3420724 RS41-SG 2022-03-02 02:19:48 43.4888 7.60292 171 ° 52 km/h 4175 m -2.6 m/s 402.80 MHz Monaco (MC) 0.00 km LOST
S3420735 RS41 2022-03-01 13:33:04 43.4722 7.30369 198 ° 87 km/h 5521 m -3.9 m/s 402.80 MHz Antibes (FR) 0.00 km LOST
S3420646 RS41 2022-03-01 01:34:00 43.7449 7.38596 189 ° 67 km/h 4631 m -6.3 m/s 405.001 MHz Beausoleil (FR) 0.00 km UNKNOWN
S3420725 RS41 2022-02-28 12:46:36 44.0197 7.1901 223 ° 43 km/h 4574 m -6.8 m/s 402.80 MHz Contes (FR) 0.00 km UNKNOWN
S3420733 RS41-SG 2022-02-28 01:35:08 44.0664 7.02771 234 ° 30 km/h 3718 m -7.4 m/s 402.80 MHz Carros (FR) 0.00 km UNKNOWN
S3231488 RS41 2022-02-27 14:30:18 43.4667 7.82926 208 ° 48 km/h 3310 m -1.5 m/s 402.80 MHz Bordighera (IT) 0.00 km LOST
S3420723 RS41-SG 2022-02-27 02:20:50 43.4874 7.54356 176 ° 81 km/h 4751 m -2.0 m/s 402.800 MHz Monaco (MC) 0.00 km LOST
S3420732 RS41 2022-02-26 13:44:00 43.5679 7.54187 197 ° 141 km/h 5304 m -6.5 m/s 402.80 MHz Monaco (MC) 0.00 km LOST
S3420744 RS41 2022-02-26 03:02:10 43.264 9.01421 202 ° 57 km/h 145 m -2.6 m/s 402.80 MHz Bastia (FR) 0.00 km LOST
S3420741 RS41 2022-02-25 14:12:10 44.5193 9.68933 207 ° 17 km/h 1456 m -3.9 m/s 402.800 MHz Lavagna (IT) 0.00 km UNKNOWN
S3420721 RS41 2022-02-25 01:33:00 44.4197 9.48536 80 ° 19 km/h 1845 m -5.8 m/s 402.800 MHz Lavagna (IT) 0.00 km UNKNOWN
S3420743 RS41 2022-02-24 13:34:30 45.0027 8.84501 64 ° 6 km/h 147 m -4.4 m/s 402.80 MHz Tortona (IT) 0.00 km FOUND
S3420742 RS41 2022-02-24 01:56:09 44.5828 9.1254 354 ° 22 km/h 1299 m -3.7 m/s 402.80 MHz Serra Riccò (IT) 0.00 km UNKNOWN
S3420722 RS41 2022-02-23 13:11:11 44.1929 8.41881 56 ° 4 km/h 540 m -9.3 m/s 402.80 MHz Finale Ligure (IT) 0.00 km NEED ATTENTION
S3420736 RS41 2022-02-23 01:40:54 43.6135 8.50183 176 ° 63 km/h 3944 m -4.1 m/s 404.00 MHz Imperia (IT) 0.00 km LOST
S3420738 RS41 2022-02-22 13:19:28 43.3898 8.0769 172 ° 107 km/h 4827 m -5.5 m/s 402.80 MHz San Remo (IT) 0.00 km LOST
S3420739 RS41 2022-02-22 01:27:16 43.4665 7.74732 168 ° 180 km/h 11719 m -30.3 m/s 402.80 MHz Bordighera (IT) 0.00 km LOST
T1840703 RS41 2022-02-21 14:00:07 44.1454 9.19991 172 ° 57 km/h 779 m -2.2 m/s 402.800 MHz Sestri Levante (IT) 0.00 km LOST
T1850090 RS41 2022-02-21 01:59:09 44.4239 8.77633 336 ° 15 km/h 74 m -5.8 m/s 402.80 MHz Arenzano (IT) 0.00 km UNKNOWN
T1840316 RS41 2022-02-20 13:15:03 44.1748 8.16013 121 ° 11 km/h 1888 m -13.5 m/s 402.80 MHz Loano (IT) 0.00 km UNKNOWN
S3420737 RS41 2022-02-20 01:42:49 44.4106 9.11705 277 ° 11 km/h 844 m -1.8 m/s 402.80 MHz Recco (IT) 0.00 km UNKNOWN
S3420740 RS41 2022-02-19 12:57:42 45.1253 9.53841 69 ° 11 km/h 173 m -6.6 m/s 402.800 MHz Rottofreno (IT) 0.00 km UNKNOWN
T1840313 RS41-SG 2022-02-19 01:44:11 45.208 9.75658 87 ° 15 km/h 123 m -4.2 m/s 402.800 MHz Codogno (IT) 0.00 km FOUND
T1840525 RS41 2022-02-18 13:18:28 44.6015 9.23164 355 ° 28 km/h 1638 m -2.5 m/s 402.80 MHz Serra Riccò (IT) 0.00 km UNKNOWN
T1840363 RS41 2022-02-18 02:33:25 43.6451 9.26579 346 ° 15 km/h 81 m -5.0 m/s 402.80 MHz La Spezia (IT) 0.00 km LOST
T1840318 RS41 2022-02-17 14:51:17 42.9527 9.33856 53 ° 31 km/h 790 m -2.8 m/s 402.80 MHz Bastia (FR) 0.00 km LOST
T1840319 RS41 2022-02-17 02:00:44 43.2672 8.28033 168 ° 59 km/h 4636 m -4.8 m/s 402.80 MHz Imperia (IT) 0.00 km LOST
T1840315 RS41 2022-02-16 13:29:04 43.2228 8.07068 174 ° 76 km/h 5364 m -4.7 m/s 402.80 MHz Bordighera (IT) 0.00 km LOST
T1840320 RS41-SG 2022-02-16 02:25:20 42.8743 8.54546 171 ° 98 km/h 6055 m -2.6 m/s 402.800 MHz Calvi (FR) 0.00 km LOST
T1840317 RS41-SG 2022-02-15 03:06:14 45.3022 9.05918 194 ° 6 km/h 203 m -1.7 m/s 402.800 MHz Casorate Primo (IT) 0.00 km FOUND
T1841038 RS41-SG 2022-02-14 14:06:50 44.9582 9.48542 240 ° 7 km/h 273 m -2.9 m/s 402.80 MHz Borgonovo Val Tidone (IT) 0.00 km UNKNOWN
T1840553 RS41-SG 2022-02-14 02:53:45 44.4626 9.40785 40 ° 22 km/h 1645 m -1.9 m/s 402.80 MHz Lavagna (IT) 0.00 km UNKNOWN
T1840314 RS41 2022-02-13 14:05:23 44.5432 9.46972 17 ° 11 km/h 1749 m -4.5 m/s 402.80 MHz Lavagna (IT) 0.00 km FOUND
T1840321 RS41 2022-02-13 02:15:39 44.417 9.47367 257 ° 6 km/h 1777 m -3.8 m/s 402.80 MHz Lavagna (IT) 0.00 km UNKNOWN
T1840938 RS41 2022-02-12 03:06:44 44.047 9.86492 199 ° 44 km/h 263 m -1.8 m/s 402.80 MHz Lerici (IT) 0.00 km LOST
T1850835 RS41 2022-02-11 13:36:22 44.9588 10.4043 117 ° 7 km/h 89 m -10.3 m/s 402.80 MHz Casalmaggiore (IT) 0.00 km FOUND
T1841037 RS41 2022-02-11 01:54:19 45.1379 10.3077 265 ° 4 km/h 92 m -9.0 m/s 402.80 MHz Asola (IT) 0.00 km UNKNOWN
T1841046 RS41 2022-02-10 14:00:15 45.2137 9.83892 98 ° 7 km/h 130 m -3.2 m/s 402.80 MHz Soresina (IT) 0.00 km UNKNOWN
T1850917 RS41-SG 2022-02-10 03:15:03 45.1461 9.51552 85 ° 6 km/h 207 m -2.0 m/s 402.80 MHz Rottofreno (IT) 0.00 km FOUND
S3220400 RS41 2022-02-09 14:19:13 44.4292 8.39484 332 ° 52 km/h 857 m -5.4 m/s 402.80 MHz Cairo Montenotte (IT) 0.00 km UNKNOWN
T1840707 RS41 2022-02-09 02:56:36 43.8621 8.40688 34 ° 31 km/h 184 m -2.1 m/s 402.80 MHz Alassio (IT) 0.00 km LOST
T1840706 RS41 2022-02-08 13:58:02 43.4779 7.92386 190 ° 46 km/h 2671 m -4.2 m/s 402.80 MHz Bordighera (IT) 0.00 km LOST
T1840526 RS41 2022-02-08 02:09:26 42.9871 7.97754 185 ° 130 km/h 7739 m -3.8 m/s 402.80 MHz Calvi (FR) 0.00 km LOST
T1840524 RS41 2022-02-07 13:41:52 43.1484 8.63476 156 ° 107 km/h 5313 m -5.0 m/s 402.80 MHz Calvi (FR) 0.00 km LOST
T1840704 RS41-SG 2022-02-07 02:16:14 43.6159 9.35251 67 ° 46 km/h 545 m -3.5 m/s 402.80 MHz La Spezia (IT) 0.00 km LOST
T1840708 RS41 2022-02-06 13:51:04 44.29 9.04656 48 ° 44 km/h 1783 m -7.0 m/s 402.80 MHz Recco (IT) 0.00 km LOST
T1840523 RS41 2022-02-06 01:31:07 44.3074 8.55158 145 ° 6 km/h 111 m -7.7 m/s 402.800 MHz Savona (IT) 0.00 km LOST
T1840527 RS41 2022-02-05 14:23:28 44.2249 9.3626 66 ° 4 km/h 484 m -3.7 m/s 402.80 MHz Sestri Levante (IT) 0.00 km LOST
T1840709 RS41-SG 2022-02-05 02:54:59 44.0849 10.6004 88 ° 13 km/h 1860 m -1.7 m/s 402.800 MHz Barga (IT) 0.00 km UNKNOWN
T1840003 RS41 2022-02-04 14:01:32 44.0707 9.74307 13 ° 17 km/h 1012 m -4.3 m/s 402.800 MHz La Spezia (IT) 0.00 km LOST
T1840871 RS41 2022-02-04 02:08:00 43.6062 10.5021 38 ° 22 km/h 1225 m -10.7 m/s 402.800 MHz Colle Salvetti (IT) 0.00 km FOUND
T1840528 RS41 2022-02-03 14:02:15 43.4652 10.1545 83 ° 4 km/h 1375 m -5.3 m/s 402.800 MHz Livorno (IT) 0.00 km LOST
T1840004 RS41 2022-02-03 01:54:00 42.9877 10.1421 167 ° 44 km/h 1980 m -4.7 m/s 402.80 MHz Portoferraio (IT) 0.00 km LOST
T1840849 RS41 2022-02-02 12:56:46 42.7848 8.78479 174 ° 148 km/h 5518 m -4.9 m/s 402.800 MHz Calvi (FR) 0.00 km LOST
S3220390 RS41 2022-02-02 02:29:57 42.0987 10.791 71 ° 11 km/h 423 m -3.1 m/s 402.800 MHz Orbetello (IT) 0.00 km LOST
S3220599 RS41 2022-02-01 13:17:10 42.2931 8.39069 196 ° 185 km/h 7206 m -4.3 m/s 402.800 MHz Calvi (FR) 0.00 km LOST
S3220413 RS41 2022-02-01 02:06:28 42.0415 9.42327 187 ° 65 km/h 3252 m -4.0 m/s 402.80 MHz Corte (FR) 0.00 km UNKNOWN
T1840705 RS41 2022-01-31 14:30:17 43.1185 11.5394 86 ° 24 km/h 1164 m -1.8 m/s 402.800 MHz Sinalunga (IT) 0.00 km UNKNOWN
T1840712 RS41 2022-01-31 01:57:03 43.9943 9.71231 121 ° 28 km/h 2516 m -3.4 m/s 402.80 MHz La Spezia (IT) 0.00 km LOST
S3220387 RS41-SG 2022-01-30 13:16:20 43.8335 9.11819 49 ° 33 km/h 692 m -16.2 m/s 402.80 MHz Sestri Levante (IT) 0.00 km LOST
T1840713 RS41 2022-01-30 02:27:15 43.3347 9.09105 43 ° 48 km/h 1166 m -2.5 m/s 402.80 MHz Bastia (FR) 0.00 km LOST
T1840714 RS41 2022-01-29 13:03:26 43.7458 7.72733 209 ° 46 km/h 4565 m -10.8 m/s 402.800 MHz Bordighera (IT) 0.00 km LOST
T1840711 RS41 2022-01-29 02:13:02 43.4424 8.29419 200 ° 135 km/h 8849 m -3.0 m/s 402.80 MHz Imperia (IT) 0.00 km LOST
T1851090 RS41 2022-01-28 13:05:08 43.4963 8.08883 179 ° 83 km/h 3832 m -6.4 m/s 402.80 MHz Taggia (IT) 0.00 km LOST
S3220388 RS41 2022-01-28 01:20:28 44.1953 8.39133 21 ° 13 km/h 534 m -2.9 m/s 402.80 MHz Finale Ligure (IT) 0.00 km UNKNOWN
S3220391 RS41 2022-01-27 01:46:30 44.04 7.62942 221 ° 31 km/h 3554 m -9.6 m/s 405.00 MHz San Remo (IT) 0.00 km UNKNOWN
S3220389 RS41 2022-01-26 01:50:00 44.0906 8.4647 95 ° 7 km/h 121 m -3.9 m/s 402.80 MHz Finale Ligure (IT) 0.00 km LOST
S3220385 RS41 2022-01-25 13:25:08 44.0133 7.73694 152 ° 9 km/h 2217 m -4.8 m/s 402.800 MHz Taggia (IT) 0.00 km UNKNOWN
S3150128 RS41 2022-01-25 01:34:53 43.9016 7.93248 309 ° 6 km/h 1108 m -5.9 m/s 402.800 MHz Imperia (IT) 0.00 km UNKNOWN
S3220393 RS41 2022-01-24 13:34:36 43.952 7.76764 167 ° 22 km/h 2238 m -12.1 m/s 402.80 MHz Taggia (IT) 0.00 km UNKNOWN
S3220409 RS41 2022-01-24 02:19:18 43.9732 7.61892 219 ° 37 km/h 4542 m -2.9 m/s 402.80 MHz Ventimiglia (IT) 0.00 km UNKNOWN
S3220410 RS41 2022-01-23 13:22:08 43.9925 8.32352 228 ° 19 km/h 147 m -16.1 m/s 402.800 MHz Albenga (IT) 0.00 km LOST
S3220392 RS41 2022-01-22 13:52:25 43.4808 8.22703 117 ° 30 km/h 830 m -2.2 m/s 402.80 MHz Imperia (IT) 0.00 km LOST
S3220406 RS41 2022-01-22 02:22:48 43.1914 8.94255 212 ° 20 km/h 1521 m -2.1 m/s 402.80 MHz Bastia (FR) 0.00 km LOST
S3220411 RS41 2022-01-21 13:22:52 43.4775 8.16059 184 ° 50 km/h 3972 m -6.0 m/s 402.80 MHz Imperia (IT) 0.00 km LOST
S3220213 RS41 2022-01-21 02:24:46 43.3995 9.27286 112 ° 11 km/h 447 m -3.4 m/s 402.80 MHz Bastia (FR) 0.00 km LOST
S3220414 RS41 2022-01-20 13:22:13 43.7204 8.66439 214 ° 33 km/h 1572 m -10.3 m/s 402.80 MHz Alassio (IT) 0.00 km LOST
S3220412 RS41 2022-01-20 02:20:39 44.4918 10.8807 212 ° 6 km/h 334 m -4.6 m/s 402.80 MHz Maranello (IT) 0.00 km FOUND
S3220401 RS41 2022-01-19 13:50:10 44.4485 9.96982 25 ° 28 km/h 1371 m -4.1 m/s 402.80 MHz Aulla (IT) 0.00 km UNKNOWN
S3220145 RS41-SG 2022-01-19 02:01:46 44.1578 9.30761 297 ° 9 km/h 594 m -6.4 m/s 402.80 MHz Sestri Levante (IT) 0.00 km LOST
S3220408 RS41 2022-01-18 15:03:55 43.7417 9.40855 105 ° 6 km/h 100 m -2.4 m/s 402.800 MHz La Spezia (IT) 0.00 km LOST
S3220407 RS41 2022-01-18 02:16:58 43.8259 9.11263 76 ° 11 km/h 287 m -6.6 m/s 402.800 MHz Sestri Levante (IT) 0.00 km LOST
S3220150 RS41 2022-01-17 15:06:26 43.3842 9.09973 80 ° 24 km/h 124 m -2.0 m/s 402.80 MHz Bastia (FR) 0.00 km LOST
S3220211 RS41 2022-01-17 02:55:45 43.5494 10.5997 71 ° 11 km/h 217 m -1.8 m/s 402.80 MHz Ponsacco (IT) 0.00 km UNKNOWN
S3220147 RS41 2022-01-16 13:22:59 44.471 9.81675 357 ° 37 km/h 1321 m -10.5 m/s 402.80 MHz Aulla (IT) 0.00 km UNKNOWN
S3220214 RS41 2022-01-16 01:50:44 44.6198 8.83496 61 ° 7 km/h 887 m -6.3 m/s 404.00 MHz Serra Riccò (IT) 0.00 km FOUND
S3220399 RS41 2022-01-15 14:14:43 44.3456 8.49348 330 ° 9 km/h 322 m -4.8 m/s 402.80 MHz Savona (IT) 0.00 km UNKNOWN
S3220146 RS41 2022-01-15 02:01:31 44.0904 7.72252 239 ° 4 km/h 2603 m -5.1 m/s 402.80 MHz Taggia (IT) 0.00 km UNKNOWN
S3220149 RS41 2022-01-14 13:39:28 44.3532 6.86388 242 ° 22 km/h 3181 m -5.0 m/s 402.80 MHz Embrun (FR) 0.00 km UNKNOWN
S3220394 RS41 2022-01-14 01:56:30 44.0663 5.87205 276 ° 39 km/h 2875 m -5.5 m/s 402.800 MHz Forcalquier (FR) 0.00 km UNKNOWN
S3220148 RS41 2022-01-13 13:21:46 43.8014 5.8199 258 ° 52 km/h 3470 m -5.9 m/s 402.800 MHz Manosque (FR) 0.00 km UNKNOWN
S3220398 RS41-SG 2022-01-13 02:16:00 43.455 6.16306 243 ° 85 km/h 8050 m -3.1 m/s 402.800 MHz Brignoles (FR) 0.00 km UNKNOWN
S3220395 RS41 2022-01-12 13:29:04 43.6746 7.11116 231 ° 59 km/h 5145 m -6.7 m/s 402.800 MHz La Colle-sur-Loup (FR) 0.00 km UNKNOWN
S3220397 RS41 2022-01-12 01:21:28 43.6397 7.23812 212 ° 56 km/h 5032 m -6.6 m/s 402.80 MHz Valbonne (FR) 0.00 km LOST
S3220404 RS41 2022-01-11 13:39:06 43.5779 7.24731 214 ° 41 km/h 5709 m -3.3 m/s 402.80 MHz Valbonne (FR) 0.00 km LOST
S3220204 RS41-SG 2022-01-11 02:23:22 43.21 7.80775 245 ° 19 km/h 6059 m -2.7 m/s 405.000 MHz Bordighera (IT) 0.00 km LOST
S3220405 RS41 2022-01-10 14:19:44 42.5266 8.71061 196 ° 31 km/h 5724 m -2.6 m/s 402.80 MHz Calvi (FR) 0.00 km LOST
T1851063 RS41 2022-01-10 01:39:04 43.2118 8.74626 164 ° 128 km/h 12352 m -11.7 m/s 402.80 MHz Calvi (FR) 0.00 km LOST
T1851101 RS41 2022-01-09 13:19:55 43.7815 9.05711 140 ° 59 km/h 700 m -9.0 m/s 402.800 MHz Sestri Levante (IT) 0.00 km LOST
S3141436 RS41 2022-01-09 02:29:32 44.1706 9.76962 329 ° 22 km/h 788 m -2.2 m/s 402.800 MHz La Spezia (IT) 0.00 km UNKNOWN
T1851068 RS41 2022-01-08 13:55:38 43.3967 8.9063 237 ° 4 km/h 172 m -4.1 m/s 402.800 MHz Bastia (FR) 0.00 km LOST
T1830132 RS41 2022-01-08 01:18:02 44.2598 8.72879 205 ° 17 km/h 194 m -7.9 m/s 402.80 MHz Cogoleto (IT) 0.00 km LOST
T1851099 RS41 2022-01-07 13:53:48 44.4588 8.8669 177 ° 22 km/h 821 m -3.5 m/s 402.800 MHz Serra Riccò (IT) 0.00 km UNKNOWN
T1851164 RS41 2022-01-07 01:51:45 43.8636 8.06132 197 ° 39 km/h 209 m -5.0 m/s 402.800 MHz Imperia (IT) 0.00 km LOST
T1851098 RS41 2022-01-06 02:10:30 44.541 9.21686 230 ° 69 km/h 1356 m -3.8 m/s 402.800 MHz Recco (IT) 0.00 km UNKNOWN
T1830130 RS41 2022-01-05 13:29:05 44.9565 9.58118 52 ° 7 km/h 379 m -8.0 m/s 402.800 MHz Podenzano (IT) 0.00 km UNKNOWN
T1830105 RS41 2022-01-05 01:35:15 45.2219 10.1491 278 ° 15 km/h 102 m -7.9 m/s 402.80 MHz Verolanuova (IT) 0.00 km FOUND
T1851103 RS41 2022-01-04 13:47:02 44.7894 10.4297 138 ° 7 km/h 90 m -4.1 m/s 402.800 MHz Sorbolo (IT) 0.00 km FOUND
T1851104 RS41 2022-01-04 01:31:20 44.2152 9.86096 9 ° 22 km/h 1879 m -3.2 m/s 405.00 MHz Bolano (IT) 0.00 km UNKNOWN
T1851102 RS41 2022-01-03 14:00:24 43.9857 10.0548 337 ° 15 km/h 380 m -4.6 m/s 402.800 MHz Massa (IT) 0.00 km LOST
T1851100 RS41 2022-01-03 02:14:39 44.1943 10.1824 52 ° 19 km/h 1384 m -2.8 m/s 402.80 MHz Fivizzano (IT) 0.00 km UNKNOWN
T1851064 RS41 2022-01-02 13:43:30 44.4723 9.25069 6 ° 17 km/h 1228 m -10.1 m/s 402.80 MHz Rapallo (IT) 0.00 km FOUND
T1851161 RS41 2022-01-02 02:52:47 44.2412 8.93515 326 ° 7 km/h 332 m -2.6 m/s 402.80 MHz Genoa (IT) 0.00 km LOST
T1851067 RS41 2022-01-01 13:16:25 44.3992 8.48936 40 ° 4 km/h 1095 m -4.9 m/s 402.800 MHz Varazze (IT) 0.00 km FOUND
T1851066 RS41 2022-01-01 03:12:00 43.7745 9.07668 152 ° 6 km/h 201 m -1.9 m/s 402.80 MHz Sestri Levante (IT) 0.00 km LOST
T1851160 RS41 2021-12-31 13:52:32 44.3469 9.1168 348 ° 7 km/h 693 m -3.8 m/s 402.80 MHz Recco (IT) 0.00 km LOST
T1851065 RS41 2021-12-31 01:53:03 44.1143 8.55141 49 ° 9 km/h 82 m -11.0 m/s 402.80 MHz Finale Ligure (IT) 0.00 km LOST
T1851106 RS41 2021-12-30 01:59:12 43.21 8.6334 104 ° 48 km/h 1032 m -8.4 m/s 402.80 MHz Calvi (FR) 0.00 km LOST
T1850027 RS41 2021-12-29 01:48:46 43.2355 9.54343 80 ° 61 km/h 572 m -7.6 m/s 402.800 MHz Bastia (FR) 0.00 km LOST
T1851107 RS41 2021-12-28 02:17:57 43.6614 9.72438 65 ° 15 km/h 507 m -3.1 m/s 402.800 MHz Viareggio (IT) 0.00 km LOST
T1851108 RS41 2021-12-27 01:48:16 43.3659 9.79284 78 ° 37 km/h 198 m -4.6 m/s 402.80 MHz Livorno (IT) 0.00 km LOST
T1850030 RS41 2021-12-26 03:15:39 44.414 11.8513 122 ° 13 km/h 54 m -2.4 m/s 405.000 MHz Massa Lombarda (IT) 0.00 km FOUND
T1851091 RS41 2021-12-25 13:30:40 44.7304 10.29 146 ° 6 km/h 176 m -7.1 m/s 402.80 MHz Felino (IT) 0.00 km FOUND
T1851162 RS41 2021-12-25 02:03:58 44.8789 11.3107 126 ° 6 km/h 70 m -5.2 m/s 402.80 MHz Finale Emilia (IT) 0.00 km FOUND
T1851163 RS41 2021-12-24 14:11:19 44.8742 11.0243 105 ° 7 km/h 60 m -1.6 m/s 402.80 MHz Mirandola (IT) 0.00 km FOUND
T1851109 RS41 2021-12-24 01:53:02 44.3519 9.633 26 ° 48 km/h 1266 m -2.9 m/s 402.80 MHz Sestri Levante (IT) 0.00 km UNKNOWN
T1850026 RS41 2021-12-23 14:10:03 43.5165 9.41035 52 ° 28 km/h 668 m -4.5 m/s 402.80 MHz Livorno (IT) 0.00 km LOST
T1851077 RS41 2021-12-23 02:18:03 43.7398 9.59735 277 ° 24 km/h 117 m -4.1 m/s 402.80 MHz La Spezia (IT) 0.00 km LOST
T1850029 RS41 2021-12-22 01:46:46 44.0566 9.64222 290 ° 9 km/h 359 m -15.3 m/s 402.800 MHz La Spezia (IT) 0.00 km LOST
T1851078 RS41 2021-12-21 13:34:14 44.2667 9.3913 1 ° 4 km/h 831 m -6.6 m/s 402.80 MHz Sestri Levante (IT) 0.00 km LOST
T1851080 RS41 2021-12-21 01:40:48 44.1348 9.64991 129 ° 22 km/h 2719 m -11.0 m/s 404.00 MHz La Spezia (IT) 0.00 km LOST
T1851095 RS41 2021-12-20 14:06:34 44.0538 9.16526 42 ° 9 km/h 324 m -4.0 m/s 402.80 MHz Sestri Levante (IT) 0.00 km LOST
T1851076 RS41 2021-12-20 01:11:27 44.3594 7.68412 64 ° 4 km/h 684 m -4.3 m/s 402.80 MHz Mondovì (IT) 0.00 km FOUND
T1851097 RS41 2021-12-19 12:41:47 44.2645 7.49783 145 ° 7 km/h 2533 m -8.7 m/s 402.80 MHz Borgo San Dalmazzo (IT) 0.00 km FOUND
T1851079 RS41 2021-12-19 03:08:19 44.0636 8.24699 86 ° 7 km/h 116 m -2.1 m/s 402.80 MHz Albenga (IT) 0.00 km LOST
S3210227 RS41 2021-12-18 02:36:14 44.3384 6.6923 252 ° 33 km/h 3748 m -3.0 m/s 405.00 MHz Embrun (FR) 0.00 km UNKNOWN
S3210266 RS41 2021-12-17 13:28:09 44.3684 6.91949 277 ° 28 km/h 2961 m -8.8 m/s 402.80 MHz Embrun (FR) 0.00 km UNKNOWN
T1850025 RS41 2021-12-17 01:58:54 43.9727 7.56983 208 ° 37 km/h 3421 m -4.9 m/s 402.80 MHz Ventimiglia (IT) 0.00 km UNKNOWN
S3210226 RS41 2021-12-16 13:43:26 43.6225 7.68343 210 ° 44 km/h 3961 m -2.1 m/s 402.80 MHz Bordighera (IT) 0.00 km LOST
S3210199 RS41 2021-12-16 01:55:42 43.8089 7.04111 246 ° 57 km/h 4794 m -3.2 m/s 402.80 MHz Vence (FR) 0.00 km UNKNOWN
S3220556 RS41 2021-12-15 13:39:02 43.8719 7.35775 234 ° 41 km/h 4467 m -3.8 m/s 402.80 MHz Contes (FR) 0.00 km UNKNOWN
S3210225 RS41 2021-12-15 02:19:54 43.3557 7.32126 194 ° 31 km/h 4519 m -3.1 m/s 402.80 MHz Antibes (FR) 0.00 km LOST
S3220422 RS41 2021-12-14 14:22:09 43.4815 8.96506 198 ° 4 km/h 92 m -2.5 m/s 402.80 MHz Alassio (IT) 0.00 km LOST
S3220423 RS41 2021-12-14 02:46:55 43.0986 8.73491 55 ° 19 km/h 947 m -1.9 m/s 402.80 MHz Calvi (FR) 0.00 km LOST
S3220533 RS41 2021-12-13 13:27:37 44.0771 9.24878 79 ° 13 km/h 2007 m -18.5 m/s 402.80 MHz Sestri Levante (IT) 0.00 km LOST
S3220532 RS41 2021-12-13 02:25:47 43.7616 9.34759 75 ° 15 km/h 72 m -5.1 m/s 402.80 MHz La Spezia (IT) 0.00 km LOST
S3220534 RS41 2021-12-12 13:30:55 43.6675 8.60466 210 ° 17 km/h 213 m -11.5 m/s 402.80 MHz Alassio (IT) 0.00 km LOST
S3220554 RS41 2021-12-12 02:28:58 42.6558 8.76766 182 ° 61 km/h 5425 m -2.2 m/s 402.800 MHz Calvi (FR) 0.00 km LOST
S3210201 RS41 2021-12-11 14:30:31 43.1662 8.7948 196 ° 22 km/h 1146 m -1.9 m/s 402.80 MHz Calvi (FR) 0.00 km LOST
S3210200 RS41 2021-12-11 03:04:10 43.7108 8.80937 173 ° 50 km/h 104 m -2.3 m/s 402.80 MHz Alassio (IT) 0.00 km LOST
S3210203 RS41 2021-12-10 13:42:24 44.2904 8.74938 176 ° 28 km/h 138 m -2.7 m/s 402.80 MHz Arenzano (IT) 0.00 km LOST
S3210202 RS41 2021-12-10 02:10:17 43.6054 9.38506 138 ° 15 km/h 253 m -5.5 m/s 402.80 MHz La Spezia (IT) 0.00 km LOST
S3220425 RS41 2021-12-09 01:48:01 44.6019 8.996 172 ° 59 km/h 1139 m -9.0 m/s 402.80 MHz Serra Riccò (IT) 0.00 km UNKNOWN
S3220421 RS41 2021-12-08 13:14:01 45.4487 9.01526 205 ° 22 km/h 236 m -7.8 m/s 402.80 MHz Bareggio (IT) 0.00 km FOUND
S3141566 RS41 2021-12-08 01:21:27 44.7018 9.23926 30 ° 9 km/h 1162 m -8.4 m/s 402.80 MHz Serra Riccò (IT) 0.00 km UNKNOWN
S3220543 RS41 2021-12-07 14:41:24 42.8144 10.6251 193 ° 35 km/h 1309 m -2.4 m/s 402.80 MHz Piombino (IT) 0.00 km LOST
S3141561 RS41 2021-12-07 02:03:14 42.9762 9.75251 97 ° 28 km/h 718 m -3.2 m/s 402.80 MHz Bastia (FR) 0.00 km LOST
S3220542 RS41 2021-12-06 01:45:40 44.0773 9.15872 161 ° 30 km/h 3002 m -15.2 m/s 405.00 MHz Sestri Levante (IT) 0.00 km LOST
S3220544 RS41 2021-12-05 13:49:05 44.593 8.91783 188 ° 13 km/h 1083 m -3.3 m/s 402.80 MHz Serra Riccò (IT) 0.00 km UNKNOWN
S3220426 RS41 2021-12-05 03:06:43 45.2933 11.4883 112 ° 17 km/h 61 m -3.2 m/s 402.80 MHz Noventa Vicentina (IT) 0.00 km UNKNOWN
S3220553 RS41 2021-12-04 15:01:47 44.6248 12.161 273 ° 19 km/h 35 m -3.3 m/s 402.80 MHz Comacchio (IT) 0.00 km LOST
S3220537 RS41 2021-12-04 02:19:40 43.6931 10.766 265 ° 9 km/h 603 m -3.5 m/s 402.80 MHz Castelfranco di Sotto (IT) 0.00 km UNKNOWN
S3220530 RS41 2021-12-03 01:24:18 43.5157 7.86223 268 ° 11 km/h 2739 m -2.8 m/s 402.80 MHz Bordighera (IT) 0.00 km LOST
S3141564 RS41 2021-12-02 13:19:28 44.9003 8.98004 64 ° 2 km/h 309 m -4.3 m/s 402.80 MHz Tortona (IT) 0.00 km FOUND
S3220424 RS41 2021-12-02 02:14:37 45.2012 10.2033 115 ° 11 km/h 95 m -3.0 m/s 402.80 MHz Cremona (IT) 0.00 km FOUND
S3220557 RS41 2021-12-01 02:44:42 44.2162 10.1614 33 ° 22 km/h 1316 m -2.6 m/s 402.80 MHz Fivizzano (IT) 0.00 km UNKNOWN
S3220558 RS41 2021-11-30 12:35:34 43.8099 7.92948 78 ° 37 km/h 1353 m -2.8 m/s 402.80 MHz Taggia (IT) 0.00 km LOST
S3220541 RS41 2021-11-30 00:57:18 43.391 8.44633 175 ° 106 km/h 5004 m -3.6 m/s 405.00 MHz Imperia (IT) 0.00 km LOST
S3141541 RS41 2021-11-28 02:09:05 45.6079 10.7036 133 ° 7 km/h 468 m -3.8 m/s 402.80 MHz Caprino Veronese (IT) 0.00 km FOUND
S3141539 RS41 2021-11-27 01:39:54 44.8382 9.74094 24 ° 22 km/h 477 m -6.1 m/s 405.00 MHz Carpaneto Piacentino (IT) 0.00 km UNKNOWN
S3141540 RS41 2021-11-26 02:56:31 45.2032 9.43474 84 ° 33 km/h 145 m -1.7 m/s 402.80 MHz Lodi Vecchio (IT) 0.00 km FOUND
S3141556 RS41 2021-11-25 02:24:28 45.1579 8.66975 232 ° 13 km/h 163 m -2.9 m/s 402.80 MHz Mortara (IT) 0.00 km UNKNOWN
S3220593 RS41 2021-11-24 01:18:42 44.4995 8.12676 179 ° 11 km/h 985 m -7.9 m/s 405.00 MHz Monesiglio (IT) 0.00 km UNKNOWN
S3141547 RS41 2021-11-23 03:11:44 44.5629 8.9215 184 ° 33 km/h 871 m -2.3 m/s 402.80 MHz Serra Riccò (IT) 0.00 km UNKNOWN
S3141565 RS41 2021-11-22 02:43:17 44.8808 9.08638 72 ° 9 km/h 556 m -2.9 m/s 402.80 MHz Voghera (IT) 0.00 km FOUND
S3220113 RS41 2021-11-21 02:22:07 44.9379 8.48994 140 ° 9 km/h 318 m -3.4 m/s 402.80 MHz Alessandria (IT) 0.00 km UNKNOWN
S3220103 RS41 2021-11-20 01:35:00 44.3896 7.88415 92 ° 15 km/h 927 m -9.3 m/s 402.80 MHz Mondovì (IT) 0.00 km FOUND
S3220105 RS41 2021-11-19 02:41:48 43.789 6.97732 264 ° 31 km/h 4204 m -2.4 m/s 402.80 MHz Vence (FR) 0.00 km UNKNOWN
S3220104 RS41 2021-11-18 02:36:48 44.0923 8.02498 221 ° 26 km/h 1682 m -4.1 m/s 402.80 MHz Alassio (IT) 0.00 km LOST
S3141642 RS41 2021-11-17 13:50:34 44.4694 7.49309 167 ° 20 km/h 1224 m -3.8 m/s 402.80 MHz Busca (IT) 0.00 km FOUND
S3220594 RS41 2021-11-17 02:05:04 44.5688 7.36757 180 ° 7 km/h 1320 m -3.9 m/s 402.80 MHz Busca (IT) 0.00 km FOUND
S3141663 RS41 2021-11-16 14:50:59 44.9233 8.02711 255 ° 15 km/h 438 m -2.3 m/s 402.80 MHz Poirino (IT) 0.00 km UNKNOWN
S3210268 RS41 2021-11-16 02:03:14 44.5874 7.62986 161 ° 15 km/h 673 m -4.9 m/s 402.80 MHz Savigliano (IT) 0.00 km FOUND
S3220112 RS41 2021-11-15 14:03:38 44.6595 7.15227 193 ° 15 km/h 1991 m -5.5 m/s 402.80 MHz Barge (IT) 0.00 km UNKNOWN
S3220106 RS41 2021-11-15 02:29:32 44.6585 7.30658 180 ° 37 km/h 1151 m -4.6 m/s 402.80 MHz Barge (IT) 0.00 km FOUND
S3220067 RS41 2021-11-14 13:57:59 44.4042 8.29809 196 ° 22 km/h 812 m -6.7 m/s 402.80 MHz Cairo Montenotte (IT) 0.00 km FOUND
S3220108 RS41 2021-11-14 02:13:50 43.9306 8.69737 232 ° 15 km/h 382 m -10.4 m/s 402.80 MHz Finale Ligure (IT) 0.00 km LOST
S3141700 RS41 2021-11-13 13:10:42 43.9383 8.0776 38 ° 15 km/h 426 m -10.9 m/s 402.80 MHz Imperia (IT) 0.00 km FOUND
S3141640 RS41 2021-11-13 02:58:41 44.118 7.82047 150 ° 7 km/h 2470 m -2.0 m/s 405.00 MHz Mondovì (IT) 0.00 km UNKNOWN
S3220591 RS41 2021-11-12 14:51:23 44.5979 7.09887 263 ° 15 km/h 2109 m -2.6 m/s 402.80 MHz Barge (IT) 0.00 km UNKNOWN
S3141641 RS41 2021-11-12 02:42:10 44.8272 7.48434 289 ° 6 km/h 494 m -3.0 m/s 402.80 MHz None (IT) 0.00 km UNKNOWN
S2950441 RS41 2021-11-11 02:56:26 45.258 7.06661 291 ° 44 km/h 3541 m -0.0 m/s 402.80 MHz Avigliana (IT) 0.00 km UNKNOWN
S3141149 RS41 2021-11-10 13:57:30 45.1835 7.55453 205 ° 13 km/h 461 m -4.1 m/s 402.80 MHz Ciriè (IT) 0.00 km FOUND
S3141704 RS41 2021-11-10 02:22:16 45.5801 7.08806 310 ° 69 km/h 3873 m -4.8 m/s 402.80 MHz Aosta (IT) 0.00 km UNKNOWN
S3141664 RS41 2021-11-09 14:01:31 45.0836 7.12419 278 ° 15 km/h 2170 m -4.4 m/s 402.80 MHz Giaveno (IT) 0.00 km FOUND
S3141668 RS41 2021-11-09 02:33:30 43.9826 6.42462 273 ° 50 km/h 3410 m -1.7 m/s 402.80 MHz Digne-les-Bains (FR) 0.00 km UNKNOWN
S3141150 RS41 2021-11-08 14:11:38 44.0055 7.6076 245 ° 37 km/h 3203 m -3.7 m/s 402.80 MHz Ventimiglia (IT) 0.00 km UNKNOWN
S3141643 RS41 2021-11-08 01:14:58 44.151 7.40863 232 ° 22 km/h 2856 m -5.2 m/s 402.80 MHz Borgo San Dalmazzo (IT) 0.00 km UNKNOWN
S3141665 RS41 2021-11-07 13:23:55 44.5471 7.68659 100 ° 9 km/h 1272 m -6.0 m/s 402.80 MHz Fossano (IT) 0.00 km FOUND
S3141148 RS41 2021-11-07 01:32:28 44.6491 7.98017 185 ° 11 km/h 905 m -7.0 m/s 402.80 MHz Alba (IT) 0.00 km UNKNOWN
S3141666 RS41 2021-11-06 14:35:20 44.7108 7.96827 146 ° 15 km/h 849 m -1.6 m/s 402.80 MHz Alba (IT) 0.00 km FOUND
S3141147 RS41 2021-11-06 01:43:58 44.6937 8.12783 168 ° 19 km/h 545 m -5.5 m/s 402.80 MHz Alba (IT) 0.00 km FOUND
S3141644 RS41 2021-11-05 14:13:22 44.9933 8.7014 235 ° 7 km/h 211 m -3.5 m/s 402.80 MHz Valenza (IT) 0.00 km UNKNOWN
S3210238 RS41 2021-11-05 01:34:26 44.9515 8.73932 145 ° 11 km/h 231 m -8.3 m/s 402.80 MHz Valenza (IT) 0.00 km UNKNOWN
S3210230 RS41 2021-11-04 13:35:58 45.1727 8.96094 25 ° 4 km/h 170 m -9.3 m/s 402.80 MHz Garlasco (IT) 0.00 km UNKNOWN
S3210232 RS41 2021-11-04 01:45:22 45.3927 8.7233 143 ° 17 km/h 189 m -3.6 m/s 402.80 MHz Trecate (IT) 0.00 km UNKNOWN
S3210240 RS41 2021-11-03 13:17:17 45.4851 9.22325 274 ° 13 km/h 212 m -12.5 m/s 402.80 MHz Milan (IT) 0.00 km UNKNOWN
S3210229 RS41 2021-11-03 02:10:01 45.2542 10.2792 270 ° 30 km/h 100 m -3.5 m/s 402.80 MHz Asola (IT) 0.00 km FOUND
S3210231 RS41 2021-11-02 01:24:11 44.8084 9.6751 107 ° 19 km/h 625 m -10.0 m/s 402.80 MHz Carpaneto Piacentino (IT) 0.00 km UNKNOWN
S3210224 RS41 2021-11-01 14:13:44 45.0116 10.0375 183 ° 20 km/h 111 m -15.7 m/s 402.80 MHz Cremona (IT) 0.00 km FOUND
S3210239 RS41 2021-11-01 02:12:53 44.6822 9.69195 306 ° 13 km/h 1204 m -1.9 m/s 402.80 MHz Carpaneto Piacentino (IT) 0.00 km UNKNOWN
S3210234 RS41 2021-10-31 13:14:59 44.7111 9.1222 325 ° 11 km/h 1465 m -9.2 m/s 402.80 MHz Serra Riccò (IT) 0.00 km UNKNOWN
S3210233 RS41 2021-10-31 00:34:54 44.6982 9.45229 297 ° 11 km/h 1398 m -13.0 m/s 402.80 MHz Podenzano (IT) 0.00 km UNKNOWN
S3210223 RS41 2021-10-30 12:51:46 44.9872 9.64985 113 ° 9 km/h 224 m -2.9 m/s 402.80 MHz Podenzano (IT) 0.00 km UNKNOWN
T1840268 RS41 2021-10-30 00:38:29 44.7996 9.24266 320 ° 4 km/h 904 m -8.4 m/s 402.80 MHz Voghera (IT) 0.00 km FOUND
T1840269 RS41 2021-10-29 12:17:55 45.3709 8.82616 19 ° 4 km/h 195 m -9.4 m/s 402.80 MHz Vigevano (IT) 0.00 km UNKNOWN
T1840270 RS41 2021-10-29 00:44:04 45.2447 8.70776 158 ° 9 km/h 176 m -9.3 m/s 402.80 MHz Mortara (IT) 0.00 km UNKNOWN
T1840265 RS41 2021-10-28 13:40:43 45.4548 8.50323 180 ° 9 km/h 218 m -2.7 m/s 402.80 MHz Novara (IT) 0.00 km FOUND
T1840308 RS41 2021-10-28 00:42:32 44.9674 8.61123 168 ° 11 km/h 274 m -11.5 m/s 402.80 MHz Valenza (IT) 0.00 km UNKNOWN
T1840266 RS41 2021-10-27 13:01:34 44.5377 7.78243 224 ° 17 km/h 1046 m -4.0 m/s 402.80 MHz Fossano (IT) 0.00 km FOUND
T1830867 RS41 2021-10-27 00:40:58 44.0135 7.76949 216 ° 41 km/h 2855 m -5.2 m/s 405.00 MHz Taggia (IT) 0.00 km UNKNOWN
T1840310 RS41 2021-10-26 12:48:37 44.867 9.11195 198 ° 17 km/h 587 m -3.7 m/s 402.80 MHz Voghera (IT) 0.00 km FOUND
T1840267 RS41 2021-10-26 01:23:35 45.0244 9.86728 54 ° 13 km/h 109 m -2.9 m/s 402.80 MHz Piacenza (IT) 0.00 km FOUND
T1830869 RS41 2021-10-25 12:53:43 45.0813 9.0178 264 ° 17 km/h 262 m -4.0 m/s 402.80 MHz Garlasco (IT) 0.00 km UNKNOWN
T1830915 RS41 2021-10-25 00:48:10 44.9649 9.13491 281 ° 15 km/h 359 m -11.7 m/s 402.80 MHz Voghera (IT) 0.00 km FOUND
T1840309 RS41 2021-10-24 12:22:48 44.7208 8.32349 155 ° 9 km/h 554 m -6.5 m/s 402.80 MHz Canelli (IT) 0.00 km UNKNOWN
T1830914 RS41 2021-10-24 00:44:15 44.5429 8.3982 192 ° 26 km/h 675 m -8.2 m/s 402.80 MHz Acqui Terme (IT) 0.00 km UNKNOWN
T1840353 RS41 2021-10-23 12:40:48 44.5721 9.15705 216 ° 15 km/h 1898 m -5.0 m/s 402.80 MHz Serra Riccò (IT) 0.00 km UNKNOWN
T1840312 RS41 2021-10-23 00:39:55 44.5859 9.24332 213 ° 19 km/h 1724 m -10.5 m/s 402.80 MHz Serra Riccò (IT) 0.00 km UNKNOWN
T1841677 RS41 2021-10-22 13:08:07 44.9659 9.9361 247 ° 4 km/h 112 m -4.3 m/s 402.80 MHz Carpaneto Piacentino (IT) 0.00 km FOUND
T1851024 RS41 2021-10-22 01:47:02 45.2534 11.1408 305 ° 4 km/h 75 m -2.2 m/s 402.80 MHz Bovolone (IT) 0.00 km FOUND
T1841682 RS41 2021-10-21 12:13:48 45.0616 10.073 212 ° 2 km/h 123 m -12.9 m/s 402.80 MHz Cremona (IT) 0.00 km FOUND
T1841675 RS41 2021-10-21 01:19:30 45.1231 10.4148 276 ° 13 km/h 79 m -2.6 m/s 402.80 MHz Asola (IT) 0.00 km FOUND
T1830916 RS41 2021-10-20 13:39:03 44.9221 10.1436 153 ° 7 km/h 92 m -1.9 m/s 402.80 MHz Fidenza (IT) 0.00 km FOUND
T1851025 RS41 2021-10-20 00:46:47 44.3926 8.5754 15 ° 20 km/h 573 m -4.1 m/s 402.80 MHz Varazze (IT) 0.00 km FOUND
T1841683 RS41 2021-10-19 12:44:55 43.8118 7.92741 52 ° 13 km/h 336 m -2.5 m/s 402.80 MHz Taggia (IT) 0.00 km LOST
T1830913 RS41 2021-10-19 00:35:35 43.8659 8.14745 123 ° 7 km/h 918 m -5.8 m/s 402.80 MHz Imperia (IT) 0.00 km LOST
T1841681 RS41 2021-10-18 12:50:56 43.2951 7.64077 180 ° 17 km/h 4225 m -2.9 m/s 402.80 MHz Monaco (MC) 0.00 km LOST
T1841684 RS41 2021-10-18 00:32:56 44.3063 8.47866 118 ° 6 km/h 415 m -7.9 m/s 402.80 MHz Savona (IT) 0.00 km UNKNOWN
T1851026 RS41 2021-10-17 13:33:54 44.0476 8.17487 316 ° 11 km/h 324 m -1.6 m/s 402.80 MHz Albenga (IT) 0.00 km UNKNOWN
T1840364 RS41 2021-10-17 00:06:33 44.2242 8.14943 170 ° 11 km/h 2008 m -13.0 m/s 402.80 MHz Pietra Ligure (IT) 0.00 km UNKNOWN
T1851049 RS41 2021-10-16 12:06:53 44.3901 8.09307 126 ° 9 km/h 1407 m -14.1 m/s 402.80 MHz Monesiglio (IT) 0.00 km FOUND
T1851050 RS41 2021-10-16 00:22:51 44.2899 8.25463 174 ° 24 km/h 1079 m -5.8 m/s 402.80 MHz Cairo Montenotte (IT) 0.00 km UNKNOWN
T1850914 RS41 2021-10-15 13:02:08 44.3897 8.59512 290 ° 11 km/h 477 m -2.1 m/s 402.80 MHz Varazze (IT) 0.00 km FOUND
T1851048 RS41 2021-10-15 00:57:28 44.0292 8.27196 42 ° 19 km/h 954 m -4.8 m/s 402.80 MHz Albenga (IT) 0.00 km LOST
T1851047 RS41 2021-10-14 12:22:52 43.6503 7.6416 205 ° 72 km/h 4584 m -4.6 m/s 402.80 MHz Bordighera (IT) 0.00 km LOST
T1851110 RS41 2021-10-14 00:58:04 43.0144 7.48285 196 ° 89 km/h 6250 m -2.5 m/s 402.80 MHz Antibes (FR) 0.00 km LOST
T1850028 RS41 2021-10-13 12:32:49 43.5729 7.87689 153 ° 35 km/h 2520 m -4.6 m/s 402.80 MHz Bordighera (IT) 0.00 km LOST
T1851045 RS41 2021-10-13 00:32:54 43.9909 8.70382 183 ° 28 km/h 406 m -10.0 m/s 402.80 MHz Finale Ligure (IT) 0.00 km LOST
T1840365 RS41 2021-10-12 13:39:57 43.5885 9.21802 316 ° 11 km/h 148 m -1.9 m/s 402.80 MHz La Spezia (IT) 0.00 km LOST
T1851105 RS41 2021-10-12 00:26:57 44.0242 8.65184 196 ° 24 km/h 2440 m -9.6 m/s 405.00 MHz Finale Ligure (IT) 0.00 km LOST
T1841685 RS41 2021-10-11 12:10:24 43.9132 8.03806 210 ° 17 km/h 1508 m -8.5 m/s 402.80 MHz Imperia (IT) 0.00 km FOUND
T1850915 RS41 2021-10-11 01:26:50 43.3008 8.32583 207 ° 57 km/h 4017 m -1.9 m/s 402.80 MHz Imperia (IT) 0.00 km LOST
T1850913 RS41 2021-10-10 12:38:01 43.5465 8.12073 198 ° 13 km/h 612 m -6.4 m/s 402.80 MHz Imperia (IT) 0.00 km LOST
S3420964 RS41 2021-10-09 23:57:10 43.7588 7.69724 205 ° 59 km/h 3512 m -9.7 m/s 402.80 MHz Bordighera (IT) 0.00 km LOST
S3421021 RS41 2021-10-09 12:12:03 44.0742 7.80318 148 ° 19 km/h 2987 m -15.8 m/s 402.80 MHz Taggia (IT) 0.00 km UNKNOWN
S3421022 RS41 2021-10-09 01:45:24 43.9277 7.70608 223 ° 31 km/h 3004 m -2.8 m/s 402.80 MHz San Remo (IT) 0.00 km UNKNOWN
S3510418 RS41 2021-10-08 12:23:44 43.9449 7.59293 217 ° 65 km/h 3200 m -4.3 m/s 402.80 MHz Ventimiglia (IT) 0.00 km UNKNOWN
S3421027 RS41 2021-10-08 00:41:32 43.8732 7.90401 194 ° 46 km/h 937 m -7.1 m/s 402.80 MHz Taggia (IT) 0.00 km UNKNOWN
S3510420 RS41 2021-10-07 13:21:28 42.9544 8.29912 193 ° 35 km/h 3701 m -3.1 m/s 402.80 MHz Calvi (FR) 0.00 km LOST
S3420973 RS41 2021-10-07 01:01:38 42.9771 8.62749 177 ° 43 km/h 4307 m -3.7 m/s 402.80 MHz Calvi (FR) 0.00 km LOST
S3421032 RS41 2021-10-06 12:37:05 44.0633 8.85838 165 ° 37 km/h 49 m -8.5 m/s 402.80 MHz Genoa (IT) 0.00 km LOST
S3420984 RS41 2021-10-06 00:42:18 44.6706 9.11515 354 ° 33 km/h 1668 m -16.2 m/s 405.00 MHz Serra Riccò (IT) 0.00 km UNKNOWN
S3420749 RS41 2021-10-05 12:35:53 44.7673 9.22087 266 ° 2 km/h 1079 m -9.7 m/s 402.80 MHz Voghera (IT) 0.00 km UNKNOWN
S3420972 RS41 2021-10-05 01:58:15 46.1122 8.85918 8 ° 37 km/h 1910 m -4.2 m/s 402.80 MHz Locarno (CH) 0.00 km UNKNOWN
S3420971 RS41 2021-10-04 13:07:34 45.8731 8.92143 250 ° 19 km/h 581 m -2.2 m/s 402.80 MHz Mendrisio (CH) 0.00 km FOUND
S3421029 RS41 2021-10-04 00:49:53 45.4499 8.88764 274 ° 19 km/h 215 m -5.9 m/s 405.00 MHz Magenta (IT) 0.00 km FOUND
S3550477 RS41 2021-10-03 13:05:16 45.1805 9.07019 270 ° 11 km/h 144 m -4.1 m/s 402.80 MHz Pavia (IT) 0.00 km FOUND
S3421030 RS41 2021-10-03 00:25:08 44.565 8.92853 318 ° 22 km/h 946 m -11.5 m/s 402.80 MHz Serra Riccò (IT) 0.00 km UNKNOWN
S3420963 RS41 2021-10-02 13:31:38 44.1345 8.8215 360 ° 13 km/h 1958 m -2.1 m/s 402.80 MHz Cogoleto (IT) 0.00 km LOST
S3420961 RS41 2021-10-02 01:56:08 44.9698 9.36417 323 ° 13 km/h 444 m -2.2 m/s 402.80 MHz Borgonovo Val Tidone (IT) 0.00 km FOUND
S3421031 RS41 2021-10-01 13:26:14 44.7534 8.78751 312 ° 4 km/h 342 m -2.1 m/s 402.80 MHz Novi Ligure (IT) 0.00 km UNKNOWN
S3421023 RS41 2021-10-01 01:02:42 44.385 8.41587 166 ° 39 km/h 922 m -5.0 m/s 402.80 MHz Savona (IT) 0.00 km UNKNOWN
S3510416 RS41 2021-09-30 12:56:36 44.1808 8.88413 189 ° 26 km/h 117 m -4.3 m/s 402.80 MHz Genoa (IT) 0.00 km LOST
S3421028 RS41 2021-09-30 00:53:44 44.135 9.11757 176 ° 15 km/h 451 m -8.6 m/s 402.80 MHz Santa Margherita Ligure (IT) 0.00 km LOST
S3421018 RS41 2021-09-29 12:44:32 44.4386 9.16809 127 ° 15 km/h 1960 m -5.5 m/s 402.80 MHz Recco (IT) 0.00 km UNKNOWN
S3421014 RS41 2021-09-29 00:56:58 44.9359 9.19307 82 ° 13 km/h 485 m -5.9 m/s 402.80 MHz Voghera (IT) 0.00 km FOUND
S3420970 RS41 2021-09-28 13:28:14 44.7354 9.18804 237 ° 2 km/h 1227 m -1.7 m/s 402.80 MHz Voghera (IT) 0.00 km UNKNOWN
S3510404 RS41 2021-09-28 02:42:39 44.2461 9.75286 329 ° 11 km/h 2187 m -2.9 m/s 402.80 MHz Bolano (IT) 0.00 km UNKNOWN
S3550475 RS41 2021-09-27 12:52:38 44.3566 9.06689 140 ° 9 km/h 1886 m -11.2 m/s 402.80 MHz Recco (IT) 0.00 km LOST
S3420969 RS41 2021-09-27 01:03:35 44.4615 8.86083 81 ° 7 km/h 1107 m -4.8 m/s 405.00 MHz Serra Riccò (IT) 0.00 km UNKNOWN
S3421026 RS41 2021-09-26 13:44:39 45.3018 8.81649 201 ° 22 km/h 204 m -1.8 m/s 405.00 MHz Vigevano (IT) 0.00 km FOUND
S3510403 RS41 2021-09-26 00:37:59 45.0508 9.07423 68 ° 11 km/h 199 m -5.3 m/s 402.80 MHz Voghera (IT) 0.00 km FOUND
S3421016 RS41 2021-09-25 00:44:14 44.6107 8.58673 317 ° 9 km/h 578 m -5.9 m/s 402.80 MHz Ovada (IT) 0.00 km UNKNOWN
S3510405 RS41 2021-09-24 12:59:44 44.585 8.08088 10 ° 13 km/h 1197 m -2.2 m/s 402.80 MHz Alba (IT) 0.00 km UNKNOWN
S3420979 RS41 2021-09-24 01:28:41 44.4185 8.05179 92 ° 11 km/h 1034 m -3.0 m/s 402.80 MHz Monesiglio (IT) 0.00 km FOUND
S3510414 RS41 2021-09-23 12:33:23 44.4434 7.87235 313 ° 9 km/h 1533 m -4.4 m/s 402.80 MHz Mondovì (IT) 0.00 km FOUND
S3421025 RS41 2021-09-23 01:15:52 44.2937 7.84794 127 ° 26 km/h 1957 m -3.4 m/s 402.80 MHz Mondovì (IT) 0.00 km FOUND
S3421019 RS41 2021-09-22 12:32:02 44.4585 7.60713 153 ° 9 km/h 1898 m -6.0 m/s 402.80 MHz Cuneo (IT) 0.00 km FOUND
S3421020 RS41 2021-09-22 01:09:48 44.422 8.0635 178 ° 9 km/h 2212 m -3.9 m/s 404.00 MHz Monesiglio (IT) 0.00 km FOUND
S3421017 RS41 2021-09-20 12:49:57 44.7584 8.57574 138 ° 13 km/h 222 m -4.8 m/s 402.80 MHz Acqui Terme (IT) 0.00 km UNKNOWN
S3421015 RS41 2021-09-20 00:32:18 44.5763 9.07613 176 ° 13 km/h 1213 m -6.5 m/s 402.80 MHz Serra Riccò (IT) 0.00 km UNKNOWN
T1850940 RS41 2021-09-19 13:36:35 45.3122 9.9698 105 ° 30 km/h 148 m -4.5 m/s 402.80 MHz Verolanuova (IT) 0.00 km LOST
T1850431 RS41 2021-09-19 00:22:43 44.7823 8.76014 329 ° 20 km/h 299 m -7.6 m/s 402.80 MHz Novi Ligure (IT) 0.00 km UNKNOWN
T2040975 RS41 2021-09-18 12:59:05 44.7935 8.63732 219 ° 2 km/h 342 m -3.8 m/s 402.80 MHz Novi Ligure (IT) 0.00 km UNKNOWN
T1851141 RS41 2021-09-18 00:44:27 44.6069 8.06947 8 ° 11 km/h 760 m -3.1 m/s 402.80 MHz Alba (IT) 0.00 km FOUND
T2040908 RS41 2021-09-17 12:43:16 44.6165 8.25343 319 ° 11 km/h 797 m -4.2 m/s 402.80 MHz Canelli (IT) 0.00 km UNKNOWN
T2040910 RS41 2021-09-17 00:20:48 44.5958 8.3229 116 ° 13 km/h 517 m -3.9 m/s 402.80 MHz Canelli (IT) 0.00 km UNKNOWN
T2040971 RS41 2021-09-16 13:21:24 45.1278 9.08867 40 ° 19 km/h 267 m -3.5 m/s 402.80 MHz Pavia (IT) 0.00 km UNKNOWN
T1851145 RS41 2021-09-16 02:28:35 44.8201 10.2441 56 ° 13 km/h 107 m -2.2 m/s 402.80 MHz Noceto (IT) 0.00 km FOUND
S3420968 RS41 2021-09-15 11:52:34 44.9608 8.93223 35 ° 26 km/h 310 m -6.8 m/s 402.80 MHz Tortona (IT) 0.00 km UNKNOWN
S3510406 RS41 2021-09-15 01:38:29 44.557 9.43193 61 ° 20 km/h 1462 m -2.6 m/s 402.80 MHz Rapallo (IT) 0.00 km UNKNOWN
T1851144 RS41 2021-09-14 12:36:11 44.4726 8.79394 331 ° 24 km/h 1007 m -6.0 m/s 402.80 MHz Arenzano (IT) 0.00 km UNKNOWN
T1841052 RS41 2021-09-14 02:00:18 44.2529 9.1851 261 ° 13 km/h 236 m -2.3 m/s 402.801 MHz Santa Margherita Ligure (IT) 0.00 km LOST
T1850937 RS41 2021-09-13 13:20:58 44.347 8.58973 340 ° 9 km/h 56 m -3.5 m/s 405.001 MHz Varazze (IT) 0.00 km LOST
T1840405 RS41 2021-09-13 00:54:53 44.4133 8.2577 270 ° 4 km/h 986 m -11.4 m/s 402.80 MHz Cairo Montenotte (IT) 0.00 km FOUND
T1850939 RS41 2021-09-12 12:12:39 44.3925 7.86884 166 ° 4 km/h 1061 m -6.0 m/s 402.80 MHz Mondovì (IT) 0.00 km FOUND
T2040912 RS41 2021-09-12 00:42:07 44.0594 8.09243 212 ° 17 km/h 1596 m -3.7 m/s 402.80 MHz Alassio (IT) 0.00 km UNKNOWN
T1841105 RS41 2021-09-11 13:11:53 43.9575 8.42717 62 ° 9 km/h 173 m -2.8 m/s 402.80 MHz Albenga (IT) 0.00 km LOST
T1851146 RS41 2021-09-11 01:17:44 44.4461 8.38182 158 ° 13 km/h 793 m -3.5 m/s 402.80 MHz Cairo Montenotte (IT) 0.00 km UNKNOWN
T1850941 RS41 2021-09-10 12:36:04 44.6973 7.99763 109 ° 6 km/h 957 m -11.4 m/s 405.00 MHz Alba (IT) 0.00 km FOUND
T1841116 RS41 2021-09-10 01:15:53 44.5689 8.07875 236 ° 9 km/h 1117 m -3.8 m/s 402.80 MHz Monesiglio (IT) 0.00 km UNKNOWN
T1841115 RS41 2021-09-09 12:32:39 44.224 7.98632 173 ° 9 km/h 1300 m -3.9 m/s 402.80 MHz Mondovì (IT) 0.00 km FOUND
T2040907 RS41 2021-09-09 00:36:27 44.2852 7.66233 205 ° 6 km/h 1989 m -10.4 m/s 402.80 MHz Boves (IT) 0.00 km FOUND
T2040909 RS41 2021-09-08 11:58:10 43.8805 7.57846 131 ° 24 km/h 2882 m -4.5 m/s 402.80 MHz Ventimiglia (IT) 0.00 km UNKNOWN
T1850942 RS41 2021-09-08 01:06:52 43.8533 7.50683 124 ° 22 km/h 3717 m -4.3 m/s 402.80 MHz Menton (FR) 0.00 km UNKNOWN
T1841106 RS41 2021-09-07 12:36:36 44.1176 7.86073 306 ° 7 km/h 1455 m -5.1 m/s 402.80 MHz Alassio (IT) 0.00 km UNKNOWN
T1841108 RS41 2021-09-07 01:54:25 43.7117 7.80195 309 ° 11 km/h 1188 m -1.9 m/s 402.80 MHz San Remo (IT) 0.00 km LOST
T1841112 RS41 2021-09-06 13:06:04 43.92 7.9572 353 ° 11 km/h 615 m -3.7 m/s 402.80 MHz Imperia (IT) 0.00 km UNKNOWN
T1841113 RS41 2021-09-06 01:13:20 44.0465 8.55605 167 ° 22 km/h 262 m -3.2 m/s 402.80 MHz Finale Ligure (IT) 0.00 km LOST
T1841122 RS41 2021-09-05 12:33:02 44.2487 8.54302 179 ° 19 km/h 1610 m -4.9 m/s 405.00 MHz Savona (IT) 0.00 km LOST
T1851143 RS41 2021-09-05 00:15:06 44.3599 8.63173 345 ° 4 km/h 90 m -10.2 m/s 402.80 MHz Cogoleto (IT) 0.00 km LOST
T1851142 RS41 2021-09-04 11:42:01 44.4306 8.20803 256 ° 11 km/h 1109 m -10.4 m/s 402.80 MHz Cairo Montenotte (IT) 0.00 km UNKNOWN
T2040911 RS41 2021-09-04 01:24:01 44.5272 8.67932 184 ° 20 km/h 930 m -4.6 m/s 402.80 MHz Ovada (IT) 0.00 km UNKNOWN
T1841118 RS41 2021-09-03 13:34:07 44.7407 9.08278 174 ° 24 km/h 775 m -2.7 m/s 402.80 MHz Novi Ligure (IT) 0.00 km UNKNOWN
T1841120 RS41 2021-09-03 01:23:39 44.5917 8.54212 179 ° 6 km/h 501 m -2.8 m/s 402.80 MHz Ovada (IT) 0.00 km UNKNOWN
T1841107 RS41 2021-09-02 12:51:37 44.4574 8.35252 169 ° 15 km/h 869 m -5.7 m/s 402.80 MHz Cairo Montenotte (IT) 0.00 km UNKNOWN
T1841114 RS41 2021-09-02 01:16:12 44.4056 8.41195 203 ° 20 km/h 876 m -3.4 m/s 402.80 MHz Cairo Montenotte (IT) 0.00 km UNKNOWN
T1841035 RS41 2021-09-01 13:13:10 44.411 8.50311 4 ° 17 km/h 1093 m -3.5 m/s 402.80 MHz Varazze (IT) 0.00 km UNKNOWN
T1841110 RS41 2021-09-01 01:10:30 44.2121 8.68626 200 ° 6 km/h 81 m -6.8 m/s 402.80 MHz Varazze (IT) 0.00 km LOST
T1841051 RS41 2021-08-31 12:50:59 44.3767 8.56793 330 ° 15 km/h 299 m -3.7 m/s 402.80 MHz Varazze (IT) 0.00 km UNKNOWN
T1841033 RS41 2021-08-31 00:47:05 44.389 8.47718 303 ° 26 km/h 1024 m -5.3 m/s 405.00 MHz Varazze (IT) 0.00 km UNKNOWN
T1841034 RS41 2021-08-30 01:57:51 44.0168 8.87437 17 ° 11 km/h 181 m -2.2 m/s 402.80 MHz Genoa (IT) 0.00 km LOST
T1841121 RS41 2021-08-29 12:36:57 44.0658 8.31137 353 ° 17 km/h 189 m -3.9 m/s 402.80 MHz Albenga (IT) 0.00 km LOST
T1830107 RS41 2021-08-29 00:40:31 43.7982 8.90895 34 ° 9 km/h 299 m -3.1 m/s 402.80 MHz Finale Ligure (IT) 0.00 km LOST
T1830104 RS41 2021-08-28 12:42:48 43.9207 8.964 131 ° 33 km/h 3620 m -4.2 m/s 405.00 MHz Santa Margherita Ligure (IT) 0.00 km LOST
T1831112 RS41 2021-08-28 01:48:47 44.094 9.18751 310 ° 13 km/h 458 m -2.5 m/s 402.80 MHz Sestri Levante (IT) 0.00 km LOST
T1830103 RS41 2021-08-27 12:23:21 44.2212 8.79607 281 ° 20 km/h 126 m -3.4 m/s 402.80 MHz Arenzano (IT) 0.00 km LOST
T1830106 RS41 2021-08-27 01:55:07 43.8029 8.74595 31 ° 33 km/h 267 m -2.0 m/s 402.80 MHz Albenga (IT) 0.00 km LOST
T1830086 RS41 2021-08-26 13:21:10 44.0777 7.55717 162 ° 33 km/h 3307 m -2.0 m/s 402.80 MHz Boves (IT) 0.00 km UNKNOWN
T1830095 RS41 2021-08-26 00:27:21 44.446 7.54986 203 ° 6 km/h 2356 m -4.0 m/s 402.80 MHz Cuneo (IT) 0.00 km FOUND
T1830091 RS41 2021-08-25 12:38:37 44.5419 8.24111 163 ° 17 km/h 1119 m -2.0 m/s 402.80 MHz Monesiglio (IT) 0.00 km UNKNOWN
T1830094 RS41 2021-08-25 00:56:48 44.467 7.9275 223 ° 20 km/h 2543 m -4.8 m/s 405.001 MHz Mondovì (IT) 0.00 km FOUND
T1830096 RS41 2021-08-24 13:16:27 44.6828 7.97822 247 ° 20 km/h 1048 m -3.5 m/s 402.80 MHz Alba (IT) 0.00 km FOUND
T1830085 RS41 2021-08-24 00:57:22 44.4603 8.34085 156 ° 19 km/h 905 m -4.9 m/s 402.80 MHz Cairo Montenotte (IT) 0.00 km UNKNOWN
T1830087 RS41 2021-08-23 12:50:12 44.4337 8.70883 173 ° 26 km/h 1301 m -3.6 m/s 405.00 MHz Arenzano (IT) 0.00 km UNKNOWN
T1830088 RS41 2021-08-23 00:17:23 44.4797 8.57301 347 ° 28 km/h 953 m -7.4 m/s 402.80 MHz Cogoleto (IT) 0.00 km UNKNOWN
T1830092 RS41 2021-08-22 12:17:16 44.4577 8.37385 334 ° 33 km/h 1064 m -12.3 m/s 402.80 MHz Cairo Montenotte (IT) 0.00 km UNKNOWN
T1830093 RS41 2021-08-22 00:06:03 44.4782 8.78442 22 ° 20 km/h 1157 m -5.8 m/s 402.80 MHz Arenzano (IT) 0.00 km UNKNOWN
T1841679 RS41 2021-08-21 13:41:43 44.5408 8.94233 3 ° 22 km/h 1088 m -2.4 m/s 402.80 MHz Serra Riccò (IT) 0.00 km UNKNOWN
T1830089 RS41 2021-08-21 00:40:18 44.4262 8.14933 80 ° 24 km/h 3925 m -8.8 m/s 405.00 MHz Monesiglio (IT) 0.00 km UNKNOWN
T1830090 RS41 2021-08-20 12:21:01 44.5137 8.03956 186 ° 7 km/h 1533 m -7.5 m/s 402.80 MHz Monesiglio (IT) 0.00 km FOUND
T1851023 RS41 2021-08-20 01:25:04 45.0107 8.43369 212 ° 17 km/h 322 m -3.7 m/s 402.80 MHz Casale Monferrato (IT) 0.00 km UNKNOWN
T1850774 RS41 2021-08-19 12:38:16 44.6959 8.4553 190 ° 13 km/h 551 m -7.5 m/s 402.80 MHz Acqui Terme (IT) 0.00 km UNKNOWN
T1850773 RS41 2021-08-19 01:44:09 44.4186 8.60611 182 ° 15 km/h 1057 m -3.8 m/s 402.80 MHz Cogoleto (IT) 0.00 km UNKNOWN
T1850771 RS41 2021-08-18 12:15:34 44.3301 7.97563 110 ° 9 km/h 2143 m -12.4 m/s 402.80 MHz Mondovì (IT) 0.00 km FOUND
T1850772 RS41 2021-08-18 01:16:02 44.1409 8.22345 319 ° 2 km/h 425 m -3.3 m/s 402.80 MHz Loano (IT) 0.00 km UNKNOWN
T2040967 RS41 2021-08-17 12:13:11 44.3198 8.13608 213 ° 17 km/h 1686 m -4.5 m/s 402.80 MHz Cairo Montenotte (IT) 0.00 km FOUND
T2040979 RS41 2021-08-17 00:51:50 44.274 8.34747 200 ° 28 km/h 767 m -2.8 m/s 402.80 MHz Vado Ligure (IT) 0.00 km UNKNOWN
T2040982 RS41 2021-08-16 12:20:57 44.7317 8.57458 348 ° 30 km/h 494 m -15.4 m/s 402.80 MHz Acqui Terme (IT) 0.00 km FOUND
T1850769 RS41 2021-08-16 01:40:16 44.3865 9.04 292 ° 20 km/h 497 m -2.8 m/s 402.80 MHz Recco (IT) 0.00 km UNKNOWN
T1841669 RS41 2021-08-15 12:39:45 44.3712 8.45243 356 ° 22 km/h 1255 m -4.6 m/s 402.80 MHz Savona (IT) 0.00 km UNKNOWN
T1841676 RS41 2021-08-15 00:09:38 44.3257 8.01031 152 ° 11 km/h 1241 m -5.9 m/s 402.80 MHz Mondovì (IT) 0.00 km FOUND
T1841674 RS41 2021-08-14 13:15:56 44.1128 8.13993 25 ° 4 km/h 751 m -1.6 m/s 402.80 MHz Albenga (IT) 0.00 km UNKNOWN
T1850770 RS41 2021-08-14 01:58:58 44.0849 7.7439 92 ° 6 km/h 2505 m -10.0 m/s 402.80 MHz Taggia (IT) 0.00 km FOUND
T1841678 RS41 2021-08-13 13:04:49 43.8685 8.0119 338 ° 6 km/h 358 m -3.1 m/s 402.80 MHz Imperia (IT) 0.00 km LOST
T1840910 RS41 2021-08-13 01:51:43 44.4399 8.30084 170 ° 28 km/h 889 m -2.2 m/s 402.80 MHz Cairo Montenotte (IT) 0.00 km UNKNOWN
T1841671 RS41 2021-08-12 13:04:31 44.4694 8.32381 161 ° 15 km/h 782 m -3.5 m/s 402.80 MHz Cairo Montenotte (IT) 0.00 km UNKNOWN
T1840328 RS41 2021-08-12 00:35:55 44.437 8.38633 119 ° 9 km/h 929 m -3.2 m/s 402.80 MHz Cairo Montenotte (IT) 0.00 km UNKNOWN
T1841672 RS41 2021-08-11 13:04:53 44.1637 8.75608 55 ° 35 km/h 87 m -3.4 m/s 402.80 MHz Varazze (IT) 0.00 km LOST
T1841670 RS41 2021-08-11 01:05:26 44.5228 9.25068 98 ° 17 km/h 1683 m -3.7 m/s 402.80 MHz Rapallo (IT) 0.00 km UNKNOWN
T1840908 RS41 2021-08-10 12:24:37 44.7881 9.05806 147 ° 7 km/h 724 m -8.8 m/s 402.80 MHz Tortona (IT) 0.00 km UNKNOWN
T1840909 RS41 2021-08-10 01:53:48 44.8952 10.3668 123 ° 17 km/h 78 m -3.4 m/s 402.80 MHz Colorno (IT) 0.00 km NEED ATTENTION
T1841680 RS41 2021-08-09 12:22:55 44.9014 9.09082 90 ° 7 km/h 482 m -5.4 m/s 402.80 MHz Voghera (IT) 0.00 km FOUND
T1841686 RS41 2021-08-09 01:51:55 44.9809 9.70869 344 ° 2 km/h 172 m -2.2 m/s 402.80 MHz Podenzano (IT) 0.00 km UNKNOWN
T1840261 RS41 2021-08-08 12:40:54 45.106 9.15406 126 ° 11 km/h 193 m -9.9 m/s 402.80 MHz Pavia (IT) 0.00 km FOUND
T1840001 RS41 2021-08-08 00:24:23 45.4384 9.70244 329 ° 11 km/h 160 m -4.0 m/s 402.80 MHz Caravaggio (IT) 0.00 km FOUND
T1840330 RS41 2021-08-07 12:13:10 45.0899 8.61864 351 ° 28 km/h 315 m -9.8 m/s 402.80 MHz Valenza (IT) 0.00 km UNKNOWN
T1840325 RS41 2021-08-07 01:38:40 44.8171 9.77941 80 ° 6 km/h 472 m -1.9 m/s 402.80 MHz Carpaneto Piacentino (IT) 0.00 km FOUND
T1840404 RS41 2021-08-06 12:51:33 44.1641 9.59487 279 ° 31 km/h 800 m -1.8 m/s 402.80 MHz La Spezia (IT) 0.00 km LOST
T1840354 RS41 2021-08-06 00:36:05 43.9794 8.89688 270 ° 15 km/h 352 m -6.3 m/s 402.80 MHz Santa Margherita Ligure (IT) 0.00 km LOST
T1840002 RS41 2021-08-05 12:29:34 44.399 8.856 59 ° 17 km/h 1375 m -5.7 m/s 402.80 MHz Genoa (IT) 0.00 km LOST
T1840329 RS41 2021-08-05 01:53:03 44.3417 8.54271 224 ° 24 km/h 186 m -1.7 m/s 402.80 MHz Varazze (IT) 0.00 km UNKNOWN
T2040973 RS41 2021-08-04 12:49:36 45.4117 9.148 281 ° 11 km/h 165 m -4.9 m/s 402.80 MHz Rozzano (IT) 0.00 km FOUND
T1840407 RS41 2021-08-04 00:31:27 44.8292 8.37403 29 ° 20 km/h 613 m -9.2 m/s 402.80 MHz Nizza Monferrato (IT) 0.00 km UNKNOWN
T1840327 RS41 2021-08-03 13:00:09 44.5448 9.03117 329 ° 20 km/h 1202 m -3.2 m/s 402.80 MHz Serra Riccò (IT) 0.00 km UNKNOWN
T1850428 RS41 2021-08-03 00:16:29 44.7797 8.16729 43 ° 15 km/h 733 m -16.9 m/s 402.80 MHz Canelli (IT) 0.00 km UNKNOWN
T1841119 RS41 2021-08-02 13:09:20 45.0068 8.69187 137 ° 11 km/h 300 m -3.3 m/s 402.80 MHz Valenza (IT) 0.00 km UNKNOWN
T1840350 RS41 2021-08-02 00:30:08 44.9387 8.39597 260 ° 7 km/h 368 m -6.6 m/s 402.80 MHz Asti (IT) 0.00 km UNKNOWN
T1840264 RS41 2021-08-01 13:18:08 45.535 8.94216 161 ° 19 km/h 266 m -4.3 m/s 405.00 MHz Parabiago (IT) 0.00 km FOUND
T1840403 RS41 2021-08-01 00:47:17 45.7142 8.50365 179 ° 11 km/h 468 m -4.0 m/s 402.80 MHz Borgomanero (IT) 0.00 km FOUND
T1840263 RS41 2021-07-31 12:45:49 45.2923 9.03017 118 ° 4 km/h 189 m -2.0 m/s 402.80 MHz Motta Visconti (IT) 0.00 km UNKNOWN
T1851120 RS41 2021-07-31 00:29:50 44.9111 8.3014 109 ° 30 km/h 1045 m -8.0 m/s 402.80 MHz Asti (IT) 0.00 km FOUND
T1851117 RS41 2021-07-30 12:42:57 44.8145 8.54291 224 ° 6 km/h 354 m -5.2 m/s 402.80 MHz Alessandria (IT) 0.00 km UNKNOWN
T1850427 RS41 2021-07-30 00:39:02 44.665 8.26391 23 ° 9 km/h 620 m -6.4 m/s 402.80 MHz Canelli (IT) 0.00 km UNKNOWN
T1850938 RS41 2021-07-29 13:30:29 44.8418 8.66895 147 ° 9 km/h 170 m -2.0 m/s 402.80 MHz Alessandria (IT) 0.00 km UNKNOWN
T1840262 RS41 2021-07-29 00:26:54 44.6242 8.06333 149 ° 9 km/h 1142 m -9.3 m/s 402.80 MHz Alba (IT) 0.00 km UNKNOWN
T2040870 RS41 2021-07-28 12:53:35 45.2264 8.76066 165 ° 9 km/h 185 m -2.9 m/s 402.80 MHz Mortara (IT) 0.00 km UNKNOWN
T1850430 RS41 2021-07-27 13:39:55 44.8706 8.12139 245 ° 26 km/h 577 m -2.5 m/s 402.80 MHz Asti (IT) 0.00 km FOUND
T1851121 RS41 2021-07-27 01:15:47 45.1218 8.0261 166 ° 7 km/h 448 m -2.6 m/s 402.80 MHz Crescentino (IT) 0.00 km UNKNOWN
T1851046 RS41 2021-07-26 12:04:31 45.1012 8.11514 258 ° 4 km/h 618 m -12.6 m/s 402.80 MHz Crescentino (IT) 0.00 km UNKNOWN
T2040984 RS41 2021-07-26 01:10:35 45.2047 8.20094 244 ° 22 km/h 1035 m -2.9 m/s 405.00 MHz Crescentino (IT) 0.00 km UNKNOWN
T1851119 RS41 2021-07-25 12:30:42 44.9915 8.10897 315 ° 19 km/h 404 m -4.3 m/s 402.80 MHz Asti (IT) 0.00 km NEED ATTENTION
T1850429 RS41 2021-07-25 00:56:43 45.2265 8.78964 78 ° 13 km/h 208 m -2.0 m/s 402.80 MHz Mortara (IT) 0.00 km FOUND
T2040976 RS41 2021-07-24 12:04:43 44.9635 8.29794 325 ° 19 km/h 604 m -13.6 m/s 402.80 MHz Asti (IT) 0.00 km UNKNOWN
T1840322 RS41 2021-07-24 00:39:44 44.6483 8.21289 334 ° 9 km/h 812 m -7.3 m/s 402.80 MHz Canelli (IT) 0.00 km UNKNOWN
T2040977 RS41 2021-07-23 13:17:34 44.2671 9.00407 300 ° 13 km/h 476 m -2.1 m/s 402.80 MHz Recco (IT) 0.00 km LOST
T1851118 RS41 2021-07-23 02:05:22 44.0395 8.8581 329 ° 9 km/h 223 m -1.9 m/s 402.80 MHz Genoa (IT) 0.00 km LOST
T1840324 RS41 2021-07-22 12:25:44 44.2534 7.97908 153 ° 7 km/h 1647 m -8.5 m/s 402.80 MHz Mondovì (IT) 0.00 km FOUND
T2040974 RS41 2021-07-22 00:32:52 44.349 7.77983 195 ° 7 km/h 3083 m -12.3 m/s 402.80 MHz Mondovì (IT) 0.00 km FOUND
T2040980 RS41 2021-07-21 12:58:41 44.791 7.66499 272 ° 13 km/h 1186 m -6.8 m/s 402.80 MHz Racconigi (IT) 0.00 km FOUND
T1840323 RS41 2021-07-21 00:57:09 44.5977 7.84163 264 ° 2 km/h 930 m -4.1 m/s 402.80 MHz Cherasco (IT) 0.00 km FOUND
T2040981 RS41 2021-07-20 12:51:07 44.4037 8.16966 355 ° 19 km/h 1021 m -3.7 m/s 402.80 MHz Monesiglio (IT) 0.00 km FOUND
P3110402 RS41 2021-07-20 01:05:51 44.3099 7.85087 312 ° 7 km/h 1505 m -3.3 m/s 402.80 MHz Mondovì (IT) 0.00 km FOUND
P3110399 RS41 2021-07-19 12:08:28 44.3283 7.64217 176 ° 24 km/h 3516 m -6.7 m/s 405.00 MHz Boves (IT) 0.00 km FOUND
P3020922 RS41 2021-07-19 01:32:06 43.9478 7.1686 221 ° 20 km/h 3969 m -3.2 m/s 402.80 MHz Contes (FR) 0.00 km UNKNOWN
P3110449 RS41 2021-07-18 13:08:08 43.8195 6.87222 207 ° 31 km/h 4727 m -3.3 m/s 402.80 MHz Grasse (FR) 0.00 km FOUND
P3020921 RS41 2021-07-18 00:02:10 44.1256 7.17432 212 ° 44 km/h 3080 m -11.8 m/s 402.80 MHz Borgo San Dalmazzo (IT) 0.00 km UNKNOWN
P3310147 RS41 2021-07-17 12:14:08 44.2812 6.98638 206 ° 22 km/h 3109 m -5.5 m/s 402.80 MHz Borgo San Dalmazzo (IT) 0.00 km UNKNOWN
P3331044 RS41 2021-07-17 00:08:40 44.2205 7.43071 223 ° 39 km/h 3142 m -3.3 m/s 405.00 MHz Borgo San Dalmazzo (IT) 0.00 km FOUND
P3320252 RS41 2021-07-16 13:05:09 44.199 7.43083 174 ° 26 km/h 2743 m -2.9 m/s 405.00 MHz Borgo San Dalmazzo (IT) 0.00 km UNKNOWN
P3020898 RS41 2021-07-16 00:51:35 44.3437 7.56327 57 ° 2 km/h 1728 m -5.5 m/s 402.80 MHz Boves (IT) 0.00 km FOUND
P3320247 RS41 2021-07-15 12:26:48 44.419 7.73567 317 ° 7 km/h 1625 m -4.6 m/s 402.80 MHz Mondovì (IT) 0.00 km FOUND
P3320235 RS41 2021-07-15 01:42:33 44.2582 7.77609 133 ° 11 km/h 1839 m -2.0 m/s 402.80 MHz Mondovì (IT) 0.00 km FOUND
P3310146 RS41 2021-07-14 12:42:19 44.5528 8.05677 345 ° 7 km/h 1361 m -4.2 m/s 402.80 MHz Monesiglio (IT) 0.00 km FOUND
P3020911 RS41 2021-07-13 12:40:15 45.4166 7.53197 349 ° 6 km/h 1205 m -3.3 m/s 402.80 MHz Cuorgnè (IT) 0.00 km FOUND
P3320246 RS41 2021-07-13 01:03:55 45.611 7.72727 321 ° 41 km/h 2104 m -7.5 m/s 402.80 MHz Ivrea (IT) 0.00 km UNKNOWN
P3020918 RS41 2021-07-12 12:22:54 44.9617 8.14249 230 ° 7 km/h 640 m -6.0 m/s 402.80 MHz Asti (IT) 0.00 km FOUND
P3020914 RS41 2021-07-12 00:45:48 44.4963 8.30335 6 ° 13 km/h 627 m -6.9 m/s 402.80 MHz Cairo Montenotte (IT) 0.00 km UNKNOWN
P3310150 RS41 2021-07-11 12:49:03 44.3037 8.59279 228 ° 7 km/h 61 m -3.5 m/s 402.80 MHz Varazze (IT) 0.00 km LOST
P2621276 RS41 2021-07-11 00:35:38 43.9335 9.31234 78 ° 20 km/h 750 m -2.9 m/s 402.80 MHz Sestri Levante (IT) 0.00 km LOST
S3210077 RS41 2021-07-10 11:21:07 44.6582 8.41595 200 ° 9 km/h 356 m -5.9 m/s 402.80 MHz Acqui Terme (IT) 0.00 km UNKNOWN
S3250295 RS41 2021-07-10 02:10:00 44.2885 8.76844 332 ° 6 km/h 143 m -2.1 m/s 402.80 MHz Arenzano (IT) 0.00 km LOST
S3250347 RS41 2021-07-09 12:39:21 44.518 8.49621 93 ° 11 km/h 938 m -3.6 m/s 402.80 MHz Acqui Terme (IT) 0.00 km UNKNOWN
S3210078 RS41 2021-07-09 00:32:19 44.5229 8.42171 198 ° 11 km/h 746 m -5.0 m/s 402.80 MHz Acqui Terme (IT) 0.00 km UNKNOWN
S3250348 RS41 2021-07-08 12:45:29 45.6182 7.96871 302 ° 11 km/h 1646 m -1.6 m/s 402.80 MHz Biella (IT) 0.00 km FOUND
S3250297 RS41 2021-07-07 23:50:33 45.5053 8.39141 109 ° 9 km/h 341 m -7.8 m/s 402.80 MHz Gattinara (IT) 0.00 km UNKNOWN
S3210074 RS41 2021-07-07 11:41:26 45.3344 8.4074 164 ° 7 km/h 317 m -7.4 m/s 402.80 MHz Vercelli (IT) 0.00 km UNKNOWN
S3150755 RS41 2021-07-07 01:49:49 45.6906 8.73321 257 ° 17 km/h 371 m -2.4 m/s 402.80 MHz Somma Lombardo (IT) 0.00 km LOST
S3150751 RS41 2021-07-06 12:44:58 45.2606 8.46153 216 ° 20 km/h 402 m -5.3 m/s 402.80 MHz Vercelli (IT) 0.00 km UNKNOWN
S3150753 RS41 2021-07-06 02:36:47 45.0202 8.77894 73 ° 9 km/h 183 m -2.0 m/s 402.80 MHz Valenza (IT) 0.00 km UNKNOWN
S3150689 RS41 2021-07-05 13:08:35 44.4353 8.57286 347 ° 22 km/h 1246 m -6.0 m/s 402.80 MHz Cogoleto (IT) 0.00 km UNKNOWN
S3150688 RS41 2021-07-05 01:25:58 43.8491 9.17395 235 ° 7 km/h 518 m -4.7 m/s 402.80 MHz Sestri Levante (IT) 0.00 km LOST
S3150752 RS41 2021-07-04 12:26:17 44.8524 8.92256 2 ° 15 km/h 372 m -12.4 m/s 402.80 MHz Tortona (IT) 0.00 km UNKNOWN
S3150690 RS41 2021-07-04 01:40:35 44.6856 8.849 353 ° 19 km/h 442 m -3.1 m/s 402.80 MHz Novi Ligure (IT) 0.00 km UNKNOWN
S3150619 RS41 2021-07-03 12:18:01 44.5971 8.35387 359 ° 13 km/h 951 m -16.8 m/s 402.80 MHz Acqui Terme (IT) 0.00 km UNKNOWN
S3150622 RS41 2021-07-03 01:32:36 44.0789 8.56825 221 ° 17 km/h 165 m -4.1 m/s 402.801 MHz Finale Ligure (IT) 0.00 km LOST
S3150601 RS41 2021-07-02 12:38:24 44.011 8.63473 108 ° 59 km/h 4770 m -6.1 m/s 405.000 MHz Finale Ligure (IT) 0.00 km LOST
S3150621 RS41 2021-07-02 02:11:32 44.2966 8.59205 283 ° 13 km/h 128 m -5.9 m/s 402.80 MHz Varazze (IT) 0.00 km LOST
S3150620 RS41 2021-07-01 02:03:23 44.3924 9.12745 280 ° 19 km/h 810 m -4.3 m/s 402.80 MHz Recco (IT) 0.00 km UNKNOWN
S3150756 RS41 2021-06-30 02:25:00 45.3174 9.67784 100 ° 19 km/h 153 m -1.6 m/s 402.80 MHz Crema (IT) 0.00 km FOUND
S3150623 RS41 2021-06-29 01:07:20 45.3794 7.94262 250 ° 15 km/h 568 m -14.9 m/s 402.80 MHz Vestignè (IT) 0.00 km UNKNOWN
S3150754 RS41 2021-06-28 02:03:33 45.2405 8.20013 238 ° 15 km/h 407 m -2.1 m/s 402.80 MHz Crescentino (IT) 0.00 km UNKNOWN
S3150624 RS41 2021-06-27 01:02:53 44.6505 7.93283 237 ° 6 km/h 1224 m -6.0 m/s 402.80 MHz Cherasco (IT) 0.00 km FOUND
S2920249 RS41 2021-06-26 01:51:43 44.5826 8.34385 353 ° 24 km/h 705 m -2.3 m/s 402.80 MHz Acqui Terme (IT) 0.00 km UNKNOWN
S3220570 RS41 2021-06-25 01:07:03 44.8414 8.09186 150 ° 7 km/h 834 m -8.0 m/s 402.80 MHz Asti (IT) 0.00 km FOUND
D17064179 DFM09 2021-06-24 10:48:00 45.3141 8.52312 38 ° 93 km/h 6201 m -4.2 m/s 403.869 MHz Vercelli (IT) 0.00 km UNKNOWN
S3220583 RS41 2021-06-24 00:36:10 45.3784 8.17275 258 ° 2 km/h 382 m -8.4 m/s 402.80 MHz Santhià (IT) 0.00 km UNKNOWN
S3150605 RS41 2021-06-23 01:40:47 45.8178 8.48296 235 ° 6 km/h 838 m -2.2 m/s 402.800 MHz Omegna (IT) 0.00 km UNKNOWN
S3220580 RS41 2021-06-22 13:17:53 45.6746 8.80367 301 ° 20 km/h 372 m -3.0 m/s 402.80 MHz Gallarate (IT) 0.00 km NEED ATTENTION
S3220592 RS41 2021-06-22 01:30:25 45.6197 8.40068 189 ° 13 km/h 418 m -3.7 m/s 402.80 MHz Gattinara (IT) 0.00 km UNKNOWN
S3150603 RS41 2021-06-21 13:19:51 45.6381 8.59771 347 ° 17 km/h 401 m -3.1 m/s 402.80 MHz Oleggio (IT) 0.00 km UNKNOWN
S3220569 RS41 2021-06-21 01:27:06 45.4579 8.31667 209 ° 15 km/h 270 m -2.9 m/s 402.80 MHz Santhià (IT) 0.00 km UNKNOWN
S3220581 RS41 2021-06-20 13:13:09 45.7209 8.27865 340 ° 20 km/h 972 m -2.8 m/s 405.00 MHz Borgosesia (IT) 0.00 km NEED ATTENTION
S3150602 RS41 2021-06-20 00:58:28 45.0293 8.84658 20 ° 28 km/h 377 m -3.2 m/s 402.80 MHz Tortona (IT) 0.00 km UNKNOWN
S3220572 RS41 2021-06-19 13:36:15 45.1359 8.41847 297 ° 7 km/h 391 m -3.2 m/s 405.00 MHz Casale Monferrato (IT) 0.00 km NEED ATTENTION
S3220579 RS41 2021-06-19 01:16:30 44.8069 8.14181 75 ° 11 km/h 730 m -4.8 m/s 402.80 MHz Asti (IT) 0.00 km FOUND
S3220573 RS41 2021-06-18 12:19:00 44.805 7.57436 277 ° 13 km/h 1271 m -10.6 m/s 404.000 MHz Racconigi (IT) 0.00 km FOUND
S3220576 RS41 2021-06-18 01:36:00 45.0315 7.31413 191 ° 4 km/h 1157 m -3.5 m/s 402.80 MHz Giaveno (IT) 0.00 km FOUND
S3220563 RS41 2021-06-17 13:15:04 44.6809 7.29761 57 ° 7 km/h 1264 m -3.7 m/s 402.80 MHz Barge (IT) 0.00 km FOUND
S3220552 RS41 2021-06-17 01:05:54 44.4698 7.48946 334 ° 6 km/h 2007 m -5.3 m/s 405.00 MHz Busca (IT) 0.00 km FOUND
S3220564 RS41 2021-06-16 12:26:17 44.66 7.22806 278 ° 9 km/h 1907 m -12.8 m/s 402.80 MHz Barge (IT) 0.00 km FOUND
S3220577 RS41 2021-06-16 01:58:26 44.4865 6.90797 51 ° 6 km/h 2492 m -2.4 m/s 402.80 MHz Embrun (FR) 0.00 km UNKNOWN
S3220574 RS41 2021-06-15 12:33:49 44.445 7.28701 274 ° 9 km/h 1751 m -7.3 m/s 402.80 MHz Busca (IT) 0.00 km UNKNOWN
S3220562 RS41 2021-06-15 01:31:06 44.318 7.50709 207 ° 11 km/h 1564 m -3.4 m/s 402.80 MHz Borgo San Dalmazzo (IT) 0.00 km LOST
S3220566 RS41 2021-06-14 12:39:40 44.33 7.56402 274 ° 6 km/h 1405 m -4.6 m/s 402.80 MHz Boves (IT) 0.00 km FOUND
S3220568 RS41 2021-06-14 02:04:50 44.1969 7.22582 204 ° 7 km/h 2808 m -2.4 m/s 402.80 MHz Borgo San Dalmazzo (IT) 0.00 km UNKNOWN
S3210262 RS41 2021-06-13 12:59:34 44.0478 7.34244 232 ° 19 km/h 3672 m -4.0 m/s 402.80 MHz Contes (FR) 0.00 km UNKNOWN
S3220584 RS41 2021-06-13 01:00:46 43.9273 7.56843 222 ° 24 km/h 3925 m -3.6 m/s 402.80 MHz Ventimiglia (IT) 0.00 km UNKNOWN
S3220548 RS41 2021-06-12 12:54:48 44.0194 7.0536 185 ° 20 km/h 4469 m -5.4 m/s 402.80 MHz Carros (FR) 0.00 km UNKNOWN
S3220565 RS41 2021-06-12 01:14:36 43.8703 6.67735 171 ° 26 km/h 4626 m -4.7 m/s 402.80 MHz Fayence (FR) 0.00 km UNKNOWN
S3150813 RS41 2021-06-11 12:39:22 44.1437 7.40104 150 ° 7 km/h 2744 m -7.9 m/s 402.80 MHz Borgo San Dalmazzo (IT) 0.00 km UNKNOWN
S3210264 RS41 2021-06-11 01:03:32 44.1339 7.46037 156 ° 20 km/h 4301 m -8.6 m/s 402.80 MHz Borgo San Dalmazzo (IT) 0.00 km UNKNOWN
S3210265 RS41 2021-06-10 12:45:56 44.0332 7.26032 169 ° 24 km/h 4581 m -3.7 m/s 402.80 MHz Contes (FR) 0.00 km UNKNOWN
S3220545 RS41 2021-06-10 01:16:58 44.0968 7.47133 228 ° 15 km/h 3805 m -2.5 m/s 402.80 MHz Borgo San Dalmazzo (IT) 0.00 km UNKNOWN
S3220575 RS41 2021-06-09 12:57:40 44.2252 7.71911 295 ° 6 km/h 2248 m -5.1 m/s 402.80 MHz Boves (IT) 0.00 km UNKNOWN
S3210263 RS41 2021-06-09 01:28:48 44.235 7.3897 166 ° 7 km/h 2101 m -4.3 m/s 402.80 MHz Borgo San Dalmazzo (IT) 0.00 km UNKNOWN
S3210259 RS41 2021-06-07 14:07:09 44.4702 7.87695 212 ° 13 km/h 677 m -2.3 m/s 402.80 MHz Mondovì (IT) 0.00 km FOUND
S3210261 RS41 2021-06-07 01:02:22 44.3859 7.53272 219 ° 26 km/h 1643 m -9.1 m/s 402.80 MHz Cuneo (IT) 0.00 km FOUND
S3210260 RS41 2021-06-06 13:58:46 44.5823 7.8049 340 ° 15 km/h 850 m -1.7 m/s 402.799 MHz Fossano (IT) 0.00 km FOUND
S3220559 RS41 2021-06-06 01:29:17 44.4888 8.65906 35 ° 17 km/h 1237 m -4.4 m/s 402.800 MHz Arenzano (IT) 0.00 km UNKNOWN
S3220560 RS41 2021-06-05 14:01:00 44.8958 9.21417 83 ° 19 km/h 623 m -2.0 m/s 402.800 MHz Voghera (IT) 0.00 km UNKNOWN
S3150286 RS41 2021-06-05 01:25:55 44.8224 8.8721 353 ° 28 km/h 508 m -2.5 m/s 402.800 MHz Tortona (IT) 0.00 km UNKNOWN
S3220595 RS41 2021-06-04 12:47:43 44.6777 8.27986 329 ° 19 km/h 676 m -9.0 m/s 402.799 MHz Canelli (IT) 0.00 km UNKNOWN
S3150287 RS41 2021-06-04 02:16:30 44.9197 8.1364 68 ° 9 km/h 532 m -2.3 m/s 402.80 MHz Asti (IT) 0.00 km FOUND
S3150127 RS41 2021-06-03 12:55:30 44.6861 7.86936 303 ° 6 km/h 578 m -5.5 m/s 402.800 MHz Bra (IT) 0.00 km FOUND
S3150131 RS41 2021-06-03 01:59:55 44.1432 8.02151 285 ° 7 km/h 1585 m -2.3 m/s 402.80 MHz Albenga (IT) 0.00 km UNKNOWN
S3150130 RS41 2021-06-02 13:03:17 44.3445 8.05984 169 ° 6 km/h 971 m -4.5 m/s 402.799 MHz Monesiglio (IT) 0.00 km UNKNOWN
S3220596 RS41 2021-06-02 00:57:20 44.3186 8.20059 314 ° 6 km/h 783 m -3.4 m/s 402.80 MHz Cairo Montenotte (IT) 0.00 km UNKNOWN
S3220600 RS41 2021-06-01 12:51:49 44.1928 8.49528 349 ° 7 km/h 164 m -5.3 m/s 402.800 MHz Vado Ligure (IT) 0.00 km LOST
S3220598 RS41 2021-06-01 02:04:55 43.8614 8.87473 273 ° 9 km/h 107 m -1.6 m/s 402.800 MHz Finale Ligure (IT) 0.00 km LOST
S3150814 RS41 2021-05-31 12:28:15 44.21 7.94343 21 ° 6 km/h 1755 m -12.8 m/s 402.800 MHz Mondovì (IT) 0.00 km UNKNOWN
S3150285 RS41 2021-05-31 01:07:22 44.3211 8.22734 13 ° 9 km/h 840 m -4.0 m/s 402.800 MHz Cairo Montenotte (IT) 0.00 km UNKNOWN
S3150144 RS41 2021-05-30 12:04:28 44.233 8.04583 156 ° 9 km/h 1862 m -10.2 m/s 402.800 MHz Loano (IT) 0.00 km FOUND
S3150283 RS41 2021-05-30 00:31:19 44.2955 8.03583 257 ° 13 km/h 1128 m -3.9 m/s 402.800 MHz Mondovì (IT) 0.00 km UNKNOWN
S3220597 RS41 2021-05-29 13:09:40 44.373 8.60421 35 ° 4 km/h 376 m -4.5 m/s 402.800 MHz Varazze (IT) 0.00 km UNKNOWN
S3150025 RS41 2021-05-29 01:09:37 44.3157 8.42684 223 ° 6 km/h 500 m -5.6 m/s 402.80 MHz Savona (IT) 0.00 km UNKNOWN
S3150141 RS41 2021-05-28 12:35:37 44.3636 8.45045 22 ° 11 km/h 551 m -5.3 m/s 402.80 MHz Savona (IT) 0.00 km UNKNOWN
S3150142 RS41 2021-05-28 01:07:02 44.0063 8.74946 249 ° 15 km/h 140 m -3.5 m/s 402.80 MHz Finale Ligure (IT) 0.00 km LOST
S3150288 RS41 2021-05-27 13:01:34 44.025 9.15132 280 ° 4 km/h 80 m -3.5 m/s 402.800 MHz Sestri Levante (IT) 0.00 km LOST
S3150284 RS41 2021-05-27 01:25:50 44.4891 8.49206 316 ° 20 km/h 778 m -3.3 m/s 402.800 MHz Varazze (IT) 0.00 km UNKNOWN
S3150812 RS41 2021-05-26 13:10:59 44.6231 8.79977 344 ° 22 km/h 823 m -6.2 m/s 402.80 MHz Ovada (IT) 0.00 km UNKNOWN
S3250300 RS41 2021-05-26 01:21:16 44.6675 9.02262 6 ° 22 km/h 941 m -5.4 m/s 402.80 MHz Serra Riccò (IT) 0.00 km UNKNOWN
S3250350 RS41 2021-05-25 13:01:25 44.8659 10.0265 128 ° 33 km/h 144 m -3.6 m/s 402.800 MHz Fidenza (IT) 0.00 km UNKNOWN
S3250310 RS41 2021-05-25 01:18:09 45.1346 9.58909 149 ° 4 km/h 130 m -4.4 m/s 402.800 MHz Casalpusterlengo (IT) 0.00 km FOUND
S3250298 RS41 2021-05-24 12:29:07 45.745 8.40831 175 ° 7 km/h 585 m -12.4 m/s 405.000 MHz Borgomanero (IT) 0.00 km UNKNOWN
S3250302 RS41 2021-05-24 01:24:49 45.4354 9.42973 278 ° 19 km/h 171 m -5.0 m/s 402.800 MHz Paullo (IT) 0.00 km FOUND
S3250352 RS41 2021-05-23 12:28:33 45.1349 9.81726 94 ° 19 km/h 146 m -8.0 m/s 402.800 MHz Codogno (IT) 0.00 km FOUND
S3250309 RS41 2021-05-23 01:34:10 45.3456 11.0665 259 ° 22 km/h 93 m -2.5 m/s 402.800 MHz San Giovanni Lupatoto (IT) 0.00 km FOUND
S3250354 RS41 2021-05-22 12:28:22 44.9007 9.68881 148 ° 6 km/h 428 m -8.6 m/s 402.801 MHz Podenzano (IT) 0.00 km UNKNOWN
S3250307 RS41 2021-05-22 01:13:52 44.965 9.91977 17 ° 26 km/h 120 m -5.6 m/s 402.800 MHz Carpaneto Piacentino (IT) 0.00 km UNKNOWN
S3250296 RS41 2021-05-21 14:25:32 44.6436 10.4876 96 ° 13 km/h 173 m -1.6 m/s 402.800 MHz Quattro Castella (IT) 0.00 km FOUND
S3250351 RS41 2021-05-21 01:25:34 43.7472 9.28569 13 ° 17 km/h 92 m -4.0 m/s 402.801 MHz Sestri Levante (IT) 0.00 km LOST
S3250311 RS41 2021-05-20 12:53:31 43.1713 8.90535 135 ° 28 km/h 2570 m -4.1 m/s 405.000 MHz Calvi (FR) 0.00 km LOST
S3250303 RS41 2021-05-20 01:05:19 43.6263 9.11991 355 ° 6 km/h 65 m -8.5 m/s 402.800 MHz Sestri Levante (IT) 0.00 km LOST
S3210068 RS41 2021-05-19 01:25:50 44.3153 10.2021 44 ° 26 km/h 1454 m -3.5 m/s 402.800 MHz Fivizzano (IT) 0.00 km NEED ATTENTION
S3250308 RS41 2021-05-18 14:14:45 44.4364 11.2478 47 ° 30 km/h 252 m -4.0 m/s 402.800 MHz Sasso Marconi (IT) 0.00 km FOUND
S3250349 RS41 2021-05-18 01:06:21 44.1481 9.8339 305 ° 13 km/h 848 m -10.4 m/s 402.800 MHz La Spezia (IT) 0.00 km UNKNOWN
S3210108 RS41 2021-05-17 12:38:38 44.4663 9.89233 4 ° 20 km/h 1430 m -15.1 m/s 405.001 MHz Aulla (IT) 0.00 km UNKNOWN
S3250299 RS41 2021-05-17 01:17:53 44.4256 10.8929 51 ° 74 km/h 637 m -6.7 m/s 402.800 MHz Serramazzoni (IT) 0.00 km FOUND
S3150221 RS41 2021-05-16 12:51:05 44.497 9.5778 53 ° 52 km/h 1938 m -8.9 m/s 402.80 MHz Lavagna (IT) 0.00 km UNKNOWN
S3210114 RS41 2021-05-16 00:57:54 43.92 10.8608 72 ° 63 km/h 1048 m -4.2 m/s 402.80 MHz Serravalle Pistoiese (IT) 0.00 km UNKNOWN
S3210073 RS41 2021-05-15 13:09:53 43.9996 9.73093 13 ° 17 km/h 225 m -4.2 m/s 402.80 MHz La Spezia (IT) 0.00 km LOST
S3210072 RS41 2021-05-15 00:44:43 43.8687 8.48831 162 ° 7 km/h 447 m -15.6 m/s 402.800 MHz Alassio (IT) 0.00 km LOST
S3210071 RS41 2021-05-14 12:38:00 44.6987 8.06369 317 ° 39 km/h 476 m -13.7 m/s 402.80 MHz Alba (IT) 0.00 km FOUND
S3210069 RS41 2021-05-14 01:55:20 44.5627 8.666 335 ° 44 km/h 767 m -5.2 m/s 402.801 MHz Ovada (IT) 0.00 km UNKNOWN
S3150440 RS41 2021-05-13 12:49:18 44.5414 8.05782 318 ° 26 km/h 846 m -2.4 m/s 402.80 MHz Monesiglio (IT) 0.00 km FOUND
S3210104 RS41 2021-05-13 00:55:39 44.5587 8.00066 30 ° 7 km/h 951 m -8.6 m/s 402.80 MHz Monesiglio (IT) 0.00 km FOUND
S3210106 RS41 2021-05-12 12:53:53 44.798 8.63218 1 ° 13 km/h 661 m -4.3 m/s 402.80 MHz Novi Ligure (IT) 0.00 km FOUND
S3210075 RS41 2021-05-12 01:18:42 44.4698 8.29028 35 ° 2 km/h 434 m -4.4 m/s 402.80 MHz Cairo Montenotte (IT) 0.00 km UNKNOWN
S3210067 RS41 2021-05-11 12:32:40 45.5734 7.65327 331 ° 20 km/h 2534 m -7.3 m/s 402.80 MHz Cuorgnè (IT) 0.00 km UNKNOWN
S3210113 RS41 2021-05-11 01:20:47 45.953 8.24753 305 ° 30 km/h 2177 m -2.2 m/s 402.80 MHz Gravellona Toce (IT) 0.00 km UNKNOWN
S3210107 RS41 2021-05-10 12:29:34 45.4269 8.1983 199 ° 17 km/h 528 m -10.3 m/s 402.80 MHz Santhià (IT) 0.00 km FOUND
S3210076 RS41 2021-05-10 01:17:35 45.3226 8.35405 205 ° 26 km/h 446 m -4.4 m/s 402.80 MHz Vercelli (IT) 0.00 km UNKNOWN
S3150375 RS41 2021-05-09 12:59:49 45.0863 8.19603 219 ° 2 km/h 639 m -9.2 m/s 402.800 MHz Crescentino (IT) 0.00 km FOUND
S3210070 RS41 2021-05-09 01:03:23 44.6381 8.37798 221 ° 13 km/h 654 m -4.4 m/s 402.800 MHz Acqui Terme (IT) 0.00 km UNKNOWN
S3210103 RS41 2021-05-08 12:35:37 44.2133 8.5679 239 ° 7 km/h 64 m -10.1 m/s 402.800 MHz Vado Ligure (IT) 0.00 km LOST
S3210023 RS41 2021-05-08 02:18:49 43.5685 9.98756 17 ° 22 km/h 156 m -2.4 m/s 402.801 MHz Livorno (IT) 0.00 km LOST
S3210022 RS41 2021-05-07 12:40:09 44.4179 9.95193 14 ° 35 km/h 1433 m -5.3 m/s 402.80 MHz Aulla (IT) 0.00 km UNKNOWN
S3620900 RS41 2021-05-07 01:32:48 44.6298 10.4451 56 ° 22 km/h 259 m -3.1 m/s 402.800 MHz Quattro Castella (IT) 0.00 km FOUND
S3210021 RS41 2021-05-06 12:40:10 44.6664 9.91173 21 ° 37 km/h 681 m -14.5 m/s 402.800 MHz Salsomaggiore Terme (IT) 0.00 km NEED ATTENTION
S3150439 RS41 2021-05-05 13:03:22 44.6157 9.65397 49 ° 61 km/h 1313 m -4.4 m/s 402.80 MHz Salsomaggiore Terme (IT) 0.00 km FOUND
S3210024 RS41 2021-05-05 02:38:34 44.7394 10.5011 186 ° 6 km/h 106 m -1.6 m/s 402.80 MHz Cavriago (IT) 0.00 km FOUND
S3440676 RS41 2021-05-04 13:14:47 44.6743 9.02855 355 ° 30 km/h 937 m -1.6 m/s 402.801 MHz Serra Riccò (IT) 0.00 km UNKNOWN
S3620909 RS41 2021-05-04 01:59:53 44.7342 9.71864 52 ° 7 km/h 914 m -2.3 m/s 402.80 MHz Carpaneto Piacentino (IT) 0.00 km UNKNOWN
S3620895 RS41 2021-05-03 12:21:49 44.8389 9.17967 196 ° 19 km/h 900 m -10.9 m/s 402.800 MHz Voghera (IT) 0.00 km UNKNOWN
S3620907 RS41 2021-05-03 02:06:02 45.0896 10.3868 274 ° 35 km/h 70 m -3.1 m/s 402.800 MHz Casalmaggiore (IT) 0.00 km UNKNOWN
S3620542 RS41 2021-05-02 12:59:10 45.3988 9.43423 88 ° 19 km/h 137 m -3.6 m/s 402.801 MHz Paullo (IT) 0.00 km FOUND
S3620847 RS41 2021-05-02 01:46:22 45.6456 10.221 84 ° 19 km/h 665 m -1.9 m/s 402.80 MHz Sarezzo (IT) 0.00 km UNKNOWN
S3620899 RS41 2021-05-01 12:33:52 45.5748 9.04015 301 ° 11 km/h 248 m -6.0 m/s 402.80 MHz Lainate (IT) 0.00 km FOUND
S3630168 RS41 2021-05-01 00:43:56 45.3012 9.53887 227 ° 13 km/h 166 m -12.2 m/s 402.80 MHz Lodi (IT) 0.00 km LOST
S3620890 RS41 2021-04-30 12:43:54 45.3802 9.64336 219 ° 11 km/h 155 m -1.6 m/s 402.80 MHz Crema (IT) 0.00 km FOUND
S3141406 RS41 2021-04-30 00:47:01 44.9546 9.32676 292 ° 2 km/h 589 m -5.9 m/s 402.80 MHz Voghera (IT) 0.00 km FOUND
S3150507 RS41 2021-04-29 01:19:08 45.1428 9.70817 304 ° 4 km/h 144 m -4.7 m/s 402.800 MHz Codogno (IT) 0.00 km FOUND
S3141407 RS41 2021-04-28 02:04:00 44.9402 9.29363 273 ° 31 km/h 570 m -3.2 m/s 402.80 MHz Voghera (IT) 0.00 km FOUND
S3141531 RS41 2021-04-27 00:59:49 44.5735 8.51953 178 ° 26 km/h 735 m -3.2 m/s 402.800 MHz Acqui Terme (IT) 0.00 km UNKNOWN
S3141408 RS41 2021-04-26 00:54:45 44.4301 9.81687 334 ° 24 km/h 1552 m -2.0 m/s 402.800 MHz Aulla (IT) 0.00 km UNKNOWN
S3141409 RS41 2021-04-25 01:31:16 43.9945 9.28266 35 ° 11 km/h 63 m -3.6 m/s 402.800 MHz Sestri Levante (IT) 0.00 km LOST
S3141532 RS41 2021-04-24 01:23:59 44.2329 8.50592 156 ° 20 km/h 104 m -3.1 m/s 402.800 MHz Vado Ligure (IT) 0.00 km LOST
S3141410 RS41 2021-04-23 00:51:11 44.1355 7.55969 239 ° 19 km/h 2716 m -2.7 m/s 402.800 MHz Boves (IT) 0.00 km UNKNOWN
S3150274 RS41 2021-04-22 01:26:12 44.4025 8.68311 213 ° 4 km/h 190 m -3.0 m/s 402.800 MHz Arenzano (IT) 0.00 km UNKNOWN
S3141416 RS41 2021-04-21 12:11:06 44.5857 8.52803 6 ° 19 km/h 798 m -18.3 m/s 402.80 MHz Acqui Terme (IT) 0.00 km UNKNOWN
S3150976 RS41 2021-04-21 01:27:21 44.4321 9.05691 323 ° 15 km/h 858 m -4.1 m/s 402.800 MHz Genoa (IT) 0.00 km UNKNOWN
S3150764 RS41 2021-04-20 13:05:46 44.17 8.81901 33 ° 11 km/h 83 m -5.2 m/s 402.800 MHz Genoa (IT) 0.00 km LOST
S3150792 RS41 2021-04-20 00:55:38 44.1741 8.44032 214 ° 17 km/h 200 m -6.7 m/s 402.80 MHz Finale Ligure (IT) 0.00 km LOST
S3150977 RS41 2021-04-19 12:41:28 44.2541 8.20357 172 ° 13 km/h 1235 m -3.8 m/s 402.80 MHz Pietra Ligure (IT) 0.00 km FOUND
S3141405 RS41 2021-04-19 01:44:06 44.1034 8.39013 292 ° 15 km/h 106 m -4.7 m/s 402.80 MHz Finale Ligure (IT) 0.00 km LOST
S3150973 RS41 2021-04-18 12:59:04 44.3582 8.11245 303 ° 15 km/h 834 m -3.8 m/s 402.80 MHz Monesiglio (IT) 0.00 km FOUND
S3141414 RS41 2021-04-18 00:51:20 44.5219 7.63892 114 ° 7 km/h 517 m -4.8 m/s 402.80 MHz Fossano (IT) 0.00 km FOUND
S3141415 RS41 2021-04-17 12:46:27 44.7648 7.90759 13 ° 9 km/h 475 m -2.4 m/s 402.80 MHz Bra (IT) 0.00 km FOUND
S3150975 RS41 2021-04-17 00:48:49 44.8266 8.42095 133 ° 17 km/h 409 m -10.9 m/s 402.80 MHz Nizza Monferrato (IT) 0.00 km UNKNOWN
S3150974 RS41 2021-04-16 13:51:52 45.0869 9.37983 257 ° 20 km/h 176 m -2.0 m/s 402.800 MHz Castel San Giovanni (IT) 0.00 km FOUND
S3150978 RS41 2021-04-16 00:18:03 44.5752 8.79899 153 ° 15 km/h 1222 m -4.5 m/s 402.800 MHz Serra Riccò (IT) 0.00 km UNKNOWN
S3150765 RS41 2021-04-15 12:20:14 44.2714 9.0823 257 ° 19 km/h 106 m -4.9 m/s 402.80 MHz Recco (IT) 0.00 km LOST
S3150767 RS41 2021-04-15 01:33:18 44.1689 9.88682 69 ° 11 km/h 862 m -2.3 m/s 402.80 MHz Bolano (IT) 0.00 km UNKNOWN
S3150140 RS41 2021-04-14 12:27:01 44.3119 9.12334 205 ° 6 km/h 631 m -14.3 m/s 402.800 MHz Recco (IT) 0.00 km LOST
S3150275 RS41 2021-04-14 01:37:56 43.8269 9.65482 311 ° 28 km/h 97 m -3.5 m/s 402.80 MHz La Spezia (IT) 0.00 km LOST
S3150763 RS41 2021-04-13 13:09:12 43.7808 9.47746 227 ° 11 km/h 117 m -3.0 m/s 402.801 MHz La Spezia (IT) 0.00 km LOST
S3150768 RS41 2021-04-13 00:39:27 44.4049 8.54153 286 ° 15 km/h 528 m -1.6 m/s 402.801 MHz Varazze (IT) 0.00 km FOUND
S3220107 RS41 2021-04-12 13:10:22 45.2321 8.91598 189 ° 22 km/h 182 m -2.3 m/s 402.800 MHz Garlasco (IT) 0.00 km FOUND
S3220095 RS41 2021-04-12 00:16:18 45.1017 8.64125 170 ° 13 km/h 246 m -9.2 m/s 402.801 MHz Valenza (IT) 0.00 km UNKNOWN
S3220092 RS41 2021-04-11 12:45:31 45.0436 8.96885 214 ° 20 km/h 251 m -5.1 m/s 402.801 MHz Garlasco (IT) 0.00 km UNKNOWN
S3150276 RS41 2021-04-11 02:01:19 45.5512 9.64695 203 ° 20 km/h 195 m -3.8 m/s 402.800 MHz Treviglio (IT) 0.00 km FOUND
S3150139 RS41 2021-04-10 13:18:21 44.9019 10.19 60 ° 6 km/h 77 m -2.6 m/s 402.800 MHz Noceto (IT) 0.00 km FOUND
S3220094 RS41 2021-04-10 02:03:46 45.1084 9.94115 138 ° 11 km/h 107 m -1.7 m/s 402.800 MHz Cremona (IT) 0.00 km FOUND
S3220093 RS41 2021-04-09 12:55:11 44.7074 9.69795 9 ° 24 km/h 1036 m -3.4 m/s 402.80 MHz Carpaneto Piacentino (IT) 0.00 km UNKNOWN
S3220068 RS41 2021-04-09 01:04:34 44.2543 9.34974 105 ° 13 km/h 143 m -5.6 m/s 402.80 MHz Sestri Levante (IT) 0.00 km FOUND
S3220069 RS41 2021-04-08 13:40:57 43.8248 10.2831 164 ° 11 km/h 88 m -3.6 m/s 402.80 MHz Viareggio (IT) 0.00 km UNKNOWN
S3220070 RS41 2021-04-07 12:40:41 43.7461 9.84144 125 ° 26 km/h 188 m -3.7 m/s 402.80 MHz Viareggio (IT) 0.00 km LOST
S3210267 RS41 2021-04-07 01:00:40 44.1985 10.8949 281 ° 22 km/h 1204 m -8.3 m/s 402.80 MHz Pavullo nel Frignano (IT) 0.00 km UNKNOWN
S3510508 RS41 2021-04-06 12:36:07 43.9299 10.1824 150 ° 17 km/h 81 m -5.2 m/s 402.80 MHz Pietrasanta (IT) 0.00 km LOST
S3510506 RS41 2021-04-06 01:12:14 44.0731 10.0171 314 ° 28 km/h 407 m -4.3 m/s 402.80 MHz Castelnuovo di Magra (IT) 0.00 km UNKNOWN
S3510554 RS41 2021-04-05 12:18:57 44.1965 8.24613 351 ° 15 km/h 671 m -7.2 m/s 402.80 MHz Pietra Ligure (IT) 0.00 km UNKNOWN
S3510500 RS41 2021-04-05 01:23:05 44.3979 8.86148 208 ° 7 km/h 73 m -6.1 m/s 402.80 MHz Genoa (IT) 0.00 km LOST
S3510522 RS41 2021-04-04 13:33:00 44.112 8.03112 214 ° 13 km/h 912 m -4.6 m/s 402.80 MHz Albenga (IT) 0.00 km UNKNOWN
S3510480 RS41 2021-04-04 01:31:14 43.9664 7.50929 194 ° 7 km/h 3046 m -2.4 m/s 402.80 MHz Ventimiglia (IT) 0.00 km UNKNOWN
S3510504 RS41 2021-04-03 12:30:25 44.2861 8.27942 299 ° 9 km/h 646 m -7.8 m/s 402.80 MHz Cairo Montenotte (IT) 0.00 km UNKNOWN
S3220071 RS41 2021-04-03 02:23:26 44.1609 8.63581 237 ° 13 km/h 92 m -2.2 m/s 402.80 MHz Vado Ligure (IT) 0.00 km LOST
S3420976 RS41 2021-04-02 13:18:25 44.3757 8.03677 269 ° 41 km/h 583 m -4.5 m/s 402.80 MHz Monesiglio (IT) 0.00 km FOUND
S3510510 RS41 2021-04-02 01:36:42 44.1121 8.08345 250 ° 6 km/h 775 m -2.5 m/s 402.80 MHz Albenga (IT) 0.00 km UNKNOWN
S3510507 RS41 2021-04-01 13:03:41 44.4257 8.15216 318 ° 24 km/h 618 m -4.5 m/s 402.80 MHz Monesiglio (IT) 0.00 km FOUND
S3510518 RS41 2021-04-01 01:04:27 44.4851 8.03306 87 ° 15 km/h 807 m -2.5 m/s 402.80 MHz Monesiglio (IT) 0.00 km FOUND
S3510517 RS41 2021-03-31 12:46:03 44.6484 7.75556 271 ° 7 km/h 415 m -4.8 m/s 402.80 MHz Cherasco (IT) 0.00 km FOUND
S3420975 RS41 2021-03-31 00:54:32 44.49 7.63468 112 ° 9 km/h 501 m -6.0 m/s 402.80 MHz Fossano (IT) 0.00 km FOUND
S3510502 RS41 2021-03-30 12:47:12 44.4965 7.61541 212 ° 13 km/h 488 m -5.8 m/s 402.80 MHz Fossano (IT) 0.00 km FOUND
S3510505 RS41 2021-03-30 00:52:18 44.3857 7.49782 16 ° 7 km/h 642 m -3.8 m/s 402.80 MHz Cuneo (IT) 0.00 km UNKNOWN
S3420977 RS41 2021-03-29 12:12:27 44.2866 7.59507 160 ° 6 km/h 1335 m -10.0 m/s 402.80 MHz Boves (IT) 0.00 km FOUND
S3430671 RS41 2021-03-29 02:05:30 43.7533 8.08905 345 ° 11 km/h 240 m -2.8 m/s 402.80 MHz Imperia (IT) 0.00 km LOST
S3420978 RS41 2021-03-28 12:58:30 44.149 8.51444 281 ° 11 km/h 64 m -3.8 m/s 402.80 MHz Finale Ligure (IT) 0.00 km LOST
S3510496 RS41 2021-03-28 01:52:43 44.2021 8.74899 348 ° 4 km/h 1728 m -5.6 m/s 405.00 MHz Varazze (IT) 0.00 km LOST
S3510492 RS41 2021-03-27 14:15:46 44.4578 9.51692 14 ° 30 km/h 1757 m -4.5 m/s 402.80 MHz Lavagna (IT) 0.00 km UNKNOWN
S3420922 RS41 2021-03-27 02:23:30 44.6102 9.8453 131 ° 9 km/h 939 m -4.0 m/s 402.80 MHz Salsomaggiore Terme (IT) 0.00 km FOUND
S3510520 RS41 2021-03-26 13:45:55 44.4216 9.35345 28 ° 15 km/h 996 m -3.5 m/s 402.80 MHz Chiavari (IT) 0.00 km FOUND
S3420833 RS41 2021-03-26 01:48:20 44.0767 8.6649 167 ° 28 km/h 1930 m -2.6 m/s 405.00 MHz Finale Ligure (IT) 0.00 km LOST
S3420832 RS41 2021-03-25 14:57:59 44.3625 9.76535 114 ° 6 km/h 1598 m -2.5 m/s 402.80 MHz Bolano (IT) 0.00 km UNKNOWN
S3420937 RS41 2021-03-25 01:53:09 43.8535 8.26137 228 ° 2 km/h 141 m -4.2 m/s 402.80 MHz Alassio (IT) 0.00 km LOST
S3550355 RS41 2021-03-24 15:51:05 43.3043 9.43926 82 ° 24 km/h 181 m -2.0 m/s 402.80 MHz Bastia (FR) 0.00 km LOST
S3550357 RS41 2021-03-24 02:49:07 43.6868 8.87348 124 ° 13 km/h 1777 m -3.6 m/s 405.00 MHz Albenga (IT) 0.00 km LOST
S3420924 RS41 2021-03-23 13:46:01 43.8857 8.15454 17 ° 11 km/h 330 m -11.3 m/s 402.80 MHz Imperia (IT) 0.00 km LOST
S3420923 RS41 2021-03-23 01:07:24 43.7035 7.76755 204 ° 41 km/h 3302 m -3.9 m/s 402.80 MHz Bordighera (IT) 0.00 km LOST
S3420921 RS41 2021-03-22 13:33:18 43.5673 7.17721 218 ° 106 km/h 5878 m -4.1 m/s 402.80 MHz Antibes (FR) 0.00 km LOST
S3420919 RS41 2021-03-22 02:31:48 43.2714 7.65815 225 ° 91 km/h 5122 m -2.5 m/s 402.80 MHz Antibes (FR) 0.00 km LOST
S3550360 RS41 2021-03-21 13:23:54 43.8137 7.47621 217 ° 100 km/h 4893 m -12.6 m/s 402.80 MHz Menton (FR) 0.00 km UNKNOWN
S3420554 RS41 2021-03-21 01:30:40 43.65 6.8566 218 ° 137 km/h 6615 m -7.5 m/s 402.80 MHz Peymeinade (FR) 0.00 km UNKNOWN
S3420553 RS41 2021-03-20 14:22:50 43.5158 7.16411 224 ° 139 km/h 5578 m -3.0 m/s 402.80 MHz Antibes (FR) 0.00 km LOST
S3550356 RS41 2021-03-20 03:07:03 43.7467 8.0748 207 ° 50 km/h 272 m -2.8 m/s 402.80 MHz Imperia (IT) 0.00 km LOST
S3550373 RS41 2021-03-19 13:57:56 44.1454 8.10436 177 ° 19 km/h 1015 m -9.2 m/s 402.80 MHz Loano (IT) 0.00 km UNKNOWN
S3550382 RS41 2021-03-19 03:09:35 44.0444 8.95415 283 ° 37 km/h 173 m -1.6 m/s 402.80 MHz Santa Margherita Ligure (IT) 0.00 km LOST
T0530060 RS41 2021-03-18 14:07:52 44.0736 8.67242 330 ° 2 km/h 2223 m -2.7 m/s 405.00 MHz Finale Ligure (IT) 0.00 km LOST
S3550381 RS41 2021-03-18 03:13:31 43.486 8.87301 227 ° 11 km/h 225 m -1.6 m/s 402.80 MHz Alassio (IT) 0.00 km LOST
S3550379 RS41 2021-03-17 13:45:27 43.7789 8.28125 308 ° 9 km/h 200 m -3.2 m/s 402.80 MHz Imperia (IT) 0.00 km LOST
S3550358 RS41 2021-03-17 01:42:09 43.4226 8.50084 304 ° 6 km/h 502 m -3.3 m/s 402.80 MHz Imperia (IT) 0.00 km LOST
T0530062 RS41 2021-03-16 13:43:33 42.5145 8.1031 187 ° 61 km/h 2598 m -2.2 m/s 402.80 MHz Calvi (FR) 0.00 km LOST
S3340551 RS41 2021-03-16 02:29:07 43.401 9.1511 171 ° 44 km/h 233 m -3.0 m/s 402.80 MHz Bastia (FR) 0.00 km LOST
S3340549 RS41 2021-03-15 13:35:25 43.6312 9.32747 40 ° 41 km/h 197 m -9.1 m/s 402.80 MHz La Spezia (IT) 0.00 km LOST
S3340548 RS41 2021-03-15 02:05:26 43.4411 9.42837 144 ° 31 km/h 138 m -3.3 m/s 402.80 MHz Livorno (IT) 0.00 km LOST
S3340547 RS41 2021-03-14 14:20:52 43.7711 9.53972 139 ° 44 km/h 113 m -1.9 m/s 402.80 MHz La Spezia (IT) 0.00 km LOST
S3231596 RS41 2021-03-14 01:40:53 44.4649 10.2023 66 ° 15 km/h 1089 m -6.4 m/s 402.80 MHz Langhirano (IT) 0.00 km FOUND
T0510422 RS41 2021-03-13 14:19:05 44.5655 10.6618 209 ° 7 km/h 347 m -3.3 m/s 402.80 MHz Scandiano (IT) 0.00 km FOUND
T0530064 RS41 2021-03-13 01:43:34 44.1629 9.84802 229 ° 6 km/h 902 m -13.0 m/s 402.80 MHz Bolano (IT) 0.00 km UNKNOWN
T0530215 RS41 2021-03-12 14:13:07 44.8129 11.6435 76 ° 9 km/h 32 m -2.5 m/s 402.80 MHz Ferrara (IT) 0.00 km FOUND
T0540579 RS41 2021-03-12 02:11:40 44.4293 11.5438 116 ° 4 km/h 100 m -4.8 m/s 402.80 MHz Castel San Pietro Terme (IT) 0.00 km FOUND
T0530066 RS41 2021-03-11 02:31:55 43.4168 9.71251 38 ° 26 km/h 297 m -3.1 m/s 402.80 MHz Livorno (IT) 0.00 km LOST
T0530071 RS41 2021-03-10 13:53:21 43.4354 8.83859 33 ° 7 km/h 369 m -4.5 m/s 402.80 MHz Imperia (IT) 0.00 km LOST
S3231487 RS41 2021-03-10 01:51:19 43.8463 8.64588 180 ° 48 km/h 135 m -7.9 m/s 402.80 MHz Albenga (IT) 0.00 km LOST
T0530063 RS41 2021-03-09 13:29:37 44.3852 9.54101 178 ° 17 km/h 1256 m -8.1 m/s 402.80 MHz Sestri Levante (IT) 0.00 km FOUND
T0530061 RS41 2021-03-09 02:03:52 44.4544 10.0726 304 ° 15 km/h 1349 m -12.5 m/s 402.800 MHz Langhirano (IT) 0.00 km UNKNOWN
S3340552 RS41 2021-03-08 13:17:31 44.4116 8.94432 188 ° 15 km/h 208 m -4.8 m/s 402.801 MHz Genoa (IT) 0.00 km UNKNOWN
S3340554 RS41 2021-03-08 01:58:37 44.2569 9.88487 1 ° 11 km/h 1323 m -10.1 m/s 402.80 MHz Bolano (IT) 0.00 km UNKNOWN
S3511362 RS41 2021-03-07 13:23:59 44.4487 9.03645 95 ° 17 km/h 619 m -3.8 m/s 402.80 MHz Genoa (IT) 0.00 km UNKNOWN
S3511142 RS41 2021-03-07 02:29:03 44.4412 10.1085 298 ° 11 km/h 1328 m -3.8 m/s 402.80 MHz Fivizzano (IT) 0.00 km UNKNOWN
S3210493 RS41 2021-03-06 13:10:35 44.4871 8.23256 149 ° 17 km/h 750 m -4.3 m/s 402.800 MHz Monesiglio (IT) 0.00 km UNKNOWN
S3430635 RS41 2021-03-06 01:52:34 44.3359 9.78017 254 ° 15 km/h 1839 m -17.9 m/s 404.000 MHz Bolano (IT) 0.00 km UNKNOWN
R3951641 RS41-SG 2021-03-05 20:44:42 44.4491 7.63969 130 ° 46 km/h 20645 m 5.0 m/s 402.800 MHz Cuneo (IT) 0.00 km FOUND
S3210494 RS41 2021-03-05 14:14:02 44.436 9.56208 45 ° 15 km/h 1255 m -3.2 m/s 402.801 MHz Lavagna (IT) 0.00 km UNKNOWN
S3430633 RS41 2021-03-05 02:11:54 44.4785 9.67321 34 ° 39 km/h 1427 m -5.0 m/s 402.80 MHz Sestri Levante (IT) 0.00 km UNKNOWN
P2940469 RS41-SG 2021-03-04 21:55:36 44.5243 7.75799 110 ° 24 km/h 14535 m 6.0 m/s 405.000 MHz Fossano (IT) 0.00 km FOUND
S3221497 RS41 2021-03-04 14:10:19 44.6243 8.88723 331 ° 43 km/h 810 m -2.6 m/s 402.80 MHz Serra Riccò (IT) 0.00 km UNKNOWN
T0530068 RS41 2021-03-04 02:35:50 44.6 8.60418 212 ° 6 km/h 429 m -3.0 m/s 402.80 MHz Ovada (IT) 0.00 km UNKNOWN
M412O065 RS41-SG 2021-03-03 21:06:49 44.4165 7.81299 150 ° 17 km/h 1121 m -12.0 m/s 402.800 MHz Mondovì (IT) 0.00 km FOUND
T0540589 RS41 2021-03-03 14:01:00 44.5509 8.18272 334 ° 11 km/h 745 m -4.6 m/s 402.80 MHz Monesiglio (IT) 0.00 km FOUND
T0530070 RS41 2021-03-03 01:23:00 44.5832 7.74299 358 ° 4 km/h 426 m -5.3 m/s 402.80 MHz Fossano (IT) 0.00 km FOUND
T0510426 RS41 2021-03-02 14:01:12 44.5634 8.14574 139 ° 11 km/h 718 m -5.3 m/s 402.80 MHz Monesiglio (IT) 0.00 km UNKNOWN
T0530058 RS41 2021-03-02 01:39:13 44.5098 7.93314 126 ° 9 km/h 922 m -6.8 m/s 402.80 MHz Monesiglio (IT) 0.00 km FOUND
M4120442 RS41-SG 2021-03-01 21:04:16 44.5764 7.68561 80 ° 17 km/h 11482 m +5.0 m/s 402.80 MHz Fossano (IT) 0.00 km FOUND
S3231590 RS41 2021-03-01 14:37:24 44.56 8.15322 181 ° 19 km/h 787 m -4.2 m/s 402.80 MHz Monesiglio (IT) 0.00 km FOUND
S3231592 RS41 2021-03-01 02:13:10 44.5378 7.9541 162 ° 9 km/h 863 m -4.3 m/s 402.80 MHz Cherasco (IT) 0.00 km FOUND
S3231595 RS41 2021-02-28 13:50:12 44.6984 7.82944 164 ° 7 km/h 371 m -6.2 m/s 402.80 MHz Bra (IT) 0.00 km UNKNOWN
S3340550 RS41 2021-02-28 01:43:29 44.6068 7.6448 177 ° 24 km/h 411 m -12.9 m/s 402.80 MHz Savigliano (IT) 0.00 km FOUND
S3231594 RS41 2021-02-27 13:48:34 44.7478 7.68158 145 ° 9 km/h 367 m -3.2 m/s 402.80 MHz Racconigi (IT) 0.00 km FOUND
S3340555 RS41 2021-02-27 02:36:28 44.7395 8.79454 324 ° 15 km/h 328 m -2.5 m/s 402.80 MHz Novi Ligure (IT) 0.00 km UNKNOWN
S3231593 RS41 2021-02-26 14:00:24 44.717 8.27413 205 ° 11 km/h 609 m -3.9 m/s 402.80 MHz Canelli (IT) 0.00 km UNKNOWN
S3340553 RS41 2021-02-26 02:00:26 44.6817 8.13969 155 ° 6 km/h 653 m -5.8 m/s 402.80 MHz Alba (IT) 0.00 km FOUND
S3511128 RS41 2021-02-25 13:42:46 44.9965 7.69223 292 ° 6 km/h 406 m -3.7 m/s 402.80 MHz Moncalieri (IT) 0.00 km FOUND
S3511161 RS41 2021-02-25 02:14:13 44.5512 7.52864 103 ° 7 km/h 565 m -4.7 m/s 402.80 MHz Busca (IT) 0.00 km FOUND
S3511141 RS41 2021-02-24 14:36:36 44.3224 7.43193 105 ° 7 km/h 1636 m -2.1 m/s 402.80 MHz Borgo San Dalmazzo (IT) 0.00 km LOST
S3510501 RS41 2021-02-24 01:40:36 44.1678 7.46192 349 ° 19 km/h 2477 m -9.6 m/s 402.80 MHz Borgo San Dalmazzo (IT) 0.00 km UNKNOWN
S3430636 RS41 2021-02-23 13:46:06 44.448 7.94388 181 ° 17 km/h 681 m -3.8 m/s 402.80 MHz Mondovì (IT) 0.00 km FOUND
S3430634 RS41 2021-02-23 02:41:49 44.9239 7.96254 295 ° 7 km/h 654 m -2.4 m/s 402.80 MHz Poirino (IT) 0.00 km FOUND
S3511123 RS41 2021-02-22 14:25:10 45.2536 8.43034 30 ° 7 km/h 289 m -1.9 m/s 402.80 MHz Vercelli (IT) 0.00 km FOUND
S3511359 RS41 2021-02-22 02:25:00 45.0525 8.44494 131 ° 11 km/h 232 m -3.3 m/s 402.80 MHz Casale Monferrato (IT) 0.00 km FOUND
S3511126 RS41 2021-02-21 14:42:19 45.5356 7.95089 13 ° 9 km/h 945 m -2.4 m/s 402.80 MHz Biella (IT) 0.00 km FOUND
S3430639 RS41 2021-02-21 01:46:04 44.8182 8.01817 66 ° 4 km/h 827 m -5.9 m/s 402.80 MHz Alba (IT) 0.00 km FOUND
S3511356 RS41 2021-02-20 13:58:34 44.6524 8.51647 183 ° 6 km/h 538 m -3.3 m/s 402.80 MHz Acqui Terme (IT) 0.00 km FOUND
S3511357 RS41 2021-02-20 02:17:23 44.3578 8.21156 68 ° 6 km/h 639 m -2.9 m/s 402.80 MHz Cairo Montenotte (IT) 0.00 km FOUND
S3450584 RS41 2021-02-19 13:49:52 44.3081 8.70679 16 ° 4 km/h 229 m -9.5 m/s 402.80 MHz Cogoleto (IT) 0.00 km LOST
S3450572 RS41 2021-02-19 02:53:35 44.6096 10.2046 113 ° 4 km/h 785 m -2.6 m/s 402.80 MHz Langhirano (IT) 0.00 km FOUND
S3450533 RS41 2021-02-18 13:48:43 44.5768 9.36983 5 ° 28 km/h 1423 m -4.1 m/s 402.80 MHz Rapallo (IT) 0.00 km FOUND
S3511353 RS41 2021-02-18 02:12:31 44.3297 9.291 332 ° 11 km/h 585 m -3.9 m/s 402.80 MHz Chiavari (IT) 0.00 km UNKNOWN
S3511358 RS41 2021-02-17 13:39:29 44.3046 9.13584 347 ° 11 km/h 209 m -5.5 m/s 402.80 MHz Recco (IT) 0.00 km LOST
S3511360 RS41 2021-02-17 01:52:52 44.4808 9.60353 54 ° 57 km/h 1642 m -6.7 m/s 402.80 MHz Lavagna (IT) 0.00 km UNKNOWN
S3511354 RS41 2021-02-16 14:13:52 44.1584 9.19419 11 ° 33 km/h 67 m -2.8 m/s 402.80 MHz Santa Margherita Ligure (IT) 0.00 km LOST
S3430631 RS41 2021-02-16 03:02:08 43.5121 9.27674 77 ° 31 km/h 114 m -2.6 m/s 402.800 MHz La Spezia (IT) 0.00 km LOST
S3450555 RS41 2021-02-15 14:06:52 43.5647 8.58807 5 ° 13 km/h 310 m -4.9 m/s 402.80 MHz Imperia (IT) 0.00 km LOST
S2730224 RS41 2021-02-15 02:01:59 43.3101 8.32032 297 ° 13 km/h 1178 m -4.3 m/s 402.80 MHz Imperia (IT) 0.00 km LOST
S3450553 RS41 2021-02-14 14:01:20 42.8726 8.09164 189 ° 117 km/h 5254 m -2.1 m/s 402.801 MHz Calvi (FR) 0.00 km LOST
S3450534 RS41 2021-02-14 01:16:28 43.7184 8.37028 205 ° 78 km/h 413 m -9.6 m/s 402.800 MHz Imperia (IT) 0.00 km LOST
S3450574 RS41 2021-02-13 13:15:45 43.7481 8.70114 179 ° 67 km/h 94 m -12.1 m/s 402.80 MHz Alassio (IT) 0.00 km LOST
S3450583 RS41 2021-02-13 03:00:02 44.3412 9.79943 240 ° 22 km/h 1430 m -5.7 m/s 405.00 MHz Bolano (IT) 0.00 km UNKNOWN
S3450548 RS41 2021-02-12 13:34:30 44.3954 9.98498 155 ° 7 km/h 1825 m -12.1 m/s 402.80 MHz Aulla (IT) 0.00 km UNKNOWN
S3450531 RS41 2021-02-12 01:47:07 44.0357 9.80173 234 ° 22 km/h 134 m -4.8 m/s 402.80 MHz La Spezia (IT) 0.00 km LOST
S3450585 RS41 2021-02-11 13:22:21 43.8927 9.53545 18 ° 13 km/h 112 m -4.6 m/s 402.80 MHz La Spezia (IT) 0.00 km LOST
S3450530 RS41 2021-02-11 02:07:20 43.587 9.49603 157 ° 15 km/h 175 m -2.8 m/s 405.00 MHz Lerici (IT) 0.00 km LOST
S3450557 RS41 2021-02-10 14:05:28 44.6252 9.40213 49 ° 2 km/h 1442 m -3.4 m/s 402.80 MHz Rapallo (IT) 0.00 km UNKNOWN
S3450580 RS41 2021-02-10 01:39:20 45.2411 9.4987 268 ° 31 km/h 144 m -6.1 m/s 402.80 MHz Lodi (IT) 0.00 km UNKNOWN
S3450547 RS41 2021-02-09 13:51:06 44.4766 10.0929 53 ° 41 km/h 1261 m -3.1 m/s 402.80 MHz Langhirano (IT) 0.00 km UNKNOWN
S3450587 RS41 2021-02-09 02:03:41 44.8688 9.2408 317 ° 2 km/h 615 m -8.1 m/s 402.80 MHz Voghera (IT) 0.00 km FOUND
S3450578 RS41 2021-02-08 13:28:29 44.7384 9.43065 48 ° 35 km/h 1121 m -3.2 m/s 402.80 MHz Podenzano (IT) 0.00 km UNKNOWN
S3450579 RS41 2021-02-08 02:20:18 44.5328 10.3265 41 ° 28 km/h 581 m -6.0 m/s 402.800 MHz Langhirano (IT) 0.00 km FOUND
S2730192 RS41 2021-02-07 13:52:09 45.2482 9.11167 331 ° 13 km/h 869 m -4.6 m/s 402.800 MHz Pavia (IT) 0.00 km FOUND
S2730191 RS41 2021-02-07 01:40:01 45.8032 9.26723 308 ° 19 km/h 612 m -12.6 m/s 402.80 MHz Oggiono (IT) 0.00 km LOST
S2730189 RS41 2021-02-06 14:16:05 45.5597 10.2035 287 ° 4 km/h 274 m -2.8 m/s 402.800 MHz Brescia (IT) 0.00 km FOUND
S3450588 RS41 2021-02-06 02:26:07 45.2887 10.0057 285 ° 9 km/h 174 m -2.5 m/s 402.80 MHz Verolanuova (IT) 0.00 km UNKNOWN
S2730185 RS41 2021-02-05 13:54:08 45.1041 9.79846 6 ° 6 km/h 131 m -4.8 m/s 402.80 MHz Codogno (IT) 0.00 km FOUND
S2730188 RS41 2021-02-05 02:27:00 44.9999 10.2407 11 ° 4 km/h 106 m -4.9 m/s 402.800 MHz Torrile (IT) 0.00 km UNKNOWN
S2730184 RS41 2021-02-04 13:06:26 44.9318 9.67917 334 ° 4 km/h 363 m -5.6 m/s 402.80 MHz Podenzano (IT) 0.00 km UNKNOWN
S2730186 RS41 2021-02-04 02:24:42 44.7051 10.7046 93 ° 17 km/h 139 m -4.2 m/s 402.800 MHz Reggio Emilia (IT) 0.00 km FOUND
S3350215 RS41 2021-02-03 13:14:02 44.7412 10.2523 311 ° 4 km/h 187 m -3.0 m/s 402.80 MHz Collecchio (IT) 0.00 km FOUND
S2730181 RS41 2021-02-03 03:24:50 44.1741 10.9066 302 ° 13 km/h 1153 m -1.6 m/s 402.800 MHz Pavullo nel Frignano (IT) 0.00 km UNKNOWN
S2730187 RS41 2021-02-02 13:32:01 43.7687 9.19906 338 ° 6 km/h 671 m -9.5 m/s 402.80 MHz Sestri Levante (IT) 0.00 km LOST
S2730183 RS41 2021-02-02 01:58:52 43.2028 8.97003 156 ° 69 km/h 3807 m -4.3 m/s 402.80 MHz Bastia (FR) 0.00 km LOST
S3350209 RS41 2021-02-01 14:02:21 43.5737 9.48527 126 ° 28 km/h 2635 m -3.8 m/s 402.800 MHz La Spezia (IT) 0.00 km LOST
S3350200 RS41 2021-02-01 01:34:40 43.8134 8.78368 88 ° 30 km/h 3764 m -11.9 m/s 405.000 MHz Albenga (IT) 0.00 km LOST
S3320552 RS41 2021-01-31 13:22:11 43.5518 8.22425 90 ° 44 km/h 601 m -6.0 m/s 402.801 MHz Imperia (IT) 0.00 km LOST
S3450516 RS41 2021-01-31 01:28:24 44.0457 8.20781 152 ° 61 km/h 1051 m -3.8 m/s 402.800 MHz Albenga (IT) 0.00 km UNKNOWN
S3350214 RS41 2021-01-30 13:58:15 44.5352 9.601 2 ° 39 km/h 1408 m -4.7 m/s 402.800 MHz Lavagna (IT) 0.00 km UNKNOWN
S3350199 RS41 2021-01-30 01:54:04 42.8351 9.68883 175 ° 30 km/h 2492 m -4.6 m/s 402.800 MHz Bastia (FR) 0.00 km LOST
R3870565 RS41 2021-01-29 14:23:47 43.2891 10.7037 73 ° 57 km/h 676 m -3.8 m/s 402.801 MHz Cecina (IT) 0.00 km LOST
R3870564 RS41 2021-01-29 03:25:42 43.0242 11.2551 93 ° 35 km/h 1265 m -1.8 m/s 402.80 MHz Roccastrada (IT) 0.00 km UNKNOWN
R3870567 RS41 2021-01-28 13:49:12 42.9125 9.70274 103 ° 69 km/h 2238 m -2.8 m/s 402.800 MHz Bastia (FR) 0.00 km LOST
R3870566 RS41 2021-01-28 03:23:30 41.384 9.61337 82 ° 39 km/h 913 m -1.8 m/s 402.800 MHz La Maddalena (IT) 0.00 km LOST
S3350201 RS41 2021-01-27 14:00:22 41.7906 9.01665 156 ° 94 km/h 4454 m -2.9 m/s 402.800 MHz Ajaccio (FR) 0.00 km UNKNOWN
S3350216 RS41 2021-01-27 02:01:58 42.437 9.16749 141 ° 69 km/h 3652 m -4.6 m/s 402.800 MHz Corte (FR) 0.00 km UNKNOWN
S3350203 RS41 2021-01-26 14:01:37 41.9741 9.70861 161 ° 44 km/h 2669 m -2.3 m/s 402.800 MHz Porto-Vecchio (FR) 0.00 km LOST
R3870570 RS41 2021-01-26 02:33:11 42.8702 10.6453 174 ° 28 km/h 2462 m -1.8 m/s 402.800 MHz Follonica (IT) 0.00 km LOST
R3870569 RS41 2021-01-25 14:01:29 43.6397 11.3953 77 ° 19 km/h 773 m -2.9 m/s 402.800 MHz Figline Valdarno (IT) 0.00 km UNKNOWN
R3870704 RS41 2021-01-25 02:10:19 43.5355 11.9633 76 ° 78 km/h 1894 m -3.3 m/s 402.800 MHz Arezzo (IT) 0.00 km UNKNOWN
R3940590 RS41 2021-01-24 14:09:42 44.263 10.9405 142 ° 26 km/h 984 m -3.4 m/s 402.800 MHz Pavullo nel Frignano (IT) 0.00 km UNKNOWN
R3870483 RS41 2021-01-24 01:37:29 44.6089 10.8325 115 ° 17 km/h 283 m -11.5 m/s 402.801 MHz Formigine (IT) 0.00 km FOUND
R3870607 RS41 2021-01-23 13:22:24 44.0594 9.95346 101 ° 22 km/h 703 m -3.9 m/s 402.800 MHz Lerici (IT) 0.00 km UNKNOWN
R3870703 RS41 2021-01-23 02:39:46 45.2211 10.3962 256 ° 37 km/h 106 m -2.3 m/s 402.800 MHz Asola (IT) 0.00 km UNKNOWN
R3940589 RS41 2021-01-22 13:44:24 45.5319 11.1877 195 ° 4 km/h 530 m -5.5 m/s 402.80 MHz Chiampo (IT) 0.00 km FOUND
R3870610 RS41 2021-01-22 01:05:06 44.9715 9.79812 125 ° 13 km/h 227 m -9.9 m/s 402.80 MHz Carpaneto Piacentino (IT) 0.00 km UNKNOWN
R3870794 RS41 2021-01-21 13:44:08 45.0837 11.153 96 ° 7 km/h 66 m -5.8 m/s 402.80 MHz Cerea (IT) 0.00 km FOUND
R3870609 RS41 2021-01-21 01:56:43 45.5315 11.1578 166 ° 7 km/h 415 m -5.3 m/s 405.00 MHz Chiampo (IT) 0.00 km FOUND
R3870608 RS41 2021-01-20 13:13:39 45.0216 9.33798 10 ° 4 km/h 711 m -7.5 m/s 402.80 MHz Stradella (IT) 0.00 km FOUND
R3870611 RS41 2021-01-20 02:12:32 44.6196 10.8469 350 ° 2 km/h 150 m -2.9 m/s 402.800 MHz Formigine (IT) 0.00 km NEED ATTENTION
R3870568 RS41 2021-01-19 15:02:33 43.9907 12.48 304 ° 11 km/h 205 m -2.8 m/s 402.800 MHz Serravalle (SM) 0.00 km FOUND
R3870612 RS41 2021-01-19 02:45:07 42.8905 11.5769 110 ° 19 km/h 1817 m -2.0 m/s 402.80 MHz Montepulciano (IT) 0.00 km FOUND
R3951104 RS41 2021-01-18 01:59:22 43.0438 10.3692 180 ° 24 km/h 1089 m -5.4 m/s 402.80 MHz Piombino (IT) 0.00 km LOST
R3940592 RS41 2021-01-17 14:28:24 42.466 11.6818 191 ° 11 km/h 774 m -2.6 m/s 402.80 MHz Montalto di Castro (IT) 0.00 km UNKNOWN
R3951095 RS41 2021-01-17 02:26:30 42.679 10.1648 343 ° 17 km/h 897 m -2.6 m/s 402.800 MHz Portoferraio (IT) 0.00 km LOST
R3951094 RS41 2021-01-16 13:58:00 42.4542 9.5741 202 ° 9 km/h 521 m -4.4 m/s 402.800 MHz Borgo (FR) 0.00 km LOST
R3951097 RS41 2021-01-16 02:12:49 42.8939 9.93844 190 ° 33 km/h 2908 m -2.8 m/s 405.000 MHz Portoferraio (IT) 0.00 km LOST
R3951096 RS41 2021-01-15 14:44:48 43.0639 10.6529 220 ° 15 km/h 1643 m -1.9 m/s 402.800 MHz Campiglia Marittima (IT) 0.00 km FOUND
R3940593 RS41 2021-01-15 02:11:16 43.7609 10.787 246 ° 17 km/h 855 m -3.6 m/s 402.800 MHz Fucecchio (IT) 0.00 km UNKNOWN
R3951093 RS41 2021-01-14 14:02:49 43.2015 11.7805 130 ° 35 km/h 1622 m -2.0 m/s 402.800 MHz Sinalunga (IT) 0.00 km UNKNOWN
R3940591 RS41 2021-01-14 02:51:37 42.5396 11.9503 78 ° 31 km/h 1369 m -1.9 m/s 405.00 MHz Montefiascone (IT) 0.00 km LOST
R3951811 RS41 2021-01-13 01:35:58 43.0062 9.27137 48 ° 48 km/h 443 m -3.5 m/s 402.800 MHz Bastia (FR) 0.00 km LOST
R3951113 RS41 2021-01-12 13:30:02 43.9283 9.86417 20 ° 6 km/h 154 m -4.7 m/s 402.800 MHz Lerici (IT) 0.00 km LOST
R3951810 RS41 2021-01-12 02:34:21 44.0022 10.2361 161 ° 11 km/h 799 m -2.5 m/s 402.80 MHz Seravezza (IT) 0.00 km UNKNOWN
R3951112 RS41 2021-01-11 13:28:24 44.3443 9.90602 233 ° 44 km/h 1528 m -9.3 m/s 402.800 MHz Aulla (IT) 0.00 km UNKNOWN
R3951114 RS41 2021-01-11 02:15:32 44.3365 10.1311 233 ° 65 km/h 1583 m -4.2 m/s 402.800 MHz Fivizzano (IT) 0.00 km UNKNOWN
R3951064 RS41 2021-01-10 14:47:53 44.6184 11.4636 247 ° 9 km/h 130 m -1.7 m/s 402.80 MHz Minerbio (IT) 0.00 km UNKNOWN
R3951111 RS41 2021-01-10 02:06:21 44.7568 11.1547 150 ° 4 km/h 68 m -4.9 m/s 402.80 MHz Crevalcore (IT) 0.00 km FOUND
R3951119 RS41 2021-01-09 14:02:04 44.839 11.7904 195 ° 15 km/h 55 m -4.0 m/s 402.80 MHz Copparo (IT) 0.00 km FOUND
R3951118 RS41 2021-01-09 02:44:42 44.7105 11.8248 192 ° 28 km/h 68 m -1.6 m/s 402.80 MHz Portomaggiore (IT) 0.00 km FOUND
R3951067 RS41 2021-01-08 13:32:57 44.7368 11.6721 117 ° 11 km/h 86 m -7.3 m/s 402.80 MHz Portomaggiore (IT) 0.00 km FOUND
R3950764 RS41 2021-01-08 02:01:48 45.0023 11.633 126 ° 4 km/h 67 m -4.2 m/s 402.80 MHz Lendinara (IT) 0.00 km FOUND
R3951493 RS41 2021-01-07 14:40:42 45.5251 13.1473 34 ° 9 km/h 133 m -1.8 m/s 402.80 MHz Caorle (IT) 0.00 km LOST
R3951116 RS41 2021-01-07 01:44:46 44.8738 10.9982 75 ° 20 km/h 139 m -9.0 m/s 402.80 MHz Concordia sulla Secchia (IT) 0.00 km FOUND
R3951117 RS41 2021-01-06 13:27:31 44.7947 9.56864 265 ° 2 km/h 748 m -2.7 m/s 402.80 MHz Podenzano (IT) 0.00 km UNKNOWN
R3950533 RS41 2021-01-06 01:58:42 44.8234 9.47276 138 ° 4 km/h 748 m -4.0 m/s 402.80 MHz Borgonovo Val Tidone (IT) 0.00 km UNKNOWN
R3950530 RS41 2021-01-05 13:46:28 44.6266 9.40551 253 ° 26 km/h 1452 m -8.4 m/s 402.800 MHz Rapallo (IT) 0.00 km UNKNOWN
R3951480 RS41 2021-01-05 01:32:40 44.7699 8.68974 118 ° 9 km/h 435 m -6.5 m/s 402.80 MHz Novi Ligure (IT) 0.00 km UNKNOWN
R3950532 RS41 2021-01-04 14:07:20 44.3409 9.25254 288 ° 30 km/h 225 m -6.0 m/s 402.801 MHz Rapallo (IT) 0.00 km UNKNOWN
R3950516 RS41 2021-01-04 01:40:51 44.5241 8.62879 75 ° 4 km/h 856 m -6.5 m/s 402.800 MHz Ovada (IT) 0.00 km UNKNOWN
R3951477 RS41 2021-01-02 14:09:58 44.4573 9.12148 274 ° 20 km/h 1130 m -3.5 m/s 402.801 MHz Recco (IT) 0.00 km UNKNOWN
R3950767 RS41 2021-01-02 01:45:08 44.8498 8.95034 65 ° 2 km/h 461 m -3.7 m/s 402.800 MHz Tortona (IT) 0.00 km UNKNOWN
R3951478 RS41 2021-01-01 13:58:40 44.88 9.89764 116 ° 13 km/h 274 m -3.4 m/s 402.800 MHz Salsomaggiore Terme (IT) 0.00 km UNKNOWN
R3950765 RS41 2021-01-01 01:43:03 44.7145 10.288 273 ° 6 km/h 214 m -8.9 m/s 402.801 MHz Felino (IT) 0.00 km FOUND
R3950531 RS41 2020-12-31 13:26:40 44.7052 10.52 243 ° 11 km/h 153 m -6.9 m/s 402.800 MHz Cavriago (IT) 0.00 km UNKNOWN
R3950534 RS41 2020-12-31 01:36:54 44.3243 9.53754 189 ° 17 km/h 1004 m -3.4 m/s 402.800 MHz Sestri Levante (IT) 0.00 km UNKNOWN
R3951479 RS41 2020-12-30 14:16:09 45.09 11.4879 165 ° 4 km/h 66 m -2.4 m/s 402.80 MHz Badia Polesine (IT) 0.00 km FOUND
R3950529 RS41 2020-12-30 01:53:21 45.4837 11.9069 131 ° 17 km/h 166 m -13.7 m/s 402.80 MHz Campodarsego (IT) 0.00 km UNKNOWN
R3951482 RS41 2020-12-29 14:15:18 46.1246 13.1487 167 ° 39 km/h 467 m -3.1 m/s 402.80 MHz Tricesimo (IT) 0.00 km FOUND
R3951488 RS41 2020-12-29 01:25:41 45.363 12.0176 28 ° 7 km/h 129 m -12.3 m/s 402.80 MHz Legnaro (IT) 0.00 km UNKNOWN
R3951754 RS41 2020-12-28 14:08:51 46.2291 13.026 333 ° 74 km/h 413 m -4.1 m/s 402.80 MHz San Daniele del Friuli (IT) 0.00 km LOST
R3950515 RS41 2020-12-28 01:07:24 45.0326 10.0524 280 ° 20 km/h 152 m -6.6 m/s 402.80 MHz Cremona (IT) 0.00 km UNKNOWN
R3951755 RS41 2020-12-27 14:18:40 43.9678 11.1664 224 ° 6 km/h 861 m -2.3 m/s 402.80 MHz Vaiano (IT) 0.00 km UNKNOWN
R3951600 RS41 2020-12-27 01:53:19 43.4152 8.19533 206 ° 37 km/h 515 m -2.5 m/s 402.80 MHz Imperia (IT) 0.00 km LOST
R3950368 RS41 2020-12-26 14:16:42 43.3975 10.028 221 ° 44 km/h 552 m -2.5 m/s 402.80 MHz Livorno (IT) 0.00 km LOST
R3950371 RS41 2020-12-26 02:24:02 43.5799 10.5705 243 ° 44 km/h 632 m -3.3 m/s 402.80 MHz Ponsacco (IT) 0.00 km UNKNOWN
R3950432 RS41 2020-12-25 14:38:31 44.4712 12.3257 13 ° 9 km/h 45 m -2.5 m/s 402.80 MHz Ravenna (IT) 0.00 km LOST
R3951708 RS41 2020-12-25 02:02:37 44.1719 12.8327 90 ° 17 km/h 53 m -7.9 m/s 402.80 MHz Riccione Marina (IT) 0.00 km LOST
R3950370 RS41 2020-12-24 13:31:50 44.1148 12.8985 37 ° 50 km/h 60 m -9.9 m/s 402.80 MHz Cattolica (IT) 0.00 km LOST
R3951756 RS41 2020-12-24 00:46:10 44.8092 9.46396 37 ° 43 km/h 872 m -4.2 m/s 402.80 MHz Borgonovo Val Tidone (IT) 0.00 km UNKNOWN
R3951602 RS41 2020-12-23 13:31:47 44.1432 12.1528 134 ° 4 km/h 240 m -7.0 m/s 402.80 MHz Bertinoro (IT) 0.00 km FOUND
R3951753 RS41 2020-12-23 02:20:39 43.6843 12.115 44 ° 33 km/h 1187 m -4.3 m/s 402.80 MHz Sansepolcro (IT) 0.00 km UNKNOWN
R3950369 RS41 2020-12-22 14:45:27 43.158 11.7157 79 ° 33 km/h 1854 m -2.1 m/s 402.80 MHz Sinalunga (IT) 0.00 km UNKNOWN
R3951710 RS41 2020-12-22 01:44:49 43.3214 10.5526 98 ° 39 km/h 1064 m -8.7 m/s 402.80 MHz Cecina (IT) 0.00 km UNKNOWN
R3951758 RS41 2020-12-21 13:31:42 43.124 10.3174 136 ° 115 km/h 3934 m -7.7 m/s 402.80 MHz Castagneto Carducci (IT) 0.00 km LOST
R3951582 RS41 2020-12-21 02:24:12 43.8142 9.48562 53 ° 20 km/h 2028 m -6.7 m/s 402.80 MHz La Spezia (IT) 0.00 km LOST
R3951612 RS41 2020-12-20 15:25:34 44.8603 10.9576 94 ° 6 km/h 80 m -3.9 m/s 402.80 MHz Novi di Modena (IT) 0.00 km FOUND
R3951709 RS41 2020-12-20 03:15:11 45.2394 9.56188 257 ° 11 km/h 167 m -1.9 m/s 402.80 MHz Casalpusterlengo (IT) 0.00 km UNKNOWN
R3951613 RS41 2020-12-19 02:16:11 44.5609 9.2969 344 ° 24 km/h 1469 m -5.3 m/s 402.80 MHz Rapallo (IT) 0.00 km UNKNOWN
R3951614 RS41 2020-12-18 13:31:21 44.6233 8.49489 10 ° 6 km/h 645 m -12.7 m/s 402.80 MHz Acqui Terme (IT) 0.00 km UNKNOWN
R3951611 RS41 2020-12-18 02:11:44 44.5119 8.78525 123 ° 15 km/h 1124 m -5.5 m/s 402.80 MHz Serra Riccò (IT) 0.00 km UNKNOWN
R3951099 RS41 2020-12-17 13:30:50 44.7066 8.985 141 ° 2 km/h 1072 m -9.4 m/s 402.80 MHz Novi Ligure (IT) 0.00 km UNKNOWN
R3870537 RS41 2020-12-17 02:01:46 44.7361 8.93488 106 ° 4 km/h 619 m -3.9 m/s 402.80 MHz Novi Ligure (IT) 0.00 km UNKNOWN
R3870624 RS41 2020-12-16 01:57:01 45.1136 8.88134 53 ° 13 km/h 183 m -3.2 m/s 402.80 MHz Garlasco (IT) 0.00 km UNKNOWN
R3870776 RS41 2020-12-15 13:34:57 45.0587 9.62983 114 ° 13 km/h 181 m -8.6 m/s 402.80 MHz Piacenza (IT) 0.00 km UNKNOWN
R3870779 RS41 2020-12-15 02:32:09 45.2723 9.21852 106 ° 13 km/h 141 m -3.3 m/s 402.80 MHz Lacchiarella (IT) 0.00 km FOUND
R3870536 RS41 2020-12-14 13:34:17 44.3641 9.90252 68 ° 24 km/h 1859 m -6.7 m/s 404.000 MHz Aulla (IT) 0.00 km UNKNOWN
R3870623 RS41 2020-12-14 01:50:14 43.8043 10.0013 32 ° 13 km/h 889 m -12.4 m/s 402.800 MHz Viareggio (IT) 0.00 km LOST
R3951110 RS41 2020-12-13 14:17:00 42.6045 9.73601 143 ° 26 km/h 730 m -2.0 m/s 402.80 MHz Biguglia (FR) 0.00 km LOST
R3951101 RS41 2020-12-13 02:05:09 43.3397 9.62114 188 ° 15 km/h 1881 m -3.7 m/s 402.80 MHz Livorno (IT) 0.00 km LOST
R3951109 RS41 2020-12-12 14:24:43 43.9933 9.97651 192 ° 9 km/h 1335 m -2.6 m/s 402.80 MHz Lerici (IT) 0.00 km LOST
R3951108 RS41 2020-12-12 01:53:35 44.3166 9.60823 313 ° 11 km/h 1218 m -3.1 m/s 402.80 MHz Sestri Levante (IT) 0.00 km UNKNOWN
R3951107 RS41 2020-12-11 13:47:15 44.4023 10.0702 74 ° 6 km/h 1557 m -4.0 m/s 402.80 MHz Fivizzano (IT) 0.00 km UNKNOWN
R3951100 RS41 2020-12-11 01:49:46 43.6201 9.46425 182 ° 28 km/h 3826 m -4.3 m/s 402.80 MHz La Spezia (IT) 0.00 km LOST
R3870783 RS41 2020-12-10 13:57:58 43.9182 10.022 127 ° 17 km/h 2492 m -2.9 m/s 402.80 MHz Massa (IT) 0.00 km LOST
R3870535 RS41 2020-12-10 02:04:04 44.3307 9.85846 292 ° 17 km/h 1726 m -10.9 m/s 402.800 MHz Aulla (IT) 0.00 km UNKNOWN
R3870538 RS41 2020-12-09 13:45:52 44.6987 9.37136 228 ° 6 km/h 1281 m -5.6 m/s 402.800 MHz Voghera (IT) 0.00 km UNKNOWN
R3870539 RS41 2020-12-09 01:38:52 44.9532 8.64006 167 ° 20 km/h 335 m -4.9 m/s 402.800 MHz Alessandria (IT) 0.00 km UNKNOWN
R3950114 RS41 2020-12-08 14:08:17 45.4807 9.58139 122 ° 19 km/h 209 m -3.7 m/s 405.000 MHz Treviglio (IT) 0.00 km FOUND
R3951106 RS41 2020-12-08 01:55:29 45.5359 9.62037 249 ° 11 km/h 293 m -4.8 m/s 402.800 MHz Treviglio (IT) 0.00 km FOUND
R3951105 RS41 2020-12-07 13:46:57 45.1476 10.1146 30 ° 13 km/h 101 m -3.8 m/s 402.801 MHz Cremona (IT) 0.00 km FOUND
R3870772 RS41 2020-12-07 01:56:11 45.2877 8.83908 52 ° 2 km/h 185 m -2.8 m/s 402.801 MHz Gambolò (IT) 0.00 km UNKNOWN
R3870618 RS41 2020-12-06 14:00:30 46.0057 8.67289 220 ° 24 km/h 1057 m -3.3 m/s 402.800 MHz Luino (IT) 0.00 km LOST
R3870620 RS41 2020-12-06 01:52:14 46.2257 8.52576 12 ° 11 km/h 2215 m -3.6 m/s 402.800 MHz Losone (CH) 0.00 km UNKNOWN
R3870616 RS41 2020-12-05 13:21:23 46.0983 9.00997 179 ° 7 km/h 1489 m -3.3 m/s 402.800 MHz Massagno (CH) 0.00 km LOST
R3950981 RS41 2020-12-05 01:31:58 46.1969 9.61857 9 ° 69 km/h 3292 m -10.6 m/s 405.000 MHz Morbegno (IT) 0.00 km UNKNOWN
R3950983 RS41 2020-12-04 14:15:28 46.4795 10.6607 348 ° 94 km/h 3799 m -4.5 m/s 405.000 MHz Lana (IT) 0.00 km UNKNOWN
R3870621 RS41 2020-12-04 01:29:06 45.0633 9.30558 278 ° 7 km/h 203 m -6.6 m/s 402.800 MHz Stradella (IT) 0.00 km UNKNOWN
R3951003 RS41 2020-12-03 13:12:08 44.4724 8.7347 30 ° 9 km/h 1137 m -11.8 m/s 402.80 MHz Arenzano (IT) 0.00 km NEED ATTENTION
R3951521 RS41 2020-12-03 02:29:53 44.1672 8.5226 175 ° 35 km/h 112 m -3.4 m/s 402.800 MHz Vado Ligure (IT) 0.00 km LOST
R3960274 RS41 2020-12-02 13:52:00 44.2837 7.88465 107 ° 7 km/h 1063 m -4.3 m/s 402.800 MHz Mondovì (IT) 0.00 km FOUND
R3960043 RS41 2020-12-02 01:50:00 44.3341 8.00674 116 ° 20 km/h 899 m -4.3 m/s 402.800 MHz Mondovì (IT) 0.00 km FOUND
R3940594 RS41 2020-12-01 14:05:46 44.3046 9.0518 229 ° 9 km/h 129 m -3.4 m/s 402.80 MHz Recco (IT) 0.00 km LOST
R3960044 RS41 2020-12-01 01:59:11 44.2052 8.70695 134 ° 19 km/h 151 m -9.5 m/s 402.801 MHz Varazze (IT) 0.00 km LOST
R3951008 RS41 2020-11-30 13:10:00 44.6335 8.07577 82 ° 4 km/h 583 m -3.2 m/s 402.80 MHz Alba (IT) 0.00 km FOUND
R3951021 RS41 2020-11-30 01:38:40 44.5076 7.86132 51 ° 20 km/h 454 m -6.0 m/s 402.800 MHz Fossano (IT) 0.00 km FOUND
R3951015 RS41 2020-11-29 13:27:00 44.4986 7.96185 123 ° 6 km/h 628 m -6.0 m/s 402.80 MHz Monesiglio (IT) 0.00 km LOST
R3960045 RS41 2020-11-29 01:59:20 44.5956 7.80587 83 ° 9 km/h 436 m -5.8 m/s 402.800 MHz Fossano (IT) 0.00 km LOST
R3951737 RS41 2020-11-28 13:57:47 44.9533 7.56553 2 ° 6 km/h 323 m -2.7 m/s 402.800 MHz None (IT) 0.00 km FOUND
R3951736 RS41 2020-11-28 01:37:00 44.9644 7.68808 65 ° 4 km/h 308 m -10.9 m/s 402.800 MHz La Loggia (IT) 0.00 km UNKNOWN
R3951735 RS41 2020-11-27 13:13:00 44.8841 8.01567 283 ° 6 km/h 426 m -10.7 m/s 402.800 MHz Poirino (IT) 0.00 km FOUND
R3960046 RS41 2020-11-27 01:36:00 44.8429 8.00071 171 ° 7 km/h 444 m -3.0 m/s 402.800 MHz Poirino (IT) 0.00 km UNKNOWN
R3951519 RS41 2020-11-26 13:21:31 44.9144 7.89542 264 ° 2 km/h 366 m -4.8 m/s 402.80 MHz Poirino (IT) 0.00 km FOUND
R3951548 RS41 2020-11-26 01:41:00 44.8578 7.86578 44 ° 2 km/h 355 m -5.6 m/s 402.800 MHz Poirino (IT) 0.00 km FOUND
R3951546 RS41 2020-11-25 13:23:20 44.7506 8.05306 244 ° 7 km/h 319 m -4.4 m/s 402.801 MHz Alba (IT) 0.00 km FOUND
R3950630 RS41 2020-11-25 01:56:31 44.4853 8.23936 193 ° 15 km/h 838 m -7.5 m/s 405.000 MHz Monesiglio (IT) 0.00 km UNKNOWN
R3951761 RS41 2020-11-24 14:35:00 44.2024 8.55162 164 ° 43 km/h 64 m -2.4 m/s 402.800 MHz Vado Ligure (IT) 0.00 km LOST
R3950629 RS41 2020-11-23 14:33:09 43.9947 9.33005 97 ° 7 km/h 111 m -3.6 m/s 402.800 MHz Sestri Levante (IT) 0.00 km LOST
R3950500 RS41 2020-11-23 01:41:56 44.0923 8.4893 156 ° 4 km/h 181 m -10.1 m/s 402.800 MHz Finale Ligure (IT) 0.00 km LOST
R3951547 RS41 2020-11-22 13:38:40 43.8478 7.67832 232 ° 48 km/h 3433 m -3.8 m/s 402.800 MHz Bordighera (IT) 0.00 km UNKNOWN
R3951762 RS41 2020-11-22 02:03:12 43.5167 7.24713 234 ° 83 km/h 5021 m -3.8 m/s 402.80 MHz Antibes (FR) 0.00 km LOST
R3951520 RS41 2020-11-21 12:58:40 43.5756 6.57595 216 ° 96 km/h 5996 m -8.4 m/s 402.800 MHz Draguignan (FR) 0.00 km UNKNOWN
R3950495 RS41 2020-11-21 01:40:28 43.1342 6.69796 208 ° 128 km/h 7204 m -5.9 m/s 402.800 MHz Cavalaire-sur-Mer (FR) 0.00 km LOST
R3950578 RS41 2020-11-20 13:20:20 43.6184 7.51861 215 ° 72 km/h 4123 m -10.0 m/s 402.801 MHz Monaco (MC) 0.00 km LOST
R3951662 RS41 2020-11-20 01:46:57 44.0348 8.86275 166 ° 56 km/h 216 m -7.6 m/s 402.80 MHz Genoa (IT) 0.00 km LOST
R3951661 RS41 2020-11-19 13:32:54 44.4238 9.13637 9 ° 11 km/h 1028 m -8.7 m/s 402.80 MHz Recco (IT) 0.00 km UNKNOWN
R3951656 RS41 2020-11-19 01:40:41 44.3366 8.34676 103 ° 7 km/h 630 m -6.6 m/s 402.80 MHz Cairo Montenotte (IT) 0.00 km UNKNOWN
R3951663 RS41 2020-11-18 13:43:18 44.0947 8.29195 85 ° 6 km/h 392 m -12.3 m/s 402.80 MHz Loano (IT) 0.00 km LOST
R3950510 RS41 2020-11-18 01:59:06 43.7443 8.04982 234 ° 22 km/h 1751 m -3.4 m/s 402.800 MHz Imperia (IT) 0.00 km LOST
R3951743 RS41 2020-11-17 13:40:08 43.2062 7.95746 218 ° 52 km/h 4435 m -4.9 m/s 402.801 MHz Bordighera (IT) 0.00 km LOST
R3951571 RS41 2020-11-17 02:27:10 42.8122 8.9614 186 ° 61 km/h 3979 m -11.0 m/s 402.800 MHz Calvi (FR) 0.00 km LOST
R3951760 RS41 2020-11-16 13:33:35 43.9188 9.08794 185 ° 19 km/h 3022 m -8.8 m/s 402.800 MHz Sestri Levante (IT) 0.00 km LOST
R3950560 RS41 2020-11-16 01:55:22 44.4399 9.46209 27 ° 46 km/h 1854 m -5.6 m/s 402.800 MHz Lavagna (IT) 0.00 km UNKNOWN
R3951759 RS41 2020-11-15 02:48:29 44.2995 9.34586 185 ° 13 km/h 77 m -3.0 m/s 402.801 MHz Lavagna (IT) 0.00 km LOST
R3950499 RS41 2020-11-14 13:28:40 44.3047 9.12671 119 ° 4 km/h 325 m -10.1 m/s 402.800 MHz Recco (IT) 0.00 km LOST
R3951522 RS41 2020-11-14 01:56:12 44.7004 9.29143 344 ° 6 km/h 1313 m -5.0 m/s 402.800 MHz Voghera (IT) 0.00 km UNKNOWN
R3950504 RS41 2020-11-13 14:22:33 44.6668 9.45442 26 ° 19 km/h 1363 m -2.1 m/s 402.800 MHz Podenzano (IT) 0.00 km UNKNOWN
R3951523 RS41 2020-11-13 02:33:35 44.3796 8.32012 338 ° 2 km/h 580 m -11.6 m/s 402.800 MHz Cairo Montenotte (IT) 0.00 km UNKNOWN
R3950502 RS41 2020-11-12 14:02:40 44.3358 8.81733 141 ° 9 km/h 129 m -3.8 m/s 402.801 MHz Genoa (IT) 0.00 km LOST
R3950501 RS41 2020-11-12 01:52:48 44.1842 8.7028 140 ° 9 km/h 240 m -5.2 m/s 402.800 MHz Varazze (IT) 0.00 km LOST
R3950559 RS41 2020-11-11 13:49:53 43.9808 8.45636 124 ° 7 km/h 126 m -5.5 m/s 402.800 MHz Albenga (IT) 0.00 km LOST
R3950494 RS41 2020-11-11 02:05:12 44.8313 8.30629 84 ° 2 km/h 426 m -3.4 m/s 402.80 MHz Nizza Monferrato (IT) 0.00 km UNKNOWN
R3951777 RS41 2020-11-10 13:48:30 45.002 8.1256 234 ° 11 km/h 423 m -4.1 m/s 402.800 MHz Asti (IT) 0.00 km UNKNOWN
R3950507 RS41 2020-11-10 02:58:38 44.9702 8.46962 240 ° 7 km/h 338 m -2.1 m/s 402.800 MHz Alessandria (IT) 0.00 km FOUND
R3950506 RS41 2020-11-09 14:35:56 44.7688 8.8594 217 ° 9 km/h 333 m -2.1 m/s 402.800 MHz Novi Ligure (IT) 0.00 km UNKNOWN
R3950628 RS41 2020-11-09 02:18:48 44.6616 8.79434 45 ° 7 km/h 580 m -3.2 m/s 402.801 MHz Novi Ligure (IT) 0.00 km UNKNOWN
R3950569 RS41 2020-11-08 13:18:09 44.7409 8.31562 338 ° 17 km/h 618 m -13.1 m/s 402.800 MHz Canelli (IT) 0.00 km UNKNOWN
R3950509 RS41 2020-11-08 01:48:00 44.9228 8.00972 72 ° 0 km/h 568 m -6.2 m/s 402.80 MHz Poirino (IT) 0.00 km FOUND
R3950562 RS41 2020-11-07 13:49:40 44.8422 8.0638 260 ° 6 km/h 369 m -3.9 m/s 402.801 MHz Asti (IT) 0.00 km FOUND
R3951643 RS41 2020-11-07 01:41:20 44.4858 8.04155 83 ° 9 km/h 862 m -3.7 m/s 402.800 MHz Monesiglio (IT) 0.00 km LOST
R3951642 RS41 2020-11-06 13:27:00 44.5606 7.8538 260 ° 4 km/h 404 m -4.9 m/s 402.800 MHz Fossano (IT) 0.00 km LOST
R3950561 RS41 2020-11-06 01:43:20 44.4374 7.77836 64 ° 11 km/h 475 m -11.6 m/s 402.800 MHz Mondovì (IT) 0.00 km FOUND
R3951649 RS41 2020-11-05 02:21:40 44.5051 7.96279 112 ° 6 km/h 593 m -3.6 m/s 402.800 MHz Monesiglio (IT) 0.00 km FOUND
R3950364 RS41 2020-11-04 13:26:46 44.8495 7.87915 23 ° 6 km/h 360 m -5.1 m/s 402.801 MHz Poirino (IT) 0.00 km FOUND
R3950923 RS41 2020-11-04 01:51:40 45.0068 8.0003 80 ° 7 km/h 345 m -3.6 m/s 402.80 MHz Chieri (IT) 0.00 km FOUND
R3951650 RS41 2020-11-03 13:28:40 45.102 7.83279 134 ° 0 km/h 507 m -11.8 m/s 405.001 MHz Gassino Torinese (IT) 0.00 km FOUND
R3960130 RS41 2020-11-03 01:40:30 44.8204 7.49561 64 ° 4 km/h 313 m -4.6 m/s 405.000 MHz None (IT) 0.00 km UNKNOWN
R3950550 RS41 2020-11-02 13:53:20 44.434 7.2179 86 ° 11 km/h 2088 m -3.5 m/s 402.800 MHz Busca (IT) 0.00 km FOUND
R3951509 RS41 2020-11-02 01:46:34 43.7553 7.25301 159 ° 15 km/h 3620 m -3.9 m/s 402.800 MHz Saint-André-de-la-Roche (FR) 0.00 km UNKNOWN
R3951637 RS41 2020-11-01 13:45:24 43.7265 8.0226 118 ° 31 km/h 2368 m -4.6 m/s 405.001 MHz Imperia (IT) 0.00 km LOST
R3951617 RS41 2020-11-01 01:44:55 44.0932 8.24669 97 ° 4 km/h 69 m -13.1 m/s 402.800 MHz Loano (IT) 0.00 km LOST
R3951640 RS41 2020-10-31 13:20:00 44.3773 8.1355 320 ° 19 km/h 1003 m -4.6 m/s 402.800 MHz Monesiglio (IT) 0.00 km FOUND
R3950937 RS41 2020-10-31 01:28:30 44.2722 8.12233 96 ° 11 km/h 1314 m -7.6 m/s 402.800 MHz Cairo Montenotte (IT) 0.00 km UNKNOWN
R3951469 RS41 2020-10-30 13:48:30 43.8448 8.25316 243 ° 6 km/h 174 m -5.9 m/s 402.800 MHz Imperia (IT) 0.00 km LOST
R3951673 RS41 2020-10-30 01:42:41 43.5868 8.40408 150 ° 4 km/h 504 m -6.5 m/s 402.800 MHz Imperia (IT) 0.00 km LOST
R3950579 RS41 2020-10-29 13:08:23 43.6544 8.68851 178 ° 35 km/h 1852 m -5.5 m/s 402.801 MHz Alassio (IT) 0.00 km LOST
R3951672 RS41 2020-10-29 01:43:43 44.2124 9.4696 80 ° 20 km/h 2048 m -7.1 m/s 402.800 MHz Sestri Levante (IT) 0.00 km LOST
R3951647 RS41 2020-10-28 13:50:51 44.476 9.56951 57 ° 26 km/h 1737 m -6.1 m/s 402.800 MHz Lavagna (IT) 0.00 km UNKNOWN
R3951644 RS41 2020-10-28 02:16:12 43.9576 9.14307 120 ° 20 km/h 761 m -2.2 m/s 402.800 MHz Sestri Levante (IT) 0.00 km LOST
R3951616 RS41 2020-10-27 13:20:56 43.7153 8.69473 141 ° 15 km/h 2754 m -8.0 m/s 402.80 MHz Alassio (IT) 0.00 km LOST
R3951510 RS41 2020-10-27 01:52:40 45.225 9.00417 141 ° 33 km/h 171 m -8.8 m/s 402.800 MHz Motta Visconti (IT) 0.00 km UNKNOWN
R3950366 RS41 2020-10-26 13:24:09 45.9589 9.27938 10 ° 19 km/h 890 m -5.5 m/s 402.80 MHz Mandello del Lario (IT) 0.00 km LOST
R3951681 RS41 2020-10-26 01:48:10 45.5189 9.8776 260 ° 22 km/h 270 m -5.6 m/s 402.800 MHz Chiari (IT) 0.00 km FOUND
R3951674 RS41 2020-10-25 13:17:35 44.8446 9.52573 333 ° 7 km/h 704 m -11.7 m/s 402.800 MHz Podenzano (IT) 0.00 km UNKNOWN
R3951685 RS41 2020-10-25 00:33:55 44.3348 9.09789 330 ° 6 km/h 124 m -5.6 m/s 402.800 MHz Recco (IT) 0.00 km LOST
R3951686 RS41 2020-10-24 12:18:28 44.4361 8.87018 255 ° 26 km/h 263 m -2.8 m/s 402.80 MHz Genoa (IT) 0.00 km UNKNOWN
R3951657 RS41 2020-10-24 01:55:32 45.5858 10.9375 81 ° 39 km/h 1349 m -1.5 m/s 402.800 MHz Negrar (IT) 0.00 km UNKNOWN
R3950498 RS41 2020-10-23 12:01:31 45.4274 9.41491 278 ° 11 km/h 215 m -8.0 m/s 402.80 MHz Paullo (IT) 0.00 km UNKNOWN
R3951570 RS41 2020-10-23 01:18:17 45.5155 10.2225 17 ° 7 km/h 449 m -2.9 m/s 402.800 MHz Brescia (IT) 0.00 km FOUND
D17064397 DFM09 2020-10-22 16:31:00 45.1634 9.02944 302 ° 11 km/h 873 m -1.7 m/s 405.948 MHz Garlasco (IT) 0.00 km FOUND
D17064401 DFM 2020-10-22 14:52:17 44.3746 8.24242 318 ° 30 km/h 1284 m -7.6 m/s 405.010 MHz Cairo Montenotte (IT) 0.00 km FOUND
R3951671 RS41 2020-10-22 12:20:59 45.307 9.47311 94 ° 13 km/h 179 m -13.4 m/s 402.80 MHz Lodi (IT) 0.00 km FOUND
D17064335 DFM 2020-10-22 10:42:30 44.5196 8.09062 141 ° 0 km/h 846 m -4.4 m/s 405.287 MHz Monesiglio (IT) 0.00 km FOUND
R3951659 RS41 2020-10-22 00:35:54 45.2611 9.41528 96 ° 26 km/h 216 m -11.9 m/s 402.80 MHz Lodi Vecchio (IT) 0.00 km UNKNOWN
D17064235 DFM 2020-10-21 16:19:00 44.9285 7.92856 311 ° 6 km/h 303 m -2.6 m/s 405.289 MHz Poirino (IT) 0.00 km LOST
R3951684 RS41-SG 2020-10-21 00:45:22 44.87 9.04427 209 ° 4 km/h 502 m -6.8 m/s 402.80 MHz Tortona (IT) 0.00 km FOUND
R3951655 RS41 2020-10-20 12:21:43 44.6337 8.93939 357 ° 15 km/h 981 m -5.7 m/s 402.80 MHz Serra Riccò (IT) 0.00 km UNKNOWN
R3951683 RS41 2020-10-20 00:52:03 44.2147 8.94735 184 ° 4 km/h 77 m -4.8 m/s 402.80 MHz Genoa (IT) 0.00 km LOST
R3951651 RS41 2020-10-19 12:33:26 44.0542 9.13405 23 ° 11 km/h 67 m -7.6 m/s 402.800 MHz Santa Margherita Ligure (IT) 0.00 km LOST
R3951652 RS41 2020-10-19 01:17:00 44.0791 9.28192 15 ° 11 km/h 2952 m -3.0 m/s 402.800 MHz Sestri Levante (IT) 0.00 km LOST
R3951653 RS41 2020-10-18 13:44:13 44.204 9.29677 39 ° 4 km/h 2688 m -5.8 m/s 402.80 MHz Sestri Levante (IT) 0.00 km LOST
R3951654 RS41 2020-10-18 01:44:49 44.2851 9.54065 90 ° 13 km/h 1613 m -7.2 m/s 402.800 MHz Sestri Levante (IT) 0.00 km UNKNOWN
R3950334 RS41 2020-10-17 12:24:29 44.3514 8.5728 346 ° 11 km/h 1318 m -7.0 m/s 402.800 MHz Varazze (IT) 0.00 km LOST
R3950338 RS41 2020-10-17 00:39:34 44.4248 8.31736 230 ° 4 km/h 620 m -3.6 m/s 405.00 MHz Cairo Montenotte (IT) 0.00 km UNKNOWN
R3950982 RS41 2020-10-16 12:42:35 44.344 8.32236 151 ° 19 km/h 495 m -6.4 m/s 402.80 MHz Cairo Montenotte (IT) 0.00 km FOUND
R3951024 RS41 2020-10-16 02:06:30 44.2462 8.04884 130 ° 28 km/h 1151 m -1.7 m/s 402.80 MHz Loano (IT) 0.00 km FOUND
R3951026 RS41 2020-10-15 12:37:30 44.5404 7.82405 285 ° 9 km/h 507 m -3.6 m/s 402.80 MHz Fossano (IT) 0.00 km FOUND
R3950980 RS41 2020-10-15 01:21:14 44.844 7.99355 160 ° 11 km/h 498 m -5.0 m/s 402.80 MHz Poirino (IT) 0.00 km FOUND
R3951025 RS41 2020-10-14 12:43:24 45.0598 8.70175 150 ° 7 km/h 270 m -5.5 m/s 402.800 MHz Valenza (IT) 0.00 km UNKNOWN
R3951007 RS41 2020-10-14 01:29:50 44.869 9.17979 289 ° 13 km/h 628 m -3.3 m/s 402.80 MHz Voghera (IT) 0.00 km FOUND
R3950336 RS41 2020-10-13 12:50:49 44.3635 8.59162 348 ° 9 km/h 227 m -3.4 m/s 402.80 MHz Varazze (IT) 0.00 km UNKNOWN
R3950330 RS41 2020-10-13 01:04:12 44.0088 8.56472 162 ° 26 km/h 257 m -4.1 m/s 402.800 MHz Finale Ligure (IT) 0.00 km LOST
R3951809 RS41 2020-10-12 12:22:39 43.7341 7.79117 198 ° 35 km/h 3389 m -9.0 m/s 402.80 MHz San Remo (IT) 0.00 km LOST
R3951016 RS41 2020-10-12 01:13:12 44.0976 7.91892 186 ° 52 km/h 1665 m -5.4 m/s 402.80 MHz Alassio (IT) 0.00 km UNKNOWN
R3951020 RS41 2020-10-11 12:44:13 44.459 8.12625 67 ° 11 km/h 607 m -2.6 m/s 402.80 MHz Monesiglio (IT) 0.00 km FOUND
R3950326 RS41 2020-10-11 00:32:56 44.6378 8.47818 271 ° 9 km/h 524 m -6.5 m/s 402.80 MHz Acqui Terme (IT) 0.00 km UNKNOWN
R3951006 RS41 2020-10-10 13:22:46 44.9218 9.6634 214 ° 11 km/h 471 m -3.6 m/s 402.800 MHz Podenzano (IT) 0.00 km UNKNOWN
R3951004 RS41 2020-10-10 00:39:29 44.5725 8.99202 31 ° 13 km/h 1166 m -13.1 m/s 402.800 MHz Serra Riccò (IT) 0.00 km UNKNOWN
R3950994 RS41 2020-10-09 12:00:13 44.7027 8.97131 28 ° 9 km/h 611 m -6.3 m/s 402.800 MHz Novi Ligure (IT) 0.00 km UNKNOWN
R3951679 RS41 2020-10-09 01:15:18 44.4591 9.30181 26 ° 4 km/h 1072 m -3.8 m/s 402.800 MHz Rapallo (IT) 0.00 km FOUND
R3951680 RS41 2020-10-08 12:16:30 44.0911 8.66756 171 ° 2 km/h 2251 m -6.3 m/s 402.801 MHz Vado Ligure (IT) 0.00 km LOST
R3950925 RS41 2020-10-08 00:41:32 43.9211 9.12455 170 ° 24 km/h 3200 m -5.5 m/s 402.800 MHz Sestri Levante (IT) 0.00 km LOST
R3951669 RS41 2020-10-07 12:09:53 43.1994 9.30259 143 ° 163 km/h 7030 m -3.5 m/s 405.001 MHz Bastia (FR) 0.00 km LOST
R3951670 RS41 2020-10-07 00:25:48 44.0757 9.65025 81 ° 44 km/h 2566 m -9.8 m/s 402.800 MHz La Spezia (IT) 0.00 km LOST
R3951023 RS41 2020-10-06 13:35:51 44.1851 10.397 40 ° 28 km/h 2128 m -2.3 m/s 402.800 MHz Barga (IT) 0.00 km UNKNOWN
R3950990 RS41 2020-10-05 10:47:36 44.6084 8.07367 1 ° 37 km/h 14695 m 0.0 m/s 402.800 MHz Alba (IT) 0.00 km UNKNOWN
R3950340 RS41 2020-10-05 00:26:00 45.1177 8.59369 140 ° 2 km/h 202 m -4.5 m/s 402.800 MHz Casale Monferrato (IT) 0.00 km UNKNOWN
R3950989 RS41 2020-10-04 12:14:19 45.3238 8.95236 340 ° 24 km/h 215 m -9.3 m/s 402.801 MHz Casorate Primo (IT) 0.00 km UNKNOWN
R3951043 RS41 2020-10-04 01:00:27 44.8342 9.34854 21 ° 67 km/h 952 m -10.9 m/s 402.800 MHz Voghera (IT) 0.00 km UNKNOWN
R3950979 RS41 2020-10-03 12:26:48 45.2966 8.40073 343 ° 24 km/h 370 m -10.6 m/s 405.000 MHz Vercelli (IT) 0.00 km UNKNOWN
R3951803 RS41 2020-10-02 15:31:02 46.8604 9.74034 356 ° 113 km/h 3171 m -5.9 m/s 402.800 MHz Davos (CH) 0.00 km UNKNOWN
R3951738 RS41 2020-10-02 01:08:41 44.7837 9.02338 10 ° 31 km/h 698 m -4.0 m/s 405.001 MHz Tortona (IT) 0.00 km UNKNOWN
R3951804 RS41 2020-10-01 12:33:47 44.7311 8.82578 344 ° 33 km/h 547 m -9.4 m/s 402.800 MHz Novi Ligure (IT) 0.00 km UNKNOWN
R3951805 RS41 2020-10-01 00:33:30 44.3381 8.44292 321 ° 13 km/h 1028 m -9.5 m/s 402.800 MHz Savona (IT) 0.00 km UNKNOWN
R3951806 RS41 2020-09-30 13:01:39 44.2185 9.02794 104 ° 11 km/h 2093 m -4.7 m/s 402.800 MHz Recco (IT) 0.00 km LOST
R3951807 RS41 2020-09-30 00:41:01 44.3017 8.74423 220 ° 6 km/h 244 m -4.4 m/s 402.800 MHz Arenzano (IT) 0.00 km LOST
R3951739 RS41 2020-09-29 13:08:46 44.306 8.98932 351 ° 13 km/h 604 m -11.3 m/s 402.800 MHz Genoa (IT) 0.00 km LOST
R3951740 RS41 2020-09-29 00:43:32 43.7387 8.72147 276 ° 4 km/h 388 m -5.0 m/s 402.800 MHz Alassio (IT) 0.00 km LOST
R3951801 RS41 2020-09-28 13:26:18 43.5968 7.98116 240 ° 19 km/h 1032 m -1.9 m/s 402.80 MHz Taggia (IT) 0.00 km LOST
R3951802 RS41 2020-09-28 01:18:00 44.2562 8.0878 106 ° 4 km/h 1150 m -5.5 m/s 402.800 MHz Pietra Ligure (IT) 0.00 km FOUND
R3870765 RS41 2020-09-27 12:23:00 44.4886 7.96668 165 ° 15 km/h 652 m -8.2 m/s 402.800 MHz Monesiglio (IT) 0.00 km FOUND
R3960196 RS41 2020-09-27 01:58:54 44.4624 8.38865 229 ° 13 km/h 1020 m -2.5 m/s 405.00 MHz Cairo Montenotte (IT) 0.00 km UNKNOWN
R3950940 RS41 2020-09-26 12:12:37 44.1764 8.63458 159 ° 24 km/h 1888 m -9.2 m/s 402.801 MHz Vado Ligure (IT) 0.00 km LOST
R3950941 RS41 2020-09-26 00:54:18 44.0975 8.6376 150 ° 44 km/h 137 m -4.4 m/s 402.800 MHz Finale Ligure (IT) 0.00 km LOST
R3960287 RS41 2020-09-25 12:47:35 45.0995 9.10422 208 ° 7 km/h 258 m -2.2 m/s 402.800 MHz Pavia (IT) 0.00 km UNKNOWN
R3950929 RS41 2020-09-25 00:54:21 45.1615 9.53344 264 ° 19 km/h 265 m -7.4 m/s 405.00 MHz Casalpusterlengo (IT) 0.00 km UNKNOWN
R3950942 RS41 2020-09-22 12:20:30 44.9158 7.91051 229 ° 15 km/h 362 m -13.0 m/s 402.800 MHz Poirino (IT) 0.00 km FOUND
R3960048 RS41 2020-09-22 00:47:24 44.7649 7.99465 81 ° 7 km/h 438 m -10.5 m/s 402.800 MHz Alba (IT) 0.00 km FOUND
R3951667 RS41 2020-09-21 12:19:00 44.705 7.8483 137 ° 4 km/h 430 m -11.6 m/s 402.80 MHz Bra (IT) 0.00 km UNKNOWN
R3960038 RS41 2020-09-21 00:48:00 44.6501 8.01044 33 ° 7 km/h 496 m -8.9 m/s 402.80 MHz Alba (IT) 0.00 km FOUND
R3960288 RS41 2020-09-20 12:59:30 44.9089 7.99963 270 ° 11 km/h 354 m -4.4 m/s 402.800 MHz Poirino (IT) 0.00 km FOUND
R3960194 RS41 2020-09-20 01:06:20 44.8372 8.20778 252 ° 7 km/h 644 m -4.5 m/s 405.00 MHz Asti (IT) 0.00 km FOUND
R3960195 RS41 2020-09-19 12:19:00 44.9072 8.10681 224 ° 19 km/h 452 m -6.3 m/s 402.800 MHz Asti (IT) 0.00 km FOUND
R3960285 RS41 2020-09-19 00:34:40 44.6308 8.08411 207 ° 9 km/h 749 m -12.1 m/s 405.000 MHz Alba (IT) 0.00 km UNKNOWN
R3960284 RS41 2020-09-18 11:55:41 44.4106 7.86421 210 ° 4 km/h 15636 m -0.2 m/s 402.802 MHz Mondovì (IT) 0.00 km FOUND
R3951676 RS41 2020-09-18 00:33:31 44.3641 8.00047 184 ° 15 km/h 2120 m -11.8 m/s 405.00 MHz Monesiglio (IT) 0.00 km FOUND
R3951678 RS41 2020-09-17 11:07:20 44.3665 7.72795 262 ° 4 km/h 602 m -4.9 m/s 402.80 MHz Mondovì (IT) 0.00 km FOUND
R3951675 RS41 2020-09-17 00:34:20 44.2886 7.65717 49 ° 2 km/h 981 m -5.9 m/s 402.800 MHz Boves (IT) 0.00 km FOUND
R3960047 RS41 2020-09-16 12:35:40 44.3241 7.62463 241 ° 6 km/h 681 m -12.1 m/s 402.802 MHz Boves (IT) 0.00 km FOUND
R3951666 RS41 2020-09-16 00:33:40 44.3688 7.46726 81 ° 7 km/h 777 m -7.9 m/s 405.00 MHz Borgo San Dalmazzo (IT) 0.00 km UNKNOWN
R3951677 RS41 2020-09-15 12:22:00 44.6098 7.35442 198 ° 6 km/h 880 m -9.2 m/s 402.802 MHz Saluzzo (IT) 0.00 km UNKNOWN
R3950928 RS41 2020-09-15 01:14:42 44.7235 7.28491 159 ° 2 km/h 744 m -4.8 m/s 402.80 MHz Barge (IT) 0.00 km UNKNOWN
R3950582 RS41 2020-09-14 12:23:57 44.7616 7.17142 262 ° 4 km/h 1685 m -11.8 m/s 402.80 MHz Barge (IT) 0.00 km UNKNOWN
R3960037 RS41 2020-09-14 00:52:57 44.7494 6.87968 269 ° 17 km/h 3563 m -5.2 m/s 402.802 MHz Briançon (FR) 0.00 km UNKNOWN
R3870763 RS41 2020-09-13 12:22:18 44.5606 7.11908 298 ° 0 km/h 2667 m -5.0 m/s 402.802 MHz Barge (IT) 0.00 km UNKNOWN
R3960197 RS41 2020-09-13 00:41:58 44.4389 7.48246 85 ° 11 km/h 612 m -7.4 m/s 402.800 MHz Cuneo (IT) 0.00 km FOUND
R3960072 RS41 2020-09-12 12:33:52 44.6135 7.66736 318 ° 2 km/h 406 m -6.5 m/s 402.800 MHz Savigliano (IT) 0.00 km FOUND
R3951665 RS41 2020-09-12 00:51:32 44.6699 7.59774 80 ° 4 km/h 436 m -9.5 m/s 405.002 MHz Savigliano (IT) 0.00 km UNKNOWN
R3950922 RS41 2020-09-11 00:36:13 44.7965 7.82805 132 ° 6 km/h 433 m -9.7 m/s 402.802 MHz Carmagnola (IT) 0.00 km UNKNOWN
R3960283 RS41 2020-09-10 13:12:25 44.8584 7.7059 319 ° 11 km/h 581 m -12.3 m/s 402.802 MHz Carmagnola (IT) 0.00 km FOUND
R3950933 RS41 2020-09-10 00:36:07 44.9628 7.78731 92 ° 7 km/h 318 m -4.6 m/s 402.80 MHz Trofarello (IT) 0.00 km FOUND
R3870768 RS41 2020-09-09 12:18:36 45.1632 7.42156 173 ° 6 km/h 1199 m -13.1 m/s 402.802 MHz Avigliana (IT) 0.00 km FOUND
R3950934 RS41 2020-09-09 00:44:54 44.9625 7.10701 265 ° 4 km/h 2148 m -5.6 m/s 402.802 MHz Pinerolo (IT) 0.00 km FOUND
R3960129 RS41 2020-09-08 12:18:34 44.6554 6.9255 359 ° 9 km/h 3214 m -10.0 m/s 402.80 MHz Barge (IT) 0.00 km UNKNOWN
R3950927 RS41 2020-09-08 00:41:05 44.5024 7.26708 206 ° 17 km/h 2099 m -2.9 m/s 402.80 MHz Busca (IT) 0.00 km FOUND
R3950924 RS41 2020-09-07 12:20:35 44.9119 8.019 208 ° 7 km/h 369 m -8.6 m/s 402.80 MHz Poirino (IT) 0.00 km LOST
R3950931 RS41 2020-09-07 00:39:36 44.9797 8.56839 167 ° 22 km/h 276 m -7.7 m/s 402.80 MHz Valenza (IT) 0.00 km UNKNOWN
R3950932 RS41 2020-09-06 12:46:58 44.9244 9.11186 89 ° 17 km/h 1057 m -6.5 m/s 402.80 MHz Voghera (IT) 0.00 km UNKNOWN
R3861147 RS41 2020-09-06 00:58:01 44.6345 8.9239 62 ° 13 km/h 1212 m -6.6 m/s 402.801 MHz Serra Riccò (IT) 0.00 km UNKNOWN
R3870767 RS41 2020-09-05 13:44:59 44.6572 9.20083 15 ° 9 km/h 1756 m -1.9 m/s 402.80 MHz Serra Riccò (IT) 0.00 km UNKNOWN
R3861130 RS41 2020-09-05 00:35:09 44.3608 8.09268 97 ° 17 km/h 974 m -6.9 m/s 405.00 MHz Monesiglio (IT) 0.00 km FOUND
R3861176 RS41 2020-09-04 12:29:56 44.3528 7.90472 172 ° 7 km/h 821 m -6.7 m/s 402.801 MHz Mondovì (IT) 0.00 km FOUND
R3950094 RS41 2020-09-04 00:56:17 44.2211 7.74068 151 ° 0 km/h 2067 m -4.7 m/s 405.00 MHz Mondovì (IT) 0.00 km FOUND
R3861134 RS41 2020-09-03 12:09:42 44.0605 7.6297 176 ° 24 km/h 3131 m -13.5 m/s 402.80 MHz San Remo (IT) 0.00 km UNKNOWN
R3950071 RS41 2020-09-03 00:50:33 43.8894 7.45547 89 ° 17 km/h 3369 m -5.8 m/s 402.801 MHz Menton (FR) 0.00 km UNKNOWN
R3861129 RS41 2020-09-02 12:29:45 44.2775 8.01187 74 ° 9 km/h 1681 m -3.8 m/s 402.80 MHz Mondovì (IT) 0.00 km FOUND
R3861138 RS41 2020-09-02 00:49:00 44.4509 8.19372 46 ° 9 km/h 1188 m -3.8 m/s 405.00 MHz Monesiglio (IT) 0.00 km UNKNOWN
R3861173 RS41 2020-09-01 12:50:33 44.4257 8.28812 355 ° 26 km/h 582 m -5.6 m/s 402.80 MHz Cairo Montenotte (IT) 0.00 km FOUND
R3950382 RS41 2020-09-01 00:50:23 44.2728 8.29841 65 ° 4 km/h 614 m -14.9 m/s 402.801 MHz Vado Ligure (IT) 0.00 km UNKNOWN
R3861137 RS41 2020-08-31 11:56:58 44.8933 7.97428 259 ° 9 km/h 463 m -8.1 m/s 402.801 MHz Poirino (IT) 0.00 km FOUND
R3950096 RS41 2020-08-31 00:49:57 45.3189 8.3834 276 ° 9 km/h 338 m -8.0 m/s 402.80 MHz Vercelli (IT) 0.00 km UNKNOWN
R3861139 RS41 2020-08-30 12:58:53 45.6021 8.72792 185 ° 11 km/h 285 m -3.6 m/s 402.80 MHz Lonate Pozzolo (IT) 0.00 km FOUND
R3861140 RS41 2020-08-30 01:17:03 46.0879 8.32943 8 ° 37 km/h 2824 m -6.2 m/s 402.80 MHz Domodossola (IT) 0.00 km UNKNOWN
R3950420 RS41 2020-08-29 12:24:31 45.4646 8.22055 276 ° 19 km/h 600 m -6.5 m/s 402.801 MHz Santhià (IT) 0.00 km FOUND
R3861175 RS41 2020-08-29 00:42:20 45.1292 8.49097 25 ° 57 km/h 1473 m -11.6 m/s 402.801 MHz Casale Monferrato (IT) 0.00 km UNKNOWN
R3861131 RS41 2020-08-28 13:05:18 45.1313 9.10758 317 ° 11 km/h 172 m -2.8 m/s 402.795 MHz Pavia (IT) 0.00 km FOUND
R3950383 RS41 2020-08-28 00:59:48 44.6932 8.66863 350 ° 15 km/h 420 m -4.8 m/s 402.795 MHz Ovada (IT) 0.00 km UNKNOWN
R3950387 RS41 2020-08-27 13:37:09 44.4243 9.08405 99 ° 4 km/h 2000 m -2.4 m/s 402.795 MHz Recco (IT) 0.00 km UNKNOWN
R3950068 RS41 2020-08-27 01:08:50 44.2535 8.84237 253 ° 17 km/h 57 m -6.6 m/s 402.80 MHz Genoa (IT) 0.00 km LOST
R3861136 RS41 2020-08-26 12:47:25 44.3722 8.84174 317 ° 13 km/h 295 m -4.6 m/s 402.801 MHz Genoa (IT) 0.00 km LOST
R3861171 RS41 2020-08-26 00:56:47 44.3906 8.72958 319 ° 7 km/h 619 m -15.2 m/s 402.80 MHz Arenzano (IT) 0.00 km LOST
R3950430 RS41 2020-08-25 12:50:32 44.1465 8.55024 215 ° 15 km/h 809 m -5.5 m/s 402.80 MHz Vado Ligure (IT) 0.00 km LOST
R3950388 RS41 2020-08-25 02:13:22 43.4688 8.74813 118 ° 22 km/h 172 m -2.3 m/s 404.995 MHz Imperia (IT) 0.00 km LOST
R3950429 RS41 2020-08-24 12:35:22 44.6587 8.58785 146 ° 9 km/h 400 m -4.5 m/s 402.801 MHz Ovada (IT) 0.00 km UNKNOWN
R3950386 RS41 2020-08-24 01:09:15 44.4437 8.78709 190 ° 11 km/h 617 m -2.6 m/s 405.005 MHz Arenzano (IT) 0.00 km UNKNOWN
R3950385 RS41 2020-08-23 13:10:35 44.7869 8.8426 178 ° 9 km/h 284 m -5.5 m/s 402.801 MHz Novi Ligure (IT) 0.00 km UNKNOWN
R3950379 RS41 2020-08-23 01:08:02 44.4341 8.43056 19 ° 7 km/h 767 m -3.7 m/s 402.795 MHz Cairo Montenotte (IT) 0.00 km UNKNOWN
R3950419 RS41 2020-08-22 11:55:49 45.005 8.97299 87 ° 9 km/h 1236 m -4.3 m/s 404.995 MHz Tortona (IT) 0.00 km UNKNOWN
R3950418 RS41 2020-08-22 00:40:54 44.8469 8.01237 18 ° 11 km/h 401 m -9.0 m/s 402.801 MHz Poirino (IT) 0.00 km FOUND
R3950381 RS41 2020-08-21 12:48:49 44.7909 7.91619 308 ° 4 km/h 449 m -5.2 m/s 402.795 MHz Bra (IT) 0.00 km FOUND
R3950072 RS41 2020-08-21 01:14:10 44.6679 7.97471 13 ° 7 km/h 267 m -4.2 m/s 402.801 MHz Alba (IT) 0.00 km FOUND
R3950417 RS41 2020-08-20 12:55:10 44.6908 7.98234 223 ° 11 km/h 345 m -6.8 m/s 405.001 MHz Alba (IT) 0.00 km LOST
R3950416 RS41 2020-08-20 00:02:54 44.3945 8.66648 6 ° 4 km/h 982 m -5.9 m/s 402.801 MHz Arenzano (IT) 0.00 km UNKNOWN
R3950390 RS41 2020-08-19 13:59:36 43.8605 9.04392 318 ° 17 km/h 292 m -1.9 m/s 402.800 MHz Sestri Levante (IT) 0.00 km LOST
R3950389 RS41 2020-08-19 00:46:38 43.9971 8.58017 231 ° 19 km/h 376 m -9.4 m/s 402.800 MHz Finale Ligure (IT) 0.00 km LOST
R3950422 RS41 2020-08-18 13:10:21 44.2613 9.01867 347 ° 11 km/h 289 m -3.3 m/s 402.80 MHz Recco (IT) 0.00 km LOST
R3950415 RS41 2020-08-18 01:04:37 44.6296 8.52298 352 ° 11 km/h 1097 m -4.5 m/s 405.00 MHz Acqui Terme (IT) 0.00 km UNKNOWN
R3950427 RS41 2020-08-17 12:22:58 44.5578 8.36979 354 ° 24 km/h 633 m -7.0 m/s 402.80 MHz Acqui Terme (IT) 0.00 km UNKNOWN
R1930123 RS41 2020-08-17 01:11:32 44.9057 8.23644 63 ° 9 km/h 327 m -2.5 m/s 402.80 MHz Asti (IT) 0.00 km UNKNOWN
R3950380 RS41 2020-08-16 12:37:32 44.8969 8.20345 249 ° 11 km/h 560 m -7.0 m/s 402.801 MHz Asti (IT) 0.00 km UNKNOWN
R1930127 RS41 2020-08-16 00:49:13 44.7633 8.02915 37 ° 13 km/h 378 m -11.1 m/s 402.80 MHz Alba (IT) 0.00 km NEED ATTENTION
R1910450 RS41 2020-08-15 11:07:17 44.5575 8.07731 224 ° 7 km/h 19552 m 5.0 m/s 402.80 MHz Monesiglio (IT) 0.00 km FOUND
R1910444 RS41 2020-08-15 01:21:53 44.5054 8.15915 103 ° 17 km/h 774 m -3.4 m/s 402.80 MHz Monesiglio (IT) 0.00 km FOUND
R1910449 RS41 2020-08-14 13:22:04 44.4843 8.63472 312 ° 6 km/h 1241 m -2.9 m/s 402.800 MHz Arenzano (IT) 0.00 km UNKNOWN
R1910448 RS41 2020-08-14 00:35:34 44.9684 8.53973 76 ° 6 km/h 803 m -3.0 m/s 405.000 MHz Alessandria (IT) 0.00 km UNKNOWN
R1910429 RS41 2020-08-13 12:47:21 44.8723 8.35471 325 ° 6 km/h 847 m -5.0 m/s 402.800 MHz Nizza Monferrato (IT) 0.00 km UNKNOWN
R1910445 RS41 2020-08-13 00:41:01 45.0027 7.75456 117 ° 4 km/h 395 m -6.5 m/s 402.80 MHz Trofarello (IT) 0.00 km LOST
R1910443 RS41 2020-08-12 12:55:15 44.6756 8.06949 203 ° 15 km/h 476 m -3.7 m/s 402.80 MHz Alba (IT) 0.00 km FOUND
R1910441 RS41 2020-08-11 23:16:55 44.5172 7.59961 55 ° 17 km/h 466 m -1.5 m/s 402.80 MHz Busca (IT) 0.00 km FOUND
R1930122 RS41 2020-08-10 12:29:36 44.6462 7.6118 129 ° 22 km/h 448 m -2.9 m/s 402.80 MHz Savigliano (IT) 0.00 km LOST
R1930203 RS41 2020-08-10 01:20:36 44.3399 7.52845 56 ° 20 km/h 723 m -3.6 m/s 405.001 MHz Boves (IT) 0.00 km FOUND
R1930131 RS41 2020-08-09 12:17:56 44.3722 7.49786 249 ° 9 km/h 958 m -6.2 m/s 402.800 MHz Cuneo (IT) 0.00 km UNKNOWN
R0221021 RS41 2020-08-09 01:14:04 44.1037 7.34592 222 ° 17 km/h 3054 m -2.6 m/s 402.800 MHz Borgo San Dalmazzo (IT) 0.00 km UNKNOWN
R1930125 RS41 2020-08-08 12:23:07 44.0977 7.31402 190 ° 13 km/h 3125 m -4.8 m/s 402.80 MHz Borgo San Dalmazzo (IT) 0.00 km UNKNOWN
R1930124 RS41 2020-08-08 00:31:03 43.9875 7.26614 188 ° 20 km/h 3873 m -10.8 m/s 402.80 MHz Contes (FR) 0.00 km UNKNOWN
R0221022 RS41 2020-08-07 12:11:27 44.0518 7.24749 181 ° 37 km/h 4022 m -10.2 m/s 402.800 MHz Contes (FR) 0.00 km UNKNOWN
R1930126 RS41 2020-08-07 00:42:15 43.9455 7.32384 211 ° 24 km/h 3341 m -5.9 m/s 402.800 MHz Contes (FR) 0.00 km UNKNOWN
R1930132 RS41 2020-08-06 12:35:39 44.1217 7.34899 29 ° 9 km/h 2941 m -4.3 m/s 402.80 MHz Borgo San Dalmazzo (IT) 0.00 km UNKNOWN
R1920869 RS41 2020-08-06 00:30:38 44.1296 7.27634 199 ° 22 km/h 3420 m -9.5 m/s 405.00 MHz Borgo San Dalmazzo (IT) 0.00 km UNKNOWN
R1920831 RS41 2020-08-05 12:15:41 43.9311 7.18395 193 ° 37 km/h 3778 m -14.1 m/s 402.80 MHz Contes (FR) 0.00 km UNKNOWN
R1920494 RS41 2020-08-05 00:32:14 43.633 7.225 188 ° 59 km/h 4906 m -13.6 m/s 402.80 MHz Valbonne (FR) 0.00 km LOST
R1930115 RS41 2020-08-04 13:11:17 43.2306 7.48019 175 ° 69 km/h 5058 m -3.2 m/s 402.800 MHz Antibes (FR) 0.00 km LOST
R1930128 RS41 2020-08-04 01:34:39 44.4309 7.78218 105 ° 4 km/h 449 m -2.2 m/s 402.80 MHz Mondovì (IT) 0.00 km FOUND
R0221023 RS41 2020-08-03 12:31:50 45.0011 7.98751 189 ° 11 km/h 554 m -6.7 m/s 402.80 MHz Chieri (IT) 0.00 km FOUND
R1930129 RS41 2020-08-03 01:14:06 44.9731 8.87766 108 ° 7 km/h 174 m -3.3 m/s 402.80 MHz Tortona (IT) 0.00 km UNKNOWN
R1930245 RS41 2020-08-02 12:28:03 44.6818 8.37911 151 ° 9 km/h 569 m -6.4 m/s 402.80 MHz Acqui Terme (IT) 0.00 km UNKNOWN
R1930244 RS41 2020-08-02 00:39:23 44.6904 7.83152 21 ° 7 km/h 366 m -8.5 m/s 405.000 MHz Bra (IT) 0.00 km UNKNOWN
R1920875 RS41 2020-08-01 12:13:03 44.553 7.99635 163 ° 2 km/h 538 m -5.6 m/s 402.80 MHz Monesiglio (IT) 0.00 km FOUND
R1930118 RS41 2020-08-01 00:43:04 44.4053 7.49227 65 ° 9 km/h 658 m -7.9 m/s 402.80 MHz Cuneo (IT) 0.00 km UNKNOWN
R1920882 RS41 2020-07-31 12:20:04 44.4114 7.49861 218 ° 2 km/h 653 m -7.2 m/s 402.800 MHz Cuneo (IT) 0.00 km FOUND
R1920879 RS41 2020-07-31 02:22:54 44.5452 7.3202 148 ° 2 km/h 1264 m -11.1 m/s 402.800 MHz Busca (IT) 0.00 km UNKNOWN
R1920906 RS41 2020-07-30 13:52:24 44.8265 7.85403 301 ° 19 km/h 471 m -4.1 m/s 402.80 MHz Poirino (IT) 0.00 km FOUND
R1920493 RS41 2020-07-30 01:16:25 44.5999 7.79969 1 ° 9 km/h 429 m -3.6 m/s 402.80 MHz Fossano (IT) 0.00 km FOUND
R1920904 RS41 2020-07-29 12:39:45 44.6233 8.13546 333 ° 9 km/h 708 m -8.5 m/s 402.80 MHz Alba (IT) 0.00 km FOUND
R1930202 RS41 2020-07-29 01:09:40 44.5401 8.28148 23 ° 7 km/h 864 m -10.5 m/s 402.80 MHz Monesiglio (IT) 0.00 km UNKNOWN
R1930215 RS41 2020-07-28 12:42:21 44.5853 8.49668 333 ° 15 km/h 905 m -5.1 m/s 405.000 MHz Acqui Terme (IT) 0.00 km UNKNOWN
R1920921 RS41 2020-07-28 01:20:35 44.2319 8.61312 53 ° 6 km/h 1457 m -4.1 m/s 402.80 MHz Savona (IT) 0.00 km LOST
R1930116 RS41 2020-07-27 12:24:26 44.2672 8.53867 256 ° 6 km/h 1548 m -4.4 m/s 402.800 MHz Savona (IT) 0.00 km LOST
R1920507 RS41 2020-07-27 01:05:54 43.9944 8.25115 215 ° 7 km/h 1610 m -5.8 m/s 402.800 MHz Alassio (IT) 0.00 km LOST
R1850875 RS41 2020-07-26 12:32:08 44.1473 8.73653 85 ° 20 km/h 1796 m -5.0 m/s 402.800 MHz Varazze (IT) 0.00 km LOST
R1850760 RS41 2020-07-26 01:20:57 44.3423 8.62549 17 ° 28 km/h 1326 m -4.1 m/s 402.800 MHz Varazze (IT) 0.00 km LOST
R1850817 RS41 2020-07-25 13:31:49 43.8393 8.56214 94 ° 20 km/h 2485 m -2.0 m/s 402.80 MHz Alassio (IT) 0.00 km LOST
R1850757 RS41 2020-07-24 12:52:51 44.7253 8.40688 195 ° 26 km/h 427 m -5.6 m/s 402.800 MHz Nizza Monferrato (IT) 0.00 km UNKNOWN
R1850832 RS41 2020-07-24 00:33:28 44.6796 8.31176 157 ° 28 km/h 1310 m -10.2 m/s 402.800 MHz Canelli (IT) 0.00 km UNKNOWN
R1910341 RS41 2020-07-23 13:05:23 44.7252 8.9306 344 ° 22 km/h 497 m -2.3 m/s 402.800 MHz Novi Ligure (IT) 0.00 km UNKNOWN
R1850856 RS41 2020-07-22 22:52:33 44.4787 7.92718 1 ° 28 km/h 11078 m 0.0 m/s 402.800 MHz Mondovì (IT) 0.00 km UNKNOWN
R1850834 RS41 2020-07-22 13:02:52 44.8083 8.59684 50 ° 7 km/h 376 m -4.3 m/s 402.800 MHz Alessandria (IT) 0.00 km UNKNOWN
R1850755 RS41 2020-07-22 00:47:38 44.7308 8.14726 120 ° 11 km/h 614 m -15.5 m/s 402.800 MHz Alba (IT) 0.00 km UNKNOWN
R1910342 RS41 2020-07-21 12:27:10 44.6662 8.61516 309 ° 9 km/h 419 m -3.6 m/s 402.80 MHz Ovada (IT) 0.00 km UNKNOWN
R1850868 RS41 2020-07-21 00:58:47 44.5054 8.21771 27 ° 15 km/h 896 m -6.9 m/s 405.00 MHz Monesiglio (IT) 0.00 km UNKNOWN
R1850869 RS41 2020-07-20 12:43:18 44.4362 8.10719 329 ° 19 km/h 1102 m -5.4 m/s 402.80 MHz Monesiglio (IT) 0.00 km FOUND
R1850863 RS41 2020-07-20 00:49:42 44.3861 7.77923 195 ° 7 km/h 1508 m -12.1 m/s 402.80 MHz Mondovì (IT) 0.00 km FOUND
R1850862 RS41 2020-07-19 12:46:05 44.1718 7.95989 51 ° 28 km/h 1974 m -4.0 m/s 402.80 MHz Albenga (IT) 0.00 km UNKNOWN
R1850876 RS41 2020-07-19 01:24:58 43.7699 7.76032 349 ° 6 km/h 2510 m -2.9 m/s 402.80 MHz San Remo (IT) 0.00 km LOST
R1850860 RS41 2020-07-18 13:14:14 43.899 7.74433 124 ° 30 km/h 2734 m -2.9 m/s 402.80 MHz San Remo (IT) 0.00 km UNKNOWN
R1850864 RS41 2020-07-18 01:19:29 43.5753 7.10791 166 ° 26 km/h 4518 m -2.4 m/s 402.80 MHz Antibes (FR) 0.00 km UNKNOWN
R1850857 RS41 2020-07-17 12:38:13 43.9333 7.19136 202 ° 28 km/h 3581 m -5.3 m/s 402.80 MHz Contes (FR) 0.00 km FOUND
R1850836 RS41 2020-07-17 00:45:16 44.1063 7.63107 196 ° 2 km/h 2833 m -11.4 m/s 402.80 MHz Boves (IT) 0.00 km UNKNOWN
R1850839 RS41 2020-07-16 12:44:45 44.0934 7.99119 128 ° 4 km/h 1579 m -4.7 m/s 402.80 MHz Alassio (IT) 0.00 km UNKNOWN
R1910340 RS41 2020-07-16 01:07:53 44.0442 7.76438 195 ° 11 km/h 2481 m -4.6 m/s 402.80 MHz Taggia (IT) 0.00 km UNKNOWN
R1910365 RS41 2020-07-15 12:34:54 44.2352 7.75873 52 ° 4 km/h 1992 m -4.7 m/s 402.80 MHz Mondovì (IT) 0.00 km FOUND
R1850803 RS41 2020-07-15 01:03:22 44.5313 8.10613 217 ° 4 km/h 865 m -3.7 m/s 405.00 MHz Monesiglio (IT) 0.00 km UNKNOWN
R1850838 RS41 2020-07-14 13:06:32 44.5929 8.22421 309 ° 2 km/h 833 m -2.7 m/s 402.80 MHz Canelli (IT) 0.00 km UNKNOWN
R1910364 RS41 2020-07-14 01:36:04 44.2961 7.85804 160 ° 2 km/h 1359 m -4.0 m/s 402.80 MHz Mondovì (IT) 0.00 km FOUND
R1850837 RS41 2020-07-13 12:51:55 44.4463 7.87073 129 ° 7 km/h 983 m -3.8 m/s 402.80 MHz Mondovì (IT) 0.00 km FOUND
R1920821 RS41 2020-07-13 01:15:52 44.3932 7.81476 158 ° 17 km/h 1315 m -3.4 m/s 402.80 MHz Mondovì (IT) 0.00 km FOUND
R1850818 RS41 2020-07-12 12:35:27 44.5089 8.25766 188 ° 20 km/h 969 m -7.6 m/s 402.80 MHz Monesiglio (IT) 0.00 km UNKNOWN
R1930161 RS41 2020-07-12 01:22:25 44.2996 8.38249 135 ° 33 km/h 500 m -4.3 m/s 402.80 MHz Vado Ligure (IT) 0.00 km UNKNOWN
R1930174 RS41 2020-07-11 01:11:46 44.6809 8.02153 23 ° 17 km/h 570 m -4.7 m/s 402.80 MHz Alba (IT) 0.00 km FOUND
R1850822 RS41 2020-07-10 12:41:49 44.7272 7.89425 21 ° 6 km/h 834 m -7.0 m/s 402.80 MHz Bra (IT) 0.00 km NEED ATTENTION
R1930159 RS41 2020-07-10 01:14:06 44.6447 7.48288 225 ° 2 km/h 1052 m -6.2 m/s 402.80 MHz Saluzzo (IT) 0.00 km NEED ATTENTION
R1930157 RS41 2020-07-09 00:45:39 44.5069 7.67933 1 ° 2 km/h 1198 m -6.6 m/s 402.80 MHz Fossano (IT) 0.00 km FOUND
R1910320 RS41 2020-07-08 02:00:36 44.4269 8.52473 191 ° 54 km/h 1182 m -3.7 m/s 405.00 MHz Varazze (IT) 0.00 km UNKNOWN
R1930164 RS41 2020-07-07 12:09:14 44.2172 8.16883 158 ° 50 km/h 1592 m -13.7 m/s 402.80 MHz Pietra Ligure (IT) 0.00 km UNKNOWN
R1910353 RS41 2020-07-07 00:17:19 43.9902 8.78762 211 ° 9 km/h 90 m -10.9 m/s 402.80 MHz Finale Ligure (IT) 0.00 km LOST
R1910354 RS41 2020-07-06 12:52:07 44.2873 8.18303 300 ° 20 km/h 1097 m -5.5 m/s 402.80 MHz Cairo Montenotte (IT) 0.00 km FOUND
R1910529 RS41 2020-07-06 00:50:12 44.3658 7.44255 64 ° 4 km/h 1669 m -5.3 m/s 402.80 MHz Borgo San Dalmazzo (IT) 0.00 km FOUND
R1910352 RS41 2020-07-05 12:36:58 44.2101 7.05317 55 ° 6 km/h 3074 m -4.2 m/s 402.80 MHz Borgo San Dalmazzo (IT) 0.00 km UNKNOWN
R1850815 RS41 2020-07-05 00:59:27 43.8917 6.95613 177 ° 24 km/h 4329 m -4.5 m/s 402.80 MHz Vence (FR) 0.00 km UNKNOWN
R1850779 RS41 2020-07-04 12:09:55 44.2327 7.5133 143 ° 9 km/h 2265 m -14.5 m/s 402.80 MHz Borgo San Dalmazzo (IT) 0.00 km UNKNOWN
R1910355 RS41 2020-07-04 00:51:27 44.4252 7.18624 105 ° 13 km/h 1940 m -7.5 m/s 405.00 MHz Busca (IT) 0.00 km UNKNOWN
R1910368 RS41 2020-07-03 12:22:38 45.0345 8.19824 274 ° 9 km/h 563 m -5.2 m/s 405.005 MHz Asti (IT) 0.00 km UNKNOWN
R1850778 RS41 2020-07-03 00:51:49 44.873 8.56528 337 ° 7 km/h 438 m -5.8 m/s 402.80 MHz Alessandria (IT) 0.00 km UNKNOWN
R1910357 RS41 2020-07-02 12:49:19 44.766 8.7358 314 ° 11 km/h 250 m -4.9 m/s 402.80 MHz Novi Ligure (IT) 0.00 km UNKNOWN
R1910347 RS41 2020-07-02 00:59:11 44.5919 8.47801 31 ° 13 km/h 600 m -5.3 m/s 402.80 MHz Acqui Terme (IT) 0.00 km UNKNOWN
R1850802 RS41 2020-07-01 12:26:18 44.8346 8.04062 352 ° 19 km/h 489 m -6.3 m/s 402.800 MHz Asti (IT) 0.00 km FOUND
R1910337 RS41 2020-07-01 01:13:22 44.9497 8.36556 30 ° 13 km/h 296 m -3.1 m/s 402.800 MHz Asti (IT) 0.00 km UNKNOWN
R1910367 RS41 2020-06-30 12:42:28 44.8547 8.47338 68 ° 6 km/h 419 m -1.9 m/s 402.80 MHz Nizza Monferrato (IT) 0.00 km UNKNOWN
R1850814 RS41 2020-06-30 01:21:40 44.6823 8.73119 8 ° 4 km/h 379 m -4.0 m/s 402.80 MHz Ovada (IT) 0.00 km UNKNOWN
R1910363 RS41 2020-06-29 13:07:54 44.2933 8.74786 286 ° 24 km/h 115 m -3.2 m/s 402.800 MHz Arenzano (IT) 0.00 km LOST
R1910362 RS41 2020-06-29 00:54:00 44.5468 8.30414 19 ° 19 km/h 664 m -4.4 m/s 402.80 MHz Cairo Montenotte (IT) 0.00 km UNKNOWN
R1910372 RS41 2020-06-28 12:23:19 44.683 7.84556 254 ° 13 km/h 438 m -8.7 m/s 402.80 MHz Bra (IT) 0.00 km NEED ATTENTION
R1910534 RS41 2020-06-28 00:50:20 44.4571 7.45338 212 ° 6 km/h 935 m -3.6 m/s 402.80 MHz Busca (IT) 0.00 km FOUND
R0220618 RS41 2020-06-27 12:20:20 44.8787 7.61448 292 ° 9 km/h 484 m -5.6 m/s 402.80 MHz Carignano (IT) 0.00 km UNKNOWN
R0220614 RS41 2020-06-27 00:36:50 44.8408 7.7459 269 ° 4 km/h 337 m -7.8 m/s 402.800 MHz Carmagnola (IT) 0.00 km FOUND
R1910455 RS41 2020-06-26 12:51:50 44.7822 7.81066 159 ° 6 km/h 376 m -4.4 m/s 402.800 MHz Bra (IT) 0.00 km UNKNOWN
R1910453 RS41 2020-06-26 00:52:21 44.4792 7.51044 223 ° 4 km/h 578 m -7.2 m/s 402.800 MHz Busca (IT) 0.00 km FOUND
R1910430 RS41 2020-06-25 00:32:21 44.3101 7.5752 26 ° 13 km/h 770 m -14.3 m/s 402.80 MHz Boves (IT) 0.00 km FOUND
R1910462 RS41 2020-06-24 12:58:02 44.2493 7.37514 162 ° 0 km/h 1825 m -5.2 m/s 402.80 MHz Borgo San Dalmazzo (IT) 0.00 km UNKNOWN
R1910432 RS41 2020-06-24 00:37:22 44.2343 7.19247 277 ° 24 km/h 2790 m -5.8 m/s 402.800 MHz Borgo San Dalmazzo (IT) 0.00 km UNKNOWN
R1910454 RS41 2020-06-23 12:24:35 44.3055 7.22368 320 ° 17 km/h 2186 m -6.3 m/s 402.800 MHz Borgo San Dalmazzo (IT) 0.00 km UNKNOWN
R1910456 RS41 2020-06-23 00:32:22 44.2084 7.20168 240 ° 13 km/h 3054 m -16.4 m/s 402.800 MHz Borgo San Dalmazzo (IT) 0.00 km UNKNOWN
R1910361 RS41 2020-06-22 12:24:41 44.0041 7.22215 175 ° 30 km/h 3372 m -8.0 m/s 402.800 MHz Contes (FR) 0.00 km UNKNOWN
R1910446 RS41 2020-06-22 00:46:39 43.8561 7.23812 190 ° 41 km/h 4001 m -9.2 m/s 402.800 MHz Contes (FR) 0.00 km UNKNOWN
R1910369 RS41 2020-06-21 12:30:04 43.5953 7.62277 203 ° 43 km/h 3705 m -6.8 m/s 402.80 MHz Bordighera (IT) 0.00 km LOST
R0220616 RS41 2020-06-21 02:04:07 43.9675 8.33854 206 ° 9 km/h 79 m -2.8 m/s 402.80 MHz Albenga (IT) 0.00 km LOST
R1910370 RS41 2020-06-20 12:50:42 44.245 8.31154 349 ° 20 km/h 663 m -3.5 m/s 402.80 MHz Finale Ligure (IT) 0.00 km UNKNOWN
R0220613 RS41 2020-06-20 01:22:32 44.2552 8.37628 203 ° 13 km/h 601 m -4.7 m/s 402.80 MHz Vado Ligure (IT) 0.00 km UNKNOWN
R0220615 RS41 2020-06-19 12:55:57 44.6757 9.0951 9 ° 15 km/h 1142 m -2.9 m/s 402.80 MHz Serra Riccò (IT) 0.00 km UNKNOWN
R0220617 RS41 2020-06-19 00:48:52 44.6967 8.46699 90 ° 15 km/h 549 m -5.7 m/s 402.800 MHz Acqui Terme (IT) 0.00 km UNKNOWN
R1910439 RS41 2020-06-18 12:18:25 44.9043 8.17433 318 ° 24 km/h 513 m -6.3 m/s 402.80 MHz Asti (IT) 0.00 km UNKNOWN
R1910461 RS41 2020-06-18 00:47:25 44.6984 7.98517 33 ° 9 km/h 512 m -13.0 m/s 402.80 MHz Alba (IT) 0.00 km NEED ATTENTION
R1910440 RS41 2020-06-17 12:40:25 44.8091 8.03425 253 ° 17 km/h 535 m -4.1 m/s 402.80 MHz Alba (IT) 0.00 km FOUND
R1930011 RS41 2020-06-17 01:17:55 44.8804 7.42277 158 ° 4 km/h 353 m -3.6 m/s 402.80 MHz Pinerolo (IT) 0.00 km UNKNOWN
R1910431 RS41 2020-06-16 13:04:20 44.8243 7.68877 267 ° 11 km/h 484 m -4.7 m/s 402.80 MHz Carmagnola (IT) 0.00 km FOUND
R1910463 RS41 2020-06-16 01:19:09 44.5273 7.60375 184 ° 9 km/h 956 m -9.3 m/s 405.00 MHz Fossano (IT) 0.00 km FOUND
R1910459 RS41 2020-06-15 13:03:15 44.5342 7.67311 221 ° 9 km/h 1089 m -4.7 m/s 402.80 MHz Fossano (IT) 0.00 km FOUND
R1930007 RS41 2020-06-15 01:17:36 44.6723 7.56974 216 ° 9 km/h 640 m -5.6 m/s 402.80 MHz Savigliano (IT) 0.00 km FOUND
R1850799 RS41 2020-06-14 13:40:47 44.2477 8.26269 96 ° 9 km/h 1027 m -1.8 m/s 402.80 MHz Finale Ligure (IT) 0.00 km UNKNOWN
R1850801 RS41 2020-06-14 01:08:09 44.5187 7.23239 134 ° 6 km/h 1717 m -4.2 m/s 402.80 MHz Busca (IT) 0.00 km UNKNOWN
R1850813 RS41 2020-06-13 12:23:38 45.286 7.47646 310 ° 11 km/h 690 m -5.1 m/s 402.80 MHz Ciriè (IT) 0.00 km FOUND
R1850811 RS41 2020-06-13 00:49:05 45.2725 7.55711 120 ° 13 km/h 563 m -5.4 m/s 402.80 MHz Ciriè (IT) 0.00 km UNKNOWN
R1850784 RS41 2020-06-12 12:25:08 45.163 7.91403 244 ° 15 km/h 691 m -9.0 m/s 402.80 MHz Chivasso (IT) 0.00 km UNKNOWN
R1850786 RS41 2020-06-12 01:02:05 44.7246 8.36294 354 ° 13 km/h 464 m -4.6 m/s 402.80 MHz Canelli (IT) 0.00 km UNKNOWN
R1910543 RS41 2020-06-11 12:23:57 44.5609 7.48978 255 ° 22 km/h 1268 m -12.1 m/s 405.00 MHz Busca (IT) 0.00 km LOST
R1910544 RS41 2020-06-11 01:44:53 44.4262 7.11868 235 ° 6 km/h 2541 m -2.0 m/s 402.80 MHz Busca (IT) 0.00 km UNKNOWN
R1850785 RS41 2020-06-10 13:31:49 44.4889 6.9091 76 ° 17 km/h 2589 m -2.9 m/s 402.80 MHz Embrun (FR) 0.00 km UNKNOWN
R1910542 RS41 2020-06-10 00:49:01 44.5991 7.04794 51 ° 4 km/h 2448 m -10.5 m/s 402.80 MHz Barge (IT) 0.00 km FOUND
R0221012 RS41 2020-06-09 12:14:45 44.9248 7.28395 236 ° 9 km/h 1703 m -11.3 m/s 402.80 MHz Pinerolo (IT) 0.00 km FOUND
R0221011 RS41 2020-06-09 00:26:00 44.9931 7.67718 183 ° 9 km/h 311 m -10.3 m/s 402.800 MHz Moncalieri (IT) 0.00 km UNKNOWN
R0221004 RS41 2020-06-08 12:28:30 45.197 7.7457 241 ° 17 km/h 416 m -9.7 m/s 402.80 MHz Leinì (IT) 0.00 km UNKNOWN
R0221007 RS41 2020-06-08 00:49:23 44.9601 7.9487 204 ° 9 km/h 344 m -6.1 m/s 402.80 MHz Poirino (IT) 0.00 km NEED ATTENTION
M2331179 RS41-SG 2020-06-07 19:23:53 44.001 7.831 133 ° 19 km/h 3191 m -2.5 m/s 402.220 MHz Taggia (IT) 0.00 km UNKNOWN
R0221035 RS41 2020-06-07 12:22:53 45.026 8.2095 354 ° 19 km/h 559 m -13.6 m/s 402.800 MHz Asti (IT) 0.00 km UNKNOWN
R0221006 RS41 2020-06-07 00:49:30 44.8739 8.36923 351 ° 20 km/h 471 m -5.1 m/s 402.80 MHz Nizza Monferrato (IT) 0.00 km UNKNOWN
R0221038 RS41 2020-06-06 12:58:31 44.8569 8.79239 25 ° 28 km/h 220 m -4.2 m/s 402.80 MHz Tortona (IT) 0.00 km UNKNOWN
R0221009 RS41 2020-06-06 01:49:20 44.6868 8.66113 347 ° 24 km/h 443 m -1.8 m/s 402.80 MHz Ovada (IT) 0.00 km UNKNOWN
R0221010 RS41 2020-06-05 12:45:51 44.029 8.07077 30 ° 9 km/h 2073 m -4.3 m/s 402.80 MHz Alassio (IT) 0.00 km UNKNOWN
R0220985 RS41 2020-06-05 01:54:58 44.9397 8.13868 307 ° 13 km/h 582 m -1.9 m/s 402.80 MHz Asti (IT) 0.00 km UNKNOWN
R0221037 RS41 2020-06-04 12:53:45 45.104 8.44384 3 ° 41 km/h 363 m -4.0 m/s 402.80 MHz Casale Monferrato (IT) 0.00 km UNKNOWN
R0221005 RS41 2020-06-04 02:17:35 44.7922 8.87664 345 ° 39 km/h 360 m -3.9 m/s 402.80 MHz Novi Ligure (IT) 0.00 km UNKNOWN
R0221033 RS41 2020-06-03 12:31:53 44.3259 7.96477 101 ° 11 km/h 2228 m -12.0 m/s 402.80 MHz Mondovì (IT) 0.00 km FOUND
R0221036 RS41 2020-06-03 00:39:17 44.0418 7.5798 37 ° 9 km/h 3858 m -11.9 m/s 405.00 MHz Ventimiglia (IT) 0.00 km UNKNOWN
R0221008 RS41 2020-06-02 13:20:54 43.9652 7.17482 223 ° 15 km/h 3676 m -2.2 m/s 402.80 MHz Contes (FR) 0.00 km UNKNOWN
R0221034 RS41 2020-06-02 00:40:20 44.2747 7.84788 272 ° 6 km/h 1323 m -5.3 m/s 402.80 MHz Mondovì (IT) 0.00 km FOUND
R0221003 RS41 2020-06-01 12:35:31 44.354 7.63796 271 ° 9 km/h 1455 m -11.0 m/s 402.80 MHz Boves (IT) 0.00 km FOUND
R1920585 RS41 2020-06-01 00:35:26 44.2221 7.5462 160 ° 2 km/h 1661 m -10.0 m/s 402.800 MHz Boves (IT) 0.00 km UNKNOWN
R1920369 RS41 2020-05-31 12:21:26 44.0635 7.59714 191 ° 7 km/h 2440 m -3.9 m/s 402.800 MHz Boves (IT) 0.00 km UNKNOWN
R1920583 RS41 2020-05-31 00:35:47 44.087 7.42206 172 ° 15 km/h 3087 m -5.7 m/s 402.800 MHz Borgo San Dalmazzo (IT) 0.00 km UNKNOWN
R1920584 RS41 2020-05-30 12:18:08 44.1641 7.27239 146 ° 15 km/h 3226 m -8.8 m/s 402.80 MHz Borgo San Dalmazzo (IT) 0.00 km FOUND
R1920368 RS41 2020-05-30 01:03:34 43.8567 6.95257 172 ° 28 km/h 4132 m -4.6 m/s 402.800 MHz Vence (FR) 0.00 km UNKNOWN
R1920344 RS41 2020-05-29 12:30:17 43.9216 7.29034 154 ° 44 km/h 3786 m -7.6 m/s 402.800 MHz Contes (FR) 0.00 km UNKNOWN
R1920586 RS41 2020-05-29 01:00:24 43.661 7.63734 148 ° 17 km/h 3627 m -3.9 m/s 402.80 MHz Bordighera (IT) 0.00 km LOST
R1930158 RS41 2020-05-28 12:50:55 43.6864 7.68362 195 ° 24 km/h 3207 m -3.9 m/s 402.80 MHz Bordighera (IT) 0.00 km LOST
R1920314 RS41 2020-05-28 00:28:20 43.929 7.30738 213 ° 28 km/h 3705 m -10.8 m/s 402.80 MHz Contes (FR) 0.00 km UNKNOWN
R1920301 RS41 2020-05-27 12:24:16 43.7801 7.407 204 ° 39 km/h 4179 m -11.7 m/s 402.80 MHz Beausoleil (FR) 0.00 km UNKNOWN
R1920587 RS41 2020-05-27 00:40:11 43.6899 7.40417 177 ° 41 km/h 4293 m -12.0 m/s 402.80 MHz Monaco (MC) 0.00 km LOST
R1920371 RS41 2020-05-26 12:39:28 43.5933 7.65168 182 ° 17 km/h 3743 m -3.8 m/s 402.800 MHz Bordighera (IT) 0.00 km LOST
R1920400 RS41 2020-05-26 00:55:13 43.6281 7.71747 167 ° 35 km/h 4386 m -5.0 m/s 402.80 MHz Bordighera (IT) 0.00 km LOST
R1840501 RS41 2020-05-25 12:10:52 43.7338 7.9037 196 ° 30 km/h 2901 m -4.1 m/s 402.80 MHz Taggia (IT) 0.00 km LOST
R1840504 RS41 2020-05-25 00:37:38 44.0395 7.85803 234 ° 13 km/h 2109 m -8.8 m/s 402.800 MHz Taggia (IT) 0.00 km UNKNOWN
R1850395 RS41 2020-05-24 13:20:55 43.9967 8.56394 188 ° 28 km/h 613 m -4.1 m/s 402.800 MHz Finale Ligure (IT) 0.00 km LOST
R1850396 RS41 2020-05-24 00:51:05 44.629 9.10805 170 ° 15 km/h 1459 m -2.9 m/s 402.80 MHz Serra Riccò (IT) 0.00 km UNKNOWN
R1850335 RS41 2020-05-23 13:26:25 44.7847 8.89199 359 ° 43 km/h 392 m -4.3 m/s 402.800 MHz Novi Ligure (IT) 0.00 km UNKNOWN
R1850317 RS41 2020-05-23 00:41:11 44.2658 7.83148 213 ° 4 km/h 1461 m -6.1 m/s 402.80 MHz Mondovì (IT) 0.00 km FOUND
R1850238 RS41 2020-05-22 12:17:44 43.9428 7.55481 136 ° 17 km/h 3335 m -8.9 m/s 402.80 MHz Ventimiglia (IT) 0.00 km UNKNOWN
R1850318 RS41 2020-05-22 00:33:35 44.0391 7.78049 229 ° 20 km/h 2564 m -6.0 m/s 402.80 MHz Taggia (IT) 0.00 km UNKNOWN
R1850386 RS41 2020-05-21 12:43:06 44.089 7.71523 160 ° 13 km/h 2488 m -5.0 m/s 402.80 MHz Taggia (IT) 0.00 km UNKNOWN
R1850192 RS41 2020-05-21 00:28:39 43.8195 7.74269 187 ° 43 km/h 3400 m -7.0 m/s 402.80 MHz San Remo (IT) 0.00 km UNKNOWN
R1850390 RS41 2020-05-20 01:32:27 43.6219 7.04307 208 ° 46 km/h 4658 m -2.2 m/s 402.80 MHz Biot (FR) 0.00 km UNKNOWN
R1850315 RS41 2020-05-19 12:08:48 44.174 7.25311 208 ° 44 km/h 2809 m -5.2 m/s 402.80 MHz Borgo San Dalmazzo (IT) 0.00 km UNKNOWN
R1850388 RS41 2020-05-19 00:43:52 44.2499 7.15847 204 ° 46 km/h 2437 m -4.9 m/s 402.80 MHz Borgo San Dalmazzo (IT) 0.00 km UNKNOWN
R1850235 RS41 2020-05-18 12:19:28 44.6647 7.51012 199 ° 6 km/h 1277 m -10.8 m/s 402.80 MHz Saluzzo (IT) 0.00 km FOUND
R1850394 RS41 2020-05-18 00:37:42 44.4217 7.2659 200 ° 15 km/h 2119 m -12.9 m/s 402.80 MHz Busca (IT) 0.00 km UNKNOWN
R1850314 RS41 2020-05-17 12:10:09 44.508 7.49034 323 ° 11 km/h 559 m -5.3 m/s 402.80 MHz Busca (IT) 0.00 km FOUND
R1850236 RS41 2020-05-17 01:22:56 45.0375 8.07931 236 ° 15 km/h 493 m -5.4 m/s 402.800 MHz Crescentino (IT) 0.00 km UNKNOWN
R1850273 RS41 2020-05-16 12:57:53 45.5919 8.74434 238 ° 7 km/h 281 m -4.9 m/s 402.80 MHz Lonate Pozzolo (IT) 0.00 km FOUND
R1850237 RS41 2020-05-16 02:04:49 45.6198 9.41409 140 ° 17 km/h 271 m -1.7 m/s 402.800 MHz Vimercate (IT) 0.00 km UNKNOWN
R1850157 RS41 2020-05-15 12:26:10 44.9192 8.22442 278 ° 9 km/h 557 m -9.5 m/s 402.80 MHz Asti (IT) 0.00 km UNKNOWN
R1850336 RS41 2020-05-14 23:21:40 44.4903 7.60272 64 ° 20 km/h 581 m -13.8 m/s 402.800 MHz Busca (IT) 0.00 km FOUND
R1850392 RS41 2020-05-14 12:37:53 45.3963 8.2577 197 ° 4 km/h 518 m -11.0 m/s 402.800 MHz Santhià (IT) 0.00 km UNKNOWN
R1850673 RS41 2020-05-14 01:48:41 45.4386 9.21597 109 ° 9 km/h 191 m -2.4 m/s 402.800 MHz Milan (IT) 0.00 km UNKNOWN
R1840500 RS41 2020-05-13 12:56:07 45.6517 8.46513 35 ° 6 km/h 434 m -3.4 m/s 402.80 MHz Borgomanero (IT) 0.00 km FOUND
R1840471 RS41 2020-05-13 01:06:16 45.1823 8.48416 333 ° 30 km/h 255 m -5.6 m/s 402.80 MHz Casale Monferrato (IT) 0.00 km UNKNOWN
R1850671 RS41 2020-05-12 12:26:17 44.8289 8.27801 342 ° 17 km/h 596 m -5.1 m/s 402.80 MHz Nizza Monferrato (IT) 0.00 km FOUND
R1850659 RS41 2020-05-12 00:51:07 44.5712 7.74512 142 ° 6 km/h 1037 m -4.3 m/s 402.80 MHz Fossano (IT) 0.00 km FOUND
R1840502 RS41 2020-05-11 12:22:58 44.9797 8.40453 44 ° 4 km/h 373 m -9.6 m/s 402.80 MHz Casale Monferrato (IT) 0.00 km UNKNOWN
R1840503 RS41 2020-05-11 01:19:21 45.4966 7.62236 297 ° 37 km/h 2569 m -11.5 m/s 402.80 MHz Cuorgnè (IT) 0.00 km UNKNOWN
R1850332 RS41 2020-05-10 12:46:12 44.9529 8.12669 154 ° 4 km/h 425 m -5.7 m/s 402.800 MHz Asti (IT) 0.00 km UNKNOWN
R1850743 RS41 2020-05-10 00:30:10 44.9879 8.41733 37 ° 15 km/h 379 m -7.3 m/s 402.800 MHz Casale Monferrato (IT) 0.00 km UNKNOWN
R1850741 RS41 2020-05-09 12:25:56 44.6299 8.56959 334 ° 22 km/h 666 m -8.8 m/s 402.800 MHz Ovada (IT) 0.00 km UNKNOWN
R1850742 RS41 2020-05-09 00:54:22 44.6368 8.34491 4 ° 35 km/h 603 m -6.0 m/s 402.800 MHz Canelli (IT) 0.00 km UNKNOWN
R1850331 RS41 2020-05-08 13:38:50 44.6636 8.6419 333 ° 30 km/h 685 m -1.9 m/s 402.80 MHz Ovada (IT) 0.00 km UNKNOWN
R1850739 RS41 2020-05-08 00:55:43 44.3503 8.08931 94 ° 7 km/h 823 m -7.2 m/s 402.800 MHz Monesiglio (IT) 0.00 km UNKNOWN
R1850756 RS41 2020-05-07 12:15:43 44.1456 7.80802 219 ° 15 km/h 2538 m -11.1 m/s 402.800 MHz Mondovì (IT) 0.00 km UNKNOWN
R1850758 RS41 2020-05-07 00:51:30 43.8101 7.85407 207 ° 22 km/h 2512 m -10.9 m/s 405.000 MHz Taggia (IT) 0.00 km LOST
R1850754 RS41 2020-05-06 12:23:01 44.2104 8.46629 159 ° 11 km/h 805 m -9.8 m/s 402.80 MHz Vado Ligure (IT) 0.00 km LOST
R1850752 RS41 2020-05-06 00:46:16 44.4254 8.78767 151 ° 6 km/h 98 m -14.8 m/s 402.80 MHz Arenzano (IT) 0.00 km UNKNOWN
R1930143 RS41 2020-05-05 12:37:28 44.503 9.32193 40 ° 30 km/h 1753 m -4.0 m/s 402.800 MHz Rapallo (IT) 0.00 km UNKNOWN
R1850670 RS41 2020-05-05 02:06:50 44.09 9.9001 353 ° 9 km/h 942 m -2.6 m/s 402.800 MHz Lerici (IT) 0.00 km UNKNOWN
R1930144 RS41 2020-05-04 13:34:46 43.9138 9.31428 17 ° 11 km/h 251 m -3.4 m/s 402.800 MHz Sestri Levante (IT) 0.00 km LOST
R1840427 RS41 2020-05-04 02:03:31 43.1163 9.94599 287 ° 35 km/h 525 m -1.9 m/s 402.800 MHz Portoferraio (IT) 0.00 km LOST
R1930142 RS41 2020-05-03 12:38:50 43.5438 8.86651 7 ° 6 km/h 74 m -4.5 m/s 402.800 MHz Alassio (IT) 0.00 km LOST
R1840420 RS41 2020-05-03 00:56:36 43.4706 9.05535 130 ° 24 km/h 600 m -8.2 m/s 402.801 MHz Bastia (FR) 0.00 km LOST
R0340255 RS41 2020-05-02 12:27:04 43.6515 9.07668 37 ° 13 km/h 431 m -11.7 m/s 402.802 MHz Sestri Levante (IT) 0.00 km LOST
R0340257 RS41 2020-05-02 00:44:54 43.8648 9.34968 72 ° 24 km/h 1025 m -4.6 m/s 402.802 MHz Sestri Levante (IT) 0.00 km LOST
R1910550 RS41 2020-05-01 12:53:58 44.1412 9.21969 63 ° 41 km/h 1023 m -7.0 m/s 402.802 MHz Sestri Levante (IT) 0.00 km LOST
R0340253 RS41 2020-05-01 00:49:18 44.3208 8.93731 289 ° 24 km/h 454 m -9.7 m/s 402.801 MHz Genoa (IT) 0.00 km LOST
R0220113 RS41 2020-04-30 13:10:48 44.9618 9.01026 8 ° 46 km/h 197 m -5.7 m/s 402.802 MHz Tortona (IT) 0.00 km UNKNOWN
R0220594 RS41 2020-04-30 00:33:01 44.5095 8.88678 314 ° 30 km/h 1041 m -5.4 m/s 402.802 MHz Serra Riccò (IT) 0.00 km UNKNOWN
R0220593 RS41 2020-04-29 14:28:20 44.2353 8.97282 359 ° 19 km/h 163 m -1.9 m/s 402.802 MHz Genoa (IT) 0.00 km LOST
R0220592 RS41 2020-04-29 03:18:35 44.5241 8.92581 336 ° 4 km/h 998 m -5.7 m/s 402.800 MHz Serra Riccò (IT) 0.00 km UNKNOWN
R0220591 RS41 2020-04-28 13:17:45 44.7448 8.01788 260 ° 17 km/h 447 m -4.4 m/s 402.80 MHz Alba (IT) 0.00 km FOUND
R0221087 RS41 2020-04-28 00:58:39 44.7764 8.03089 335 ° 15 km/h 503 m -5.3 m/s 402.800 MHz Alba (IT) 0.00 km UNKNOWN
R0221088 RS41 2020-04-27 13:23:38 44.604 8.33569 6 ° 22 km/h 713 m -4.1 m/s 402.80 MHz Acqui Terme (IT) 0.00 km UNKNOWN
R0220109 RS41 2020-04-27 00:33:14 44.486 7.99526 144 ° 4 km/h 1413 m -11.0 m/s 402.80 MHz Monesiglio (IT) 0.00 km UNKNOWN
R0220590 RS41 2020-04-26 12:18:48 44.4952 7.86157 272 ° 13 km/h 572 m -12.3 m/s 402.80 MHz Fossano (IT) 0.00 km FOUND
R0220110 RS41 2020-04-26 01:12:19 44.385 7.84921 66 ° 11 km/h 659 m -3.8 m/s 402.800 MHz Mondovì (IT) 0.00 km FOUND
R1910546 RS41 2020-04-25 13:25:19 44.6219 8.0437 314 ° 31 km/h 562 m -2.6 m/s 402.80 MHz Alba (IT) 0.00 km FOUND
R0220111 RS41 2020-04-25 00:59:15 44.4815 7.76064 139 ° 2 km/h 871 m -5.1 m/s 402.800 MHz Fossano (IT) 0.00 km FOUND
R0220112 RS41 2020-04-24 12:16:19 44.3417 7.63371 228 ° 11 km/h 794 m -8.3 m/s 402.80 MHz Boves (IT) 0.00 km FOUND
R1840391 RS41 2020-04-24 01:35:53 43.9831 7.31807 311 ° 11 km/h 3312 m -2.4 m/s 402.800 MHz Contes (FR) 0.00 km UNKNOWN
R1910548 RS41 2020-04-23 12:19:07 44.0931 7.38862 133 ° 11 km/h 3204 m -6.3 m/s 402.800 MHz Borgo San Dalmazzo (IT) 0.00 km UNKNOWN
R1930145 RS41 2020-04-23 00:37:56 44.2476 6.9919 239 ° 50 km/h 2947 m -10.4 m/s 402.800 MHz Borgo San Dalmazzo (IT) 0.00 km UNKNOWN
R0340256 RS41 2020-04-22 12:13:54 44.2959 7.23239 216 ° 20 km/h 2529 m -6.6 m/s 402.800 MHz Borgo San Dalmazzo (IT) 0.00 km UNKNOWN
R1840393 RS41 2020-04-22 00:47:20 44.2888 7.08434 259 ° 17 km/h 1954 m -9.8 m/s 402.800 MHz Borgo San Dalmazzo (IT) 0.00 km UNKNOWN
R1840408 RS41 2020-04-21 12:51:51 44.5118 7.05036 290 ° 7 km/h 1840 m -4.7 m/s 402.800 MHz Barge (IT) 0.00 km UNKNOWN
R1930149 RS41 2020-04-21 00:37:51 44.5958 7.36869 172 ° 15 km/h 1013 m -4.0 m/s 402.800 MHz Saluzzo (IT) 0.00 km UNKNOWN
R1840407 RS41 2020-04-20 12:29:21 44.7632 7.88792 225 ° 19 km/h 478 m -12.6 m/s 402.800 MHz Bra (IT) 0.00 km UNKNOWN
R1930150 RS41 2020-04-20 01:15:40 44.8132 8.64872 115 ° 9 km/h 168 m -5.4 m/s 402.80 MHz Alessandria (IT) 0.00 km UNKNOWN
R1910545 RS41 2020-04-19 13:16:44 44.9788 9.01834 95 ° 11 km/h 240 m -3.1 m/s 402.800 MHz Voghera (IT) 0.00 km UNKNOWN
R1840394 RS41 2020-04-19 00:42:47 44.5104 8.79279 349 ° 20 km/h 1037 m -5.5 m/s 402.800 MHz Serra Riccò (IT) 0.00 km UNKNOWN
R0340254 RS41 2020-04-18 12:36:53 44.6572 8.83593 8 ° 17 km/h 788 m -6.0 m/s 402.800 MHz Novi Ligure (IT) 0.00 km UNKNOWN
R1910323 RS41 2020-04-18 00:23:19 44.485 8.62918 354 ° 26 km/h 932 m -10.9 m/s 402.800 MHz Arenzano (IT) 0.00 km UNKNOWN
R1910286 RS41 2020-04-17 12:08:44 44.5049 8.67302 322 ° 35 km/h 987 m -12.5 m/s 402.800 MHz Arenzano (IT) 0.00 km UNKNOWN
R0220589 RS41 2020-04-17 01:41:07 44.5289 9.41002 220 ° 2 km/h 1332 m -2.3 m/s 402.800 MHz Rapallo (IT) 0.00 km UNKNOWN
R0221090 RS41 2020-04-16 13:08:51 44.9458 8.9073 140 ° 6 km/h 236 m -2.9 m/s 402.800 MHz Tortona (IT) 0.00 km UNKNOWN
R0221091 RS41 2020-04-16 00:40:22 44.6443 8.41415 159 ° 7 km/h 476 m -5.7 m/s 402.800 MHz Acqui Terme (IT) 0.00 km UNKNOWN
R0221092 RS41 2020-04-15 12:21:42 44.4565 7.94192 113 ° 17 km/h 822 m -8.8 m/s 402.80 MHz Mondovì (IT) 0.00 km FOUND
R0221089 RS41 2020-04-15 01:43:33 43.8122 8.58697 187 ° 30 km/h 141 m -2.1 m/s 402.800 MHz Alassio (IT) 0.00 km LOST
R1910327 RS41 2020-04-14 12:23:14 43.9273 8.06736 200 ° 22 km/h 1194 m -3.9 m/s 402.800 MHz Imperia (IT) 0.00 km UNKNOWN
R1910326 RS41 2020-04-14 01:59:15 44.3366 9.68298 304 ° 13 km/h 1120 m -2.2 m/s 402.800 MHz Bolano (IT) 0.00 km UNKNOWN
R0220992 RS41 2020-04-13 12:55:52 44.5586 9.77936 19 ° 35 km/h 1314 m -3.3 m/s 402.80 MHz Salsomaggiore Terme (IT) 0.00 km UNKNOWN
R1910333 RS41 2020-04-13 00:44:49 44.5719 9.50744 58 ° 57 km/h 1745 m -8.7 m/s 402.80 MHz Lavagna (IT) 0.00 km UNKNOWN
R1910334 RS41 2020-04-12 13:27:50 44.7125 9.9348 173 ° 11 km/h 663 m -2.4 m/s 402.800 MHz Salsomaggiore Terme (IT) 0.00 km UNKNOWN
R1910280 RS41 2020-04-12 01:41:52 44.9222 9.50539 302 ° 11 km/h 411 m -2.5 m/s 405.000 MHz Borgonovo Val Tidone (IT) 0.00 km UNKNOWN
R1910335 RS41 2020-04-11 12:34:38 44.7415 8.62668 300 ° 13 km/h 264 m -4.5 m/s 402.80 MHz Ovada (IT) 0.00 km UNKNOWN
R1910350 RS41 2020-04-11 00:23:24 44.5584 8.4046 25 ° 15 km/h 658 m -17.7 m/s 402.80 MHz Acqui Terme (IT) 0.00 km UNKNOWN
R1910288 RS41 2020-04-10 12:17:25 44.4226 8.0312 40 ° 7 km/h 756 m -4.1 m/s 402.800 MHz Monesiglio (IT) 0.00 km UNKNOWN
R1910287 RS41 2020-04-10 00:53:26 44.2291 8.01994 159 ° 31 km/h 1242 m -5.4 m/s 402.80 MHz Loano (IT) 0.00 km UNKNOWN
R1910328 RS41 2020-04-09 12:34:37 44.187 8.1042 180 ° 19 km/h 1878 m -5.7 m/s 405.000 MHz Loano (IT) 0.00 km UNKNOWN
R1910316 RS41 2020-04-09 00:42:44 44.1826 8.0367 165 ° 33 km/h 1507 m -5.9 m/s 402.800 MHz Loano (IT) 0.00 km UNKNOWN
R1910381 RS41 2020-04-08 12:13:27 44.4588 8.07751 238 ° 15 km/h 776 m -9.5 m/s 402.800 MHz Monesiglio (IT) 0.00 km UNKNOWN
R1910332 RS41 2020-04-08 00:58:19 44.3942 8.0964 110 ° 22 km/h 782 m -5.2 m/s 405.000 MHz Monesiglio (IT) 0.00 km UNKNOWN
R1910329 RS41 2020-04-07 13:00:29 44.4777 8.30591 170 ° 17 km/h 463 m -4.0 m/s 402.80 MHz Cairo Montenotte (IT) 0.00 km UNKNOWN
R1910330 RS41 2020-04-07 00:28:36 44.4868 8.56962 190 ° 11 km/h 824 m -11.2 m/s 402.80 MHz Cogoleto (IT) 0.00 km UNKNOWN
R1910318 RS41 2020-04-06 12:28:21 44.8429 8.75456 223 ° 20 km/h 340 m -11.0 m/s 402.800 MHz Novi Ligure (IT) 0.00 km UNKNOWN
R1910382 RS41 2020-04-06 00:32:08 44.7858 8.52422 207 ° 15 km/h 362 m -11.6 m/s 402.80 MHz Acqui Terme (IT) 0.00 km UNKNOWN
R1910285 RS41 2020-04-05 12:12:58 44.6527 8.04995 217 ° 11 km/h 477 m -12.2 m/s 405.000 MHz Alba (IT) 0.00 km FOUND
R1910336 RS41 2020-04-05 00:31:28 44.422 8.19013 192 ° 17 km/h 932 m -13.9 m/s 402.80 MHz Cairo Montenotte (IT) 0.00 km UNKNOWN
R1920933 RS41 2020-04-04 12:38:38 44.3452 8.53519 309 ° 6 km/h 300 m -6.4 m/s 405.000 MHz Varazze (IT) 0.00 km UNKNOWN
R1910349 RS41 2020-04-04 00:44:09 44.2675 8.90872 253 ° 15 km/h 439 m -10.6 m/s 402.800 MHz Genoa (IT) 0.00 km LOST
R1910282 RS41 2020-04-03 13:01:08 43.993 8.20349 216 ° 30 km/h 1939 m -2.7 m/s 402.800 MHz Alassio (IT) 0.00 km LOST
R1910319 RS41 2020-04-03 00:49:13 44.3552 8.60628 64 ° 4 km/h 388 m -9.7 m/s 402.800 MHz Varazze (IT) 0.00 km LOST
R1920931 RS41 2020-04-02 12:47:58 44.4425 8.60161 162 ° 9 km/h 1523 m -4.1 m/s 405.000 MHz Cogoleto (IT) 0.00 km UNKNOWN
R1920932 RS41 2020-04-02 00:54:58 44.315 8.52947 144 ° 19 km/h 56 m -9.8 m/s 405.000 MHz Savona (IT) 0.00 km LOST
R1910281 RS41 2020-04-01 12:36:31 44.2717 8.18252 153 ° 30 km/h 1284 m -3.7 m/s 402.800 MHz Pietra Ligure (IT) 0.00 km FOUND
R1840417 RS41 2020-04-01 00:45:47 44.1206 8.30066 187 ° 43 km/h 1380 m -7.3 m/s 402.800 MHz Loano (IT) 0.00 km LOST
R1840562 RS41 2020-03-31 12:02:43 44.1797 8.27181 140 ° 26 km/h 1440 m -8.0 m/s 402.80 MHz Pietra Ligure (IT) 0.00 km UNKNOWN
R1910283 RS41 2020-03-31 01:13:55 44.3462 8.57576 150 ° 35 km/h 181 m -3.4 m/s 402.800 MHz Varazze (IT) 0.00 km LOST
R1910317 RS41 2020-03-30 12:32:41 44.5954 8.38098 150 ° 11 km/h 628 m -4.8 m/s 402.80 MHz Acqui Terme (IT) 0.00 km UNKNOWN
R1840403 RS41 2020-03-30 02:14:21 44.7349 8.54638 6 ° 6 km/h 183 m -1.7 m/s 402.80 MHz Acqui Terme (IT) 0.00 km UNKNOWN
R1840419 RS41 2020-03-29 13:00:00 44.4797 8.03878 293 ° 17 km/h 983 m -1.8 m/s 405.000 MHz Monesiglio (IT) 0.00 km LOST
R1840404 RS41 2020-03-29 01:39:31 44.3977 7.6428 75 ° 17 km/h 647 m -10.3 m/s 402.80 MHz Cuneo (IT) 0.00 km UNKNOWN
R1840563 RS41 2020-03-28 13:32:26 44.4939 7.4169 279 ° 13 km/h 783 m -9.0 m/s 402.80 MHz Busca (IT) 0.00 km FOUND
R1840425 RS41 2020-03-28 01:43:48 44.617 7.21407 182 ° 28 km/h 2380 m -10.9 m/s 402.80 MHz Barge (IT) 0.00 km UNKNOWN
P2930375 RS41 2020-03-27 14:12:57 44.7272 6.82686 259 ° 52 km/h 3289 m -3.0 m/s 402.80 MHz Briançon (FR) 0.00 km UNKNOWN
R1840426 RS41 2020-03-27 01:32:04 44.6864 7.02465 259 ° 61 km/h 3405 m -10.6 m/s 402.800 MHz Barge (IT) 0.00 km UNKNOWN
P2930359 RS41 2020-03-26 14:19:01 45.0829 6.33711 286 ° 80 km/h 4802 m -2.4 m/s 402.80 MHz Saint-Jean-de-Maurienne (FR) 0.00 km UNKNOWN
R1840418 RS41 2020-03-26 02:15:24 44.608 6.88295 272 ° 43 km/h 3484 m -6.4 m/s 402.80 MHz Embrun (FR) 0.00 km UNKNOWN
R1840416 RS41 2020-03-25 13:47:10 44.043 6.33095 215 ° 78 km/h 5005 m -3.6 m/s 402.80 MHz Digne-les-Bains (FR) 0.00 km UNKNOWN
P2930376 RS41 2020-03-25 01:30:46 44.1736 6.97752 203 ° 52 km/h 3120 m -9.4 m/s 402.800 MHz Borgo San Dalmazzo (IT) 0.00 km UNKNOWN
P2940455 RS41 2020-03-24 12:59:59 43.9737 7.37852 168 ° 59 km/h 4073 m -11.4 m/s 405.000 MHz Contes (FR) 0.00 km UNKNOWN
P2930380 RS41 2020-03-24 01:28:05 44.171 7.60068 148 ° 15 km/h 2325 m -13.5 m/s 402.80 MHz Boves (IT) 0.00 km UNKNOWN
P2930384 RS41 2020-03-23 13:22:06 44.2862 7.5681 191 ° 9 km/h 1122 m -8.8 m/s 402.800 MHz Boves (IT) 0.00 km UNKNOWN
P2940452 RS41 2020-03-23 02:18:06 44.2504 7.5537 194 ° 28 km/h 1579 m -3.6 m/s 402.800 MHz Boves (IT) 0.00 km UNKNOWN
P2930377 RS41 2020-03-22 13:22:59 44.5336 7.69255 177 ° 20 km/h 1080 m -7.1 m/s 402.80 MHz Fossano (IT) 0.00 km FOUND
P2930381 RS41 2020-03-22 01:28:31 44.5387 7.95408 167 ° 17 km/h 789 m -5.5 m/s 402.80 MHz Cherasco (IT) 0.00 km UNKNOWN
P2930383 RS41 2020-03-21 13:45:21 44.5991 7.92777 233 ° 13 km/h 799 m -3.3 m/s 405.00 MHz Cherasco (IT) 0.00 km FOUND
P2930378 RS41 2020-03-21 01:42:58 44.4535 7.98535 59 ° 9 km/h 775 m -4.9 m/s 402.80 MHz Monesiglio (IT) 0.00 km FOUND
P2930382 RS41 2020-03-20 13:16:20 44.5811 7.97192 300 ° 9 km/h 1011 m -10.5 m/s 402.80 MHz Cherasco (IT) 0.00 km LOST
P2940458 RS41 2020-03-20 03:07:26 44.7471 7.25624 336 ° 4 km/h 1091 m -3.1 m/s 402.80 MHz Barge (IT) 0.00 km UNKNOWN
P2940454 RS41 2020-03-19 13:40:44 44.7768 7.04565 202 ° 4 km/h 2332 m -4.3 m/s 402.80 MHz Barge (IT) 0.00 km UNKNOWN
P2940453 RS41 2020-03-19 01:42:21 44.3965 7.12405 207 ° 13 km/h 2619 m -8.5 m/s 402.80 MHz Borgo San Dalmazzo (IT) 0.00 km UNKNOWN
P2930516 RS41 2020-03-18 13:20:27 44.3997 7.24913 350 ° 2 km/h 1985 m -14.6 m/s 402.80 MHz Borgo San Dalmazzo (IT) 0.00 km UNKNOWN
P2940456 RS41 2020-03-18 01:30:09 44.4372 7.35845 122 ° 4 km/h 1539 m -11.4 m/s 402.80 MHz Busca (IT) 0.00 km UNKNOWN
P2940459 RS41 2020-03-17 13:17:43 44.5435 7.60378 203 ° 2 km/h 1019 m -4.4 m/s 402.80 MHz Fossano (IT) 0.00 km FOUND
P2940461 RS41 2020-03-17 01:29:08 44.6625 7.78265 14 ° 15 km/h 373 m -10.2 m/s 402.800 MHz Bra (IT) 0.00 km UNKNOWN
P2930164 RS41 2020-03-16 14:12:39 44.8005 8.0278 200 ° 11 km/h 330 m -1.8 m/s 402.800 MHz Alba (IT) 0.00 km FOUND
P2940462 RS41 2020-03-16 02:25:09 44.8255 8.15415 122 ° 6 km/h 301 m -6.0 m/s 402.800 MHz Asti (IT) 0.00 km UNKNOWN
P2940460 RS41 2020-03-15 13:28:09 44.528 8.14444 194 ° 9 km/h 816 m -5.6 m/s 402.800 MHz Monesiglio (IT) 0.00 km UNKNOWN
P2930572 RS41 2020-03-15 01:57:39 44.179 8.37029 208 ° 35 km/h 1034 m -9.6 m/s 402.800 MHz Finale Ligure (IT) 0.00 km UNKNOWN
P2940524 RS41 2020-03-14 13:54:10 44.3497 9.04856 109 ° 13 km/h 588 m -3.9 m/s 402.801 MHz Recco (IT) 0.00 km LOST
P2930166 RS41 2020-03-14 01:45:05 44.7473 9.00921 211 ° 2 km/h 673 m -5.2 m/s 402.80 MHz Novi Ligure (IT) 0.00 km UNKNOWN
P2930165 RS41 2020-03-13 14:10:03 44.7743 9.74164 3 ° 20 km/h 714 m -4.5 m/s 405.001 MHz Carpaneto Piacentino (IT) 0.00 km UNKNOWN
P2930185 RS41 2020-03-13 01:36:12 44.7603 9.20993 48 ° 19 km/h 1350 m -3.9 m/s 402.800 MHz Voghera (IT) 0.00 km UNKNOWN
P2930208 RS41 2020-03-12 13:50:33 44.8187 9.5528 113 ° 7 km/h 814 m -4.2 m/s 402.800 MHz Podenzano (IT) 0.00 km UNKNOWN
P2930207 RS41 2020-03-12 01:29:40 44.4713 8.59765 1 ° 31 km/h 903 m -6.3 m/s 402.80 MHz Cogoleto (IT) 0.00 km UNKNOWN
P2930205 RS41 2020-03-11 13:35:42 43.9753 8.38958 46 ° 28 km/h 1296 m -3.8 m/s 402.800 MHz Albenga (IT) 0.00 km LOST
P2930210 RS41 2020-03-11 01:26:30 43.7375 7.83761 174 ° 39 km/h 3619 m -10.7 m/s 402.800 MHz San Remo (IT) 0.00 km LOST
P2930163 RS41 2020-03-10 13:14:38 43.5237 7.55123 171 ° 93 km/h 6127 m -16.4 m/s 402.80 MHz Monaco (MC) 0.00 km LOST
P2930167 RS41 2020-03-10 01:26:32 43.4645 7.35639 195 ° 102 km/h 5876 m -11.5 m/s 402.800 MHz Antibes (FR) 0.00 km LOST
P2930209 RS41 2020-03-09 13:50:24 44.2314 7.66995 193 ° 2 km/h 1155 m -4.0 m/s 402.800 MHz Boves (IT) 0.00 km UNKNOWN
P2850449 RS41 2020-03-09 02:49:02 44.7056 8.62922 330 ° 15 km/h 347 m -1.7 m/s 402.800 MHz Ovada (IT) 0.00 km UNKNOWN
P2930206 RS41 2020-03-08 14:17:36 44.1615 7.93177 115 ° 13 km/h 2075 m -3.1 m/s 402.800 MHz Albenga (IT) 0.00 km UNKNOWN
P2930177 RS41 2020-03-08 01:55:21 43.6453 7.18027 193 ° 87 km/h 5104 m -5.6 m/s 402.801 MHz Valbonne (FR) 0.00 km LOST
P2930182 RS41 2020-03-07 13:27:25 44.0194 7.39306 13 ° 6 km/h 3442 m -3.3 m/s 402.800 MHz Contes (FR) 0.00 km UNKNOWN
P2930184 RS41 2020-03-07 01:53:25 44.3786 7.86365 89 ° 22 km/h 607 m -7.1 m/s 402.800 MHz Mondovì (IT) 0.00 km FOUND
P2930186 RS41 2020-03-06 02:23:01 44.7538 9.1436 71 ° 9 km/h 970 m -5.5 m/s 402.800 MHz Voghera (IT) 0.00 km UNKNOWN
R3951722 RS41 2020-03-05 13:59:50 44.4052 9.16655 360 ° 6 km/h 750 m -5.5 m/s 405.001 MHz Recco (IT) 0.00 km UNKNOWN
R3950625 RS41 2020-03-05 02:53:04 42.9203 9.27065 38 ° 31 km/h 535 m -2.6 m/s 402.800 MHz Bastia (FR) 0.00 km LOST
R3951773 RS41 2020-03-04 02:46:22 43.2873 8.37697 158 ° 59 km/h 4259 m -2.5 m/s 402.800 MHz Imperia (IT) 0.00 km LOST
R3950626 RS41 2020-03-03 13:43:48 43.9865 8.40544 310 ° 4 km/h 1511 m -3.6 m/s 402.801 MHz Albenga (IT) 0.00 km LOST
R3951781 RS41 2020-03-03 02:27:29 44.2975 8.21643 157 ° 7 km/h 1083 m -3.4 m/s 402.801 MHz Cairo Montenotte (IT) 0.00 km UNKNOWN
R3951779 RS41 2020-03-02 13:44:05 44.9625 8.67612 9 ° 17 km/h 290 m -9.9 m/s 402.800 MHz Valenza (IT) 0.00 km UNKNOWN
R3951778 RS41 2020-03-02 01:37:16 44.3306 9.27716 247 ° 13 km/h 295 m -1.9 m/s 402.800 MHz Chiavari (IT) 0.00 km UNKNOWN
R3951782 RS41 2020-03-01 13:56:01 44.9382 9.4446 32 ° 6 km/h 652 m -6.4 m/s 402.80 MHz Borgonovo Val Tidone (IT) 0.00 km UNKNOWN
R3951492 RS41 2020-03-01 02:46:37 44.3778 10.5416 319 ° 7 km/h 903 m -3.5 m/s 402.800 MHz Serramazzoni (IT) 0.00 km FOUND
R3951537 RS41 2020-02-29 14:00:04 44.6985 10.1217 347 ° 4 km/h 218 m -3.3 m/s 402.801 MHz Medesano (IT) 0.00 km FOUND
R3951720 RS41 2020-02-29 01:54:46 43.9808 9.68162 293 ° 20 km/h 76 m -5.4 m/s 402.800 MHz La Spezia (IT) 0.00 km LOST
R3950627 RS41 2020-02-28 13:41:38 43.2399 10.0597 222 ° 13 km/h 1307 m -3.1 m/s 402.800 MHz Rosignano Marittimo (IT) 0.00 km LOST
R3951780 RS41 2020-02-26 13:25:37 44.3904 9.98864 134 ° 72 km/h 1863 m -12.7 m/s 402.801 MHz Aulla (IT) 0.00 km UNKNOWN
R3950354 RS41 2020-02-25 03:09:21 44.8768 11.005 205 ° 9 km/h 70 m -2.3 m/s 402.800 MHz Concordia sulla Secchia (IT) 0.00 km FOUND
R3950435 RS41 2020-02-24 14:09:59 44.1795 9.86209 92 ° 6 km/h 807 m -4.5 m/s 402.801 MHz Bolano (IT) 0.00 km UNKNOWN
R3950437 RS41 2020-02-24 02:34:59 43.9165 9.84972 268 ° 7 km/h 198 m -3.0 m/s 405.001 MHz Lerici (IT) 0.00 km LOST
R3951774 RS41 2020-02-23 01:53:53 44.0373 8.67994 9 ° 19 km/h 94 m -6.6 m/s 402.801 MHz Finale Ligure (IT) 0.00 km LOST
R3951704 RS41 2020-02-22 13:13:44 44.1742 8.11192 104 ° 6 km/h 1825 m -12.8 m/s 402.800 MHz Loano (IT) 0.00 km UNKNOWN
R3950393 RS41 2020-02-22 02:31:49 43.9001 8.07166 234 ° 17 km/h 971 m -2.6 m/s 402.800 MHz Imperia (IT) 0.00 km UNKNOWN
R3950391 RS41 2020-02-21 14:55:36 43.3579 8.20206 241 ° 13 km/h 570 m -2.2 m/s 402.801 MHz Imperia (IT) 0.00 km LOST
R3950392 RS41 2020-02-21 02:45:19 44.1902 9.5486 333 ° 6 km/h 187 m -3.4 m/s 402.801 MHz Sestri Levante (IT) 0.00 km LOST
R3950423 RS41 2020-02-20 15:12:58 43.5272 8.71997 299 ° 9 km/h 175 m -1.9 m/s 402.801 MHz Imperia (IT) 0.00 km LOST
R3950394 RS41 2020-02-20 01:59:40 43.2636 8.54533 158 ° 89 km/h 4581 m -3.2 m/s 405.001 MHz Calvi (FR) 0.00 km LOST
R3950438 RS41 2020-02-19 13:37:47 43.4794 8.85758 66 ° 28 km/h 279 m -6.0 m/s 405.00 MHz Alassio (IT) 0.00 km LOST
R3951699 RS41 2020-02-19 01:50:06 44.3774 9.51547 95 ° 15 km/h 2009 m -10.4 m/s 405.001 MHz Sestri Levante (IT) 0.00 km UNKNOWN
R3951610 RS41 2020-02-18 13:38:42 44.6899 9.82585 216 ° 6 km/h 909 m -5.0 m/s 402.800 MHz Salsomaggiore Terme (IT) 0.00 km UNKNOWN
R3950349 RS41 2020-02-18 02:13:50 45.0677 10.7391 143 ° 6 km/h 88 m -6.3 m/s 402.800 MHz Cerese (IT) 0.00 km UNKNOWN
R3950352 RS41 2020-02-17 13:31:54 44.9396 9.9703 167 ° 4 km/h 218 m -9.4 m/s 402.801 MHz Fidenza (IT) 0.00 km FOUND
R3951706 RS41 2020-02-17 02:50:03 44.6497 10.3554 326 ° 6 km/h 244 m -2.5 m/s 402.800 MHz Traversetolo (IT) 0.00 km UNKNOWN
R3951624 RS41 2020-02-16 02:47:21 43.8639 9.40078 102 ° 17 km/h 270 m -4.3 m/s 405.001 MHz La Spezia (IT) 0.00 km LOST
R3950395 RS41 2020-02-15 13:37:18 44.5795 9.76549 349 ° 7 km/h 1273 m -11.1 m/s 402.800 MHz Salsomaggiore Terme (IT) 0.00 km FOUND
R3951751 RS41 2020-02-15 02:11:57 44.2677 9.87837 180 ° 4 km/h 1808 m -4.8 m/s 402.800 MHz Bolano (IT) 0.00 km UNKNOWN
R3951750 RS41 2020-02-14 15:00:13 43.4366 9.48939 185 ° 74 km/h 3739 m -5.2 m/s 402.800 MHz Livorno (IT) 0.00 km LOST
R3950434 RS41 2020-02-14 01:59:19 43.5525 10.8843 89 ° 98 km/h 2761 m -4.9 m/s 402.800 MHz Castelfiorentino (IT) 0.00 km UNKNOWN
R3951121 RS41 2020-02-13 13:31:44 44.5028 10.7032 218 ° 11 km/h 447 m -9.7 m/s 402.800 MHz Castellarano (IT) 0.00 km FOUND
R3950367 RS41 2020-02-13 02:26:47 44.1809 11.8446 45 ° 15 km/h 389 m -1.9 m/s 402.80 MHz Brisighella (IT) 0.00 km UNKNOWN
R3951122 RS41 2020-02-12 01:56:35 44.3738 12.0792 133 ° 24 km/h 58 m -6.5 m/s 402.801 MHz Russi (IT) 0.00 km FOUND
R3951120 RS41 2020-02-11 13:25:16 44.1391 11.3096 49 ° 41 km/h 1139 m -7.2 m/s 402.801 MHz Barberino di Mugello (IT) 0.00 km UNKNOWN
R3951717 RS41 2020-02-11 02:08:50 43.6555 11.5763 83 ° 61 km/h 2054 m -4.7 m/s 402.80 MHz Reggello (IT) 0.00 km UNKNOWN
R3960127 RS41 2020-02-10 13:20:25 43.8378 11.1526 76 ° 81 km/h 2402 m -9.2 m/s 402.80 MHz Campi Bisenzio (IT) 0.00 km UNKNOWN
R3951744 RS41 2020-02-10 01:15:53 43.6577 9.141 49 ° 61 km/h 631 m -7.7 m/s 402.80 MHz Sestri Levante (IT) 0.00 km LOST
R3960286 RS41 2020-02-09 13:23:48 43.8974 9.00888 1 ° 19 km/h 417 m -6.8 m/s 402.80 MHz Santa Margherita Ligure (IT) 0.00 km LOST
R3960124 RS41 2020-02-09 01:47:06 44.7242 9.02894 77 ° 4 km/h 700 m -5.0 m/s 402.80 MHz Novi Ligure (IT) 0.00 km UNKNOWN
R3951123 RS41 2020-02-08 14:44:19 45.1144 9.58855 202 ° 4 km/h 595 m -2.9 m/s 402.80 MHz Rottofreno (IT) 0.00 km FOUND
R3951552 RS41 2020-02-08 02:03:45 44.3293 8.31507 103 ° 6 km/h 648 m -1.7 m/s 402.80 MHz Cairo Montenotte (IT) 0.00 km LOST
R3960123 RS41 2020-02-07 13:38:48 44.5882 8.18878 341 ° 20 km/h 516 m -5.5 m/s 402.80 MHz Monesiglio (IT) 0.00 km UNKNOWN
R3951544 RS41 2020-02-07 01:46:33 44.3657 7.4669 238 ° 2 km/h 1181 m -8.1 m/s 402.80 MHz Borgo San Dalmazzo (IT) 0.00 km FOUND
R3951543 RS41 2020-02-06 13:23:31 43.8262 8.01328 45 ° 13 km/h 1661 m -11.2 m/s 402.800 MHz Imperia (IT) 0.00 km LOST
R3951545 RS41 2020-02-06 01:40:59 43.029 7.63746 203 ° 56 km/h 3075 m -5.4 m/s 402.801 MHz Antibes (FR) 0.00 km LOST
R3951553 RS41 2020-02-05 12:59:00 42.7965 7.76736 165 ° 152 km/h 13478 m -13.1 m/s 402.801 MHz Calvi (FR) 0.00 km LOST
R3951757 RS41 2020-02-05 01:26:54 42.7555 8.37499 170 ° 191 km/h 6639 m -11.9 m/s 402.800 MHz Calvi (FR) 0.00 km LOST
R3951772 RS41 2020-02-04 13:28:46 43.7042 10.4583 104 ° 35 km/h 177 m -7.7 m/s 402.801 MHz Cascina (IT) 0.00 km UNKNOWN
R3960125 RS41 2020-02-04 01:50:48 43.9874 9.91197 328 ° 24 km/h 97 m -2.8 m/s 402.801 MHz Lerici (IT) 0.00 km LOST
R3960131 RS41 2020-02-03 14:49:49 42.897 10.3479 93 ° 26 km/h 867 m -1.6 m/s 402.80 MHz Portoferraio (IT) 0.00 km LOST
R3960126 RS41 2020-02-03 02:17:38 43.4059 9.54073 76 ° 13 km/h 127 m -4.6 m/s 402.800 MHz Livorno (IT) 0.00 km LOST
R3960132 RS41 2020-02-02 13:26:41 43.5652 8.98779 37 ° 17 km/h 699 m -8.0 m/s 402.800 MHz Alassio (IT) 0.00 km LOST
R3950496 RS41 2020-02-02 02:09:15 43.3477 9.06785 126 ° 39 km/h 2351 m -10.1 m/s 402.800 MHz Bastia (FR) 0.00 km LOST
R3960121 RS41 2020-02-01 14:04:29 44.0455 9.03943 92 ° 43 km/h 2210 m -2.9 m/s 402.801 MHz Santa Margherita Ligure (IT) 0.00 km LOST
R3870766 RS41 2020-02-01 01:45:19 43.9909 8.63531 2 ° 15 km/h 119 m -12.0 m/s 402.801 MHz Finale Ligure (IT) 0.00 km LOST
R3960128 RS41 2020-01-31 13:43:05 43.9719 8.62957 115 ° 9 km/h 1725 m -3.8 m/s 402.800 MHz Finale Ligure (IT) 0.00 km LOST
R3950497 RS41 2020-01-31 01:59:31 43.6307 9.61126 119 ° 26 km/h 4221 m -7.1 m/s 402.800 MHz Lerici (IT) 0.00 km LOST
R3951742 RS41 2020-01-30 13:27:36 43.7239 9.8914 45 ° 37 km/h 1031 m -9.5 m/s 402.800 MHz Viareggio (IT) 0.00 km LOST
R3951771 RS41 2020-01-30 01:56:21 43.1998 9.94795 67 ° 20 km/h 1096 m -9.0 m/s 402.800 MHz Rosignano Marittimo (IT) 0.00 km LOST
R3951718 RS41 2020-01-29 14:31:06 42.8487 11.859 113 ° 26 km/h 1208 m -2.7 m/s 402.80 MHz Chiusi (IT) 0.00 km FOUND
R1930108 RS41 2020-01-29 01:35:32 43.5812 10.872 86 ° 54 km/h 804 m -7.7 m/s 402.800 MHz Castelfiorentino (IT) 0.00 km UNKNOWN
R3951551 RS41 2020-01-28 12:59:50 44.1095 10.7158 64 ° 111 km/h 2232 m -13.9 m/s 405.001 MHz Barga (IT) 0.00 km UNKNOWN
R3951554 RS41 2020-01-28 01:50:32 44.153 11.1452 36 ° 70 km/h 1175 m -5.2 m/s 402.800 MHz Vergato (IT) 0.00 km UNKNOWN
R3950528 RS41 2020-01-27 13:30:18 43.8666 10.5052 100 ° 30 km/h 848 m -5.8 m/s 402.800 MHz Lucca (IT) 0.00 km UNKNOWN
R3950525 RS41 2020-01-27 02:22:23 43.7963 10.5187 68 ° 22 km/h 646 m -6.2 m/s 405.000 MHz Lucca (IT) 0.00 km UNKNOWN
R3951630 RS41 2020-01-26 13:15:51 44.3227 9.8602 108 ° 11 km/h 1394 m -4.3 m/s 402.800 MHz Aulla (IT) 0.00 km UNKNOWN
R3950523 RS41 2020-01-26 01:09:58 44.7356 9.10343 193 ° 2 km/h 945 m -10.1 m/s 402.800 MHz Novi Ligure (IT) 0.00 km UNKNOWN
R1930141 RS41 2020-01-25 13:28:27 44.8305 8.79619 66 ° 9 km/h 212 m -3.5 m/s 402.800 MHz Novi Ligure (IT) 0.00 km UNKNOWN
R3951631 RS41 2020-01-25 01:50:03 45.1343 9.62503 273 ° 9 km/h 425 m -2.8 m/s 402.800 MHz Casalpusterlengo (IT) 0.00 km FOUND
R3950524 RS41 2020-01-24 13:17:49 45.3143 8.72885 149 ° 2 km/h 259 m -5.0 m/s 402.800 MHz Mortara (IT) 0.00 km FOUND
R3951646 RS41 2020-01-24 01:34:28 45.2391 8.8173 126 ° 6 km/h 273 m -9.0 m/s 402.800 MHz Gambolò (IT) 0.00 km FOUND
R3950551 RS41 2020-01-23 14:09:48 45.3503 7.97177 325 ° 7 km/h 811 m -2.6 m/s 402.801 MHz Vestignè (IT) 0.00 km UNKNOWN
R3951512 RS41 2020-01-23 01:40:55 44.7705 8.03954 10 ° 4 km/h 384 m -9.6 m/s 402.801 MHz Alba (IT) 0.00 km FOUND
R1910557 RS41 2020-01-22 13:20:50 44.7817 8.43604 348 ° 7 km/h 395 m -8.2 m/s 402.800 MHz Nizza Monferrato (IT) 0.00 km UNKNOWN
R1910554 RS41 2020-01-22 01:38:56 44.9072 7.72868 21 ° 4 km/h 408 m -5.5 m/s 402.800 MHz Carignano (IT) 0.00 km FOUND
R1910547 RS41 2020-01-21 13:14:26 44.7748 7.45883 284 ° 0 km/h 444 m -6.4 m/s 402.801 MHz Barge (IT) 0.00 km UNKNOWN
R1910555 RS41 2020-01-21 01:49:53 44.6473 7.2266 72 ° 6 km/h 1652 m -10.0 m/s 402.800 MHz Barge (IT) 0.00 km UNKNOWN
R1850830 RS41 2020-01-20 13:25:48 44.4999 7.28548 199 ° 13 km/h 2151 m -11.6 m/s 402.80 MHz Busca (IT) 0.00 km UNKNOWN
R1850672 RS41 2020-01-20 01:49:06 44.302 7.51321 231 ° 43 km/h 3178 m -7.1 m/s 402.80 MHz Borgo San Dalmazzo (IT) 0.00 km UNKNOWN
R1850826 RS41 2020-01-19 14:16:50 44.259 7.89505 170 ° 30 km/h 2183 m -5.4 m/s 402.80 MHz Mondovì (IT) 0.00 km UNKNOWN
R1850831 RS41 2020-01-19 01:37:21 44.138 8.24445 171 ° 6 km/h 118 m -6.9 m/s 402.80 MHz Loano (IT) 0.00 km UNKNOWN
R1920818 RS41 2020-01-18 13:15:06 44.2057 8.50425 195 ° 33 km/h 979 m -11.7 m/s 402.80 MHz Vado Ligure (IT) 0.00 km LOST
R1850827 RS41 2020-01-18 01:49:43 44.4525 8.22034 168 ° 37 km/h 1074 m -6.6 m/s 402.80 MHz Cairo Montenotte (IT) 0.00 km UNKNOWN
R1930107 RS41 2020-01-17 01:42:42 44.8966 8.44278 104 ° 9 km/h 416 m -6.0 m/s 402.800 MHz Alessandria (IT) 0.00 km UNKNOWN
R1850828 RS41 2020-01-16 13:10:13 44.9213 8.59266 71 ° 7 km/h 989 m -11.6 m/s 405.000 MHz Alessandria (IT) 0.00 km UNKNOWN
R1850762 RS41 2020-01-15 14:34:48 45.3038 9.44744 72 ° 9 km/h 229 m -2.0 m/s 402.800 MHz Lodi Vecchio (IT) 0.00 km FOUND
R1930151 RS41 2020-01-15 02:18:13 44.8099 8.99146 23 ° 39 km/h 2051 m -3.6 m/s 405.00 MHz Tortona (IT) 0.00 km UNKNOWN
R1930140 RS41 2020-01-14 14:15:40 44.2448 8.98281 346 ° 11 km/h 233 m -2.8 m/s 402.80 MHz Recco (IT) 0.00 km LOST
R1930104 RS41 2020-01-14 01:57:22 44.4111 9.20997 359 ° 22 km/h 785 m -2.9 m/s 402.80 MHz Rapallo (IT) 0.00 km UNKNOWN
R1930106 RS41 2020-01-13 13:13:00 44.6148 8.99387 355 ° 17 km/h 1447 m -7.7 m/s 402.80 MHz Serra Riccò (IT) 0.00 km UNKNOWN
R1930002 RS41 2020-01-13 02:09:30 44.3542 8.6305 199 ° 2 km/h 54 m -6.7 m/s 402.80 MHz Cogoleto (IT) 0.00 km LOST
R1930103 RS41 2020-01-12 13:24:18 44.2012 7.80122 106 ° 9 km/h 2238 m -11.4 m/s 402.80 MHz Mondovì (IT) 0.00 km UNKNOWN
R0220636 RS41 2020-01-12 01:36:51 44.0102 7.60614 226 ° 72 km/h 4045 m -5.4 m/s 402.80 MHz Ventimiglia (IT) 0.00 km UNKNOWN
R1930152 RS41 2020-01-11 13:34:09 43.7474 7.00578 239 ° 122 km/h 6840 m -3.7 m/s 402.80 MHz Vence (FR) 0.00 km UNKNOWN
R1930156 RS41 2020-01-10 02:37:12 45.602 8.90245 54 ° 13 km/h 1112 m -3.7 m/s 402.80 MHz Castellanza (IT) 0.00 km FOUND
R1930162 RS41 2020-01-09 14:21:38 44.8382 8.11816 344 ° 26 km/h 778 m -2.2 m/s 402.80 MHz Asti (IT) 0.00 km FOUND
R1930154 RS41 2020-01-09 02:19:29 44.3246 7.75753 49 ° 6 km/h 645 m -3.6 m/s 402.800 MHz Mondovì (IT) 0.00 km FOUND
R0220726 RS41 2020-01-08 01:31:25 43.6803 7.67399 202 ° 141 km/h 6051 m -12.6 m/s 402.801 MHz Bordighera (IT) 0.00 km LOST
R0220632 RS41 2020-01-07 13:45:24 43.7322 8.41447 225 ° 28 km/h 162 m -5.8 m/s 402.801 MHz Imperia (IT) 0.00 km LOST
R1910531 RS41 2020-01-07 02:24:57 44.2133 9.03934 258 ° 6 km/h 256 m -3.1 m/s 402.800 MHz Recco (IT) 0.00 km LOST
R1910532 RS41 2020-01-06 13:45:52 44.1434 8.18844 141 ° 11 km/h 1351 m -3.7 m/s 402.80 MHz Loano (IT) 0.00 km UNKNOWN
R1920819 RS41 2020-01-06 01:49:54 44.0121 8.50592 203 ° 26 km/h 63 m -5.9 m/s 402.80 MHz Finale Ligure (IT) 0.00 km LOST
R1910322 RS41 2020-01-05 13:28:33 43.9135 8.6708 331 ° 19 km/h 554 m -8.4 m/s 402.80 MHz Finale Ligure (IT) 0.00 km LOST
R0220635 RS41 2020-01-05 01:28:26 43.7249 8.77034 102 ° 22 km/h 379 m -14.8 m/s 402.801 MHz Alassio (IT) 0.00 km LOST
R1910533 RS41 2020-01-04 13:24:02 43.9224 8.7661 58 ° 7 km/h 330 m -9.0 m/s 402.800 MHz Finale Ligure (IT) 0.00 km LOST
R0220631 RS41 2020-01-04 01:50:51 44.2475 9.40141 281 ° 6 km/h 58 m -5.0 m/s 402.800 MHz Sestri Levante (IT) 0.00 km LOST
R0220633 RS41 2020-01-03 13:37:49 44.6141 9.80175 50 ° 2 km/h 994 m -1.6 m/s 402.800 MHz Salsomaggiore Terme (IT) 0.00 km FOUND
R0220634 RS41 2020-01-02 13:52:48 44.6976 10.1909 290 ° 6 km/h 382 m -4.1 m/s 402.800 MHz Felino (IT) 0.00 km FOUND
R1910410 RS41 2020-01-01 13:41:38 44.2839 8.90293 139 ° 9 km/h 50 m -4.5 m/s 402.80 MHz Genoa (IT) 0.00 km LOST
R1910409 RS41 2020-01-01 02:18:54 44.0919 9.63351 138 ° 9 km/h 139 m -4.4 m/s 402.800 MHz La Spezia (IT) 0.00 km LOST
R1930136 RS41 2019-12-31 13:58:03 44.0635 9.07888 37 ° 9 km/h 427 m -3.3 m/s 402.800 MHz Santa Margherita Ligure (IT) 0.00 km LOST
R1910397 RS41 2019-12-31 01:35:09 44.1506 8.22369 196 ° 4 km/h 488 m -4.6 m/s 402.800 MHz Loano (IT) 0.00 km UNKNOWN
R1930030 RS41 2019-12-30 13:34:41 43.7909 7.53724 208 ° 41 km/h 3732 m -4.7 m/s 402.800 MHz Menton (FR) 0.00 km UNKNOWN
R1930189 RS41 2019-12-30 01:51:36 43.41 7.25514 210 ° 117 km/h 6688 m -4.7 m/s 402.800 MHz Antibes (FR) 0.00 km LOST
R1920917 RS41 2019-12-29 13:20:55 43.3138 7.21349 201 ° 104 km/h 6108 m -5.7 m/s 402.800 MHz Antibes (FR) 0.00 km LOST
R1930138 RS41 2019-12-29 01:24:17 43.1653 7.51071 184 ° 80 km/h 5717 m -5.5 m/s 402.800 MHz Antibes (FR) 0.00 km LOST
R1910414 RS41 2019-12-28 13:56:14 42.916 8.16719 190 ° 122 km/h 1702 m -3.8 m/s 402.80 MHz Calvi (FR) 0.00 km LOST
R1920920 RS41 2019-12-28 00:22:21 43.6252 7.74635 189 ° 46 km/h 4511 m -6.0 m/s 402.800 MHz Bordighera (IT) 0.00 km LOST
R1930191 RS41 2019-12-27 13:55:03 43.7488 9.00224 289 ° 6 km/h 379 m -3.9 m/s 402.800 MHz Sestri Levante (IT) 0.00 km LOST
R1850805 RS41 2019-12-27 02:46:18 43.1336 10.2452 324 ° 7 km/h 799 m -2.1 m/s 405.000 MHz Castagneto Carducci (IT) 0.00 km LOST
R1850888 RS41 2019-12-26 13:22:22 44.0031 9.35129 298 ° 11 km/h 378 m -3.5 m/s 402.800 MHz Sestri Levante (IT) 0.00 km LOST
R1930192 RS41 2019-12-26 02:31:10 43.0829 9.55241 314 ° 22 km/h 308 m -2.6 m/s 402.800 MHz Bastia (FR) 0.00 km LOST
R1850887 RS41 2019-12-25 13:44:49 43.0876 9.71078 87 ° 15 km/h 460 m -3.4 m/s 402.800 MHz Bastia (FR) 0.00 km LOST
R1930188 RS41 2019-12-25 02:03:52 42.9666 10.1314 98 ° 15 km/h 402 m -3.0 m/s 402.800 MHz Portoferraio (IT) 0.00 km LOST
R1930190 RS41 2019-12-24 13:29:17 43.3197 9.55587 47 ° 59 km/h 172 m -9.2 m/s 402.800 MHz Livorno (IT) 0.00 km LOST
R1930005 RS41 2019-12-24 02:00:07 42.7974 9.56362 130 ° 33 km/h 501 m -4.4 m/s 402.800 MHz Bastia (FR) 0.00 km LOST
R1850880 RS41 2019-12-23 13:54:26 42.9039 10.1445 108 ° 67 km/h 346 m -3.2 m/s 402.800 MHz Portoferraio (IT) 0.00 km LOST
R1850881 RS41 2019-12-23 02:08:30 43.4681 10.3301 138 ° 37 km/h 480 m -3.5 m/s 402.800 MHz Livorno (IT) 0.00 km LOST
R1850886 RS41 2019-12-22 13:21:35 43.9828 9.59141 70 ° 22 km/h 74 m -4.9 m/s 405.000 MHz La Spezia (IT) 0.00 km LOST
R1850806 RS41 2019-12-22 01:49:28 44.9726 9.60714 283 ° 48 km/h 351 m -3.6 m/s 402.800 MHz Podenzano (IT) 0.00 km UNKNOWN
R0220600 RS41 2019-12-21 14:03:33 43.8586 10.7018 88 ° 63 km/h 1174 m -4.3 m/s 405.00 MHz Ponte Buggianese (IT) 0.00 km UNKNOWN
R1850882 RS41 2019-12-21 03:02:17 45.1418 10.9047 255 ° 44 km/h 128 m -1.9 m/s 402.800 MHz Mantova (IT) 0.00 km UNKNOWN
R1910150 RS41 2019-12-20 13:29:10 45.2835 9.07454 285 ° 41 km/h 192 m -4.5 m/s 402.800 MHz Motta Visconti (IT) 0.00 km LOST
R1850781 RS41 2019-12-20 02:17:35 44.6067 9.40599 14 ° 46 km/h 1494 m -6.1 m/s 402.800 MHz Rapallo (IT) 0.00 km UNKNOWN
R1910148 RS41 2019-12-19 13:36:57 44.7216 8.11352 195 ° 6 km/h 416 m -3.4 m/s 402.800 MHz Alba (IT) 0.00 km FOUND
R1850809 RS41 2019-12-19 02:42:27 44.9077 7.70814 125 ° 6 km/h 330 m -4.2 m/s 402.800 MHz Carignano (IT) 0.00 km FOUND
R0220502 RS41 2019-12-18 13:50:07 45.111 8.88733 47 ° 2 km/h 173 m -8.2 m/s 402.800 MHz Garlasco (IT) 0.00 km FOUND
R1920595 RS41 2019-12-18 02:03:27 45.2904 8.95934 66 ° 9 km/h 219 m -6.5 m/s 402.800 MHz Motta Visconti (IT) 0.00 km UNKNOWN
R1910149 RS41 2019-12-17 13:34:54 45.6316 8.92986 346 ° 37 km/h 1932 m -6.4 m/s 402.80 MHz Rescaldina (IT) 0.00 km FOUND
R0220598 RS41 2019-12-17 01:50:49 45.7812 8.98433 344 ° 54 km/h 2209 m -3.4 m/s 402.800 MHz Olgiate Comasco (IT) 0.00 km FOUND
R1850807 RS41 2019-12-16 01:34:33 44.8515 9.34717 23 ° 28 km/h 1501 m -9.8 m/s 402.800 MHz Voghera (IT) 0.00 km FOUND
R1920625 RS41 2019-12-15 13:23:04 44.7487 9.56577 23 ° 11 km/h 1074 m -10.2 m/s 402.800 MHz Podenzano (IT) 0.00 km UNKNOWN
R0220607 RS41 2019-12-15 03:09:58 44.591 11.2565 246 ° 13 km/h 209 m -2.0 m/s 402.800 MHz Calderara di Reno (IT) 0.00 km FOUND
R0220504 RS41 2019-12-14 13:31:30 44.0679 10.2873 95 ° 44 km/h 1658 m -14.3 m/s 402.800 MHz Seravezza (IT) 0.00 km UNKNOWN
R0220599 RS41 2019-12-14 02:50:58 41.6742 11.3287 140 ° 93 km/h 2311 m -2.5 m/s 402.800 MHz Santa Marinella (IT) 0.00 km LOST
R0220612 RS41 2019-12-13 14:00:25 43.5315 10.9268 95 ° 81 km/h 849 m -4.3 m/s 402.80 MHz Certaldo (IT) 0.00 km UNKNOWN
R0220611 RS41 2019-12-13 03:00:10 43.735 10.9248 36 ° 54 km/h 1039 m -1.7 m/s 402.800 MHz Empoli (IT) 0.00 km UNKNOWN
P2940530 RS41 2019-12-12 14:11:43 44.1987 10.0461 228 ° 7 km/h 960 m -3.0 m/s 402.800 MHz Aulla (IT) 0.00 km UNKNOWN
P2940531 RS41 2019-12-12 01:42:06 45.12 8.86259 13 ° 4 km/h 162 m -5.5 m/s 402.800 MHz Garlasco (IT) 0.00 km UNKNOWN
P2930556 RS41 2019-12-11 13:30:45 44.6055 9.28643 17 ° 24 km/h 1731 m -12.8 m/s 402.800 MHz Rapallo (IT) 0.00 km UNKNOWN
P2940209 RS41 2019-12-11 01:24:05 43.5939 7.80917 203 ° 44 km/h 2728 m -6.5 m/s 402.800 MHz Bordighera (IT) 0.00 km LOST
P2940533 RS41 2019-12-10 13:31:35 43.1683 8.00114 217 ° 198 km/h 7264 m -5.6 m/s 402.800 MHz Bordighera (IT) 0.00 km LOST
P2940532 RS41 2019-12-10 02:02:20 43.5686 8.83029 171 ° 43 km/h 76 m -4.5 m/s 402.800 MHz Alassio (IT) 0.00 km LOST
P2940491 RS41 2019-12-09 14:09:42 43.9897 10.0965 48 ° 9 km/h 144 m -3.6 m/s 402.800 MHz Massa (IT) 0.00 km LOST
P2940210 RS41 2019-12-09 01:25:11 44.4619 9.12614 343 ° 28 km/h 1320 m -9.5 m/s 405.000 MHz Recco (IT) 0.00 km UNKNOWN
P2940492 RS41 2019-12-08 13:29:53 44.069 9.28117 9 ° 26 km/h 482 m -11.6 m/s 402.800 MHz Sestri Levante (IT) 0.00 km LOST
P2940220 RS41 2019-12-08 02:22:20 43.6298 9.04523 15 ° 33 km/h 117 m -2.7 m/s 402.800 MHz Sestri Levante (IT) 0.00 km LOST
P2940489 RS41 2019-12-07 13:05:37 43.9676 8.83265 357 ° 9 km/h 879 m -6.9 m/s 402.80 MHz Finale Ligure (IT) 0.00 km LOST
P2940488 RS41 2019-12-07 01:34:30 44.1705 9.97499 65 ° 28 km/h 1392 m -12.7 m/s 402.800 MHz Santo Stefano di Magra (IT) 0.00 km UNKNOWN
P2940490 RS41 2019-12-06 13:23:04 44.5482 9.43468 5 ° 17 km/h 1373 m -5.5 m/s 402.800 MHz Rapallo (IT) 0.00 km UNKNOWN
P2940218 RS41 2019-12-06 01:20:54 44.5882 7.86554 12 ° 6 km/h 399 m -3.9 m/s 402.800 MHz Cherasco (IT) 0.00 km UNKNOWN
P2940215 RS41 2019-12-05 13:16:11 44.9509 8.96809 297 ° 2 km/h 242 m -5.9 m/s 402.80 MHz Tortona (IT) 0.00 km UNKNOWN
P2940214 RS41 2019-12-05 01:54:41 45.1165 9.06006 103 ° 2 km/h 138 m -5.8 m/s 402.800 MHz Pavia (IT) 0.00 km UNKNOWN
P2940206 RS41 2019-12-04 13:18:21 45.1637 9.37052 276 ° 15 km/h 512 m -8.2 m/s 402.800 MHz Stradella (IT) 0.00 km UNKNOWN
P2940216 RS41 2019-12-04 01:27:22 44.6549 8.95154 187 ° 9 km/h 1458 m -8.3 m/s 402.800 MHz Serra Riccò (IT) 0.00 km UNKNOWN
P2940205 RS41 2019-12-03 13:40:53 44.1675 7.84718 138 ° 6 km/h 2314 m -4.8 m/s 402.80 MHz Mondovì (IT) 0.00 km UNKNOWN
P2940217 RS41 2019-12-03 01:30:04 44.4036 10.0608 282 ° 24 km/h 1772 m -9.8 m/s 402.800 MHz Fivizzano (IT) 0.00 km UNKNOWN
P2940207 RS41 2019-12-02 14:42:56 44.9051 11.5497 61 ° 6 km/h 187 m -2.5 m/s 402.800 MHz Occhiobello (IT) 0.00 km FOUND
P2940208 RS41 2019-12-02 02:07:09 45.0962 10.6916 300 ° 6 km/h 954 m -2.8 m/s 402.80 MHz Cerese (IT) 0.00 km UNKNOWN
P2940219 RS41 2019-12-01 14:09:45 44.9975 12.1953 267 ° 9 km/h 234 m -4.9 m/s 402.801 MHz Taglio di Po (IT) 0.00 km FOUND
P2940212 RS41 2019-12-01 02:16:16 44.4003 10.5591 305 ° 6 km/h 1226 m -1.9 m/s 402.800 MHz Castellarano (IT) 0.00 km FOUND
P2930639 RS41 2019-11-30 13:15:04 43.9771 10.5612 123 ° 17 km/h 2458 m -12.0 m/s 402.80 MHz Capannori (IT) 0.00 km UNKNOWN
P2940222 RS41 2019-11-30 01:26:41 44.1331 10.5862 132 ° 19 km/h 2216 m -13.8 m/s 402.80 MHz Barga (IT) 0.00 km UNKNOWN
P2940221 RS41 2019-11-29 13:22:02 44.3619 10.7284 95 ° 7 km/h 916 m -6.8 m/s 402.80 MHz Serramazzoni (IT) 0.00 km UNKNOWN
P2940211 RS41 2019-11-29 02:24:07 44.2797 11.8634 325 ° 4 km/h 100 m -3.8 m/s 402.800 MHz Faenza (IT) 0.00 km FOUND
P2940272 RS41 2019-11-28 14:16:16 44.7352 11.4419 245 ° 7 km/h 126 m -3.0 m/s 402.800 MHz Poggio Renatico (IT) 0.00 km UNKNOWN
P2940200 RS41 2019-11-28 02:17:57 44.7625 11.0184 94 ° 28 km/h 197 m -1.8 m/s 402.801 MHz Bomporto (IT) 0.00 km FOUND
P2940213 RS41 2019-11-27 13:51:46 44.8624 10.69 159 ° 15 km/h 140 m -4.3 m/s 402.80 MHz Novellara (IT) 0.00 km UNKNOWN
P2940273 RS41 2019-11-27 00:40:34 44.6486 8.99169 39 ° 50 km/h 2281 m -8.9 m/s 402.800 MHz Serra Riccò (IT) 0.00 km UNKNOWN
R0220990 RS41 2019-11-26 13:16:51 44.2439 10.001 53 ° 26 km/h 1771 m -11.7 m/s 405.00 MHz Aulla (IT) 0.00 km UNKNOWN
P2940271 RS41 2019-11-26 01:22:41 43.7594 8.90522 354 ° 19 km/h 111 m -7.3 m/s 405.001 MHz Finale Ligure (IT) 0.00 km LOST
P2940246 RS41 2019-11-25 13:20:21 44.5726 9.78225 254 ° 11 km/h 1429 m -11.8 m/s 402.800 MHz Salsomaggiore Terme (IT) 0.00 km FOUND
P2940263 RS41 2019-11-25 02:29:16 44.3518 8.404 21 ° 7 km/h 338 m -3.3 m/s 402.800 MHz Savona (IT) 0.00 km UNKNOWN
P2940264 RS41 2019-11-24 13:35:54 44.7379 9.12271 272 ° 33 km/h 1738 m -10.4 m/s 402.800 MHz Tortona (IT) 0.00 km UNKNOWN
P2940262 RS41 2019-11-24 07:07:13 44.4302 10.6021 101 ° 104 km/h 21474 m 0.9 m/s 402.800 MHz Castellarano (IT) 0.00 km UNKNOWN
P2940243 RS41 2019-11-23 13:25:36 45.2636 9.14368 300 ° 78 km/h 1029 m -9.1 m/s 402.80 MHz Lacchiarella (IT) 0.00 km FOUND
P2940244 RS41 2019-11-23 02:50:37 45.4147 9.72162 279 ° 48 km/h 208 m -5.1 m/s 402.800 MHz Crema (IT) 0.00 km FOUND
P2940245 RS41 2019-11-22 14:33:42 45.2318 10.4404 264 ° 30 km/h 106 m -2.8 m/s 402.80 MHz Asola (IT) 0.00 km FOUND
R0220989 RS41 2019-11-22 02:47:54 45.1339 9.9689 305 ° 22 km/h 170 m -1.6 m/s 402.80 MHz Cremona (IT) 0.00 km FOUND
R0221054 RS41 2019-11-21 13:21:10 44.9762 9.1354 289 ° 13 km/h 1502 m -7.7 m/s 402.80 MHz Voghera (IT) 0.00 km UNKNOWN
R0221052 RS41 2019-11-21 01:57:33 45.2319 8.46297 11 ° 7 km/h 850 m -2.7 m/s 402.80 MHz Vercelli (IT) 0.00 km UNKNOWN
R0221051 RS41 2019-11-20 13:21:16 44.523 8.92934 1 ° 7 km/h 1184 m -12.4 m/s 402.80 MHz Serra Riccò (IT) 0.00 km UNKNOWN
R1840401 RS41 2019-11-20 02:09:35 44.2718 8.55664 129 ° 43 km/h 66 m -9.4 m/s 405.00 MHz Savona (IT) 0.00 km LOST
R0221053 RS41 2019-11-19 13:16:28 44.5069 7.91704 41 ° 9 km/h 435 m -5.8 m/s 402.801 MHz Fossano (IT) 0.00 km FOUND
R1840429 RS41 2019-11-19 01:21:59 44.878 7.77796 157 ° 13 km/h 590 m -7.8 m/s 402.800 MHz Carmagnola (IT) 0.00 km UNKNOWN
R0221056 RS41 2019-11-18 14:29:48 44.699 9.82921 278 ° 15 km/h 1019 m -2.8 m/s 405.00 MHz Salsomaggiore Terme (IT) 0.00 km UNKNOWN
R1840422 RS41 2019-11-18 01:53:35 44.0204 9.42758 51 ° 39 km/h 77 m -10.2 m/s 402.800 MHz Sestri Levante (IT) 0.00 km LOST
R1840423 RS41 2019-11-17 01:57:58 45.262 8.2095 279 ° 15 km/h 657 m -3.6 m/s 402.800 MHz Santhià (IT) 0.00 km FOUND
R0221018 RS41 2019-11-16 13:25:47 45.2147 9.49649 271 ° 17 km/h 1277 m -11.2 m/s 402.80 MHz Lodi (IT) 0.00 km FOUND
R1930237 RS41 2019-11-16 01:42:24 45.3321 9.09682 9 ° 30 km/h 1607 m -11.5 m/s 402.80 MHz Lacchiarella (IT) 0.00 km UNKNOWN
R1840564 RS41 2019-11-15 13:30:06 45.2498 9.14068 326 ° 17 km/h 498 m -14.4 m/s 402.800 MHz Pavia (IT) 0.00 km FOUND
R1840424 RS41 2019-11-15 01:39:29 45.5248 8.56658 297 ° 91 km/h 1056 m -10.0 m/s 402.800 MHz Cameri (IT) 0.00 km FOUND
R1840400 RS41 2019-11-14 13:24:50 44.7853 9.15234 271 ° 7 km/h 958 m -8.0 m/s 402.80 MHz Voghera (IT) 0.00 km UNKNOWN
R1930239 RS41 2019-11-14 01:53:27 44.0361 9.16106 65 ° 35 km/h 146 m -10.4 m/s 402.800 MHz Sestri Levante (IT) 0.00 km LOST
R1930238 RS41 2019-11-13 14:26:47 43.6833 9.45829 135 ° 22 km/h 319 m -3.5 m/s 402.80 MHz La Spezia (IT) 0.00 km LOST
R0221002 RS41 2019-11-13 02:29:01 43.8109 9.13342 242 ° 13 km/h 70 m -5.0 m/s 402.800 MHz Sestri Levante (IT) 0.00 km LOST
R0220999 RS41 2019-11-12 13:45:35 44.3791 8.45277 166 ° 59 km/h 463 m -6.3 m/s 402.80 MHz Savona (IT) 0.00 km UNKNOWN
R0220997 RS41 2019-11-12 02:57:29 44.473 8.5492 159 ° 28 km/h 1252 m -1.7 m/s 402.800 MHz Cogoleto (IT) 0.00 km UNKNOWN
R1930233 RS41 2019-11-11 14:15:24 44.0353 8.09273 251 ° 46 km/h 1790 m -4.5 m/s 402.800 MHz Alassio (IT) 0.00 km UNKNOWN
R1930224 RS41 2019-11-11 02:02:19 43.9256 8.10694 233 ° 56 km/h 970 m -6.3 m/s 402.800 MHz Imperia (IT) 0.00 km UNKNOWN
R1930232 RS41 2019-11-10 13:55:10 44.4445 8.55035 175 ° 17 km/h 1305 m -3.4 m/s 402.800 MHz Varazze (IT) 0.00 km UNKNOWN
R1910501 RS41 2019-11-10 03:56:47 43.7915 8.88108 354 ° 4 km/h 84 m -12.5 m/s 402.800 MHz Finale Ligure (IT) 0.00 km LOST
R1930231 RS41 2019-11-09 12:58:53 44.1624 8.44149 84 ° 31 km/h 14648 m -10.8 m/s 402.800 MHz Finale Ligure (IT) 0.00 km LOST
R1910500 RS41 2019-11-09 02:31:20 44.4705 9.31875 37 ° 46 km/h 6561 m -2.2 m/s 402.80 MHz Rapallo (IT) 0.00 km UNKNOWN
R1930229 RS41 2019-11-08 13:28:13 45.0176 9.07628 199 ° 13 km/h 634 m -8.1 m/s 402.80 MHz Voghera (IT) 0.00 km UNKNOWN
R1930227 RS41 2019-11-08 02:14:27 45.8951 9.21327 309 ° 46 km/h 1685 m -3.4 m/s 402.80 MHz Mandello del Lario (IT) 0.00 km UNKNOWN
R1910502 RS41 2019-11-07 14:49:38 44.8852 10.7473 274 ° 15 km/h 140 m -2.2 m/s 402.80 MHz Novellara (IT) 0.00 km LOST
R1930225 RS41 2019-11-07 00:52:12 44.3005 8.56992 143 ° 130 km/h 29074 m 6.2 m/s 402.80 MHz Varazze (IT) 0.00 km LOST
R1910405 RS41 2019-11-06 15:24:11 44.1855 9.33962 205 ° 7 km/h 63 m -2.6 m/s 402.80 MHz Sestri Levante (IT) 0.00 km LOST
R1910499 RS41 2019-11-06 02:05:56 44.7113 9.74959 16 ° 52 km/h 885 m -8.0 m/s 402.80 MHz Salsomaggiore Terme (IT) 0.00 km UNKNOWN
R1910504 RS41 2019-11-05 14:25:23 45.7193 10.8641 5 ° 28 km/h 1569 m -10.7 m/s 402.80 MHz Ala (IT) 0.00 km UNKNOWN
R1930226 RS41 2019-11-05 01:45:56 44.9558 10.3914 298 ° 24 km/h 90 m -6.3 m/s 402.80 MHz Colorno (IT) 0.00 km UNKNOWN
R1910413 RS41 2019-11-04 13:47:53 44.3693 10.9971 57 ° 15 km/h 690 m -3.8 m/s 402.80 MHz Savignano sul Panaro (IT) 0.00 km UNKNOWN
R1910399 RS41 2019-11-04 01:55:20 44.2046 10.101 127 ° 43 km/h 2016 m -6.1 m/s 402.80 MHz Fivizzano (IT) 0.00 km UNKNOWN
R1910467 RS41 2019-11-03 13:48:37 45.4594 9.76225 300 ° 43 km/h 520 m -5.8 m/s 405.000 MHz Romano di Lombardia (IT) 0.00 km FOUND
R1910398 RS41 2019-11-03 02:56:39 45.3293 10.3696 267 ° 15 km/h 166 m -2.7 m/s 402.80 MHz Calvisano (IT) 0.00 km UNKNOWN
R1910411 RS41 2019-11-02 13:33:57 44.9565 9.45358 303 ° 2 km/h 589 m -11.8 m/s 402.800 MHz Borgonovo Val Tidone (IT) 0.00 km FOUND
P2940191 RS41 2019-11-02 02:46:01 44.5538 10.1848 334 ° 2 km/h 946 m -5.7 m/s 402.800 MHz Langhirano (IT) 0.00 km UNKNOWN
P2940165 RS41 2019-11-01 13:58:34 43.854 8.96758 181 ° 7 km/h 336 m -9.6 m/s 405.00 MHz Santa Margherita Ligure (IT) 0.00 km LOST
P2940192 RS41 2019-11-01 02:32:57 43.8269 8.52247 198 ° 50 km/h 722 m -3.1 m/s 402.800 MHz Alassio (IT) 0.00 km LOST
P2940177 RS41 2019-10-31 13:50:59 44.383 9.07415 30 ° 0 km/h 320 m -4.4 m/s 402.80 MHz Recco (IT) 0.00 km UNKNOWN
P2940166 RS41 2019-10-31 01:44:01 43.8767 8.88076 173 ° 6 km/h 710 m -3.2 m/s 402.800 MHz Finale Ligure (IT) 0.00 km LOST
P2940178 RS41 2019-10-30 13:25:34 44.1686 9.06674 305 ° 17 km/h 72 m -10.4 m/s 402.800 MHz Santa Margherita Ligure (IT) 0.00 km LOST
P2940179 RS41 2019-10-30 01:46:03 44.4565 9.20349 72 ° 9 km/h 2160 m -13.2 m/s 402.800 MHz Recco (IT) 0.00 km UNKNOWN
P2940190 RS41 2019-10-29 13:27:08 44.5842 9.32653 37 ° 22 km/h 1403 m -8.9 m/s 402.800 MHz Rapallo (IT) 0.00 km UNKNOWN
P2940189 RS41 2019-10-29 02:15:56 44.6852 9.4985 75 ° 6 km/h 1145 m -4.9 m/s 402.800 MHz Podenzano (IT) 0.00 km FOUND
P2940180 RS41 2019-10-28 13:26:53 44.4342 8.84253 298 ° 22 km/h 188 m -6.9 m/s 402.80 MHz Genoa (IT) 0.00 km UNKNOWN
P2930638 RS41 2019-10-28 01:22:56 44.3819 8.25665 354 ° 6 km/h 462 m -4.1 m/s 402.800 MHz Cairo Montenotte (IT) 0.00 km UNKNOWN
P2940193 RS41 2019-10-27 14:58:26 44.2853 8.7402 44 ° 6 km/h 97 m -2.2 m/s 402.80 MHz Cogoleto (IT) 0.00 km LOST
P2940407 RS41 2019-10-27 00:38:56 44.41 8.04832 319 ° 7 km/h 708 m -11.5 m/s 402.80 MHz Monesiglio (IT) 0.00 km FOUND
P2940406 RS41 2019-10-26 12:58:28 44.475 7.89552 155 ° 7 km/h 767 m -4.0 m/s 402.80 MHz Mondovì (IT) 0.00 km FOUND
P2940408 RS41 2019-10-26 00:54:57 44.4605 8.4156 175 ° 28 km/h 839 m -5.4 m/s 402.80 MHz Cairo Montenotte (IT) 0.00 km UNKNOWN
P2940198 RS41 2019-10-25 00:44:25 44.8626 8.79318 166 ° 13 km/h 221 m -5.9 m/s 402.80 MHz Tortona (IT) 0.00 km FOUND
P2940167 RS41 2019-10-24 12:47:00 45.77 8.47486 305 ° 22 km/h 2498 m -3.8 m/s 402.800 MHz Arona (IT) 0.00 km LOST
P2940184 RS41 2019-10-23 12:26:40 45.4049 8.81783 243 ° 11 km/h 942 m -11.9 m/s 402.800 MHz Trecate (IT) 0.00 km LOST
P2940168 RS41 2019-10-23 01:05:34 45.4655 8.59341 275 ° 28 km/h 1595 m -4.7 m/s 405.000 MHz Novara (IT) 0.00 km LOST
P2940394 RS41 2019-10-22 13:27:26 45.7129 9.03549 297 ° 24 km/h 1473 m -2.1 m/s 402.800 MHz Lomazzo (IT) 0.00 km FOUND
P2940474 RS41 2019-10-22 00:51:34 45.336 9.06031 262 ° 17 km/h 210 m -4.8 m/s 402.80 MHz Casorate Primo (IT) 0.00 km UNKNOWN
P2940393 RS41 2019-10-21 13:05:03 45.9158 9.24739 331 ° 39 km/h 1685 m -2.5 m/s 402.80 MHz Mandello del Lario (IT) 0.00 km UNKNOWN
P2940188 RS41 2019-10-21 01:41:28 46.0591 9.89894 33 ° 46 km/h 3010 m -6.1 m/s 402.80 MHz Sondrio (IT) 0.00 km UNKNOWN
P2940395 RS41 2019-10-20 13:00:43 45.8477 9.45174 291 ° 48 km/h 1331 m -3.7 m/s 402.80 MHz Lecco (IT) 0.00 km UNKNOWN
P2940195 RS41 2019-10-20 00:54:08 45.1463 9.61745 42 ° 70 km/h 3834 m -8.9 m/s 405.000 MHz Casalpusterlengo (IT) 0.00 km UNKNOWN
P2940187 RS41 2019-10-19 01:10:31 44.7135 9.71579 176 ° 6 km/h 851 m -11.3 m/s 402.80 MHz Carpaneto Piacentino (IT) 0.00 km UNKNOWN
P2940182 RS41 2019-10-18 12:12:40 44.8696 8.77344 202 ° 7 km/h 185 m -8.9 m/s 402.80 MHz Tortona (IT) 0.00 km FOUND
P2940196 RS41 2019-10-18 00:43:59 44.909 9.07352 344 ° 7 km/h 689 m -13.7 m/s 402.80 MHz Voghera (IT) 0.00 km UNKNOWN
P2940175 RS41 2019-10-17 12:26:25 44.7118 8.70854 279 ° 4 km/h 322 m -13.9 m/s 402.80 MHz Novi Ligure (IT) 0.00 km UNKNOWN
P2940176 RS41 2019-10-17 00:37:03 44.6604 8.48509 120 ° 4 km/h 421 m -8.8 m/s 402.80 MHz Acqui Terme (IT) 0.00 km UNKNOWN
P2940197 RS41 2019-10-16 12:41:00 44.2549 8.37573 252 ° 15 km/h 555 m -5.0 m/s 402.80 MHz Vado Ligure (IT) 0.00 km UNKNOWN
P2940183 RS41 2019-10-16 02:00:41 44.3556 9.42753 299 ° 19 km/h 531 m -2.0 m/s 402.80 MHz Lavagna (IT) 0.00 km UNKNOWN
P2940472 RS41 2019-10-15 13:01:07 45.4544 8.35173 24 ° 37 km/h 1701 m -11.4 m/s 402.80 MHz Vercelli (IT) 0.00 km LOST
P2940181 RS41 2019-10-15 01:49:28 45.6358 8.73042 275 ° 17 km/h 671 m -2.3 m/s 402.80 MHz Lonate Pozzolo (IT) 0.00 km LOST
P2940392 RS41 2019-10-14 12:33:23 45.0025 8.47398 256 ° 2 km/h 1056 m -7.9 m/s 402.80 MHz Valenza (IT) 0.00 km FOUND
P2940471 RS41 2019-10-14 01:03:34 44.859 8.35336 143 ° 13 km/h 603 m -4.4 m/s 402.80 MHz Nizza Monferrato (IT) 0.00 km UNKNOWN
P2940470 RS41 2019-10-13 12:30:14 45.1583 8.98276 35 ° 4 km/h 194 m -7.8 m/s 402.80 MHz Garlasco (IT) 0.00 km UNKNOWN
P2850518 RS41 2019-10-13 00:54:51 44.8949 9.19799 256 ° 6 km/h 642 m -11.7 m/s 402.800 MHz Voghera (IT) 0.00 km UNKNOWN
P2850519 RS41 2019-10-12 12:41:48 44.7949 9.30959 230 ° 9 km/h 1234 m -3.8 m/s 402.80 MHz Voghera (IT) 0.00 km FOUND
P2850520 RS41 2019-10-11 22:51:30 44.5475 7.80263 98 ° 26 km/h 2729 m -1.4 m/s 402.80 MHz Fossano (IT) 0.00 km UNKNOWN
P2850483 RS41 2019-10-11 13:44:36 44.2757 9.81362 71 ° 17 km/h 1993 m -2.4 m/s 402.80 MHz Bolano (IT) 0.00 km UNKNOWN
P2920936 RS41 2019-10-11 01:52:26 44.0902 9.82089 233 ° 17 km/h 758 m -2.0 m/s 402.80 MHz La Spezia (IT) 0.00 km UNKNOWN
P2850517 RS41 2019-10-10 12:12:33 44.1052 9.18776 293 ° 19 km/h 921 m -8.8 m/s 402.80 MHz Sestri Levante (IT) 0.00 km LOST
P2920990 RS41 2019-10-10 01:38:28 44.6761 10.5692 142 ° 11 km/h 236 m -3.4 m/s 402.80 MHz Cavriago (IT) 0.00 km FOUND
P2920987 RS41 2019-10-09 12:35:30 45.2198 9.87279 271 ° 20 km/h 158 m -5.0 m/s 402.80 MHz Soresina (IT) 0.00 km FOUND
P2850484 RS41 2019-10-09 01:18:37 44.8195 9.63076 26 ° 15 km/h 576 m -3.2 m/s 402.80 MHz Podenzano (IT) 0.00 km FOUND
P2920932 RS41 2019-10-08 13:21:16 44.0682 8.78901 38 ° 13 km/h 56 m -7.9 m/s 405.00 MHz Vado Ligure (IT) 0.00 km LOST
P2920934 RS41 2019-10-08 00:42:30 43.4575 8.00883 184 ° 152 km/h 11015 m -7.7 m/s 402.80 MHz San Remo (IT) 0.00 km LOST
P2920935 RS41 2019-10-07 12:08:56 43.0927 7.90649 178 ° 180 km/h 12911 m -6.7 m/s 402.80 MHz Bordighera (IT) 0.00 km LOST
P2920955 RS41 2019-10-07 01:24:49 43.7329 9.1098 239 ° 15 km/h 77 m -5.2 m/s 402.80 MHz Sestri Levante (IT) 0.00 km LOST
P2920960 RS41 2019-10-06 13:00:14 44.1946 9.51972 47 ° 2 km/h 590 m -4.3 m/s 402.80 MHz Sestri Levante (IT) 0.00 km LOST
P2920988 RS41 2019-10-06 00:48:39 44.2604 9.04141 227 ° 7 km/h 77 m -12.1 m/s 405.00 MHz Recco (IT) 0.00 km LOST
P2920931 RS41 2019-10-05 12:41:39 43.73 8.8445 313 ° 7 km/h 66 m -4.7 m/s 402.80 MHz Albenga (IT) 0.00 km LOST
P2920958 RS41 2019-10-05 00:44:01 43.687 9.22702 210 ° 15 km/h 93 m -4.1 m/s 402.80 MHz Sestri Levante (IT) 0.00 km LOST
P2930508 RS41 2019-10-04 12:12:28 43.8626 9.24951 341 ° 19 km/h 310 m -7.7 m/s 402.80 MHz Sestri Levante (IT) 0.00 km LOST
P2930506 RS41 2019-10-04 01:29:53 43.1919 9.35695 152 ° 41 km/h 3211 m -2.7 m/s 402.80 MHz Bastia (FR) 0.00 km LOST
P2920956 RS41 2019-10-03 12:50:06 42.8398 8.6267 161 ° 67 km/h 3463 m -4.5 m/s 402.80 MHz Calvi (FR) 0.00 km LOST
P2930449 RS41 2019-10-03 00:47:29 43.8464 8.82713 116 ° 24 km/h 471 m -6.3 m/s 402.80 MHz Finale Ligure (IT) 0.00 km LOST
P2920986 RS41 2019-10-02 04:30:18 45.4636 10.7619 310 ° 11 km/h 268 m -2.7 m/s 402.80 MHz Castelnuovo di Verona (IT) 0.00 km FOUND
P2930507 RS41 2019-10-01 12:43:20 44.949 9.15973 63 ° 6 km/h 735 m -11.8 m/s 402.80 MHz Voghera (IT) 0.00 km UNKNOWN
P2930505 RS41 2019-10-01 01:07:06 44.774 8.8504 341 ° 19 km/h 310 m -2.5 m/s 402.80 MHz Novi Ligure (IT) 0.00 km FOUND
P2920989 RS41 2019-09-30 12:40:10 44.325 9.14996 12 ° 4 km/h 193 m -6.4 m/s 402.80 MHz Recco (IT) 0.00 km UNKNOWN
P2930450 RS41 2019-09-30 01:24:59 44.1662 9.70355 27 ° 39 km/h 1127 m -5.8 m/s 402.80 MHz La Spezia (IT) 0.00 km UNKNOWN
P2920957 RS41 2019-09-29 14:05:16 44.8109 10.1641 42 ° 33 km/h 179 m -1.5 m/s 402.80 MHz Noceto (IT) 0.00 km UNKNOWN
P2920959 RS41 2019-09-29 01:18:21 44.2811 9.25953 303 ° 28 km/h 409 m -4.4 m/s 402.80 MHz Chiavari (IT) 0.00 km LOST
P2930448 RS41 2019-09-28 12:48:02 44.389 9.3036 331 ° 24 km/h 705 m -4.5 m/s 402.80 MHz Rapallo (IT) 0.00 km UNKNOWN
P2930447 RS41 2019-09-28 00:48:06 44.6756 9.33813 33 ° 39 km/h 1526 m -7.2 m/s 402.80 MHz Voghera (IT) 0.00 km UNKNOWN
P2930517 RS41 2019-09-27 13:09:40 44.6892 9.85899 35 ° 28 km/h 972 m -3.4 m/s 402.80 MHz Salsomaggiore Terme (IT) 0.00 km UNKNOWN
P2930503 RS41 2019-09-26 13:04:40 43.7101 8.9039 262 ° 17 km/h 1336 m -3.4 m/s 402.80 MHz Albenga (IT) 0.00 km LOST
P2930510 RS41 2019-09-25 23:42:26 44.093 8.7582 254 ° 24 km/h 54 m -4.3 m/s 402.80 MHz Vado Ligure (IT) 0.00 km LOST
P2930509 RS41 2019-09-25 12:52:02 44.5766 9.47133 69 ° 19 km/h 1614 m -4.4 m/s 402.80 MHz Lavagna (IT) 0.00 km FOUND
P2930501 RS41 2019-09-25 00:39:07 44.5844 9.41518 33 ° 30 km/h 1635 m -12.8 m/s 402.80 MHz Rapallo (IT) 0.00 km UNKNOWN
P2930502 RS41 2019-09-24 12:21:15 44.335 9.52751 16 ° 6 km/h 1047 m -5.6 m/s 402.80 MHz Sestri Levante (IT) 0.00 km FOUND
P2930266 RS41 2019-09-24 01:25:01 43.3713 9.58339 168 ° 33 km/h 1756 m -2.2 m/s 402.80 MHz Livorno (IT) 0.00 km LOST
P2930499 RS41 2019-09-23 13:09:50 43.738 10.301 107 ° 19 km/h 398 m -2.6 m/s 402.80 MHz Pisa (IT) 0.00 km UNKNOWN
P2930465 RS41 2019-09-23 01:27:55 45.1767 9.14651 330 ° 11 km/h 385 m -3.3 m/s 402.80 MHz Pavia (IT) 0.00 km UNKNOWN
P2930500 RS41 2019-09-22 12:27:40 44.847 8.55348 201 ° 6 km/h 242 m -10.1 m/s 402.80 MHz Alessandria (IT) 0.00 km FOUND
P2930009 RS41 2019-09-22 01:02:23 44.8798 8.57794 184 ° 7 km/h 394 m -4.8 m/s 402.80 MHz Alessandria (IT) 0.00 km UNKNOWN
P2930539 RS41 2019-09-21 12:11:00 44.6607 8.39071 210 ° 13 km/h 395 m -11.8 m/s 402.80 MHz Acqui Terme (IT) 0.00 km UNKNOWN
P2930268 RS41 2019-09-21 00:49:37 44.641 8.00664 215 ° 20 km/h 1170 m -14.6 m/s 402.80 MHz Alba (IT) 0.00 km FOUND
P2930538 RS41 2019-09-20 12:49:20 44.5352 7.72316 139 ° 9 km/h 877 m -3.0 m/s 402.80 MHz Fossano (IT) 0.00 km FOUND
P2850533 RS41 2019-09-20 01:30:59 44.2006 8.04177 170 ° 43 km/h 1756 m -3.1 m/s 402.80 MHz Loano (IT) 0.00 km UNKNOWN
P2930008 RS41 2019-09-19 12:51:52 44.3602 8.38573 158 ° 52 km/h 671 m -4.9 m/s 402.80 MHz Savona (IT) 0.00 km UNKNOWN
P2930267 RS41 2019-09-19 01:05:36 44.3216 8.28025 149 ° 6 km/h 860 m -7.4 m/s 405.00 MHz Cairo Montenotte (IT) 0.00 km UNKNOWN
P2930534 RS41 2019-09-18 12:21:12 44.5494 8.27599 337 ° 6 km/h 991 m -11.5 m/s 402.80 MHz Monesiglio (IT) 0.00 km UNKNOWN
P2930533 RS41 2019-09-18 02:02:20 44.5603 8.49746 242 ° 15 km/h 1511 m -1.5 m/s 405.00 MHz Acqui Terme (IT) 0.00 km UNKNOWN
P2930275 RS41 2019-09-17 12:21:22 44.51 7.98024 333 ° 4 km/h 993 m -8.9 m/s 402.80 MHz Monesiglio (IT) 0.00 km FOUND
P2930273 RS41 2019-09-17 01:01:17 44.3255 7.75996 178 ° 11 km/h 1606 m -4.0 m/s 402.80 MHz Mondovì (IT) 0.00 km FOUND
P2930271 RS41 2019-09-16 12:19:05 44.4394 7.93571 275 ° 11 km/h 861 m -11.8 m/s 402.80 MHz Mondovì (IT) 0.00 km FOUND
P2930537 RS41 2019-09-14 01:08:14 44.6793 7.96259 149 ° 6 km/h 1116 m -4.4 m/s 402.80 MHz Alba (IT) 0.00 km FOUND
P2930270 RS41 2019-09-13 12:13:52 44.5609 7.55234 101 ° 4 km/h 1589 m -6.7 m/s 402.80 MHz Busca (IT) 0.00 km FOUND
P2930531 RS41 2019-09-13 01:32:32 44.2232 7.40989 305 ° 6 km/h 2229 m -2.6 m/s 402.80 MHz Borgo San Dalmazzo (IT) 0.00 km FOUND
P2930265 RS41 2019-09-12 12:13:16 44.2204 7.24992 164 ° 31 km/h 3709 m -10.7 m/s 402.80 MHz Borgo San Dalmazzo (IT) 0.00 km UNKNOWN
P2940304 RS41 2019-09-12 01:24:53 43.7097 7.30038 170 ° 13 km/h 4982 m -2.2 m/s 402.80 MHz Villefranche-sur-Mer (FR) 0.00 km UNKNOWN
P2930528 RS41 2019-09-11 12:06:04 44.1448 7.40926 146 ° 33 km/h 5274 m -11.2 m/s 402.80 MHz Borgo San Dalmazzo (IT) 0.00 km UNKNOWN
P2920448 RS41 2019-09-11 00:47:57 44.6506 7.59832 238 ° 7 km/h 2680 m -5.2 m/s 402.80 MHz Savigliano (IT) 0.00 km UNKNOWN
P2930530 RS41 2019-09-10 12:36:34 44.9802 7.83427 304 ° 4 km/h 709 m -5.2 m/s 402.80 MHz Chieri (IT) 0.00 km UNKNOWN
P2930269 RS41 2019-09-10 00:27:41 44.7582 8.44509 75 ° 35 km/h 2981 m -12.0 m/s 402.80 MHz Nizza Monferrato (IT) 0.00 km UNKNOWN
P2930274 RS41 2019-09-09 12:13:22 44.5123 8.72636 30 ° 13 km/h 2445 m -12.8 m/s 402.80 MHz Arenzano (IT) 0.00 km UNKNOWN
P2940303 RS41 2019-09-09 00:34:12 44.1128 9.07041 143 ° 22 km/h 633 m -2.9 m/s 402.80 MHz Santa Margherita Ligure (IT) 0.00 km LOST
P2940305 RS41 2019-09-08 13:27:15 45.1786 9.38884 195 ° 9 km/h 1044 m -2.3 m/s 402.80 MHz Stradella (IT) 0.00 km UNKNOWN
P2930532 RS41 2019-09-08 00:39:13 44.6958 8.71617 308 ° 17 km/h 2354 m -6.3 m/s 402.80 MHz Ovada (IT) 0.00 km UNKNOWN
P2930535 RS41 2019-09-07 12:30:30 44.6037 8.66317 74 ° 13 km/h 3290 m -5.6 m/s 402.80 MHz Ovada (IT) 0.00 km UNKNOWN
P2930536 RS41 2019-09-07 00:39:18 44.2941 7.98791 165 ° 30 km/h 4663 m -13.5 m/s 402.80 MHz Mondovì (IT) 0.00 km FOUND
P2940306 RS41 2019-09-06 12:45:16 44.5954 7.96408 149 ° 20 km/h 930 m -3.6 m/s 402.80 MHz Cherasco (IT) 0.00 km FOUND
P2940302 RS41 2019-09-06 01:05:45 45.0316 7.98318 82 ° 13 km/h 674 m -2.0 m/s 402.80 MHz Chieri (IT) 0.00 km UNKNOWN
P2940295 RS41 2019-09-05 13:37:19 45.4565 8.81939 319 ° 11 km/h 384 m -2.3 m/s 402.80 MHz Magenta (IT) 0.00 km UNKNOWN
P2940318 RS41 2019-09-05 00:56:03 44.5969 8.04521 307 ° 6 km/h 913 m -6.3 m/s 402.80 MHz Alba (IT) 0.00 km FOUND
P2940316 RS41 2019-09-04 12:21:25 44.5765 7.8272 243 ° 6 km/h 910 m -9.5 m/s 402.80 MHz Fossano (IT) 0.00 km FOUND
P2940317 RS41 2019-09-04 00:40:30 44.409 7.67851 155 ° 2 km/h 929 m -5.9 m/s 402.80 MHz Cuneo (IT) 0.00 km FOUND
P2940066 RS41 2019-09-03 12:46:10 43.9795 7.48028 194 ° 33 km/h 4172 m -2.0 m/s 402.80 MHz Menton (FR) 0.00 km UNKNOWN
P2940296 RS41 2019-09-03 01:00:40 43.6959 7.54097 153 ° 39 km/h 4519 m -3.8 m/s 402.80 MHz Menton (FR) 0.00 km LOST
P2940315 RS41 2019-09-02 12:20:35 44.5121 7.93218 6 ° 4 km/h 1394 m -5.9 m/s 402.80 MHz Monesiglio (IT) 0.00 km FOUND
P2940064 RS41 2019-09-02 00:39:08 44.6218 8.01432 255 ° 6 km/h 1235 m -4.8 m/s 402.80 MHz Alba (IT) 0.00 km FOUND
P2940313 RS41 2019-09-01 12:26:12 44.5605 7.87159 290 ° 0 km/h 843 m -7.5 m/s 402.80 MHz Cherasco (IT) 0.00 km FOUND
P2940301 RS41 2019-09-01 00:38:13 44.4379 7.64821 154 ° 20 km/h 661 m -13.6 m/s 402.80 MHz Cuneo (IT) 0.00 km FOUND
P2940314 RS41 2019-08-31 12:36:41 44.6971 7.58595 133 ° 4 km/h 401 m -12.9 m/s 402.80 MHz Savigliano (IT) 0.00 km FOUND
P2940202 RS41 2019-08-31 00:26:28 44.5773 7.4676 351 ° 17 km/h 17773 m -17.8 m/s 402.80 MHz Busca (IT) 0.00 km FOUND
P2930641 RS41 2019-08-30 12:34:26 44.6064 7.69694 279 ° 7 km/h 971 m -4.6 m/s 402.80 MHz Fossano (IT) 0.00 km FOUND
P2940204 RS41 2019-08-30 01:13:17 44.4378 8.018 111 ° 7 km/h 790 m -5.1 m/s 402.80 MHz Monesiglio (IT) 0.00 km NEED ATTENTION
P2940201 RS41 2019-08-29 12:37:36 44.4718 7.95121 186 ° 6 km/h 758 m -6.3 m/s 402.80 MHz Monesiglio (IT) 0.00 km NEED ATTENTION
P2940203 RS41 2019-08-29 00:58:50 44.6501 8.01903 133 ° 6 km/h 871 m -5.9 m/s 402.80 MHz Alba (IT) 0.00 km UNKNOWN
P2940063 RS41 2019-08-28 12:43:20 44.7569 7.52204 45 ° 6 km/h 7815 m -9.9 m/s 405.00 MHz Saluzzo (IT) 0.00 km UNKNOWN
P2940062 RS41 2019-08-28 05:00:05 44.7959 7.55778 43 ° 50 km/h 14364 m -15.7 m/s 402.80 MHz Racconigi (IT) 0.00 km UNKNOWN
P2940061 RS41 2019-08-27 11:33:08 44.7671 7.9078 174 ° 13 km/h 27833 m 4.6 m/s 402.80 MHz Bra (IT) 0.00 km UNKNOWN
P2940069 RS41 2019-08-27 02:03:38 44.5532 8.46113 124 ° 2 km/h 2535 m -2.2 m/s 402.80 MHz Acqui Terme (IT) 0.00 km UNKNOWN
P2940241 RS41 2019-08-26 12:21:33 44.6082 7.77433 98 ° 33 km/h 10644 m -5.6 m/s 405.00 MHz Fossano (IT) 0.00 km FOUND
P2940586 RS41 2019-08-26 00:51:16 44.4728 7.54001 206 ° 9 km/h 2267 m -7.1 m/s 402.80 MHz Busca (IT) 0.00 km FOUND
P2940068 RS41 2019-08-25 12:45:59 44.4984 7.63032 153 ° 17 km/h 6065 m -4.2 m/s 402.80 MHz Fossano (IT) 0.00 km FOUND
P2940617 RS41 2019-08-25 01:01:42 44.3368 7.56882 220 ° 26 km/h 3629 m -7.3 m/s 402.80 MHz Boves (IT) 0.00 km FOUND
P2930826 RS41 2019-08-24 12:28:46 44.3764 7.53298 209 ° 19 km/h 3853 m -5.6 m/s 402.80 MHz Cuneo (IT) 0.00 km FOUND
P2930825 RS41 2019-08-24 00:42:46 44.2611 7.4824 201 ° 33 km/h 5099 m -12.4 m/s 402.80 MHz Borgo San Dalmazzo (IT) 0.00 km UNKNOWN
P2940057 RS41 2019-08-23 12:15:13 44.3854 7.46388 180 ° 22 km/h 2186 m -9.4 m/s 402.80 MHz Borgo San Dalmazzo (IT) 0.00 km NEED ATTENTION
P2940060 RS41 2019-08-23 00:35:46 44.5306 7.44696 118 ° 30 km/h 12653 m -7.4 m/s 405.00 MHz Busca (IT) 0.00 km FOUND
P2940056 RS41 2019-08-22 13:04:58 44.859 7.62299 328 ° 7 km/h 650 m -3.5 m/s 402.80 MHz Carignano (IT) 0.00 km UNKNOWN
P2930824 RS41 2019-08-22 00:39:34 44.9428 8.08844 164 ° 11 km/h 327 m -6.1 m/s 402.80 MHz Asti (IT) 0.00 km FOUND
P2940059 RS41 2019-08-21 13:00:00 45.055 8.60623 325 ° 11 km/h 1324 m -3.1 m/s 402.80 MHz Valenza (IT) 0.00 km UNKNOWN
P2940058 RS41 2019-08-21 01:26:05 45.4768 8.72084 184 ° 46 km/h 320 m -4.0 m/s 402.80 MHz Galliate (IT) 0.00 km FOUND
P2930827 RS41 2019-08-20 12:33:22 45.363 8.67309 310 ° 11 km/h 543 m -13.2 m/s 402.80 MHz Trecate (IT) 0.00 km FOUND
P2930828 RS41 2019-08-20 01:42:29 45.2015 9.16258 134 ° 7 km/h 206 m -3.2 m/s 402.80 MHz Pavia (IT) 0.00 km UNKNOWN
P2940065 RS41 2019-08-19 12:18:38 44.9313 8.66444 338 ° 7 km/h 1276 m -6.5 m/s 402.80 MHz Alessandria (IT) 0.00 km UNKNOWN
P2940070 RS41 2019-08-19 00:48:41 44.9391 8.37353 23 ° 9 km/h 290 m -6.2 m/s 402.80 MHz Asti (IT) 0.00 km UNKNOWN
P2940584 RS41 2019-08-18 13:08:04 45.4367 8.36041 315 ° 9 km/h 776 m -5.1 m/s 402.80 MHz Vercelli (IT) 0.00 km UNKNOWN
P2940618 RS41 2019-08-18 00:41:45 44.6472 8.07429 71 ° 6 km/h 747 m -8.1 m/s 402.80 MHz Alba (IT) 0.00 km UNKNOWN
P2940242 RS41 2019-08-17 13:13:01 44.1551 8.47147 14 ° 13 km/h 110 m -2.6 m/s 402.80 MHz Finale Ligure (IT) 0.00 km LOST
P2930594 RS41 2019-08-17 00:48:13 44.11 8.00606 286 ° 7 km/h 1063 m -11.4 m/s 402.80 MHz Alassio (IT) 0.00 km UNKNOWN
P2930592 RS41 2019-08-16 12:24:35 44.0662 7.99238 96 ° 19 km/h 2478 m -11.4 m/s 402.80 MHz Alassio (IT) 0.00 km UNKNOWN
P2930590 RS41 2019-08-16 00:59:56 44.0236 8.67182 236 ° 9 km/h 697 m -4.6 m/s 402.80 MHz Finale Ligure (IT) 0.00 km LOST
P2930593 RS41 2019-08-15 12:30:17 44.1955 8.8528 109 ° 24 km/h 2984 m -6.3 m/s 402.80 MHz Genoa (IT) 0.00 km LOST
P2940598 RS41 2019-08-15 01:50:40 43.7059 8.46605 117 ° 11 km/h 265 m -1.8 m/s 402.80 MHz Imperia (IT) 0.00 km LOST
P2940588 RS41 2019-08-14 12:34:43 44.3832 8.38764 181 ° 31 km/h 1374 m -9.9 m/s 402.80 MHz Cairo Montenotte (IT) 0.00 km UNKNOWN
P2940616 RS41 2019-08-14 00:52:41 44.4877 8.04392 152 ° 11 km/h 1060 m -6.5 m/s 402.80 MHz Monesiglio (IT) 0.00 km FOUND
P2940072 RS41 2019-08-13 12:24:11 45.328 8.58289 176 ° 22 km/h 803 m -11.4 m/s 402.80 MHz Vercelli (IT) 0.00 km UNKNOWN
P2940067 RS41 2019-08-13 01:37:18 45.6698 9.16844 198 ° 15 km/h 468 m -2.1 m/s 402.80 MHz Meda (IT) 0.00 km LOST
P2930591 RS41 2019-08-12 12:48:34 45.9726 8.81685 261 ° 19 km/h 1378 m -4.6 m/s 402.80 MHz Luino (IT) 0.00 km LOST
P2930415 RS41 2019-08-12 01:22:12 45.698 8.59757 278 ° 13 km/h 473 m -3.2 m/s 402.80 MHz Castelletto sopra Ticino (IT) 0.00 km LOST
P2930475 RS41 2019-08-11 13:25:54 45.699 8.59741 301 ° 19 km/h 567 m -2.4 m/s 402.80 MHz Castelletto sopra Ticino (IT) 0.00 km LOST
P2930416 RS41 2019-08-11 00:40:59 45.0209 8.23815 69 ° 35 km/h 3448 m -15.4 m/s 402.80 MHz Asti (IT) 0.00 km UNKNOWN
P2930425 RS41 2019-08-10 13:43:19 45.3411 9.17683 57 ° 26 km/h 1066 m -3.4 m/s 402.80 MHz Locate di Triulzi (IT) 0.00 km FOUND
P2930426 RS41 2019-08-10 01:01:44 44.8313 8.32914 71 ° 9 km/h 401 m -4.8 m/s 402.80 MHz Nizza Monferrato (IT) 0.00 km UNKNOWN
P2930464 RS41 2019-08-09 13:04:57 44.5007 8.46216 84 ° 7 km/h 2062 m -4.9 m/s 402.80 MHz Varazze (IT) 0.00 km UNKNOWN
P2930520 RS41 2019-08-09 01:12:33 44.2652 8.199 155 ° 7 km/h 1171 m -4.2 m/s 402.80 MHz Pietra Ligure (IT) 0.00 km UNKNOWN
P2930522 RS41 2019-08-08 13:07:56 44.4866 8.57807 6 ° 4 km/h 1379 m -2.0 m/s 402.80 MHz Cogoleto (IT) 0.00 km UNKNOWN
P2930476 RS41 2019-08-08 00:54:35 44.549 8.24055 332 ° 2 km/h 1631 m -13.1 m/s 402.80 MHz Monesiglio (IT) 0.00 km UNKNOWN
P2930521 RS41 2019-08-07 12:43:32 45.0796 8.99231 12 ° 31 km/h 1693 m -4.4 m/s 402.80 MHz Garlasco (IT) 0.00 km UNKNOWN
P2930576 RS41 2019-08-07 00:50:41 44.5691 8.22049 357 ° 17 km/h 1138 m -4.5 m/s 402.80 MHz Monesiglio (IT) 0.00 km UNKNOWN
P2930421 RS41 2019-08-06 12:30:25 44.6674 8.28643 359 ° 17 km/h 671 m -12.5 m/s 402.80 MHz Canelli (IT) 0.00 km UNKNOWN
P2921056 RS41 2019-08-06 01:34:59 44.5469 8.46781 19 ° 17 km/h 887 m -2.6 m/s 402.80 MHz Acqui Terme (IT) 0.00 km UNKNOWN
P2930422 RS41 2019-08-05 12:31:00 44.2564 8.25236 223 ° 4 km/h 920 m -9.9 m/s 402.80 MHz Finale Ligure (IT) 0.00 km UNKNOWN
P2930424 RS41 2019-08-05 00:45:14 44.3516 8.21525 355 ° 7 km/h 705 m -11.9 m/s 402.80 MHz Cairo Montenotte (IT) 0.00 km UNKNOWN
P2921055 RS41 2019-08-04 12:45:49 44.22 8.50193 338 ° 7 km/h 68 m -2.8 m/s 405.00 MHz Vado Ligure (IT) 0.00 km LOST
P2921053 RS41 2019-08-04 01:13:44 44.4308 8.846 162 ° 7 km/h 356 m -4.0 m/s 402.80 MHz Genoa (IT) 0.00 km UNKNOWN
P2921054 RS41 2019-08-03 12:20:12 44.3067 8.4888 291 ° 13 km/h 66 m -8.6 m/s 402.80 MHz Savona (IT) 0.00 km UNKNOWN
P2921051 RS41 2019-08-03 00:43:20 44.2645 8.28938 182 ° 15 km/h 1671 m -5.6 m/s 402.80 MHz Finale Ligure (IT) 0.00 km UNKNOWN
P2921052 RS41 2019-08-02 12:20:46 44.6861 8.89329 114 ° 24 km/h 2365 m -4.8 m/s 402.80 MHz Novi Ligure (IT) 0.00 km UNKNOWN
P2940480 RS41 2019-08-02 00:40:17 44.8648 8.51233 360 ° 11 km/h 1284 m -4.6 m/s 402.80 MHz Alessandria (IT) 0.00 km UNKNOWN
P2930386 RS41 2019-08-01 12:05:03 44.7164 8.55715 96 ° 65 km/h 3429 m -11.4 m/s 402.80 MHz Acqui Terme (IT) 0.00 km UNKNOWN
P2940479 RS41 2019-08-01 00:40:47 44.6256 8.46378 58 ° 28 km/h 3144 m -11.3 m/s 402.80 MHz Acqui Terme (IT) 0.00 km UNKNOWN
P2940528 RS41 2019-07-31 12:26:50 44.7077 8.37362 109 ° 37 km/h 3206 m -11.7 m/s 402.80 MHz Canelli (IT) 0.00 km UNKNOWN
P2940476 RS41 2019-07-31 01:12:32 45.1021 8.35679 301 ° 17 km/h 1465 m -4.0 m/s 402.80 MHz Casale Monferrato (IT) 0.00 km UNKNOWN
P2940478 RS41 2019-07-30 00:49:08 44.6641 7.6915 152 ° 7 km/h 624 m -5.2 m/s 402.80 MHz Savigliano (IT) 0.00 km UNKNOWN
P2940477 RS41 2019-07-29 12:00:28 44.4751 7.6629 116 ° 50 km/h 10070 m -16.7 m/s 405.00 MHz Fossano (IT) 0.00 km FOUND
P2930418 RS41 2019-07-29 00:39:51 44.1689 8.15217 14 ° 9 km/h 1090 m -6.8 m/s 402.80 MHz Loano (IT) 0.00 km UNKNOWN
P2940344 RS41 2019-07-28 13:07:10 44.408 7.50338 100 ° 11 km/h 1788 m -3.8 m/s 402.80 MHz Cuneo (IT) 0.00 km FOUND
P2940527 RS41 2019-07-28 01:42:04 44.9402 7.33245 220 ° 20 km/h 2010 m -7.7 m/s 402.80 MHz Cumiana (IT) 0.00 km UNKNOWN
P2930417 RS41 2019-07-27 12:32:32 44.9467 7.55207 19 ° 9 km/h 482 m -3.6 m/s 402.80 MHz None (IT) 0.00 km UNKNOWN
P2940526 RS41 2019-07-27 00:42:26 44.8951 7.89273 294 ° 15 km/h 884 m -3.8 m/s 402.80 MHz Poirino (IT) 0.00 km UNKNOWN
P2940525 RS41 2019-07-26 12:14:52 44.8033 7.34718 335 ° 11 km/h 1006 m -14.0 m/s 402.80 MHz Barge (IT) 0.00 km FOUND
P2930419 RS41 2019-07-26 01:07:11 44.7701 7.08566 4 ° 7 km/h 2977 m -4.6 m/s 402.80 MHz Barge (IT) 0.00 km UNKNOWN
P2930420 RS41 2019-07-25 12:37:43 44.7817 7.07537 297 ° 9 km/h 2541 m -5.5 m/s 402.80 MHz Barge (IT) 0.00 km UNKNOWN
P2930575 RS41 2019-07-25 00:41:29 44.6468 7.01336 300 ° 24 km/h 3064 m -11.9 m/s 402.80 MHz Barge (IT) 0.00 km UNKNOWN
P2940351 RS41 2019-07-24 01:21:25 44.728 7.10413 190 ° 11 km/h 2583 m -2.6 m/s 402.80 MHz Barge (IT) 0.00 km UNKNOWN
P2940352 RS41 2019-07-23 12:04:36 44.5945 7.07337 323 ° 15 km/h 2188 m -13.7 m/s 402.80 MHz Barge (IT) 0.00 km UNKNOWN
P2940353 RS41 2019-07-23 00:54:46 44.4261 6.82681 286 ° 4 km/h 3859 m -4.8 m/s 402.80 MHz Embrun (FR) 0.00 km UNKNOWN
P2850456 RS41 2019-07-22 12:22:36 44.31 7.08783 335 ° 17 km/h 2156 m -9.3 m/s 405.00 MHz Borgo San Dalmazzo (IT) 0.00 km UNKNOWN
P2850455 RS41 2019-07-22 01:31:13 44.172 7.75026 142 ° 19 km/h 2490 m -2.8 m/s 402.80 MHz Boves (IT) 0.00 km UNKNOWN
P2850464 RS41 2019-07-21 13:38:17 44.2283 8.22983 15 ° 13 km/h 1297 m -2.3 m/s 402.80 MHz Pietra Ligure (IT) 0.00 km UNKNOWN
P2850465 RS41 2019-07-21 01:22:11 44.4309 8.06181 154 ° 13 km/h 1071 m -3.1 m/s 402.80 MHz Monesiglio (IT) 0.00 km FOUND
P2850492 RS41 2019-07-20 12:52:16 44.6694 8.39982 349 ° 20 km/h 1164 m -2.9 m/s 402.80 MHz Acqui Terme (IT) 0.00 km UNKNOWN
P2850463 RS41 2019-07-20 00:56:33 44.4336 7.84245 137 ° 9 km/h 768 m -5.3 m/s 405.00 MHz Mondovì (IT) 0.00 km FOUND
P2850466 RS41 2019-07-19 12:19:32 44.1659 7.85467 306 ° 9 km/h 2477 m -1.6 m/s 402.80 MHz Mondovì (IT) 0.00 km UNKNOWN
P2850498 RS41 2019-07-19 00:42:46 44.1089 7.69773 122 ° 2 km/h 2698 m -8.0 m/s 402.80 MHz Boves (IT) 0.00 km UNKNOWN
P2850496 RS41 2019-07-18 12:38:11 44.0149 7.77827 128 ° 15 km/h 3364 m -10.4 m/s 402.80 MHz Taggia (IT) 0.00 km UNKNOWN
P2850497 RS41 2019-07-18 01:16:06 44.2698 7.80117 116 ° 9 km/h 2017 m -3.9 m/s 402.80 MHz Mondovì (IT) 0.00 km FOUND
P2850454 RS41 2019-07-17 11:39:37 44.3521 8.33479 334 ° 28 km/h 1253 m -6.7 m/s 402.80 MHz Cairo Montenotte (IT) 0.00 km UNKNOWN
P2850502 RS41 2019-07-17 01:03:19 44.3047 7.84537 193 ° 2 km/h 1502 m -5.3 m/s 402.80 MHz Mondovì (IT) 0.00 km FOUND
P2850501 RS41 2019-07-16 12:14:40 44.1122 7.69 146 ° 37 km/h 3678 m -13.1 m/s 402.80 MHz Boves (IT) 0.00 km UNKNOWN
P2850500 RS41 2019-07-16 00:55:25 43.7298 7.19885 182 ° 109 km/h 11064 m -4.2 m/s 402.80 MHz La Gaude (FR) 0.00 km UNKNOWN
P2850452 RS41 2019-07-15 13:31:12 44.2197 7.65674 215 ° 52 km/h 4201 m -5.0 m/s 402.80 MHz Boves (IT) 0.00 km UNKNOWN
P2850468 RS41 2019-07-15 01:38:30 44.1389 8.7436 252 ° 13 km/h 60 m -3.3 m/s 402.80 MHz Varazze (IT) 0.00 km LOST
P2850499 RS41 2019-07-14 13:43:57 43.9932 8.78962 322 ° 7 km/h 71 m -2.3 m/s 402.80 MHz Finale Ligure (IT) 0.00 km LOST
P2850487 RS41 2019-07-14 00:45:52 43.8807 8.39423 176 ° 7 km/h 521 m -6.6 m/s 402.80 MHz Alassio (IT) 0.00 km LOST
P2850509 RS41 2019-07-13 12:41:29 43.7411 8.9593 234 ° 19 km/h 571 m -4.6 m/s 402.80 MHz Finale Ligure (IT) 0.00 km LOST
P2850491 RS41 2019-07-13 00:59:35 43.8719 8.77027 238 ° 19 km/h 281 m -7.2 m/s 402.80 MHz Finale Ligure (IT) 0.00 km LOST
P2850399 RS41 2019-07-12 12:56:49 43.5725 9.19572 1 ° 9 km/h 73 m -3.7 m/s 402.80 MHz La Spezia (IT) 0.00 km LOST
P2850510 RS41 2019-07-12 01:17:24 43.7101 9.00043 359 ° 26 km/h 68 m -8.2 m/s 402.80 MHz Sestri Levante (IT) 0.00 km LOST
P2850508 RS41 2019-07-11 13:29:53 43.7986 8.89214 3 ° 11 km/h 365 m -2.7 m/s 402.80 MHz Finale Ligure (IT) 0.00 km LOST
P2850488 RS41 2019-07-11 00:56:57 44.0825 8.12087 254 ° 13 km/h 1104 m -3.4 m/s 405.00 MHz Albenga (IT) 0.00 km UNKNOWN
P2850490 RS41 2019-07-10 13:15:45 43.8707 8.30378 215 ° 37 km/h 157 m -3.6 m/s 402.80 MHz Alassio (IT) 0.00 km LOST
P2850489 RS41 2019-07-10 00:44:13 44.3324 7.46546 162 ° 7 km/h 1526 m -8.8 m/s 402.80 MHz Borgo San Dalmazzo (IT) 0.00 km UNKNOWN
P2850503 RS41 2019-07-09 12:15:04 44.6643 8.01113 76 ° 46 km/h 1291 m -6.1 m/s 405.00 MHz Alba (IT) 0.00 km UNKNOWN
P2850467 RS41 2019-07-09 00:47:15 44.6641 8.23334 5 ° 30 km/h 706 m -11.0 m/s 402.80 MHz Canelli (IT) 0.00 km UNKNOWN
P2850506 RS41 2019-07-08 12:47:44 44.734 9.03046 84 ° 24 km/h 2338 m -3.4 m/s 402.80 MHz Novi Ligure (IT) 0.00 km UNKNOWN
P2850507 RS41 2019-07-08 00:19:38 44.4398 8.8419 222 ° 2 km/h 272 m -3.8 m/s 402.80 MHz Genoa (IT) 0.00 km UNKNOWN
P2850505 RS41 2019-07-07 12:23:08 44.67 8.84627 77 ° 24 km/h 1875 m -10.9 m/s 402.80 MHz Novi Ligure (IT) 0.00 km UNKNOWN
P2850594 RS41 2019-07-07 01:01:37 44.615 8.32384 11 ° 26 km/h 684 m -5.8 m/s 402.80 MHz Canelli (IT) 0.00 km UNKNOWN
P2850495 RS41 2019-07-06 12:55:08 44.6481 8.48739 345 ° 20 km/h 1100 m -4.5 m/s 402.80 MHz Acqui Terme (IT) 0.00 km UNKNOWN
P2850494 RS41 2019-07-06 00:33:52 44.4956 8.32636 353 ° 19 km/h 842 m -6.4 m/s 402.80 MHz Cairo Montenotte (IT) 0.00 km UNKNOWN
P2850504 RS41 2019-07-05 12:24:24 44.3228 8.04801 294 ° 6 km/h 1097 m -14.5 m/s 402.80 MHz Monesiglio (IT) 0.00 km UNKNOWN
P2930285 RS41 2019-07-05 01:23:18 44.4128 8.12318 86 ° 2 km/h 1126 m -3.8 m/s 402.80 MHz Monesiglio (IT) 0.00 km UNKNOWN
P2930286 RS41 2019-07-04 12:10:07 44.5179 8.03395 75 ° 2 km/h 1696 m -5.3 m/s 402.80 MHz Monesiglio (IT) 0.00 km FOUND
P2850493 RS41 2019-07-04 00:47:12 44.5835 7.83292 139 ° 9 km/h 808 m -6.2 m/s 402.80 MHz Cherasco (IT) 0.00 km FOUND
P2930288 RS41 2019-07-03 12:40:24 44.6987 8.04825 277 ° 4 km/h 1066 m -6.0 m/s 402.80 MHz Alba (IT) 0.00 km FOUND
P2930289 RS41 2019-07-03 00:42:56 44.764 7.78485 141 ° 19 km/h 439 m -7.2 m/s 402.80 MHz Racconigi (IT) 0.00 km UNKNOWN
P2940345 RS41 2019-07-02 12:35:08 44.7931 7.79515 271 ° 6 km/h 985 m -5.2 m/s 402.80 MHz Carmagnola (IT) 0.00 km UNKNOWN
P2940484 RS41 2019-07-02 00:41:24 44.6131 8.0842 204 ° 33 km/h 1461 m -5.7 m/s 402.80 MHz Alba (IT) 0.00 km UNKNOWN
P2940346 RS41 2019-07-01 12:35:19 44.5203 7.69504 269 ° 4 km/h 1054 m -4.9 m/s 402.80 MHz Fossano (IT) 0.00 km FOUND
P2940405 RS41 2019-07-01 00:45:27 44.5402 7.4608 160 ° 13 km/h 1008 m -8.4 m/s 402.80 MHz Busca (IT) 0.00 km UNKNOWN
P2940347 RS41 2019-06-30 13:36:54 44.4277 7.43668 197 ° 4 km/h 832 m -2.1 m/s 402.80 MHz Busca (IT) 0.00 km UNKNOWN
P2940485 RS41 2019-06-30 02:25:58 44.3267 6.76409 87 ° 11 km/h 3497 m -5.5 m/s 405.00 MHz Embrun (FR) 0.00 km UNKNOWN
P2930551 RS41 2019-06-29 13:43:28 44.1667 7.05043 56 ° 9 km/h 3350 m -4.0 m/s 402.80 MHz Borgo San Dalmazzo (IT) 0.00 km UNKNOWN
P2940482 RS41 2019-06-29 01:02:37 44.1358 7.1272 207 ° 9 km/h 3557 m -5.7 m/s 402.80 MHz Borgo San Dalmazzo (IT) 0.00 km UNKNOWN
P2930550 RS41 2019-06-28 12:27:09 44.2085 7.32253 176 ° 13 km/h 2544 m -6.0 m/s 402.80 MHz Borgo San Dalmazzo (IT) 0.00 km UNKNOWN
P2930549 RS41 2019-06-28 00:37:12 44.2867 7.0786 143 ° 6 km/h 2149 m -7.9 m/s 402.80 MHz Borgo San Dalmazzo (IT) 0.00 km UNKNOWN
P2930552 RS41 2019-06-27 12:15:42 44.3323 7.02104 251 ° 17 km/h 2669 m -11.2 m/s 402.80 MHz Borgo San Dalmazzo (IT) 0.00 km UNKNOWN
P2930513 RS41 2019-06-27 01:35:06 44.1184 6.62718 192 ° 24 km/h 4340 m -4.4 m/s 402.80 MHz Digne-les-Bains (FR) 0.00 km UNKNOWN
P2930387 RS41 2019-06-26 12:30:36 44.3229 7.11218 244 ° 11 km/h 2276 m -5.6 m/s 402.80 MHz Borgo San Dalmazzo (IT) 0.00 km UNKNOWN
P2940486 RS41 2019-06-26 00:47:21 44.3984 7.15975 142 ° 7 km/h 1993 m -5.1 m/s 402.80 MHz Borgo San Dalmazzo (IT) 0.00 km UNKNOWN
P2940404 RS41 2019-06-25 12:30:19 44.5384 7.31715 94 ° 9 km/h 2097 m -4.9 m/s 405.00 MHz Busca (IT) 0.00 km UNKNOWN
P2940403 RS41 2019-06-25 00:54:14 44.5601 7.42047 197 ° 2 km/h 1089 m -4.2 m/s 402.80 MHz Busca (IT) 0.00 km FOUND
P2940348 RS41 2019-06-24 12:17:51 44.503 7.55053 204 ° 9 km/h 919 m -3.8 m/s 402.80 MHz Busca (IT) 0.00 km FOUND
P2940483 RS41 2019-06-24 01:10:51 44.3742 7.86412 29 ° 7 km/h 833 m -3.9 m/s 402.80 MHz Mondovì (IT) 0.00 km FOUND
P2940349 RS41 2019-06-23 12:28:07 44.2435 7.95816 347 ° 15 km/h 1678 m -4.8 m/s 402.80 MHz Mondovì (IT) 0.00 km UNKNOWN
P2940464 RS41 2019-06-23 01:57:22 43.929 8.65827 41 ° 13 km/h 198 m -2.7 m/s 402.80 MHz Finale Ligure (IT) 0.00 km LOST
P2930548 RS41 2019-06-22 12:41:41 44.8092 7.97334 212 ° 17 km/h 855 m -5.4 m/s 402.80 MHz Alba (IT) 0.00 km UNKNOWN
P2930547 RS41 2019-06-22 00:45:07 44.9211 7.74663 138 ° 17 km/h 555 m -3.5 m/s 402.80 MHz Carignano (IT) 0.00 km UNKNOWN
P2940468 RS41 2019-06-21 12:48:06 45.1372 8.35181 286 ° 2 km/h 495 m -5.7 m/s 402.80 MHz Casale Monferrato (IT) 0.00 km UNKNOWN
P2930511 RS41 2019-06-21 01:01:52 44.9992 8.29062 166 ° 6 km/h 638 m -3.4 m/s 405.00 MHz Asti (IT) 0.00 km FOUND
P2940514 RS41 2019-06-20 12:50:53 44.8418 8.60182 350 ° 28 km/h 550 m -4.8 m/s 402.80 MHz Alessandria (IT) 0.00 km UNKNOWN
P2940516 RS41 2019-06-19 23:59:59 44.7124 8.12898 265 ° 22 km/h 30921 m 4.7 m/s 402.80 MHz Alba (IT) 0.00 km UNKNOWN
P2940467 RS41 2019-06-19 13:28:04 44.8214 8.53142 324 ° 13 km/h 806 m -2.0 m/s 402.80 MHz Alessandria (IT) 0.00 km UNKNOWN
P2940512 RS41 2019-06-19 00:44:37 44.7846 8.16501 248 ° 22 km/h 1041 m -5.3 m/s 402.80 MHz Canelli (IT) 0.00 km UNKNOWN
P2940515 RS41 2019-06-18 00:41:11 44.58 7.72834 210 ° 6 km/h 974 m -13.6 m/s 402.80 MHz Fossano (IT) 0.00 km FOUND
P2940466 RS41 2019-06-17 12:28:53 44.657 7.65134 167 ° 20 km/h 1173 m -7.9 m/s 402.80 MHz Savigliano (IT) 0.00 km FOUND
P2930515 RS41 2019-06-17 00:42:16 44.6568 7.6369 248 ° 4 km/h 1160 m -5.8 m/s 402.80 MHz Savigliano (IT) 0.00 km FOUND
P2940465 RS41 2019-06-16 12:37:16 44.6152 7.98627 246 ° 6 km/h 947 m -5.2 m/s 405.00 MHz Alba (IT) 0.00 km FOUND
P2940513 RS41 2019-06-16 00:49:44 44.7669 8.16238 147 ° 11 km/h 1132 m -6.2 m/s 402.80 MHz Canelli (IT) 0.00 km FOUND
P2940185 RS41 2019-06-15 12:52:41 45.2242 7.76159 326 ° 6 km/h 575 m -7.9 m/s 402.80 MHz Volpiano (IT) 0.00 km UNKNOWN
P2940186 RS41 2019-06-15 00:54:18 45.1982 7.84497 213 ° 9 km/h 1257 m -4.1 m/s 402.80 MHz Brandizzo (IT) 0.00 km NEED ATTENTION
P2940449 RS41 2019-06-14 12:29:35 45.3353 7.86975 221 ° 13 km/h 1005 m -10.1 m/s 402.80 MHz Vestignè (IT) 0.00 km NEED ATTENTION
P2940450 RS41 2019-06-14 02:08:18 45.5855 9.04179 244 ° 13 km/h 1008 m -1.8 m/s 402.80 MHz Lainate (IT) 0.00 km LOST
P2940448 RS41 2019-06-13 12:08:09 45.2279 8.37381 27 ° 22 km/h 2374 m -10.0 m/s 402.80 MHz Vercelli (IT) 0.00 km NEED ATTENTION
P2940447 RS41 2019-06-13 00:29:04 45.3929 8.09733 97 ° 6 km/h 1833 m -12.8 m/s 402.80 MHz Santhià (IT) 0.00 km UNKNOWN
P2940446 RS41 2019-06-12 12:00:53 45.4917 7.90143 24 ° 157 km/h 7985 m -8.6 m/s 404.00 MHz Ivrea (IT) 0.00 km UNKNOWN
P1520815 RS41 2019-06-12 00:37:49 45.593 7.52146 3 ° 128 km/h 6458 m -11.0 m/s 402.80 MHz Aosta (IT) 0.00 km UNKNOWN
P1441014 RS41 2019-06-11 12:07:17 45.3313 7.75856 17 ° 100 km/h 3745 m -12.9 m/s 405.00 MHz Rivarolo Canavese (IT) 0.00 km UNKNOWN
P1520822 RS41 2019-06-11 00:56:14 45.253 7.41712 316 ° 7 km/h 1604 m -6.6 m/s 402.80 MHz Ciriè (IT) 0.00 km UNKNOWN
P1520813 RS41 2019-06-10 12:34:06 45.6473 7.59841 29 ° 100 km/h 5479 m -4.5 m/s 402.80 MHz Aosta (IT) 0.00 km UNKNOWN
P1520851 RS41 2019-06-10 00:42:05 45.1301 7.72462 49 ° 13 km/h 390 m -13.1 m/s 402.80 MHz Settimo Torinese (IT) 0.00 km UNKNOWN
P1520821 RS41 2019-06-09 12:44:09 45.3587 8.14547 360 ° 30 km/h 2076 m -2.7 m/s 402.80 MHz Santhià (IT) 0.00 km UNKNOWN
P1450820 RS41 2019-06-09 01:05:16 45.0205 8.42358 232 ° 11 km/h 1697 m -3.8 m/s 402.80 MHz Casale Monferrato (IT) 0.00 km UNKNOWN
P1510061 RS41 2019-06-08 12:13:03 45.0793 8.36708 84 ° 37 km/h 2280 m -4.7 m/s 402.80 MHz Casale Monferrato (IT) 0.00 km UNKNOWN
P1520848 RS41 2019-06-08 00:53:53 45.428 8.52581 79 ° 7 km/h 1394 m -3.8 m/s 402.80 MHz Novara (IT) 0.00 km UNKNOWN
P1520814 RS41 2019-06-07 12:38:08 45.5782 8.71499 297 ° 13 km/h 1595 m -2.9 m/s 402.80 MHz Lonate Pozzolo (IT) 0.00 km FOUND
P1520842 RS41 2019-06-07 01:06:05 45.24 8.26403 13 ° 31 km/h 2744 m -4.2 m/s 402.80 MHz Crescentino (IT) 0.00 km UNKNOWN
P1520852 RS41 2019-06-06 12:05:30 45.0992 7.9386 8 ° 15 km/h 1701 m -8.8 m/s 402.80 MHz Gassino Torinese (IT) 0.00 km UNKNOWN
P1450833 RS41 2019-06-06 00:51:03 45.3114 7.71209 218 ° 19 km/h 761 m -5.0 m/s 402.80 MHz Rivarolo Canavese (IT) 0.00 km LOST
P1520836 RS41 2019-06-05 12:04:52 45.0387 7.38216 19 ° 67 km/h 5601 m -14.1 m/s 405.00 MHz Giaveno (IT) 0.00 km UNKNOWN
P1520847 RS41 2019-06-05 00:14:09 44.6369 7.45381 357 ° 26 km/h 14999 m -15.8 m/s 405.00 MHz Saluzzo (IT) 0.00 km FOUND
P1520825 RS41 2019-06-04 12:31:41 44.4865 7.61597 325 ° 19 km/h 1724 m -4.2 m/s 402.80 MHz Fossano (IT) 0.00 km FOUND
P1520824 RS41 2019-06-04 00:34:39 44.5084 7.47876 95 ° 17 km/h 6883 m -10.8 m/s 405.00 MHz Busca (IT) 0.00 km FOUND
P1520840 RS41 2019-06-03 12:07:25 44.4656 7.55739 143 ° 33 km/h 11599 m -6.7 m/s 405.00 MHz Busca (IT) 0.00 km FOUND
P1520846 RS41 2019-06-03 00:46:11 44.4799 7.44354 140 ° 24 km/h 6473 m -8.3 m/s 405.00 MHz Busca (IT) 0.00 km FOUND
P1520823 RS41 2019-06-02 11:52:49 44.2818 7.67657 219 ° 13 km/h 5688 m -3.9 m/s 402.80 MHz Boves (IT) 0.00 km FOUND
P1520844 RS41 2019-06-02 00:34:27 44.4257 7.34031 177 ° 24 km/h 9696 m -7.7 m/s 402.80 MHz Busca (IT) 0.00 km UNKNOWN
P1520849 RS41 2019-06-01 12:40:51 44.1644 7.15803 227 ° 31 km/h 5486 m -3.7 m/s 402.80 MHz Borgo San Dalmazzo (IT) 0.00 km UNKNOWN
P1520811 RS41 2019-06-01 01:18:15 43.9883 7.15299 183 ° 61 km/h 7444 m -3.1 m/s 402.80 MHz Contes (FR) 0.00 km UNKNOWN
P1520675 RS41 2019-05-31 12:23:27 44.0235 7.17472 213 ° 44 km/h 4350 m -7.3 m/s 402.80 MHz Contes (FR) 0.00 km UNKNOWN
P1520249 RS41 2019-05-31 01:19:19 43.8 7.27293 197 ° 35 km/h 4260 m -3.6 m/s 402.80 MHz Contes (FR) 0.00 km UNKNOWN
P1520845 RS41 2019-05-30 12:23:12 44.0589 7.62506 176 ° 31 km/h 3603 m -8.8 m/s 402.80 MHz San Remo (IT) 0.00 km UNKNOWN
P1520835 RS41 2019-05-30 01:07:40 43.98 7.76792 221 ° 24 km/h 3543 m -3.7 m/s 402.80 MHz Taggia (IT) 0.00 km UNKNOWN
P1520838 RS41 2019-05-29 12:46:53 44.1313 8.05773 196 ° 31 km/h 1758 m -1.8 m/s 402.80 MHz Albenga (IT) 0.00 km UNKNOWN
P1520839 RS41 2019-05-29 00:54:14 44.3938 8.26157 192 ° 63 km/h 2105 m -5.0 m/s 402.80 MHz Cairo Montenotte (IT) 0.00 km UNKNOWN
P1520252 RS41 2019-05-28 12:18:47 44.6829 8.38753 351 ° 26 km/h 1514 m -9.2 m/s 402.80 MHz Acqui Terme (IT) 0.00 km UNKNOWN
P1520246 RS41 2019-05-28 01:20:32 44.4492 8.28536 303 ° 4 km/h 446 m -3.3 m/s 402.80 MHz Cairo Montenotte (IT) 0.00 km UNKNOWN
P1520807 RS41 2019-05-27 13:02:14 44.4431 7.74377 116 ° 20 km/h 636 m -5.8 m/s 402.80 MHz Mondovì (IT) 0.00 km FOUND
P1520250 RS41 2019-05-25 12:34:23 44.5934 7.90187 114 ° 11 km/h 369 m -3.6 m/s 402.80 MHz Cherasco (IT) 0.00 km FOUND
P1520251 RS41 2019-05-25 01:05:06 44.5277 7.94448 332 ° 6 km/h 401 m -5.7 m/s 402.80 MHz Cherasco (IT) 0.00 km FOUND
P1450295 RS41 2019-05-24 12:14:31 44.583 7.82117 253 ° 7 km/h 889 m -7.9 m/s 405.00 MHz Fossano (IT) 0.00 km FOUND
P1520245 RS41 2019-05-24 00:52:02 44.3592 7.86538 141 ° 7 km/h 912 m -9.9 m/s 402.80 MHz Mondovì (IT) 0.00 km FOUND
P1520238 RS41 2019-05-23 12:02:16 44.1568 7.55432 199 ° 4 km/h 3000 m -5.8 m/s 402.80 MHz Boves (IT) 0.00 km FOUND
P1520236 RS41 2019-05-23 00:50:30 44.2282 7.67627 154 ° 17 km/h 3410 m -9.2 m/s 402.80 MHz Boves (IT) 0.00 km FOUND
P1520235 RS41 2019-05-22 12:45:25 44.2486 7.32792 61 ° 9 km/h 2847 m -5.5 m/s 405.00 MHz Borgo San Dalmazzo (IT) 0.00 km FOUND
P1520240 RS41 2019-05-22 01:33:15 44.3854 7.11266 52 ° 7 km/h 3920 m -11.4 m/s 405.00 MHz Borgo San Dalmazzo (IT) 0.00 km UNKNOWN
P1440337 RS41 2019-05-21 12:24:12 44.5407 7.37017 238 ° 6 km/h 1836 m -12.4 m/s 402.80 MHz Busca (IT) 0.00 km UNKNOWN
P1440396 RS41 2019-05-21 01:23:15 44.3637 7.15657 41 ° 6 km/h 2334 m -3.4 m/s 402.80 MHz Borgo San Dalmazzo (IT) 0.00 km UNKNOWN
P1440385 RS41 2019-05-20 12:29:16 44.3605 7.02458 113 ° 15 km/h 2780 m -8.2 m/s 402.80 MHz Borgo San Dalmazzo (IT) 0.00 km UNKNOWN
P1440390 RS41 2019-05-20 00:58:43 44.405 6.79936 202 ° 26 km/h 4225 m -12.2 m/s 402.80 MHz Embrun (FR) 0.00 km UNKNOWN
P1440392 RS41 2019-05-19 12:22:31 44.6742 6.91929 264 ° 7 km/h 3555 m -7.5 m/s 402.80 MHz Barge (IT) 0.00 km UNKNOWN
P1440395 RS41 2019-05-19 00:49:33 44.7042 7.01749 271 ° 20 km/h 4124 m -12.6 m/s 402.80 MHz Barge (IT) 0.00 km UNKNOWN
P1510058 RS41 2019-05-18 12:48:23 44.7789 6.99956 289 ° 31 km/h 3747 m -6.8 m/s 402.80 MHz Barge (IT) 0.00 km UNKNOWN
P1440359 RS41 2019-05-18 00:32:47 44.7329 6.94441 282 ° 54 km/h 3774 m -13.2 m/s 402.80 MHz Barge (IT) 0.00 km UNKNOWN
P1440391 RS41 2019-05-17 13:18:44 44.9386 7.56128 198 ° 31 km/h 753 m -2.6 m/s 402.80 MHz None (IT) 0.00 km UNKNOWN
P1440372 RS41 2019-05-17 02:16:20 44.191 8.39053 252 ° 19 km/h 410 m -2.0 m/s 402.80 MHz Finale Ligure (IT) 0.00 km UNKNOWN
P1440377 RS41 2019-05-16 12:21:45 43.8656 7.84636 102 ° 24 km/h 3870 m -4.9 m/s 405.00 MHz Taggia (IT) 0.00 km UNKNOWN
P1450549 RS41 2019-05-16 00:53:46 43.7431 6.96726 183 ° 81 km/h 7560 m -5.3 m/s 405.00 MHz Grasse (FR) 0.00 km UNKNOWN
P1510073 RS41 2019-05-15 12:12:41 43.9061 6.8844 210 ° 74 km/h 6396 m -12.0 m/s 405.00 MHz Grasse (FR) 0.00 km UNKNOWN
P1510147 RS41 2019-05-15 00:27:02 43.6705 7.36146 138 ° 59 km/h 4480 m -9.7 m/s 402.80 MHz Villefranche-sur-Mer (FR) 0.00 km LOST
P1440360 RS41 2019-05-14 12:22:21 43.6592 6.85312 176 ° 87 km/h 7943 m -6.2 m/s 402.80 MHz Peymeinade (FR) 0.00 km UNKNOWN
P1440378 RS41 2019-05-14 00:24:41 43.7585 6.32021 212 ° 161 km/h 9598 m -13.4 m/s 402.80 MHz Draguignan (FR) 0.00 km UNKNOWN
P1440371 RS41 2019-05-13 12:36:15 43.7872 6.25557 205 ° 113 km/h 9054 m -3.6 m/s 402.80 MHz Oraison (FR) 0.00 km UNKNOWN
P1510077 RS41 2019-05-11 13:38:58 44.7288 9.33792 12 ° 43 km/h 1131 m -2.3 m/s 402.80 MHz Voghera (IT) 0.00 km UNKNOWN
P1510148 RS41 2019-05-11 01:10:15 44.3921 9.65466 34 ° 37 km/h 1412 m -2.8 m/s 402.80 MHz Sestri Levante (IT) 0.00 km UNKNOWN
P1510146 RS41 2019-05-10 12:35:39 44.1501 8.67113 270 ° 6 km/h 130 m -6.2 m/s 405.00 MHz Vado Ligure (IT) 0.00 km LOST
P1510127 RS41 2019-05-10 00:51:50 44.2943 8.68153 247 ° 7 km/h 1220 m -12.0 m/s 402.80 MHz Cogoleto (IT) 0.00 km LOST
P1450519 RS41 2019-05-09 12:35:37 44.1864 8.88971 110 ° 46 km/h 3418 m -6.0 m/s 402.80 MHz Genoa (IT) 0.00 km LOST
P1450561 RS41 2019-05-09 01:16:53 44.8959 9.81969 169 ° 13 km/h 178 m -3.3 m/s 402.80 MHz Carpaneto Piacentino (IT) 0.00 km UNKNOWN
P1450564 RS41 2019-05-08 12:50:22 44.8342 9.07482 11 ° 35 km/h 973 m -4.4 m/s 402.80 MHz Tortona (IT) 0.00 km UNKNOWN
P1510149 RS41 2019-05-08 00:53:27 44.2848 8.82334 353 ° 15 km/h 228 m -5.2 m/s 402.80 MHz Genoa (IT) 0.00 km LOST
P1510075 RS41 2019-05-07 12:29:42 44.2219 8.63152 356 ° 26 km/h 1653 m -5.1 m/s 402.80 MHz Savona (IT) 0.00 km LOST
P1440411 RS41 2019-05-07 01:13:55 44.1589 8.55571 11 ° 15 km/h 112 m -4.6 m/s 402.80 MHz Vado Ligure (IT) 0.00 km LOST
P1510132 RS41 2019-05-06 12:43:29 43.8958 8.28099 52 ° 24 km/h 93 m -4.0 m/s 402.80 MHz Alassio (IT) 0.00 km LOST
P1450563 RS41 2019-05-06 00:51:25 44.2695 7.96797 216 ° 22 km/h 4530 m -4.6 m/s 402.80 MHz Mondovì (IT) 0.00 km UNKNOWN
P1510076 RS41 2019-05-05 12:32:05 44.483 8.17567 202 ° 43 km/h 3361 m -3.2 m/s 402.80 MHz Monesiglio (IT) 0.00 km UNKNOWN
P1450558 RS41 2019-05-05 00:44:33 44.8358 8.73173 179 ° 33 km/h 1900 m -6.3 m/s 402.80 MHz Novi Ligure (IT) 0.00 km UNKNOWN
P1450355 RS41 2019-05-04 12:16:08 44.437 8.53433 7 ° 9 km/h 1120 m -6.5 m/s 402.80 MHz Varazze (IT) 0.00 km UNKNOWN
P1450518 RS41 2019-05-04 00:34:10 44.5777 8.51205 137 ° 7 km/h 651 m -2.9 m/s 402.80 MHz Acqui Terme (IT) 0.00 km UNKNOWN
P1450520 RS41 2019-05-03 12:49:19 44.7651 9.24782 341 ° 28 km/h 1054 m -4.4 m/s 402.80 MHz Voghera (IT) 0.00 km UNKNOWN
P1450562 RS41 2019-05-03 01:35:41 44.6545 9.63293 34 ° 37 km/h 1374 m -1.7 m/s 402.80 MHz Carpaneto Piacentino (IT) 0.00 km UNKNOWN
P1510074 RS41 2019-05-02 12:27:21 44.7658 9.03911 355 ° 54 km/h 834 m -10.3 m/s 402.80 MHz Tortona (IT) 0.00 km UNKNOWN
P1450551 RS41 2019-05-02 00:53:21 44.1951 8.64856 310 ° 17 km/h 137 m -5.6 m/s 402.80 MHz Savona (IT) 0.00 km LOST
P1450559 RS41 2019-05-01 13:24:24 43.9017 8.46207 69 ° 22 km/h 194 m -3.2 m/s 402.80 MHz Albenga (IT) 0.00 km LOST
P1520820 RS41 2019-05-01 00:52:55 43.9136 8.43822 101 ° 7 km/h 140 m -14.2 m/s 402.80 MHz Albenga (IT) 0.00 km LOST
P1520677 RS41 2019-04-30 12:30:16 43.9938 8.07116 154 ° 13 km/h 1864 m -5.0 m/s 402.80 MHz Alassio (IT) 0.00 km UNKNOWN
P1450557 RS41 2019-04-30 00:48:13 44.0628 7.98769 178 ° 6 km/h 1980 m -5.4 m/s 402.80 MHz Alassio (IT) 0.00 km UNKNOWN
P1520727 RS41 2019-04-29 12:21:47 43.9592 7.87268 153 ° 28 km/h 2443 m -7.1 m/s 402.80 MHz Taggia (IT) 0.00 km UNKNOWN
P1520730 RS41 2019-04-29 00:44:53 43.8423 8.85886 188 ° 28 km/h 335 m -3.7 m/s 402.80 MHz Finale Ligure (IT) 0.00 km LOST
P1450560 RS41 2019-04-28 12:09:11 43.896 8.84719 134 ° 100 km/h 3795 m -10.0 m/s 402.80 MHz Finale Ligure (IT) 0.00 km LOST
P1450346 RS41 2019-04-28 00:33:16 43.9397 9.09042 55 ° 24 km/h 3785 m -11.0 m/s 402.80 MHz Sestri Levante (IT) 0.00 km LOST
P1520620 RS41 2019-04-27 12:27:33 43.9244 8.69302 125 ° 113 km/h 8274 m -5.3 m/s 402.80 MHz Finale Ligure (IT) 0.00 km LOST
P1520622 RS41 2019-04-27 01:52:02 43.4439 8.89726 244 ° 6 km/h 821 m -2.9 m/s 402.80 MHz Imperia (IT) 0.00 km LOST
P1450347 RS41 2019-04-26 12:37:09 44.9756 8.44313 313 ° 33 km/h 553 m -4.6 m/s 402.80 MHz Alessandria (IT) 0.00 km UNKNOWN
P1450525 RS41 2019-04-26 00:56:10 45.4008 8.96533 5 ° 61 km/h 2630 m -5.4 m/s 402.80 MHz Abbiategrasso (IT) 0.00 km UNKNOWN
P1520680 RS41 2019-04-25 12:18:33 45.2106 8.51856 251 ° 9 km/h 507 m -4.5 m/s 402.80 MHz Casale Monferrato (IT) 0.00 km FOUND
P1520729 RS41 2019-04-25 00:44:08 44.9936 8.68324 10 ° 54 km/h 1125 m -5.1 m/s 402.80 MHz Valenza (IT) 0.00 km UNKNOWN
P1520674 RS41 2019-04-24 00:56:59 45.1928 8.55731 359 ° 19 km/h 406 m -5.1 m/s 402.80 MHz Casale Monferrato (IT) 0.00 km UNKNOWN
P1520621 RS41 2019-04-23 13:35:42 45.1258 7.64844 212 ° 33 km/h 367 m -3.5 m/s 402.80 MHz Venaria Reale (IT) 0.00 km FOUND
P1520678 RS41 2019-04-23 00:36:29 44.9281 6.85514 277 ° 67 km/h 3465 m -1.9 m/s 402.80 MHz Briançon (FR) 0.00 km UNKNOWN
P1450348 RS41 2019-04-22 12:18:54 44.7982 7.85938 197 ° 26 km/h 466 m -10.6 m/s 402.80 MHz Bra (IT) 0.00 km FOUND
P1520816 RS41 2019-04-22 01:59:34 44.8961 8.08129 240 ° 26 km/h 825 m -2.0 m/s 402.80 MHz Asti (IT) 0.00 km UNKNOWN
P1520728 RS41 2019-04-21 12:20:08 44.5833 8.27576 192 ° 13 km/h 746 m -11.4 m/s 402.80 MHz Canelli (IT) 0.00 km UNKNOWN
P1520679 RS41 2019-04-21 00:16:18 44.4451 7.79534 86 ° 9 km/h 459 m -8.5 m/s 402.80 MHz Mondovì (IT) 0.00 km FOUND
P1520676 RS41 2019-04-20 12:21:30 44.1591 8.45967 291 ° 11 km/h 263 m -12.9 m/s 402.80 MHz Finale Ligure (IT) 0.00 km LOST
P1520673 RS41 2019-04-20 00:32:22 43.8492 8.31444 203 ° 43 km/h 84 m -6.4 m/s 402.80 MHz Alassio (IT) 0.00 km LOST
P1450356 RS41 2019-04-19 12:56:23 43.7872 8.40201 286 ° 26 km/h 64 m -3.6 m/s 402.80 MHz Alassio (IT) 0.00 km LOST
P1450530 RS41 2019-04-19 01:17:45 43.7387 8.38314 248 ° 37 km/h 127 m -3.0 m/s 402.80 MHz Imperia (IT) 0.00 km LOST
P1450528 RS41 2019-04-18 12:22:02 44.0145 8.16935 253 ° 24 km/h 882 m -11.1 m/s 402.80 MHz Alassio (IT) 0.00 km UNKNOWN
P1450537 RS41 2019-04-18 00:35:35 43.8199 8.36334 220 ° 11 km/h 530 m -3.8 m/s 402.80 MHz Alassio (IT) 0.00 km LOST
P1450523 RS41 2019-04-17 12:34:00 43.6863 8.61424 59 ° 9 km/h 110 m -9.8 m/s 402.80 MHz Alassio (IT) 0.00 km LOST
P1450526 RS41 2019-04-17 01:16:54 43.9177 8.46268 36 ° 15 km/h 91 m -4.9 m/s 402.80 MHz Albenga (IT) 0.00 km LOST
P1450357 RS41 2019-04-16 12:29:28 44.1603 8.1849 92 ° 4 km/h 1524 m -7.6 m/s 402.80 MHz Loano (IT) 0.00 km UNKNOWN
P1450527 RS41 2019-04-16 00:59:13 43.8784 8.53907 181 ° 7 km/h 231 m -5.1 m/s 402.80 MHz Albenga (IT) 0.00 km LOST
P1450531 RS41 2019-04-15 12:48:56 43.2973 8.65023 157 ° 104 km/h 5705 m -4.1 m/s 402.80 MHz Calvi (FR) 0.00 km LOST
P1450521 RS41 2019-04-15 01:52:51 42.4224 8.93062 224 ° 37 km/h 3004 m -1.6 m/s 402.80 MHz Calvi (FR) 0.00 km UNKNOWN
P1450532 RS41 2019-04-14 12:11:58 43.3122 8.66273 211 ° 35 km/h 884 m -6.0 m/s 402.80 MHz Imperia (IT) 0.00 km LOST
P1450533 RS41 2019-04-14 01:03:22 43.6774 8.44431 19 ° 24 km/h 831 m -6.3 m/s 402.80 MHz Imperia (IT) 0.00 km LOST
P1450553 RS41 2019-04-13 12:11:26 44.3116 7.85424 150 ° 6 km/h 949 m -9.4 m/s 402.80 MHz Mondovì (IT) 0.00 km FOUND
P1450522 RS41 2019-04-13 01:02:06 44.2576 7.60738 201 ° 17 km/h 2414 m -3.5 m/s 402.80 MHz Boves (IT) 0.00 km UNKNOWN
P1450555 RS41 2019-04-12 13:18:56 44.0131 7.39556 252 ° 19 km/h 3518 m -2.1 m/s 402.80 MHz Contes (FR) 0.00 km UNKNOWN
P1450554 RS41 2019-04-12 00:44:30 44.261 7.32817 223 ° 39 km/h 3925 m -3.5 m/s 402.80 MHz Borgo San Dalmazzo (IT) 0.00 km UNKNOWN
P1450534 RS41 2019-04-11 12:33:58 44.4023 7.03394 246 ° 41 km/h 5066 m -3.8 m/s 402.80 MHz Borgo San Dalmazzo (IT) 0.00 km UNKNOWN
P1450538 RS41 2019-04-11 01:19:25 44.4934 7.17696 199 ° 20 km/h 2946 m -2.8 m/s 402.80 MHz Busca (IT) 0.00 km UNKNOWN
P1450359 RS41 2019-04-10 13:10:40 44.6108 7.17213 47 ° 6 km/h 2413 m -2.7 m/s 402.80 MHz Barge (IT) 0.00 km UNKNOWN
P1450556 RS41 2019-04-10 01:52:10 44.6431 7.58605 360 ° 9 km/h 389 m -2.6 m/s 405.00 MHz Savigliano (IT) 0.00 km UNKNOWN
P1520810 RS41 2019-04-09 12:42:56 44.7624 8.15099 27 ° 4 km/h 684 m -6.2 m/s 402.80 MHz Canelli (IT) 0.00 km UNKNOWN
P1450298 RS41 2019-04-09 00:45:02 44.5483 8.34122 33 ° 20 km/h 518 m -6.2 m/s 405.00 MHz Acqui Terme (IT) 0.00 km UNKNOWN
P1520805 RS41 2019-04-08 13:37:25 44.6732 8.42401 31 ° 13 km/h 808 m -2.1 m/s 405.00 MHz Acqui Terme (IT) 0.00 km UNKNOWN
P1450296 RS41 2019-04-08 00:42:02 44.6726 8.20498 81 ° 9 km/h 618 m -8.5 m/s 402.80 MHz Canelli (IT) 0.00 km UNKNOWN
P1520806 RS41 2019-04-07 13:09:30 44.878 7.75424 82 ° 4 km/h 296 m -4.1 m/s 402.80 MHz Carmagnola (IT) 0.00 km UNKNOWN
P1520247 RS41 2019-04-07 00:48:53 45.0906 7.71805 196 ° 11 km/h 544 m -9.2 m/s 402.80 MHz Turin (IT) 0.00 km UNKNOWN
P1450652 RS41 2019-04-06 00:43:57 44.9785 8.38366 338 ° 15 km/h 288 m -5.9 m/s 402.80 MHz Asti (IT) 0.00 km UNKNOWN
P1520808 RS41 2019-04-05 12:29:33 44.5896 8.59823 331 ° 28 km/h 632 m -7.4 m/s 402.80 MHz Ovada (IT) 0.00 km UNKNOWN
P1520809 RS41 2019-04-05 01:32:31 43.7757 9.45235 141 ° 48 km/h 4096 m -2.8 m/s 402.80 MHz La Spezia (IT) 0.00 km LOST
P1440985 RS41 2019-04-04 11:56:00 45.3184 8.30328 280 ° 11 km/h 340 m -6.4 m/s 402.80 MHz Vercelli (IT) 0.00 km UNKNOWN
P1520828 RS41 2019-04-04 01:48:22 45.9443 9.59617 321 ° 41 km/h 1916 m -6.9 m/s 402.80 MHz Zogno (IT) 0.00 km UNKNOWN
P1520827 RS41 2019-04-03 12:00:42 44.9443 8.78257 333 ° 39 km/h 439 m -11.7 m/s 402.80 MHz Tortona (IT) 0.00 km UNKNOWN
P1450756 RS41 2019-04-03 01:48:47 44.6293 8.80952 229 ° 7 km/h 680 m -2.3 m/s 402.80 MHz Ovada (IT) 0.00 km UNKNOWN
P1440988 RS41 2019-04-02 13:56:53 44.7659 8.44509 324 ° 6 km/h 853 m -3.2 m/s 402.80 MHz Nizza Monferrato (IT) 0.00 km UNKNOWN
P1440987 RS41 2019-04-02 00:49:35 44.5139 8.04459 85 ° 13 km/h 843 m -10.7 m/s 402.80 MHz Monesiglio (IT) 0.00 km FOUND
P1440989 RS41 2019-04-01 12:31:50 44.4808 8.01006 139 ° 15 km/h 704 m -8.9 m/s 402.80 MHz Monesiglio (IT) 0.00 km FOUND
P1450728 RS41 2019-04-01 00:42:55 44.519 8.30912 161 ° 6 km/h 573 m -6.4 m/s 402.80 MHz Cairo Montenotte (IT) 0.00 km UNKNOWN
P1440990 RS41 2019-03-31 12:25:57 44.5387 8.01477 129 ° 9 km/h 644 m -9.0 m/s 402.80 MHz Monesiglio (IT) 0.00 km FOUND
P1440986 RS41 2019-03-31 01:17:29 44.6727 7.95758 333 ° 6 km/h 418 m -6.2 m/s 402.80 MHz Alba (IT) 0.00 km FOUND
P1520826 RS41 2019-03-30 13:14:37 44.6371 7.73775 106 ° 4 km/h 381 m -3.5 m/s 402.80 MHz Savigliano (IT) 0.00 km UNKNOWN
P1450752 RS41 2019-03-30 01:49:31 44.4974 7.48763 102 ° 9 km/h 569 m -2.9 m/s 402.80 MHz Busca (IT) 0.00 km UNKNOWN
P1450300 RS41 2019-03-29 13:25:55 44.3447 7.39067 277 ° 13 km/h 1285 m -4.1 m/s 402.80 MHz Borgo San Dalmazzo (IT) 0.00 km UNKNOWN
P1450297 RS41 2019-03-29 01:23:59 44.2361 7.33544 235 ° 19 km/h 2292 m -5.3 m/s 402.80 MHz Borgo San Dalmazzo (IT) 0.00 km UNKNOWN
P1450299 RS41 2019-03-28 13:29:27 43.9233 7.09195 243 ° 35 km/h 4260 m -3.7 m/s 402.80 MHz Carros (FR) 0.00 km UNKNOWN
P1450732 RS41 2019-03-28 01:55:04 43.4095 7.26677 211 ° 81 km/h 7877 m -2.5 m/s 402.80 MHz Antibes (FR) 0.00 km LOST
P1450707 RS41 2019-03-27 13:37:56 43.4235 7.50482 204 ° 104 km/h 7492 m -3.7 m/s 402.80 MHz Valbonne (FR) 0.00 km LOST
P1450706 RS41 2019-03-27 01:24:26 43.6602 7.50414 236 ° 69 km/h 4372 m -9.9 m/s 402.80 MHz Monaco (MC) 0.00 km LOST
P1450727 RS41 2019-03-26 12:52:35 43.9308 7.40049 267 ° 48 km/h 6212 m -10.8 m/s 402.80 MHz Contes (FR) 0.00 km UNKNOWN
P1450705 RS41 2019-03-26 02:01:49 43.9788 8.99056 178 ° 65 km/h 67 m -3.8 m/s 402.80 MHz Santa Margherita Ligure (IT) 0.00 km LOST
P1450731 RS41 2019-03-25 13:28:12 44.2077 8.50092 315 ° 9 km/h 70 m -4.5 m/s 402.80 MHz Vado Ligure (IT) 0.00 km LOST
P1440267 RS41 2019-03-25 01:28:57 44.5287 8.40364 9 ° 24 km/h 567 m -9.0 m/s 402.80 MHz Acqui Terme (IT) 0.00 km UNKNOWN
P1450291 RS41 2019-03-24 13:09:54 44.9439 8.00224 267 ° 11 km/h 773 m -2.6 m/s 402.80 MHz Poirino (IT) 0.00 km UNKNOWN
P1450293 RS41 2019-03-24 01:42:55 44.7231 7.4671 215 ° 4 km/h 345 m -12.3 m/s 405.00 MHz Saluzzo (IT) 0.00 km FOUND
P1440270 RS41 2019-03-23 12:58:57 44.417 7.09627 253 ° 6 km/h 2781 m -11.4 m/s 402.80 MHz Busca (IT) 0.00 km UNKNOWN
P1450310 RS41 2019-03-23 02:20:11 44.2094 6.75303 286 ° 22 km/h 4480 m -3.1 m/s 402.80 MHz Digne-les-Bains (FR) 0.00 km UNKNOWN
P1450753 RS41 2019-03-22 13:46:09 44.3545 6.29173 278 ° 52 km/h 4378 m -5.3 m/s 402.80 MHz Gap (FR) 0.00 km UNKNOWN
P1440259 RS41 2019-03-22 01:33:34 44.2528 6.41634 266 ° 33 km/h 4459 m -5.5 m/s 402.80 MHz Digne-les-Bains (FR) 0.00 km UNKNOWN
P1450755 RS41 2019-03-21 13:19:30 44.1647 6.68265 266 ° 107 km/h 8226 m -5.7 m/s 405.00 MHz Digne-les-Bains (FR) 0.00 km UNKNOWN
P1450294 RS41 2019-03-21 01:24:12 43.879 6.86664 250 ° 122 km/h 8248 m -15.9 m/s 402.80 MHz Grasse (FR) 0.00 km UNKNOWN
P1520223 RS41 2019-03-20 13:30:55 43.7139 7.10162 214 ° 61 km/h 12439 m -3.3 m/s 402.80 MHz Vence (FR) 0.00 km UNKNOWN
P1450434 RS41 2019-03-20 01:55:09 43.527 7.35589 220 ° 94 km/h 9168 m -4.4 m/s 402.80 MHz Valbonne (FR) 0.00 km LOST
P1520230 RS41 2019-03-19 13:12:48 43.8566 7.61536 224 ° 35 km/h 4286 m -9.0 m/s 402.80 MHz Ventimiglia (IT) 0.00 km UNKNOWN
P1520225 RS41 2019-03-19 02:34:10 43.8784 8.68268 191 ° 46 km/h 373 m -2.3 m/s 402.80 MHz Albenga (IT) 0.00 km LOST
P1520224 RS41 2019-03-18 13:59:41 44.3527 9.07859 184 ° 11 km/h 468 m -1.5 m/s 405.00 MHz Recco (IT) 0.00 km LOST
P1510453 RS41 2019-03-18 01:29:23 44.7406 9.70179 25 ° 54 km/h 1070 m -9.2 m/s 402.80 MHz Carpaneto Piacentino (IT) 0.00 km UNKNOWN
P1520228 RS41 2019-03-17 13:13:53 44.9337 9.74277 205 ° 7 km/h 262 m -9.5 m/s 402.80 MHz Carpaneto Piacentino (IT) 0.00 km LOST
P1510454 RS41 2019-03-17 02:10:28 44.3384 9.82732 6 ° 20 km/h 1638 m -3.6 m/s 402.80 MHz Bolano (IT) 0.00 km UNKNOWN
P1510452 RS41 2019-03-16 13:45:08 44.0627 9.08627 148 ° 57 km/h 3552 m -3.4 m/s 402.80 MHz Santa Margherita Ligure (IT) 0.00 km LOST
P1520232 RS41 2019-03-16 02:10:48 43.7327 9.58602 86 ° 30 km/h 2660 m -3.4 m/s 402.80 MHz La Spezia (IT) 0.00 km LOST
P1440295 RS41 2019-03-15 13:33:02 43.5873 9.51726 164 ° 69 km/h 4832 m -4.3 m/s 402.80 MHz Lerici (IT) 0.00 km LOST
P1440301 RS41 2019-03-15 01:37:16 42.9215 9.52856 171 ° 174 km/h 8256 m -3.9 m/s 405.00 MHz Bastia (FR) 0.00 km LOST
P1450430 RS41 2019-03-14 13:11:49 43.4776 9.22323 154 ° 124 km/h 6588 m -11.5 m/s 402.80 MHz La Spezia (IT) 0.00 km LOST
P1450427 RS41 2019-03-14 01:31:20 43.5322 9.00308 194 ° 46 km/h 3577 m -6.7 m/s 402.80 MHz Alassio (IT) 0.00 km LOST
P1450429 RS41 2019-03-13 01:20:39 44.2987 9.50832 44 ° 52 km/h 2013 m -11.3 m/s 402.80 MHz Sestri Levante (IT) 0.00 km UNKNOWN
P1510456 RS41 2019-03-12 13:13:37 43.4886 8.77333 160 ° 89 km/h 6038 m -6.0 m/s 402.80 MHz Imperia (IT) 0.00 km LOST
P1510455 RS41 2019-03-12 01:32:57 42.8099 8.56777 205 ° 106 km/h 1782 m -6.1 m/s 402.80 MHz Calvi (FR) 0.00 km LOST
P1450432 RS41 2019-03-11 13:40:35 43.7419 9.69305 105 ° 94 km/h 4252 m -7.6 m/s 402.80 MHz Lerici (IT) 0.00 km LOST
P1510933 RS41 2019-03-11 01:52:31 43.9188 9.81371 92 ° 52 km/h 3542 m -8.0 m/s 402.80 MHz Lerici (IT) 0.00 km LOST
P1450421 RS41 2019-03-10 13:18:48 44.0842 9.10259 88 ° 52 km/h 3681 m -12.7 m/s 402.80 MHz Santa Margherita Ligure (IT) 0.00 km LOST
P1520671 RS41 2019-03-10 01:35:20 43.7497 8.92616 70 ° 33 km/h 2889 m -6.0 m/s 402.80 MHz Finale Ligure (IT) 0.00 km LOST
P1520669 RS41 2019-03-09 13:10:38 43.5809 8.54108 137 ° 35 km/h 3305 m -4.9 m/s 402.80 MHz Imperia (IT) 0.00 km LOST
P1520670 RS41 2019-03-09 01:31:14 43.2865 8.14507 82 ° 37 km/h 2707 m -9.9 m/s 402.80 MHz San Remo (IT) 0.00 km LOST
P1440331 RS41 2019-03-08 13:42:29 44.1256 8.79796 42 ° 31 km/h 728 m -5.9 m/s 405.00 MHz Varazze (IT) 0.00 km LOST
P1520614 RS41 2019-03-08 01:41:53 44.5165 9.2217 29 ° 57 km/h 2062 m -6.0 m/s 402.80 MHz Recco (IT) 0.00 km UNKNOWN
P1440335 RS41 2019-03-07 13:05:38 45.0622 9.3935 96 ° 17 km/h 333 m -6.7 m/s 402.80 MHz Castel San Giovanni (IT) 0.00 km UNKNOWN
P1440305 RS41 2019-03-07 01:03:21 45.5738 9.28901 282 ° 41 km/h 446 m -4.0 m/s 402.80 MHz Monza (IT) 0.00 km UNKNOWN
P1440303 RS41 2019-03-06 14:26:56 44.8239 10.172 272 ° 15 km/h 126 m -1.6 m/s 402.80 MHz Noceto (IT) 0.00 km FOUND
P1440334 RS41 2019-03-06 01:29:14 44.0824 9.33176 22 ° 33 km/h 1397 m -12.3 m/s 402.80 MHz Sestri Levante (IT) 0.00 km LOST
P1520672 RS41 2019-03-05 13:43:42 44.2462 9.75436 117 ° 22 km/h 2022 m -6.8 m/s 402.80 MHz Bolano (IT) 0.00 km UNKNOWN
P1520700 RS41 2019-03-05 02:01:07 44.375 10.4732 88 ° 11 km/h 973 m -2.9 m/s 405.00 MHz Castellarano (IT) 0.00 km UNKNOWN
P1520701 RS41 2019-03-04 13:04:49 45.0555 10.09 274 ° 24 km/h 122 m -7.5 m/s 402.80 MHz Cremona (IT) 0.00 km FOUND
P1520718 RS41 2019-03-04 01:43:40 44.2942 9.22618 337 ° 24 km/h 136 m -6.9 m/s 402.80 MHz Santa Margherita Ligure (IT) 0.00 km LOST
P1520681 RS41 2019-03-03 13:10:29 44.1179 8.50815 24 ° 28 km/h 881 m -11.5 m/s 402.80 MHz Finale Ligure (IT) 0.00 km LOST
P1520668 RS41 2019-03-03 01:34:31 43.8795 8.16934 203 ° 15 km/h 635 m -4.4 m/s 402.80 MHz Imperia (IT) 0.00 km LOST
P1520708 RS41 2019-03-02 13:36:17 44.337 8.7279 296 ° 28 km/h 60 m -3.1 m/s 402.80 MHz Arenzano (IT) 0.00 km LOST
P1520699 RS41 2019-03-02 01:30:21 43.6219 8.13571 109 ° 24 km/h 136 m -5.7 m/s 402.80 MHz Imperia (IT) 0.00 km LOST
P1520697 RS41 2019-03-01 13:32:25 43.7654 8.96591 211 ° 7 km/h 223 m -4.1 m/s 402.80 MHz Sestri Levante (IT) 0.00 km LOST
P1520702 RS41 2019-03-01 01:38:15 43.9438 8.61669 209 ° 7 km/h 287 m -5.6 m/s 402.80 MHz Finale Ligure (IT) 0.00 km LOST
P1520667 RS41 2019-02-28 13:07:42 44.3177 8.12601 359 ° 7 km/h 878 m -10.7 m/s 402.80 MHz Cairo Montenotte (IT) 0.00 km FOUND
P1440538 RS41 2019-02-28 01:33:33 44.1242 7.50416 178 ° 17 km/h 3552 m -3.9 m/s 405.00 MHz Borgo San Dalmazzo (IT) 0.00 km UNKNOWN
P1440563 RS41 2019-02-27 13:15:12 44.0363 7.18175 240 ° 37 km/h 3762 m -11.9 m/s 402.80 MHz Contes (FR) 0.00 km UNKNOWN
P1440726 RS41 2019-02-27 01:27:04 43.8857 7.18942 211 ° 46 km/h 4337 m -11.0 m/s 402.80 MHz Carros (FR) 0.00 km UNKNOWN
P1440095 RS41 2019-02-26 13:02:29 44.0731 6.9562 247 ° 63 km/h 4215 m -13.6 m/s 402.80 MHz Carros (FR) 0.00 km UNKNOWN
P1440551 RS41 2019-02-26 01:50:46 43.7893 6.71862 249 ° 83 km/h 5447 m -2.5 m/s 402.80 MHz Fayence (FR) 0.00 km UNKNOWN
P1440094 RS41 2019-02-25 13:05:52 43.883 7.02222 248 ° 76 km/h 5017 m -5.3 m/s 402.80 MHz Carros (FR) 0.00 km UNKNOWN
P1440093 RS41 2019-02-25 02:59:54 43.0559 7.63248 231 ° 96 km/h 4603 m -10.7 m/s 402.80 MHz Antibes (FR) 0.00 km LOST
P1440562 RS41 2019-02-24 13:46:23 43.3041 6.62277 228 ° 133 km/h 11980 m -4.3 m/s 402.80 MHz Sainte-Maxime (FR) 0.00 km UNKNOWN
P1440552 RS41 2019-02-24 01:45:57 43.2093 7.19869 216 ° 148 km/h 7303 m -6.3 m/s 402.80 MHz Cannes (FR) 0.00 km LOST
P1440098 RS41 2019-02-23 13:09:57 43.3407 7.11712 203 ° 100 km/h 8417 m -6.4 m/s 402.80 MHz Cannes (FR) 0.00 km LOST
P1440096 RS41 2019-02-23 02:01:56 42.9163 7.14465 211 ° 139 km/h 9599 m -4.0 m/s 402.80 MHz Cavalaire-sur-Mer (FR) 0.00 km LOST
P1440548 RS41 2019-02-22 13:12:09 43.4431 7.37358 209 ° 96 km/h 6023 m -6.1 m/s 402.80 MHz Antibes (FR) 0.00 km LOST
P1440561 RS41 2019-02-22 02:07:26 43.5847 8.11937 26 ° 7 km/h 525 m -3.1 m/s 402.80 MHz Imperia (IT) 0.00 km LOST
P1440550 RS41 2019-02-21 13:06:59 44.2389 7.69777 50 ° 6 km/h 2080 m -9.8 m/s 402.80 MHz Boves (IT) 0.00 km FOUND
P1440549 RS41 2019-02-21 01:30:26 44.2695 7.93966 74 ° 4 km/h 1696 m -8.0 m/s 402.80 MHz Mondovì (IT) 0.00 km FOUND
P1440560 RS41 2019-02-20 14:01:34 44.2792 8.17841 235 ° 2 km/h 1065 m -3.4 m/s 402.80 MHz Cairo Montenotte (IT) 0.00 km FOUND
P1440556 RS41 2019-02-20 02:52:41 44.3108 8.76993 236 ° 19 km/h 56 m -2.7 m/s 402.80 MHz Arenzano (IT) 0.00 km LOST
P1440929 RS41 2019-02-19 13:16:03 44.6497 8.37394 360 ° 26 km/h 517 m -12.5 m/s 402.80 MHz Acqui Terme (IT) 0.00 km UNKNOWN
P1440541 RS41 2019-02-19 01:45:10 44.6789 8.93119 71 ° 20 km/h 1372 m -4.9 m/s 402.80 MHz Novi Ligure (IT) 0.00 km UNKNOWN
P1440558 RS41 2019-02-18 13:59:43 44.8247 8.70168 49 ° 6 km/h 868 m -2.8 m/s 402.80 MHz Novi Ligure (IT) 0.00 km UNKNOWN
P1440959 RS41 2019-02-18 03:04:54 44.7221 8.69783 23 ° 17 km/h 782 m -2.8 m/s 402.80 MHz Novi Ligure (IT) 0.00 km UNKNOWN
P1440546 RS41 2019-02-17 13:54:45 44.56 8.41631 354 ° 31 km/h 1073 m -3.1 m/s 402.80 MHz Acqui Terme (IT) 0.00 km UNKNOWN
P1440536 RS41 2019-02-17 01:27:25 44.3536 7.99882 45 ° 4 km/h 1345 m -9.2 m/s 402.80 MHz Mondovì (IT) 0.00 km FOUND
P1440559 RS41 2019-02-16 13:48:10 44.1454 7.81256 199 ° 4 km/h 2152 m -4.8 m/s 402.80 MHz Mondovì (IT) 0.00 km UNKNOWN
P1440960 RS41 2019-02-16 01:27:52 43.984 7.94028 229 ° 22 km/h 3145 m -10.6 m/s 402.80 MHz Imperia (IT) 0.00 km UNKNOWN
P1440542 RS41 2019-02-15 13:27:50 44.1216 7.67143 216 ° 28 km/h 3124 m -5.3 m/s 402.80 MHz Boves (IT) 0.00 km UNKNOWN
P1440930 RS41 2019-02-15 01:24:37 43.6406 8.14834 184 ° 81 km/h 9970 m -11.0 m/s 404.00 MHz Imperia (IT) 0.00 km LOST
P1440544 RS41 2019-02-14 13:06:56 43.7191 8.16276 77 ° 22 km/h 694 m -5.7 m/s 402.80 MHz Imperia (IT) 0.00 km LOST
P1440958 RS41 2019-02-14 01:39:39 43.5536 8.52162 316 ° 20 km/h 1143 m -8.6 m/s 402.80 MHz Imperia (IT) 0.00 km LOST
P1440543 RS41 2019-02-13 13:45:25 43.2666 8.34119 233 ° 19 km/h 693 m -4.1 m/s 402.80 MHz Imperia (IT) 0.00 km LOST
P1450482 RS41 2019-02-13 02:21:19 42.9752 8.55939 236 ° 7 km/h 913 m -2.7 m/s 402.80 MHz Calvi (FR) 0.00 km LOST
P1450490 RS41 2019-02-12 13:08:57 42.8372 7.94951 202 ° 52 km/h 3811 m -3.8 m/s 402.80 MHz Calvi (FR) 0.00 km LOST
P1450484 RS41 2019-02-12 01:20:47 43.074 8.23963 171 ° 35 km/h 952 m -9.3 m/s 402.80 MHz Calvi (FR) 0.00 km LOST
P1450481 RS41 2019-02-11 13:23:00 43.5128 9.61928 146 ° 35 km/h 5566 m -4.4 m/s 402.80 MHz Livorno (IT) 0.00 km LOST
P1450496 RS41 2019-02-11 02:27:02 44.562 12.0005 98 ° 57 km/h 1116 m -2.5 m/s 402.80 MHz Alfonsine (IT) 0.00 km UNKNOWN
P1450483 RS41 2019-02-10 13:27:17 44.8901 10.4881 224 ° 9 km/h 110 m -4.3 m/s 402.80 MHz Viadana (IT) 0.00 km FOUND
P1450487 RS41 2019-02-10 01:35:31 44.5081 10.0169 25 ° 26 km/h 1329 m -8.6 m/s 402.80 MHz Langhirano (IT) 0.00 km UNKNOWN
P1450485 RS41 2019-02-09 13:46:56 44.2738 10.3511 14 ° 22 km/h 1694 m -8.6 m/s 402.80 MHz Fivizzano (IT) 0.00 km UNKNOWN
P1450488 RS41 2019-02-09 01:25:08 44.4733 9.22295 49 ° 30 km/h 1728 m -7.8 m/s 402.80 MHz Rapallo (IT) 0.00 km UNKNOWN
P1450489 RS41 2019-02-08 13:07:05 44.2231 8.78674 228 ° 19 km/h 1582 m -6.1 m/s 402.80 MHz Cogoleto (IT) 0.00 km LOST
P1510903 RS41 2019-02-08 01:22:55 44.4953 9.0474 187 ° 11 km/h 1314 m -8.5 m/s 402.80 MHz Serra Riccò (IT) 0.00 km UNKNOWN
P1510868 RS41 2019-02-07 14:18:18 44.9487 9.65473 144 ° 6 km/h 330 m -5.1 m/s 405.00 MHz Podenzano (IT) 0.00 km UNKNOWN
P1520070 RS41 2019-02-07 01:50:29 44.4123 8.77414 229 ° 4 km/h 1837 m -3.6 m/s 405.00 MHz Arenzano (IT) 0.00 km LOST
P1510866 RS41 2019-02-06 13:44:40 43.9157 8.28099 184 ° 20 km/h 88 m -4.1 m/s 402.80 MHz Alassio (IT) 0.00 km LOST
P1520071 RS41 2019-02-06 01:15:51 43.8568 7.90504 206 ° 33 km/h 3466 m -9.7 m/s 402.80 MHz Taggia (IT) 0.00 km UNKNOWN
P1510948 RS41 2019-02-05 12:56:52 43.8323 7.76743 184 ° 20 km/h 3862 m -8.7 m/s 402.80 MHz San Remo (IT) 0.00 km UNKNOWN
P1510482 RS41 2019-02-05 01:29:31 43.9777 8.17194 105 ° 6 km/h 607 m -7.1 m/s 402.80 MHz Alassio (IT) 0.00 km LOST
P1520192 RS41 2019-02-04 13:25:25 43.7909 8.13674 191 ° 39 km/h 858 m -6.2 m/s 402.80 MHz Imperia (IT) 0.00 km LOST
P1510484 RS41 2019-02-04 03:03:30 43.7822 8.4692 181 ° 67 km/h 91 m -2.1 m/s 402.80 MHz Alassio (IT) 0.00 km LOST
P1510485 RS41 2019-02-03 13:28:40 44.3086 7.90242 157 ° 22 km/h 999 m -3.9 m/s 402.80 MHz Mondovì (IT) 0.00 km UNKNOWN
P1510945 RS41 2019-02-03 01:13:08 44.7861 7.93346 168 ° 19 km/h 1249 m -5.6 m/s 402.80 MHz Bra (IT) 0.00 km UNKNOWN
P1510483 RS41 2019-02-02 13:13:59 45.413 8.29984 338 ° 33 km/h 3471 m -6.8 m/s 402.80 MHz Santhià (IT) 0.00 km FOUND
P1440220 RS41 2019-02-02 01:20:33 45.9481 8.60117 10 ° 39 km/h 2457 m -3.1 m/s 402.80 MHz Laveno-Mombello (IT) 0.00 km FOUND
P1510928 RS41 2019-02-01 02:47:17 44.7703 10.5521 124 ° 20 km/h 106 m -2.7 m/s 402.80 MHz Cadelbosco di Sopra (IT) 0.00 km UNKNOWN
P1510898 RS41 2019-01-31 13:11:25 44.3202 9.13821 16 ° 19 km/h 418 m -7.4 m/s 402.80 MHz Recco (IT) 0.00 km LOST
P1520050 RS41 2019-01-30 12:36:56 44.528 8.12829 156 ° 26 km/h 949 m -3.0 m/s 402.80 MHz Monesiglio (IT) 0.00 km UNKNOWN
P1510481 RS41 2019-01-30 02:17:37 44.8029 8.9285 19 ° 15 km/h 497 m -3.0 m/s 402.80 MHz Tortona (IT) 0.00 km UNKNOWN
P1510869 RS41 2019-01-29 13:58:00 43.9746 8.91682 236 ° 6 km/h 311 m -1.8 m/s 402.80 MHz Santa Margherita Ligure (IT) 0.00 km LOST
P1510867 RS41 2019-01-29 02:04:02 43.8391 8.4251 175 ° 31 km/h 342 m -3.5 m/s 402.80 MHz Alassio (IT) 0.00 km LOST
P1440222 RS41 2019-01-28 13:51:36 44.0502 8.56518 182 ° 28 km/h 95 m -6.8 m/s 402.80 MHz Finale Ligure (IT) 0.00 km LOST
P1510874 RS41 2019-01-28 02:05:51 44.2345 8.85347 201 ° 39 km/h 57 m -6.5 m/s 402.80 MHz Genoa (IT) 0.00 km LOST
P1440221 RS41 2019-01-27 13:24:57 44.8851 9.1915 224 ° 4 km/h 720 m -5.2 m/s 402.80 MHz Voghera (IT) 0.00 km UNKNOWN
P1510597 RS41 2019-01-27 01:49:06 44.1725 8.93693 8 ° 20 km/h 67 m -3.0 m/s 402.80 MHz Genoa (IT) 0.00 km LOST
P1450216 RS41 2019-01-26 13:15:11 43.6894 7.921 112 ° 17 km/h 3117 m -6.8 m/s 402.80 MHz Taggia (IT) 0.00 km LOST
P1510595 RS41 2019-01-26 01:29:32 43.2371 7.33583 198 ° 126 km/h 7471 m -7.4 m/s 402.80 MHz Antibes (FR) 0.00 km LOST
P1441011 RS41 2019-01-25 13:32:52 43.0084 7.37588 192 ° 207 km/h 7886 m -3.7 m/s 402.80 MHz Antibes (FR) 0.00 km LOST
P1441010 RS41 2019-01-25 02:02:35 43.4465 7.63815 170 ° 20 km/h 3992 m -4.8 m/s 402.80 MHz Monaco (MC) 0.00 km LOST
P1450211 RS41 2019-01-23 01:43:41 44.3173 8.26928 140 ° 4 km/h 505 m -7.4 m/s 402.80 MHz Cairo Montenotte (IT) 0.00 km FOUND
P1441009 RS41 2019-01-22 13:04:23 44.3689 8.0226 130 ° 11 km/h 1282 m -7.2 m/s 402.80 MHz Monesiglio (IT) 0.00 km FOUND
P1450214 RS41 2019-01-22 01:30:54 44.276 8.23227 180 ° 37 km/h 1463 m -10.8 m/s 402.80 MHz Cairo Montenotte (IT) 0.00 km UNKNOWN
P1450206 RS41 2019-01-21 13:12:06 44.4374 8.33619 181 ° 31 km/h 1232 m -7.8 m/s 402.80 MHz Cairo Montenotte (IT) 0.00 km UNKNOWN
P1510609 RS41 2019-01-21 04:14:46 44.0304 10.0786 199 ° 6 km/h 1059 m -2.3 m/s 402.80 MHz Massa (IT) 0.00 km UNKNOWN
P1450209 RS41 2019-01-20 14:10:55 44.2903 9.15995 122 ° 11 km/h 84 m -12.1 m/s 402.80 MHz Santa Margherita Ligure (IT) 0.00 km LOST
P1450213 RS41 2019-01-20 02:04:06 44.1581 8.74518 184 ° 37 km/h 55 m -2.8 m/s 402.80 MHz Varazze (IT) 0.00 km LOST
P1450205 RS41 2019-01-19 13:18:41 44.4831 8.38142 207 ° 26 km/h 1712 m -9.7 m/s 402.80 MHz Cairo Montenotte (IT) 0.00 km UNKNOWN
P1520146 RS41 2019-01-19 01:42:17 44.4412 8.48082 154 ° 30 km/h 938 m -9.0 m/s 402.80 MHz Varazze (IT) 0.00 km UNKNOWN
P1520135 RS41 2019-01-18 13:09:53 44.3533 8.31237 137 ° 17 km/h 450 m -5.3 m/s 402.80 MHz Cairo Montenotte (IT) 0.00 km UNKNOWN
P1520145 RS41 2019-01-18 02:41:06 44.8573 9.11704 33 ° 9 km/h 745 m -1.8 m/s 402.80 MHz Voghera (IT) 0.00 km UNKNOWN
P1450215 RS41 2019-01-17 13:47:45 45.122 8.70324 162 ° 11 km/h 313 m -4.2 m/s 402.80 MHz Valenza (IT) 0.00 km FOUND
P1510670 RS41 2019-01-17 01:35:01 44.831 8.30689 98 ° 7 km/h 572 m -8.0 m/s 402.80 MHz Nizza Monferrato (IT) 0.00 km UNKNOWN
P1520147 RS41 2019-01-16 14:23:02 44.4952 8.45864 7 ° 52 km/h 894 m -1.8 m/s 402.80 MHz Varazze (IT) 0.00 km UNKNOWN
P1510478 RS41 2019-01-16 01:35:05 44.0223 8.06379 55 ° 54 km/h 1956 m -6.3 m/s 402.80 MHz Alassio (IT) 0.00 km UNKNOWN
P1510477 RS41 2019-01-15 13:14:13 43.8759 8.06054 59 ° 31 km/h 1274 m -10.7 m/s 402.80 MHz Imperia (IT) 0.00 km LOST
P1510669 RS41 2019-01-15 01:17:57 43.5225 8.24629 171 ° 91 km/h 4550 m -8.1 m/s 402.80 MHz Imperia (IT) 0.00 km LOST
P1510480 RS41 2019-01-14 01:33:14 43.5695 8.50952 240 ° 7 km/h 293 m -5.9 m/s 402.80 MHz Imperia (IT) 0.00 km LOST
P1510479 RS41 2019-01-13 13:00:53 43.4996 7.67043 181 ° 70 km/h 4043 m -12.5 m/s 402.80 MHz Bordighera (IT) 0.00 km LOST
P1450478 RS41 2019-01-13 01:31:17 43.282 7.9841 22 ° 33 km/h 857 m -2.4 m/s 402.80 MHz Bordighera (IT) 0.00 km LOST
P1510152 RS41 2019-01-12 13:46:41 43.6536 7.72282 183 ° 46 km/h 4408 m -2.8 m/s 405.00 MHz Bordighera (IT) 0.00 km LOST
P1450221 RS41 2019-01-12 01:55:11 43.514 7.10442 214 ° 87 km/h 6095 m -3.2 m/s 405.00 MHz Antibes (FR) 0.00 km LOST
P1520049 RS41 2019-01-11 12:57:45 43.6488 7.1036 220 ° 154 km/h 7041 m -12.8 m/s 402.80 MHz Villeneuve-Loubet (FR) 0.00 km UNKNOWN
P1510488 RS41 2019-01-11 01:26:25 43.8103 7.45112 191 ° 33 km/h 4608 m -10.6 m/s 402.80 MHz Menton (FR) 0.00 km UNKNOWN
P1510490 RS41 2019-01-10 13:42:09 43.5435 7.43597 228 ° 56 km/h 5909 m -3.7 m/s 402.80 MHz Villefranche-sur-Mer (FR) 0.00 km LOST
P1510465 RS41 2019-01-10 01:26:53 43.7134 7.85304 212 ° 48 km/h 2418 m -5.3 m/s 402.80 MHz San Remo (IT) 0.00 km LOST
P1510921 RS41 2019-01-09 13:20:38 43.3911 8.91876 179 ° 57 km/h 116 m -10.1 m/s 402.80 MHz Bastia (FR) 0.00 km LOST
P1510934 RS41 2019-01-09 02:16:33 42.9213 9.03651 176 ° 9 km/h 807 m -1.8 m/s 402.80 MHz Bastia (FR) 0.00 km LOST
P1510489 RS41 2019-01-08 13:17:30 43.4101 8.82521 30 ° 52 km/h 775 m -6.6 m/s 402.80 MHz Imperia (IT) 0.00 km LOST
P1510492 RS41 2019-01-08 01:42:12 43.3093 8.27783 84 ° 13 km/h 709 m -5.3 m/s 402.80 MHz Imperia (IT) 0.00 km LOST
P1510469 RS41 2019-01-07 13:14:42 43.4608 8.07979 238 ° 30 km/h 574 m -5.5 m/s 402.80 MHz Taggia (IT) 0.00 km LOST
P1510497 RS41 2019-01-07 01:23:44 43.254 8.06893 226 ° 19 km/h 1015 m -6.7 m/s 402.80 MHz Bordighera (IT) 0.00 km LOST
P1510496 RS41 2019-01-06 01:20:05 43.1406 8.47279 212 ° 37 km/h 1184 m -3.0 m/s 402.80 MHz Calvi (FR) 0.00 km LOST
P1450844 RS41 2019-01-05 01:52:54 42.7306 7.78937 154 ° 33 km/h 2489 m -2.2 m/s 402.80 MHz Calvi (FR) 0.00 km LOST
P1510491 RS41 2019-01-04 01:50:43 43.061 8.18647 195 ° 130 km/h 7124 m -3.6 m/s 405.00 MHz Calvi (FR) 0.00 km LOST
P1450866 RS41 2018-12-29 01:49:23 43.9765 8.2276 71 ° 2 km/h 68 m -5.1 m/s 402.80 MHz Alassio (IT) 0.00 km LOST
P1450842 RS41 2018-12-28 02:58:06 43.5024 8.22598 70 ° 13 km/h 336 m -1.7 m/s 402.80 MHz Imperia (IT) 0.00 km LOST
P1450868 RS41 2018-12-27 13:08:33 44.035 8.01172 179 ° 11 km/h 1764 m -8.5 m/s 405.00 MHz Alassio (IT) 0.00 km UNKNOWN
P1450480 RS41 2018-12-27 01:51:21 43.9274 8.12264 10 ° 9 km/h 615 m -2.9 m/s 402.80 MHz Imperia (IT) 0.00 km UNKNOWN
P1450477 RS41 2018-12-26 13:39:15 43.6663 8.50796 33 ° 15 km/h 430 m -3.4 m/s 402.80 MHz Imperia (IT) 0.00 km LOST
P1450479 RS41 2018-12-26 01:08:20 43.7467 8.08175 222 ° 4 km/h 825 m -5.8 m/s 405.00 MHz Imperia (IT) 0.00 km LOST
P1520551 RS41 2018-12-25 13:34:45 42.9526 8.33175 190 ° 83 km/h 5734 m -3.5 m/s 405.00 MHz Calvi (FR) 0.00 km LOST
P1510466 RS41 2018-12-25 02:24:09 42.3599 10.5294 162 ° 41 km/h 3668 m -2.6 m/s 402.80 MHz Portoferraio (IT) 0.00 km LOST
P1510459 RS41 2018-12-24 13:03:00 43.3727 9.57354 67 ° 35 km/h 906 m -7.6 m/s 402.80 MHz Livorno (IT) 0.00 km LOST
P1520548 RS41 2018-12-24 01:48:13 43.1952 10.1472 51 ° 11 km/h 578 m -3.0 m/s 402.80 MHz Cecina (IT) 0.00 km LOST
P1510498 RS41 2018-12-23 12:59:51 43.4467 9.52087 27 ° 46 km/h 1155 m -8.4 m/s 402.80 MHz Livorno (IT) 0.00 km LOST
P1520233 RS41 2018-12-23 01:01:41 43.7024 9.29543 50 ° 17 km/h 461 m -6.4 m/s 402.80 MHz La Spezia (IT) 0.00 km LOST
P1510464 RS41 2018-12-22 13:31:54 43.6183 10.9843 79 ° 65 km/h 1887 m -9.5 m/s 402.80 MHz Castelfiorentino (IT) 0.00 km UNKNOWN
P1510473 RS41 2018-12-22 02:13:03 43.6567 10.7733 80 ° 61 km/h 1073 m -1.7 m/s 402.80 MHz Castelfranco di Sotto (IT) 0.00 km UNKNOWN
P1510471 RS41 2018-12-21 13:58:23 43.6125 11.2384 130 ° 67 km/h 4867 m -2.7 m/s 402.80 MHz San Casciano in Val di Pesa (IT) 0.00 km UNKNOWN
P1520234 RS41 2018-12-20 14:17:46 44.7646 11.519 86 ° 22 km/h 141 m -3.3 m/s 402.80 MHz Poggio Renatico (IT) 0.00 km UNKNOWN
P1510930 RS41 2018-12-20 02:22:02 44.7488 11.1793 337 ° 19 km/h 1258 m -3.1 m/s 402.80 MHz Crevalcore (IT) 0.00 km UNKNOWN
P1510925 RS41 2018-12-19 13:14:56 45.189 9.9625 350 ° 19 km/h 1165 m -4.1 m/s 402.80 MHz Cremona (IT) 0.00 km UNKNOWN
P1510611 RS41 2018-12-19 01:39:05 44.4809 9.52487 44 ° 31 km/h 1743 m -1.9 m/s 402.80 MHz Lavagna (IT) 0.00 km UNKNOWN
P1510577 RS41 2018-12-18 14:07:55 43.5007 9.91969 212 ° 7 km/h 318 m -3.3 m/s 402.80 MHz Livorno (IT) 0.00 km LOST
P1450208 RS41 2018-12-18 02:40:57 43.5112 10.8296 195 ° 30 km/h 816 m -2.4 m/s 402.80 MHz Volterra (IT) 0.00 km UNKNOWN
P1510612 RS41 2018-12-17 14:06:26 44.5217 10.0052 248 ° 35 km/h 1566 m -2.6 m/s 402.80 MHz Langhirano (IT) 0.00 km UNKNOWN
P1450210 RS41 2018-12-16 13:04:39 44.6653 9.83949 48 ° 52 km/h 1911 m -6.4 m/s 402.80 MHz Salsomaggiore Terme (IT) 0.00 km UNKNOWN
P1510913 RS41 2018-12-16 01:47:32 43.8664 9.95544 305 ° 20 km/h 179 m -4.2 m/s 402.80 MHz Pietrasanta (IT) 0.00 km LOST
P1510937 RS41 2018-12-15 13:34:49 43.1992 9.21669 171 ° 39 km/h 2224 m -3.3 m/s 405.00 MHz Bastia (FR) 0.00 km LOST
P1510922 RS41 2018-12-15 02:10:53 43.555 8.99937 193 ° 24 km/h 74 m -2.9 m/s 402.80 MHz Alassio (IT) 0.00 km LOST
P1510582 RS41 2018-12-14 13:55:18 43.9748 8.57064 164 ° 43 km/h 42 m -1.5 m/s 402.80 MHz Finale Ligure (IT) 0.00 km LOST
P1510936 RS41 2018-12-14 01:43:49 44.5064 8.88477 203 ° 28 km/h 1176 m -3.9 m/s 402.80 MHz Serra Riccò (IT) 0.00 km UNKNOWN
P1510902 RS41 2018-12-13 13:12:30 44.182 9.00402 180 ° 22 km/h 316 m -3.6 m/s 402.80 MHz Recco (IT) 0.00 km LOST
P1510905 RS41 2018-12-13 02:40:08 43.5672 9.59258 263 ° 44 km/h 277 m -4.1 m/s 402.80 MHz Livorno (IT) 0.00 km LOST
P1510899 RS41 2018-12-12 12:57:29 44.2337 8.52367 146 ° 31 km/h 152 m -11.3 m/s 402.80 MHz Vado Ligure (IT) 0.00 km LOST
P1510909 RS41 2018-12-12 01:33:39 43.9094 8.58871 299 ° 28 km/h 488 m -9.6 m/s 402.80 MHz Albenga (IT) 0.00 km LOST
P1510876 RS41 2018-12-11 13:59:12 42.8307 9.0864 140 ° 81 km/h 3669 m -2.3 m/s 402.80 MHz Bastia (FR) 0.00 km LOST
P1510939 RS41 2018-12-11 01:18:11 43.2163 8.5018 119 ° 31 km/h 2873 m -6.1 m/s 405.00 MHz Calvi (FR) 0.00 km LOST
P1510940 RS41 2018-12-10 13:10:48 43.2167 8.7636 149 ° 33 km/h 1793 m -10.6 m/s 402.80 MHz Calvi (FR) 0.00 km LOST
P1510904 RS41 2018-12-10 02:43:03 42.5207 9.87753 141 ° 46 km/h 1875 m -2.0 m/s 402.80 MHz Borgo (FR) 0.00 km LOST
P1510924 RS41 2018-12-09 13:22:00 43.6556 10.4185 82 ° 74 km/h 339 m -10.3 m/s 402.80 MHz Pisa (IT) 0.00 km UNKNOWN
P1510895 RS41 2018-12-09 01:57:57 43.3179 10.0866 63 ° 72 km/h 709 m -3.9 m/s 402.80 MHz Livorno (IT) 0.00 km LOST
P1510912 RS41 2018-12-08 02:05:49 43.9304 10.2853 52 ° 52 km/h 384 m -3.3 m/s 402.80 MHz Camaiore (IT) 0.00 km UNKNOWN
P1510896 RS41 2018-12-07 13:18:07 44.1564 9.00437 105 ° 30 km/h 2834 m -6.7 m/s 402.80 MHz Recco (IT) 0.00 km LOST
P1510911 RS41 2018-12-07 01:35:01 43.3699 8.22195 127 ° 15 km/h 2579 m -5.9 m/s 405.00 MHz Imperia (IT) 0.00 km LOST
P1510875 RS41 2018-12-06 13:26:54 43.1403 8.43201 177 ° 24 km/h 1423 m -5.0 m/s 402.80 MHz Calvi (FR) 0.00 km LOST
P1520068 RS41 2018-12-06 02:00:10 44.003 10.4535 80 ° 57 km/h 2270 m -2.8 m/s 404.00 MHz Barga (IT) 0.00 km UNKNOWN
P1510908 RS41 2018-12-05 13:21:50 43.838 9.7664 57 ° 6 km/h 866 m -7.7 m/s 402.80 MHz Lerici (IT) 0.00 km LOST
P1520205 RS41 2018-12-05 01:43:20 43.7947 10.4057 258 ° 7 km/h 768 m -8.5 m/s 402.80 MHz Vecchiano (IT) 0.00 km UNKNOWN
P1520119 RS41 2018-12-04 13:43:08 43.3867 10.6256 66 ° 17 km/h 785 m -2.9 m/s 402.80 MHz Cecina (IT) 0.00 km UNKNOWN
P1520222 RS41 2018-12-04 01:45:51 43.5037 10.5413 28 ° 19 km/h 1139 m -3.4 m/s 402.80 MHz Colle Salvetti (IT) 0.00 km UNKNOWN
P1520137 RS41 2018-12-03 13:44:17 43.9554 10.828 111 ° 43 km/h 2441 m -3.0 m/s 405.00 MHz Serravalle Pistoiese (IT) 0.00 km UNKNOWN
P1520221 RS41 2018-12-03 02:47:04 43.458 11.3855 103 ° 46 km/h 2007 m -2.2 m/s 402.80 MHz Cavriglia (IT) 0.00 km UNKNOWN
P1520138 RS41 2018-12-02 13:20:39 43.7323 9.35341 3 ° 19 km/h 118 m -10.2 m/s 402.80 MHz La Spezia (IT) 0.00 km LOST
P1520220 RS41 2018-12-02 01:38:20 43.6718 8.79386 77 ° 6 km/h 393 m -5.8 m/s 402.80 MHz Alassio (IT) 0.00 km LOST
P1520136 RS41 2018-12-01 13:55:06 43.5122 9.20318 219 ° 15 km/h 390 m -3.3 m/s 402.80 MHz La Spezia (IT) 0.00 km LOST
P1730085 RS41 2018-12-01 02:21:12 43.8963 9.22686 174 ° 22 km/h 260 m -3.8 m/s 405.00 MHz Sestri Levante (IT) 0.00 km LOST
P1730084 RS41 2018-11-30 13:29:29 44.916 9.24973 196 ° 6 km/h 571 m -3.8 m/s 402.80 MHz Voghera (IT) 0.00 km UNKNOWN
P1730007 RS41 2018-11-30 02:11:42 44.7638 9.67563 46 ° 15 km/h 1584 m -2.6 m/s 402.80 MHz Carpaneto Piacentino (IT) 0.00 km FOUND
P1520133 RS41 2018-11-29 12:58:30 44.0685 8.69612 168 ° 24 km/h 65 m -2.3 m/s 402.80 MHz Finale Ligure (IT) 0.00 km LOST
P1520219 RS41 2018-11-29 01:52:14 43.5721 8.87767 135 ° 9 km/h 652 m -5.9 m/s 402.80 MHz Alassio (IT) 0.00 km LOST
P1730328 RS41 2018-11-28 13:37:11 43.4904 8.96166 195 ° 26 km/h 1833 m -4.9 m/s 402.80 MHz Alassio (IT) 0.00 km LOST
P1730009 RS41 2018-11-28 01:30:05 43.5487 8.49245 188 ° 56 km/h 3948 m -7.4 m/s 402.80 MHz Imperia (IT) 0.00 km LOST
P1730082 RS41 2018-11-27 13:19:58 44.3296 8.54164 215 ° 13 km/h 771 m -11.4 m/s 402.80 MHz Varazze (IT) 0.00 km LOST
P1730081 RS41 2018-11-27 02:39:44 44.3105 8.79066 167 ° 37 km/h 410 m -3.8 m/s 402.80 MHz Arenzano (IT) 0.00 km LOST
P1730008 RS41 2018-11-26 13:39:09 44.82 8.72115 184 ° 2 km/h 502 m -8.9 m/s 402.80 MHz Novi Ligure (IT) 0.00 km UNKNOWN
P1730326 RS41 2018-11-26 02:02:18 44.2483 8.85226 184 ° 22 km/h 842 m -6.4 m/s 402.80 MHz Genoa (IT) 0.00 km LOST
P1730098 RS41 2018-11-25 13:38:03 45.0636 8.20449 60 ° 7 km/h 511 m -5.7 m/s 402.80 MHz Crescentino (IT) 0.00 km UNKNOWN
P1730097 RS41 2018-11-25 02:14:59 45.1754 8.51688 144 ° 7 km/h 601 m -2.8 m/s 402.80 MHz Casale Monferrato (IT) 0.00 km UNKNOWN
P1730079 RS41 2018-11-24 13:29:12 44.8808 8.55666 82 ° 9 km/h 1019 m -13.1 m/s 402.80 MHz Alessandria (IT) 0.00 km UNKNOWN
P1730099 RS41 2018-11-24 02:22:01 45.722 9.69605 87 ° 28 km/h 531 m -3.2 m/s 402.80 MHz Torre Boldone (IT) 0.00 km UNKNOWN
P1730100 RS41 2018-11-23 14:21:04 45.1835 9.5208 287 ° 41 km/h 669 m -1.8 m/s 402.80 MHz Casalpusterlengo (IT) 0.00 km UNKNOWN
P1730080 RS41 2018-11-23 02:12:48 44.5817 9.88649 55 ° 19 km/h 1728 m -3.5 m/s 402.80 MHz Salsomaggiore Terme (IT) 0.00 km UNKNOWN
P2940247 RS41 2018-11-22 13:31:51 44.5039 9.30725 10 ° 11 km/h 1275 m -4.4 m/s 402.80 MHz Rapallo (IT) 0.00 km UNKNOWN
P2930222 RS41 2018-11-22 02:04:23 44.6411 8.84056 169 ° 7 km/h 1703 m -3.2 m/s 402.80 MHz Novi Ligure (IT) 0.00 km UNKNOWN
P2940259 RS41 2018-11-21 13:15:43 44.9438 8.16483 244 ° 15 km/h 1191 m -10.6 m/s 402.80 MHz Asti (IT) 0.00 km UNKNOWN
P2940260 RS41 2018-11-21 02:37:21 45.1792 8.82281 295 ° 9 km/h 1872 m -2.3 m/s 402.80 MHz Garlasco (IT) 0.00 km UNKNOWN
P2940251 RS41 2018-11-20 13:39:58 45.1147 8.40324 224 ° 9 km/h 618 m -3.6 m/s 402.80 MHz Casale Monferrato (IT) 0.00 km NEED ATTENTION
P2940252 RS41 2018-11-20 01:30:23 45.0113 8.217 201 ° 20 km/h 571 m -10.2 m/s 402.80 MHz Asti (IT) 0.00 km UNKNOWN
P2940261 RS41 2018-11-19 13:45:15 44.83 8.24713 202 ° 22 km/h 695 m -4.2 m/s 402.80 MHz Asti (IT) 0.00 km UNKNOWN
P2940250 RS41 2018-11-19 02:26:52 44.261 7.69972 253 ° 9 km/h 2039 m -2.9 m/s 402.80 MHz Boves (IT) 0.00 km FOUND
P2940249 RS41 2018-11-18 13:01:29 44.3318 7.16548 218 ° 15 km/h 2594 m -8.2 m/s 402.80 MHz Borgo San Dalmazzo (IT) 0.00 km UNKNOWN
P2940248 RS41 2018-11-17 13:03:31 44.0421 6.81218 198 ° 31 km/h 6267 m -11.3 m/s 402.80 MHz Grasse (FR) 0.00 km UNKNOWN
P2940274 RS41 2018-11-17 01:36:00 43.6793 6.50721 215 ° 117 km/h 6470 m -6.6 m/s 402.80 MHz Draguignan (FR) 0.00 km UNKNOWN
P2930220 RS41 2018-11-16 13:33:37 43.8415 6.8576 219 ° 43 km/h 5838 m -5.0 m/s 402.80 MHz Grasse (FR) 0.00 km UNKNOWN
P2930213 RS41 2018-11-16 01:38:10 44.3174 7.08292 192 ° 11 km/h 2622 m -7.6 m/s 402.80 MHz Borgo San Dalmazzo (IT) 0.00 km UNKNOWN
P2930211 RS41 2018-11-15 13:22:32 44.6074 7.34376 63 ° 6 km/h 1839 m -12.5 m/s 405.00 MHz Saluzzo (IT) 0.00 km UNKNOWN
P2930212 RS41 2018-11-15 01:42:04 44.6541 7.1983 107 ° 2 km/h 1951 m -4.9 m/s 402.80 MHz Barge (IT) 0.00 km UNKNOWN
P2930227 RS41 2018-11-14 13:43:27 44.4379 8.12307 115 ° 11 km/h 1164 m -3.2 m/s 402.80 MHz Monesiglio (IT) 0.00 km UNKNOWN
P2930217 RS41 2018-11-14 01:42:56 44.5985 8.80441 24 ° 7 km/h 1462 m -7.2 m/s 402.80 MHz Ovada (IT) 0.00 km UNKNOWN
P2930218 RS41 2018-11-13 13:19:24 44.9969 9.15653 38 ° 11 km/h 375 m -6.0 m/s 402.80 MHz Voghera (IT) 0.00 km UNKNOWN
P2930219 RS41 2018-11-13 02:52:33 45.5046 10.1549 83 ° 33 km/h 1072 m -1.9 m/s 402.80 MHz Castel Mella (IT) 0.00 km FOUND
P2940614 RS41 2018-11-12 14:05:12 45.5601 9.43187 111 ° 15 km/h 246 m -1.6 m/s 402.80 MHz Gessate (IT) 0.00 km UNKNOWN
P2930228 RS41 2018-11-12 01:49:54 45.1202 9.33313 133 ° 6 km/h 201 m -7.8 m/s 402.80 MHz Stradella (IT) 0.00 km UNKNOWN
P2940576 RS41 2018-11-11 13:55:51 44.7547 9.6074 46 ° 19 km/h 988 m -3.9 m/s 402.80 MHz Podenzano (IT) 0.00 km UNKNOWN
P2930226 RS41 2018-11-11 02:01:36 44.1735 9.33757 57 ° 20 km/h 371 m -3.3 m/s 402.80 MHz Sestri Levante (IT) 0.00 km LOST
P2930225 RS41 2018-11-10 13:18:42 44.7002 8.60211 331 ° 9 km/h 724 m -6.4 m/s 402.80 MHz Ovada (IT) 0.00 km UNKNOWN
P2940626 RS41 2018-11-10 01:21:24 44.6233 8.11252 307 ° 4 km/h 1103 m -3.4 m/s 402.80 MHz Alba (IT) 0.00 km UNKNOWN
P2930192 RS41 2018-11-09 13:38:17 45.3272 8.85736 220 ° 6 km/h 410 m -9.4 m/s 402.80 MHz Vigevano (IT) 0.00 km UNKNOWN
P2930194 RS41 2018-11-09 01:30:26 45.3031 9.15967 274 ° 15 km/h 263 m -7.8 m/s 402.80 MHz Lacchiarella (IT) 0.00 km UNKNOWN
P2930221 RS41 2018-11-08 14:06:31 44.9866 9.75061 350 ° 22 km/h 1242 m -2.6 m/s 402.80 MHz Podenzano (IT) 0.00 km FOUND
P2930198 RS41 2018-11-08 01:56:38 45.1164 8.68273 354 ° 15 km/h 479 m -5.6 m/s 402.80 MHz Valenza (IT) 0.00 km UNKNOWN
P2930215 RS41 2018-11-07 13:19:48 44.8927 8.31901 9 ° 13 km/h 1368 m -11.7 m/s 402.80 MHz Asti (IT) 0.00 km UNKNOWN
P2940609 RS41 2018-11-07 01:54:58 45.2054 7.87931 235 ° 4 km/h 752 m -3.2 m/s 402.80 MHz Chivasso (IT) 0.00 km FOUND
P2930196 RS41 2018-11-06 13:33:32 45.6176 7.86462 309 ° 46 km/h 2546 m -7.2 m/s 402.80 MHz Biella (IT) 0.00 km UNKNOWN
P2940608 RS41 2018-11-06 02:03:26 45.3506 8.05154 289 ° 35 km/h 1271 m -5.3 m/s 402.80 MHz Vestignè (IT) 0.00 km UNKNOWN
P2940540 RS41 2018-11-05 13:25:54 44.7735 8.06401 230 ° 17 km/h 950 m -7.6 m/s 402.80 MHz Alba (IT) 0.00 km UNKNOWN
P2940630 RS41 2018-11-05 01:37:04 44.7295 7.68773 181 ° 11 km/h 563 m -7.7 m/s 402.80 MHz Racconigi (IT) 0.00 km UNKNOWN
P2940574 RS41 2018-11-04 13:10:43 44.7028 7.562 233 ° 35 km/h 1069 m -10.1 m/s 402.80 MHz Savigliano (IT) 0.00 km UNKNOWN
P2940628 RS41 2018-11-04 01:42:17 44.8695 7.58976 143 ° 6 km/h 611 m -5.2 m/s 402.80 MHz Carignano (IT) 0.00 km UNKNOWN
P2940627 RS41 2018-11-03 13:21:56 44.8924 7.63219 157 ° 7 km/h 540 m -6.0 m/s 402.80 MHz Carignano (IT) 0.00 km FOUND
P2940629 RS41 2018-11-03 03:44:53 44.5395 7.19886 185 ° 2 km/h 2194 m -1.0 m/s 402.80 MHz Busca (IT) 0.00 km UNKNOWN
P1520802 RS41 2018-11-02 14:21:29 45.6264 8.48557 182 ° 22 km/h 440 m -2.5 m/s 402.80 MHz Borgomanero (IT) 0.00 km UNKNOWN
P1520799 RS41 2018-11-02 01:30:27 45.6769 8.42088 184 ° 17 km/h 660 m -3.5 m/s 402.80 MHz Borgomanero (IT) 0.00 km UNKNOWN
P2940575 RS41 2018-10-31 14:11:55 46.2061 8.20398 323 ° 41 km/h 2748 m -2.6 m/s 402.80 MHz Domodossola (IT) 0.00 km UNKNOWN
P1520617 RS41 2018-10-31 01:44:26 45.4691 8.69479 248 ° 20 km/h 287 m -5.4 m/s 402.80 MHz Galliate (IT) 0.00 km UNKNOWN
P1520796 RS41 2018-10-30 13:48:23 45.2978 8.7489 40 ° 4 km/h 262 m -3.5 m/s 402.80 MHz Mortara (IT) 0.00 km UNKNOWN
P1520616 RS41 2018-10-30 01:34:55 45.2694 8.23048 337 ° 48 km/h 841 m -11.4 m/s 402.80 MHz Santhià (IT) 0.00 km UNKNOWN
P1520795 RS41 2018-10-29 13:23:04 45.8533 7.51564 320 ° 91 km/h 3962 m -6.0 m/s 402.80 MHz Aosta (IT) 0.00 km UNKNOWN
P1520797 RS41 2018-10-29 01:37:11 45.8248 8.23993 352 ° 11 km/h 1223 m -5.2 m/s 402.80 MHz Borgosesia (IT) 0.00 km UNKNOWN
P1520794 RS41 2018-10-28 13:13:36 45.4488 8.11913 15 ° 20 km/h 2682 m -11.5 m/s 405.00 MHz Santhià (IT) 0.00 km UNKNOWN
P1520716 RS41 2018-10-28 01:28:55 45.9228 8.50126 225 ° 7 km/h 1163 m -3.7 m/s 402.80 MHz Verbania (IT) 0.00 km LOST
P1520683 RS41 2018-10-27 12:30:57 45.4017 9.23165 273 ° 24 km/h 232 m -6.6 m/s 402.80 MHz Opera (IT) 0.00 km UNKNOWN
P1520801 RS41 2018-10-27 00:50:24 45.0275 9.5784 351 ° 13 km/h 406 m -6.4 m/s 402.80 MHz Rottofreno (IT) 0.00 km UNKNOWN
P1520704 RS41 2018-10-26 12:09:34 44.5775 9.01942 7 ° 31 km/h 1143 m -13.6 m/s 402.80 MHz Serra Riccò (IT) 0.00 km UNKNOWN
P1510949 RS41 2018-10-26 00:58:11 44.5138 9.11507 47 ° 11 km/h 995 m -4.7 m/s 402.80 MHz Serra Riccò (IT) 0.00 km UNKNOWN
P1520686 RS41 2018-10-25 12:16:03 44.1994 8.20049 345 ° 7 km/h 1530 m -4.5 m/s 402.80 MHz Pietra Ligure (IT) 0.00 km UNKNOWN
P1510916 RS41 2018-10-25 00:54:45 43.7811 7.68706 72 ° 30 km/h 3740 m -4.5 m/s 402.80 MHz Bordighera (IT) 0.00 km LOST
P1520682 RS41 2018-10-24 12:30:31 43.5979 7.22784 191 ° 33 km/h 6298 m -3.4 m/s 402.80 MHz Valbonne (FR) 0.00 km LOST
P1520719 RS41 2018-10-24 00:48:22 43.6975 7.2254 194 ° 46 km/h 5802 m -4.8 m/s 402.80 MHz Nice (FR) 0.00 km UNKNOWN
P1520703 RS41 2018-10-23 12:02:59 43.8268 6.91658 211 ° 65 km/h 6193 m -10.4 m/s 402.80 MHz Grasse (FR) 0.00 km UNKNOWN
P1520717 RS41 2018-10-23 01:29:09 43.5034 7.66777 200 ° 46 km/h 4350 m -2.4 m/s 402.80 MHz Bordighera (IT) 0.00 km LOST
P1510959 RS41 2018-10-22 12:01:34 43.7499 6.80339 216 ° 96 km/h 7188 m -6.2 m/s 405.00 MHz Grasse (FR) 0.00 km UNKNOWN
P1510947 RS41 2018-10-22 01:01:56 43.3748 6.88579 192 ° 100 km/h 6811 m -3.8 m/s 402.80 MHz Saint-Raphaël (FR) 0.00 km LOST
P1510641 RS41 2018-10-21 12:32:09 43.7099 6.84131 203 ° 65 km/h 7523 m -5.3 m/s 402.80 MHz Grasse (FR) 0.00 km UNKNOWN
P1510960 RS41 2018-10-21 00:55:09 43.8505 6.40731 226 ° 89 km/h 7697 m -3.3 m/s 402.80 MHz Digne-les-Bains (FR) 0.00 km UNKNOWN
P1510946 RS41 2018-10-20 13:24:53 44.2341 7.91961 177 ° 7 km/h 1942 m -2.1 m/s 402.80 MHz Mondovì (IT) 0.00 km LOST
P1520010 RS41 2018-10-20 00:34:39 44.4009 7.78823 105 ° 6 km/h 977 m -5.9 m/s 402.80 MHz Mondovì (IT) 0.00 km FOUND
P1510951 RS41 2018-10-19 12:21:27 44.4645 7.8282 143 ° 4 km/h 1470 m -12.2 m/s 405.00 MHz Mondovì (IT) 0.00 km FOUND
P1510628 RS41 2018-10-19 00:57:13 44.4827 7.43686 172 ° 13 km/h 1077 m -4.0 m/s 405.00 MHz Busca (IT) 0.00 km FOUND
P1510944 RS41 2018-10-18 13:17:30 44.4962 7.30867 335 ° 4 km/h 1502 m -2.8 m/s 402.80 MHz Busca (IT) 0.00 km FOUND
P1510932 RS41 2018-10-18 01:32:04 44.6197 7.08721 226 ° 30 km/h 2758 m -5.2 m/s 402.80 MHz Barge (IT) 0.00 km UNKNOWN
N1040209 RS41 2018-10-17 12:29:21 44.5451 7.25238 212 ° 15 km/h 2039 m -6.5 m/s 402.80 MHz Busca (IT) 0.00 km UNKNOWN
P1510931 RS41 2018-10-17 01:40:13 44.534 7.26755 208 ° 19 km/h 2043 m -2.7 m/s 402.80 MHz Busca (IT) 0.00 km UNKNOWN
P1510918 RS41 2018-10-16 12:14:18 44.5612 7.15135 271 ° 19 km/h 2953 m -8.0 m/s 402.80 MHz Barge (IT) 0.00 km UNKNOWN
P1520005 RS41 2018-10-16 00:55:42 44.5605 7.44467 164 ° 13 km/h 950 m -5.3 m/s 402.80 MHz Busca (IT) 0.00 km UNKNOWN
P1520009 RS41 2018-10-15 12:15:31 44.5086 7.75632 150 ° 17 km/h 1029 m -13.8 m/s 402.80 MHz Fossano (IT) 0.00 km UNKNOWN
P1510954 RS41 2018-10-15 01:04:09 44.094 7.88497 283 ° 13 km/h 2407 m -4.4 m/s 405.00 MHz Alassio (IT) 0.00 km UNKNOWN
P1520006 RS41 2018-10-14 12:18:41 44.1279 7.39383 348 ° 33 km/h 3700 m -10.6 m/s 402.80 MHz Borgo San Dalmazzo (IT) 0.00 km UNKNOWN
P1510950 RS41 2018-10-13 12:09:12 43.8849 7.22036 230 ° 20 km/h 4851 m -8.5 m/s 402.80 MHz Contes (FR) 0.00 km UNKNOWN
P1520003 RS41 2018-10-13 00:29:19 43.8543 7.29073 272 ° 31 km/h 4024 m -8.9 m/s 402.80 MHz Contes (FR) 0.00 km UNKNOWN
P1510952 RS41 2018-10-12 12:20:19 43.8654 7.7463 160 ° 35 km/h 4297 m -9.1 m/s 402.80 MHz San Remo (IT) 0.00 km UNKNOWN
N0630462 RS41 2018-10-12 01:01:42 44.6544 8.18168 36 ° 2 km/h 957 m -3.0 m/s 402.80 MHz Canelli (IT) 0.00 km UNKNOWN
N0610210 RS41 2018-10-11 01:34:33 45.2812 7.78947 261 ° 31 km/h 872 m -2.7 m/s 402.80 MHz Rivarolo Canavese (IT) 0.00 km LOST
N0610776 RS41 2018-10-10 11:57:47 44.776 7.58149 238 ° 19 km/h 1240 m -5.9 m/s 402.80 MHz Racconigi (IT) 0.00 km UNKNOWN
N0610209 RS41 2018-10-10 01:05:42 44.7433 6.95677 278 ° 43 km/h 3426 m -7.8 m/s 402.80 MHz Barge (IT) 0.00 km UNKNOWN
N0610778 RS41 2018-10-09 12:22:32 44.5673 6.88493 237 ° 7 km/h 3399 m -6.4 m/s 405.00 MHz Embrun (FR) 0.00 km UNKNOWN
N0630193 RS41 2018-10-09 01:06:33 44.566 7.1344 96 ° 6 km/h 2023 m -4.3 m/s 402.80 MHz Barge (IT) 0.00 km UNKNOWN
N1110187 RS41 2018-10-08 12:17:15 44.7334 7.45627 51 ° 2 km/h 427 m -4.7 m/s 402.80 MHz Saluzzo (IT) 0.00 km FOUND
N0610777 RS41 2018-10-08 00:26:09 44.7982 7.70774 153 ° 6 km/h 912 m -8.7 m/s 402.80 MHz Racconigi (IT) 0.00 km FOUND
N0610236 RS41 2018-10-07 13:22:05 45.0742 8.23458 357 ° 6 km/h 375 m -2.6 m/s 402.80 MHz Crescentino (IT) 0.00 km UNKNOWN
N0940091 RS41 2018-10-07 00:44:18 44.4858 8.45358 218 ° 9 km/h 921 m -5.7 m/s 402.80 MHz Cairo Montenotte (IT) 0.00 km UNKNOWN
N0610775 RS41 2018-10-06 12:59:11 44.6741 8.14673 107 ° 7 km/h 672 m -4.1 m/s 402.80 MHz Alba (IT) 0.00 km UNKNOWN
N1110202 RS41 2018-10-06 00:33:17 44.756 7.24691 157 ° 7 km/h 1222 m -6.9 m/s 402.80 MHz Barge (IT) 0.00 km FOUND
N1110201 RS41 2018-10-05 12:52:02 44.8015 7.50845 281 ° 6 km/h 382 m -6.6 m/s 402.80 MHz Racconigi (IT) 0.00 km FOUND
N1110191 RS41 2018-10-05 01:20:41 44.4509 7.26829 319 ° 2 km/h 1212 m -3.3 m/s 402.80 MHz Busca (IT) 0.00 km UNKNOWN
N1040119 RS41 2018-10-04 01:21:24 44.1136 7.90319 175 ° 54 km/h 1789 m -2.2 m/s 402.80 MHz Alassio (IT) 0.00 km UNKNOWN
N1110204 RS41 2018-10-03 12:17:11 44.2784 7.66859 186 ° 13 km/h 838 m -10.3 m/s 402.80 MHz Boves (IT) 0.00 km FOUND
N1120110 RS41 2018-10-03 00:44:26 44.0957 7.4949 215 ° 46 km/h 2710 m -7.5 m/s 402.80 MHz Borgo San Dalmazzo (IT) 0.00 km UNKNOWN
N1110203 RS41 2018-10-02 01:11:01 43.5432 7.32742 211 ° 72 km/h 5530 m -3.8 m/s 402.80 MHz Valbonne (FR) 0.00 km LOST
N1130011 RS41 2018-09-30 01:11:44 44.9625 7.65544 182 ° 19 km/h 395 m -3.7 m/s 402.80 MHz La Loggia (IT) 0.00 km UNKNOWN
N0630455 RS41 2018-09-29 12:54:04 44.5002 7.86503 153 ° 9 km/h 703 m -4.8 m/s 405.00 MHz Fossano (IT) 0.00 km FOUND
N1110199 RS41 2018-09-29 01:57:57 44.3381 9.07428 306 ° 7 km/h 272 m -2.6 m/s 402.80 MHz Recco (IT) 0.00 km LOST
N1110192 RS41 2018-09-28 13:01:54 44.2341 8.33485 217 ° 9 km/h 948 m -4.7 m/s 402.80 MHz Finale Ligure (IT) 0.00 km UNKNOWN
N0610237 RS41 2018-09-28 01:06:14 44.1333 7.8012 223 ° 7 km/h 2073 m -4.2 m/s 402.80 MHz Mondovì (IT) 0.00 km FOUND
N1110188 RS41 2018-09-27 12:46:51 44.2934 7.4635 228 ° 7 km/h 1119 m -6.1 m/s 402.80 MHz Borgo San Dalmazzo (IT) 0.00 km FOUND
N1130012 RS41 2018-09-27 00:54:04 44.1363 7.10977 203 ° 22 km/h 3664 m -4.5 m/s 402.80 MHz Borgo San Dalmazzo (IT) 0.00 km UNKNOWN
N1110189 RS41 2018-09-26 12:55:26 43.7957 6.83674 242 ° 28 km/h 5412 m -2.3 m/s 405.00 MHz Grasse (FR) 0.00 km UNKNOWN
N1140216 RS41 2018-09-26 01:28:57 43.5438 7.79107 195 ° 31 km/h 4135 m -3.2 m/s 405.00 MHz Bordighera (IT) 0.00 km LOST
N1110200 RS41 2018-09-25 13:18:29 43.7729 8.42959 191 ° 74 km/h 235 m -3.3 m/s 402.80 MHz Alassio (IT) 0.00 km LOST
N0610685 RS41 2018-09-25 00:27:57 44.1596 8.56756 149 ° 59 km/h 65 m -8.8 m/s 402.80 MHz Vado Ligure (IT) 0.00 km LOST
N0610686 RS41 2018-09-24 13:21:29 43.6452 9.05073 207 ° 24 km/h 795 m -1.7 m/s 402.80 MHz Sestri Levante (IT) 0.00 km LOST
N0610657 RS41 2018-09-24 01:25:11 44.2886 9.92526 28 ° 26 km/h 1622 m -4.0 m/s 402.80 MHz Aulla (IT) 0.00 km UNKNOWN
N0610656 RS41 2018-09-23 12:34:38 44.4812 8.6133 35 ° 20 km/h 1691 m -8.1 m/s 402.80 MHz Arenzano (IT) 0.00 km UNKNOWN
N0610655 RS41 2018-09-23 00:39:31 43.9834 8.54457 316 ° 4 km/h 51 m -2.7 m/s 402.80 MHz Finale Ligure (IT) 0.00 km LOST
N0610687 RS41 2018-09-22 12:29:12 43.8532 8.39116 258 ° 15 km/h 743 m -7.8 m/s 402.80 MHz Alassio (IT) 0.00 km LOST
N0610688 RS41 2018-09-22 00:33:41 44.1575 8.54641 302 ° 13 km/h 626 m -15.6 m/s 405.00 MHz Vado Ligure (IT) 0.00 km LOST
N0610650 RS41 2018-09-21 12:18:25 44.4079 8.18625 316 ° 9 km/h 691 m -5.7 m/s 402.80 MHz Cairo Montenotte (IT) 0.00 km FOUND
N0610646 RS41 2018-09-21 00:51:18 44.3495 7.94066 115 ° 9 km/h 1021 m -5.5 m/s 402.80 MHz Mondovì (IT) 0.00 km FOUND
N0520093 RS41 2018-09-20 12:01:24 44.3213 7.66618 247 ° 4 km/h 712 m -4.1 m/s 402.80 MHz Boves (IT) 0.00 km FOUND
N0520081 RS41 2018-09-20 01:23:51 44.1868 7.98822 175 ° 22 km/h 1587 m -7.3 m/s 402.80 MHz Loano (IT) 0.00 km UNKNOWN
N0520092 RS41 2018-09-19 12:26:33 44.5368 8.12588 226 ° 9 km/h 750 m -13.5 m/s 402.80 MHz Monesiglio (IT) 0.00 km FOUND
N0440323 RS41 2018-09-19 00:28:21 44.5292 8.3079 201 ° 15 km/h 589 m -3.1 m/s 402.80 MHz Cairo Montenotte (IT) 0.00 km UNKNOWN
N0440321 RS41 2018-09-18 12:23:01 44.6135 8.45935 8 ° 2 km/h 1458 m -4.8 m/s 405.00 MHz Acqui Terme (IT) 0.00 km UNKNOWN
N0450264 RS41 2018-09-18 00:37:47 44.6111 7.93642 56 ° 13 km/h 498 m -6.9 m/s 402.80 MHz Cherasco (IT) 0.00 km FOUND
N0450234 RS41 2018-09-17 11:54:19 44.4732 7.86022 153 ° 7 km/h 481 m -13.0 m/s 402.80 MHz Mondovì (IT) 0.00 km FOUND
N0440375 RS41 2018-09-17 00:50:03 44.6142 8.22107 54 ° 11 km/h 653 m -5.3 m/s 402.80 MHz Canelli (IT) 0.00 km FOUND
N0520095 RS41 2018-09-16 12:48:57 44.8024 8.41272 213 ° 9 km/h 1008 m -4.7 m/s 402.80 MHz Nizza Monferrato (IT) 0.00 km UNKNOWN
N0510319 RS41 2018-09-16 00:35:49 44.4976 8.42699 29 ° 26 km/h 1001 m -2.9 m/s 402.80 MHz Cairo Montenotte (IT) 0.00 km UNKNOWN
N0520329 RS41 2018-09-15 12:19:58 44.5484 8.56371 277 ° 17 km/h 1789 m -13.4 m/s 402.80 MHz Ovada (IT) 0.00 km UNKNOWN
N0440374 RS41 2018-09-15 01:40:05 44.3755 9.24913 308 ° 15 km/h 609 m -2.4 m/s 402.80 MHz Rapallo (IT) 0.00 km UNKNOWN
N0520096 RS41 2018-09-14 12:12:53 44.4412 8.54105 330 ° 24 km/h 1234 m -10.6 m/s 402.80 MHz Varazze (IT) 0.00 km UNKNOWN
N0450231 RS41 2018-09-14 01:40:00 44.1978 8.72393 182 ° 0 km/h 280 m -2.1 m/s 402.80 MHz Varazze (IT) 0.00 km LOST
N0520094 RS41 2018-09-13 12:33:22 44.2034 7.99016 214 ° 15 km/h 1775 m -4.0 m/s 402.80 MHz Loano (IT) 0.00 km UNKNOWN
N0520083 RS41 2018-09-12 12:51:48 44.9581 8.32116 188 ° 13 km/h 493 m -1.8 m/s 402.80 MHz Asti (IT) 0.00 km UNKNOWN
N0510531 RS41 2018-09-12 00:54:11 44.8231 7.60835 172 ° 11 km/h 338 m -5.9 m/s 402.80 MHz Racconigi (IT) 0.00 km FOUND
N0510530 RS41 2018-09-11 12:14:10 44.5455 7.42947 236 ° 4 km/h 1021 m -14.0 m/s 402.80 MHz Busca (IT) 0.00 km FOUND
N0520097 RS41 2018-09-11 00:35:24 44.2582 7.45638 251 ° 17 km/h 3189 m -14.2 m/s 402.80 MHz Borgo San Dalmazzo (IT) 0.00 km UNKNOWN
N0520098 RS41 2018-09-10 13:19:08 44.2154 8.1193 256 ° 6 km/h 1710 m -2.6 m/s 402.80 MHz Loano (IT) 0.00 km UNKNOWN
N0450282 RS41 2018-09-10 00:34:35 44.5647 8.23447 238 ° 15 km/h 894 m -8.1 m/s 402.80 MHz Monesiglio (IT) 0.00 km FOUND
N0440320 RS41 2018-09-09 12:43:19 44.554 8.52184 226 ° 6 km/h 839 m -4.6 m/s 402.80 MHz Ovada (IT) 0.00 km UNKNOWN
N0450295 RS41 2018-09-09 01:19:50 44.4719 9.01767 228 ° 15 km/h 807 m -2.5 m/s 402.80 MHz Serra Riccò (IT) 0.00 km UNKNOWN
N0450280 RS41 2018-09-08 12:08:02 44.5739 8.51867 192 ° 4 km/h 1244 m -5.3 m/s 402.80 MHz Acqui Terme (IT) 0.00 km UNKNOWN
N0440376 RS41 2018-09-07 12:30:51 44.5317 8.23164 158 ° 11 km/h 4812 m -6.4 m/s 402.80 MHz Monesiglio (IT) 0.00 km FOUND
N0440314 RS41 2018-09-07 01:16:07 44.6996 8.569 286 ° 6 km/h 1624 m -2.7 m/s 402.80 MHz Acqui Terme (IT) 0.00 km UNKNOWN
N0450278 RS41 2018-09-06 13:14:08 44.99 8.72675 56 ° 20 km/h 1921 m -2.6 m/s 402.80 MHz Valenza (IT) 0.00 km UNKNOWN
N0440313 RS41 2018-09-06 01:36:35 44.6601 8.52156 205 ° 17 km/h 1376 m -1.7 m/s 402.80 MHz Acqui Terme (IT) 0.00 km UNKNOWN
N0440324 RS41 2018-09-05 13:14:38 44.4657 8.54093 296 ° 6 km/h 1207 m -3.4 m/s 402.80 MHz Cogoleto (IT) 0.00 km UNKNOWN
N0450296 RS41 2018-09-05 00:32:14 44.3153 8.30216 318 ° 13 km/h 708 m -5.5 m/s 402.80 MHz Cairo Montenotte (IT) 0.00 km UNKNOWN
N0510317 RS41 2018-09-04 13:12:37 44.3604 8.68849 308 ° 15 km/h 88 m -3.5 m/s 402.80 MHz Cogoleto (IT) 0.00 km LOST
N0440334 RS41 2018-09-04 00:45:25 44.2189 8.62418 122 ° 46 km/h 5571 m -9.1 m/s 402.80 MHz Savona (IT) 0.00 km LOST
N0450251 RS41 2018-09-03 12:15:35 44.317 8.35456 106 ° 39 km/h 4202 m -9.6 m/s 402.80 MHz Vado Ligure (IT) 0.00 km UNKNOWN
N0450281 RS41 2018-09-03 00:28:54 44.3286 7.94733 134 ° 80 km/h 9158 m -11.0 m/s 402.80 MHz Mondovì (IT) 0.00 km UNKNOWN
N0450248 RS41 2018-09-02 12:11:00 44.2971 7.52848 157 ° 33 km/h 6391 m -9.7 m/s 402.80 MHz Boves (IT) 0.00 km UNKNOWN
N0510316 RS41 2018-09-02 00:36:07 44.2678 7.24981 222 ° 80 km/h 7121 m -10.0 m/s 402.80 MHz Borgo San Dalmazzo (IT) 0.00 km UNKNOWN
N0520061 RS41 2018-09-01 12:15:50 44.3764 7.80321 150 ° 30 km/h 4351 m -12.4 m/s 402.80 MHz Mondovì (IT) 0.00 km FOUND
N0520311 RS41 2018-09-01 00:53:04 44.6504 8.18104 97 ° 41 km/h 4174 m -5.3 m/s 402.80 MHz Canelli (IT) 0.00 km FOUND
N0520310 RS41 2018-08-31 12:33:50 44.6694 8.3876 66 ° 39 km/h 4144 m -4.6 m/s 402.80 MHz Acqui Terme (IT) 0.00 km UNKNOWN
N0520309 RS41 2018-08-31 00:38:47 44.5196 8.16562 331 ° 11 km/h 2552 m -10.7 m/s 402.80 MHz Monesiglio (IT) 0.00 km FOUND
N0520308 RS41 2018-08-30 12:17:07 44.5753 8.06349 98 ° 4 km/h 1973 m -9.4 m/s 402.80 MHz Monesiglio (IT) 0.00 km FOUND
N0520307 RS41 2018-08-29 12:32:08 44.9071 7.92264 53 ° 7 km/h 1565 m -6.3 m/s 402.80 MHz Poirino (IT) 0.00 km UNKNOWN
N0520324 RS41 2018-08-29 00:51:39 44.7093 8.06073 162 ° 9 km/h 1438 m -5.3 m/s 402.80 MHz Alba (IT) 0.00 km FOUND
N0520056 RS41 2018-08-28 12:32:44 44.51 7.9465 36 ° 11 km/h 2111 m -6.1 m/s 402.80 MHz Monesiglio (IT) 0.00 km FOUND
N0520301 RS41 2018-08-28 01:36:13 44.4486 8.34481 146 ° 15 km/h 6593 m -2.9 m/s 402.80 MHz Cairo Montenotte (IT) 0.00 km UNKNOWN
N0520304 RS41 2018-08-26 23:12:32 44.2531 7.87649 152 ° 96 km/h 9568 m 2.5 m/s 402.80 MHz Mondovì (IT) 0.00 km UNKNOWN
N0520303 RS41 2018-08-26 10:51:34 43.9129 7.91875 159 ° 150 km/h 12367 m 3.4 m/s 402.80 MHz Imperia (IT) 0.00 km UNKNOWN
N0520302 RS41 2018-08-26 01:00:26 44.593 8.52613 88 ° 69 km/h 6062 m -7.4 m/s 402.80 MHz Acqui Terme (IT) 0.00 km UNKNOWN
N0440333 RS41 2018-08-25 12:23:59 44.8018 8.5654 77 ° 76 km/h 8315 m -6.4 m/s 402.80 MHz Alessandria (IT) 0.00 km UNKNOWN
N0450201 RS41 2018-08-25 00:44:12 44.4493 8.75328 104 ° 41 km/h 4727 m -3.4 m/s 402.80 MHz Arenzano (IT) 0.00 km UNKNOWN
N0520019 RS41 2018-08-24 12:28:50 44.6932 8.19084 65 ° 20 km/h 2933 m -5.5 m/s 402.80 MHz Canelli (IT) 0.00 km UNKNOWN
N0520027 RS41 2018-08-24 01:45:10 44.6166 7.9113 79 ° 9 km/h 1331 m -2.3 m/s 402.80 MHz Cherasco (IT) 0.00 km UNKNOWN
N0520021 RS41 2018-08-23 12:23:15 44.6686 7.57759 326 ° 9 km/h 1353 m -4.9 m/s 402.80 MHz Savigliano (IT) 0.00 km FOUND
N0450200 RS41 2018-08-23 00:44:42 44.6511 7.33411 333 ° 4 km/h 1343 m -14.5 m/s 402.80 MHz Barge (IT) 0.00 km FOUND
N0520022 RS41 2018-08-22 12:15:14 44.6408 7.07354 295 ° 28 km/h 5573 m -8.2 m/s 402.80 MHz Barge (IT) 0.00 km UNKNOWN
N0520020 RS41 2018-08-22 00:30:27 44.4866 7.09167 255 ° 17 km/h 3269 m -8.7 m/s 402.80 MHz Busca (IT) 0.00 km UNKNOWN
N0520024 RS41 2018-08-21 00:44:46 44.3991 6.80603 251 ° 78 km/h 10973 m -5.6 m/s 402.80 MHz Embrun (FR) 0.00 km UNKNOWN
N0520023 RS41 2018-08-20 12:22:27 44.3378 6.9043 228 ° 33 km/h 7596 m -4.9 m/s 402.80 MHz Embrun (FR) 0.00 km UNKNOWN
N0520015 RS41 2018-08-19 12:15:35 44.4929 7.12923 234 ° 6 km/h 2947 m -7.7 m/s 402.80 MHz Busca (IT) 0.00 km UNKNOWN
N0520016 RS41 2018-08-19 00:25:23 44.4855 7.37538 192 ° 20 km/h 2061 m -4.3 m/s 402.80 MHz Busca (IT) 0.00 km FOUND
N0520034 RS41 2018-08-17 01:12:56 44.608 7.85588 53 ° 6 km/h 5656 m -2.6 m/s 402.80 MHz Cherasco (IT) 0.00 km FOUND
N0520035 RS41 2018-08-16 12:16:56 44.4596 7.5057 165 ° 6 km/h 2572 m -11.4 m/s 402.80 MHz Busca (IT) 0.00 km FOUND
N0520033 RS41 2018-08-15 12:17:48 44.1405 7.54675 154 ° 74 km/h 9945 m -5.7 m/s 402.80 MHz Boves (IT) 0.00 km UNKNOWN
N0450151 RS41 2018-08-15 00:44:41 43.8764 7.37151 174 ° 106 km/h 8347 m -6.2 m/s 402.80 MHz Contes (FR) 0.00 km UNKNOWN
N0450148 RS41 2018-08-13 00:41:48 44.6237 7.81782 65 ° 22 km/h 4670 m -7.0 m/s 402.80 MHz Cherasco (IT) 0.00 km FOUND
N0450149 RS41 2018-08-12 12:45:20 44.5798 7.79161 92 ° 30 km/h 3421 m -4.7 m/s 402.80 MHz Fossano (IT) 0.00 km FOUND
N0450169 RS41 2018-08-12 00:24:20 44.4414 7.8772 77 ° 24 km/h 5396 m -7.0 m/s 402.80 MHz Mondovì (IT) 0.00 km FOUND
N0450152 RS41 2018-08-11 12:37:55 44.6284 8.32458 97 ° 39 km/h 4958 m -3.8 m/s 402.80 MHz Canelli (IT) 0.00 km UNKNOWN
N1210132 RS41 2018-08-11 00:39:06 44.5837 8.16938 45 ° 24 km/h 3182 m -6.0 m/s 402.80 MHz Monesiglio (IT) 0.00 km UNKNOWN
N1210121 RS41 2018-08-10 12:40:36 45.2245 8.5316 64 ° 74 km/h 9161 m -3.5 m/s 402.80 MHz Casale Monferrato (IT) 0.00 km UNKNOWN
N1210122 RS41 2018-08-10 00:42:20 45.1463 7.93969 92 ° 17 km/h 2480 m -11.3 m/s 402.80 MHz Chivasso (IT) 0.00 km UNKNOWN
N1210123 RS41 2018-08-09 12:50:56 45.2596 8.04925 341 ° 13 km/h 1883 m -2.7 m/s 402.80 MHz Crescentino (IT) 0.00 km UNKNOWN
N1230692 RS41 2018-08-09 00:47:21 44.8079 7.42826 317 ° 7 km/h 724 m -9.2 m/s 402.80 MHz Pinerolo (IT) 0.00 km FOUND
N1230708 RS41 2018-08-08 13:13:16 45.0606 7.71865 319 ° 6 km/h 402 m -4.5 m/s 402.80 MHz Turin (IT) 0.00 km FOUND
N1230672 RS41 2018-08-08 00:44:23 44.6717 7.45417 299 ° 11 km/h 927 m -6.2 m/s 402.80 MHz Saluzzo (IT) 0.00 km FOUND
N1210127 RS41 2018-08-07 13:07:36 44.8941 7.559 308 ° 7 km/h 739 m -4.2 m/s 402.80 MHz None (IT) 0.00 km FOUND
N1210131 RS41 2018-08-07 00:48:30 44.6272 7.30829 292 ° 4 km/h 1757 m -15.9 m/s 402.80 MHz Barge (IT) 0.00 km UNKNOWN
N1210128 RS41 2018-08-06 12:58:27 44.7042 7.47802 231 ° 9 km/h 973 m -3.8 m/s 402.80 MHz Saluzzo (IT) 0.00 km FOUND
N1210129 RS41 2018-08-06 00:40:36 44.5787 7.29821 229 ° 6 km/h 1732 m -11.9 m/s 402.80 MHz Busca (IT) 0.00 km UNKNOWN
N1210130 RS41 2018-08-05 12:18:41 44.5342 7.3301 246 ° 13 km/h 1519 m -5.7 m/s 402.80 MHz Busca (IT) 0.00 km UNKNOWN
N1230690 RS41 2018-08-05 00:45:07 44.3799 7.19642 217 ° 22 km/h 2926 m -11.5 m/s 402.80 MHz Borgo San Dalmazzo (IT) 0.00 km UNKNOWN
N1230688 RS41 2018-08-04 12:10:02 44.286 7.08348 197 ° 24 km/h 3836 m -14.5 m/s 402.80 MHz Borgo San Dalmazzo (IT) 0.00 km UNKNOWN
N1230689 RS41 2018-08-04 00:37:35 44.2991 6.8339 220 ° 30 km/h 10619 m -17.0 m/s 402.80 MHz Embrun (FR) 0.00 km UNKNOWN
N1230697 RS41 2018-08-03 00:52:19 44.4191 6.93018 268 ° 33 km/h 8220 m -5.7 m/s 402.80 MHz Embrun (FR) 0.00 km UNKNOWN
N1230695 RS41 2018-08-02 12:24:05 44.4867 6.96652 228 ° 20 km/h 6684 m -9.7 m/s 402.80 MHz Embrun (FR) 0.00 km UNKNOWN
N1230696 RS41 2018-08-02 01:21:25 44.6668 7.18119 188 ° 4 km/h 2302 m -4.1 m/s 402.80 MHz Barge (IT) 0.00 km UNKNOWN
N1230304 RS41 2018-08-01 12:34:16 44.7394 7.58557 312 ° 7 km/h 917 m -4.8 m/s 402.80 MHz Racconigi (IT) 0.00 km FOUND
N1230694 RS41 2018-08-01 00:49:40 44.5538 7.36566 219 ° 4 km/h 1345 m -11.2 m/s 402.80 MHz Busca (IT) 0.00 km UNKNOWN
N1230686 RS41 2018-07-31 12:04:28 44.4886 7.38075 197 ° 7 km/h 3645 m -9.9 m/s 402.80 MHz Busca (IT) 0.00 km FOUND
N1230687 RS41 2018-07-31 00:32:20 44.3681 7.25105 240 ° 7 km/h 2743 m -9.0 m/s 402.80 MHz Borgo San Dalmazzo (IT) 0.00 km UNKNOWN
N1230306 RS41 2018-07-30 12:14:42 44.5415 7.36058 275 ° 11 km/h 1478 m -10.6 m/s 402.80 MHz Busca (IT) 0.00 km UNKNOWN
N1230305 RS41 2018-07-30 01:11:14 44.7024 7.70941 79 ° 9 km/h 652 m -3.6 m/s 402.80 MHz Racconigi (IT) 0.00 km FOUND
N1230685 RS41 2018-07-29 12:36:27 44.6024 7.66923 309 ° 15 km/h 1347 m -5.2 m/s 402.80 MHz Savigliano (IT) 0.00 km FOUND
N1230303 RS41 2018-07-29 00:43:40 44.3064 7.91283 128 ° 69 km/h 8028 m -4.8 m/s 402.80 MHz Mondovì (IT) 0.00 km UNKNOWN
N1230302 RS41 2018-07-28 12:04:47 44.5864 7.947 327 ° 11 km/h 1583 m -10.4 m/s 402.80 MHz Cherasco (IT) 0.00 km FOUND
N1230312 RS41 2018-07-27 12:51:25 44.4919 7.52044 46 ° 19 km/h 2732 m -3.7 m/s 402.80 MHz Busca (IT) 0.00 km FOUND
N1230693 RS41 2018-07-27 01:08:12 44.4087 7.18746 118 ° 6 km/h 3595 m -3.7 m/s 402.80 MHz Borgo San Dalmazzo (IT) 0.00 km FOUND
N1210120 RS41 2018-07-26 12:32:32 44.576 7.34226 46 ° 9 km/h 1580 m -5.6 m/s 402.80 MHz Busca (IT) 0.00 km FOUND
N1230308 RS41 2018-07-26 00:32:47 44.4944 7.29571 236 ° 7 km/h 2574 m -7.4 m/s 402.80 MHz Busca (IT) 0.00 km FOUND
N1230309 RS41 2018-07-25 12:38:19 44.4663 7.25174 257 ° 4 km/h 2188 m -5.3 m/s 402.80 MHz Busca (IT) 0.00 km UNKNOWN
N1230311 RS41 2018-07-25 00:40:37 44.5508 7.32921 216 ° 15 km/h 1777 m -10.3 m/s 402.80 MHz Busca (IT) 0.00 km UNKNOWN
N1230310 RS41 2018-07-24 13:37:05 44.5751 7.71694 132 ° 11 km/h 833 m -2.3 m/s 402.80 MHz Fossano (IT) 0.00 km UNKNOWN
N1210119 RS41 2018-07-24 00:34:02 44.0483 7.63638 153 ° 65 km/h 10798 m -6.4 m/s 402.80 MHz San Remo (IT) 0.00 km UNKNOWN
N1210118 RS41 2018-07-23 12:10:48 43.9549 7.42997 169 ° 63 km/h 8981 m -9.0 m/s 402.80 MHz Contes (FR) 0.00 km UNKNOWN
N1210117 RS41 2018-07-23 00:52:38 43.9791 7.27425 221 ° 24 km/h 3904 m -2.7 m/s 402.80 MHz Contes (FR) 0.00 km UNKNOWN
N1210116 RS41 2018-07-22 12:35:48 44.7416 8.38852 120 ° 15 km/h 5856 m -1.3 m/s 402.80 MHz Nizza Monferrato (IT) 0.00 km UNKNOWN
N1210115 RS41 2018-07-22 01:07:23 44.6619 8.11622 103 ° 17 km/h 3940 m -4.4 m/s 402.80 MHz Alba (IT) 0.00 km UNKNOWN
M3930524 RS41 2018-07-21 12:33:54 44.9349 8.29693 75 ° 31 km/h 4432 m -4.8 m/s 402.80 MHz Asti (IT) 0.00 km UNKNOWN
M3930531 RS41 2018-07-20 12:46:04 44.7755 8.57553 106 ° 50 km/h 7296 m -3.8 m/s 402.80 MHz Acqui Terme (IT) 0.00 km UNKNOWN
M3930492 RS41 2018-07-20 00:22:08 44.6355 8.31508 90 ° 43 km/h 5681 m -10.5 m/s 402.80 MHz Canelli (IT) 0.00 km UNKNOWN
M3850301 RS41 2018-07-19 11:36:25 44.4742 8.01529 229 ° 59 km/h 30669 m -19.2 m/s 402.80 MHz Monesiglio (IT) 0.00 km UNKNOWN
M3850290 RS41 2018-07-19 00:12:01 44.582 7.9578 285 ° 72 km/h 33839 m 5.1 m/s 402.80 MHz Cherasco (IT) 0.00 km UNKNOWN
M3930493 RS41 2018-07-18 00:55:25 44.3065 8.64802 122 ° 72 km/h 7391 m -5.6 m/s 402.80 MHz Varazze (IT) 0.00 km LOST
M4130347 RS41 2018-07-17 12:30:40 44.3736 8.5491 128 ° 65 km/h 7803 m -3.5 m/s 402.80 MHz Varazze (IT) 0.00 km UNKNOWN
M3830548 RS41 2018-07-17 01:28:30 44.4266 8.14012 201 ° 33 km/h 2444 m -2.4 m/s 402.80 MHz Monesiglio (IT) 0.00 km UNKNOWN
M3850304 RS41 2018-07-16 11:27:04 44.8717 8.02631 242 ° 30 km/h 27925 m -18.8 m/s 402.80 MHz Asti (IT) 0.00 km UNKNOWN
M3930421 RS41 2018-07-16 00:46:46 44.7943 8.69434 76 ° 174 km/h 11981 m -3.9 m/s 402.80 MHz Novi Ligure (IT) 0.00 km UNKNOWN
M3930526 RS41 2018-07-15 11:52:52 44.722 8.64775 95 ° 117 km/h 7965 m -14.0 m/s 402.80 MHz Ovada (IT) 0.00 km UNKNOWN
M3830581 RS41 2018-07-15 00:24:52 44.7074 8.72514 89 ° 183 km/h 10014 m -6.1 m/s 402.80 MHz Novi Ligure (IT) 0.00 km UNKNOWN
M3850278 RS41 2018-07-14 11:40:48 44.6463 8.21247 278 ° 57 km/h 31778 m -28.2 m/s 402.80 MHz Canelli (IT) 0.00 km UNKNOWN
M3850289 RS41 2018-07-13 23:57:04 44.6254 8.2539 288 ° 57 km/h 31833 m -34.6 m/s 402.80 MHz Canelli (IT) 0.00 km UNKNOWN
M3850293 RS41 2018-07-13 11:29:23 44.6824 8.34371 253 ° 61 km/h 27875 m -19.7 m/s 402.80 MHz Canelli (IT) 0.00 km UNKNOWN
M3830553 RS41 2018-07-13 01:31:09 44.5656 8.73787 98 ° 180 km/h 11562 m -5.7 m/s 402.80 MHz Ovada (IT) 0.00 km UNKNOWN
M3850305 RS41 2018-07-12 12:04:02 44.778 7.70378 268 ° 74 km/h 33229 m -39.4 m/s 402.80 MHz Racconigi (IT) 0.00 km UNKNOWN
M3850292 RS41 2018-07-11 11:38:04 44.4458 7.80982 262 ° 63 km/h 31732 m -39.5 m/s 402.80 MHz Mondovì (IT) 0.00 km UNKNOWN
M3830563 RS41 2018-07-11 00:45:17 44.4784 7.80328 166 ° 7 km/h 2469 m -5.9 m/s 402.80 MHz Fossano (IT) 0.00 km FOUND
M3830562 RS41 2018-07-10 11:59:37 44.2743 7.52115 121 ° 33 km/h 5655 m -16.2 m/s 402.80 MHz Boves (IT) 0.00 km FOUND
M3840789 RS41 2018-07-06 00:42:34 44.6904 8.24677 133 ° 17 km/h 2314 m -5.6 m/s 402.80 MHz Canelli (IT) 0.00 km UNKNOWN
M3930530 RS41 2018-07-05 12:12:22 44.9111 8.40101 78 ° 83 km/h 7307 m -5.6 m/s 402.80 MHz Asti (IT) 0.00 km UNKNOWN
M3930428 RS41 2018-07-05 00:36:21 44.8967 8.27303 44 ° 48 km/h 3222 m -6.1 m/s 402.80 MHz Asti (IT) 0.00 km UNKNOWN
M3930525 RS41 2018-07-04 12:06:28 44.8595 8.54523 89 ° 156 km/h 10950 m -5.3 m/s 402.80 MHz Alessandria (IT) 0.00 km UNKNOWN
M3840796 RS41 2018-07-04 00:50:45 44.9574 8.34516 77 ° 61 km/h 7625 m -3.1 m/s 402.80 MHz Asti (IT) 0.00 km UNKNOWN
M4120019 RS41 2018-07-03 12:23:01 44.6654 8.50244 98 ° 26 km/h 5231 m -3.6 m/s 402.80 MHz Acqui Terme (IT) 0.00 km UNKNOWN
M4120064 RS41 2018-07-03 00:47:31 44.6417 8.27668 67 ° 41 km/h 5790 m -3.5 m/s 402.80 MHz Canelli (IT) 0.00 km UNKNOWN
M4120066 RS41 2018-07-02 12:43:19 44.8777 8.10418 19 ° 13 km/h 1797 m -4.4 m/s 402.80 MHz Asti (IT) 0.00 km UNKNOWN
M4120048 RS41 2018-07-02 01:09:17 44.5814 8.14795 332 ° 9 km/h 1625 m -4.0 m/s 402.80 MHz Monesiglio (IT) 0.00 km FOUND
M4120020 RS41 2018-07-01 12:04:15 44.5303 7.87833 78 ° 43 km/h 6347 m -10.6 m/s 402.80 MHz Fossano (IT) 0.00 km FOUND
M4120061 RS41 2018-07-01 00:29:05 44.3271 8.04859 112 ° 41 km/h 8184 m -4.4 m/s 402.80 MHz Monesiglio (IT) 0.00 km UNKNOWN
M4110166 RS41 2018-06-30 12:03:35 44.2419 7.89173 121 ° 65 km/h 8165 m -8.6 m/s 402.80 MHz Mondovì (IT) 0.00 km UNKNOWN
M3840800 RS41 2018-06-30 00:14:04 44.4413 7.65588 179 ° 6 km/h 2201 m -8.7 m/s 402.80 MHz Cuneo (IT) 0.00 km FOUND
M3930490 RS41 2018-06-29 11:55:28 44.4718 7.49629 36 ° 19 km/h 2003 m -14.3 m/s 402.80 MHz Busca (IT) 0.00 km FOUND
M4130365 RS41 2018-06-29 00:35:09 44.268 7.27584 242 ° 7 km/h 2520 m -6.0 m/s 402.80 MHz Borgo San Dalmazzo (IT) 0.00 km UNKNOWN
M4130364 RS41 2018-06-28 12:17:31 44.0697 7.52791 188 ° 94 km/h 7403 m -5.7 m/s 402.80 MHz Boves (IT) 0.00 km UNKNOWN
M4130579 RS41 2018-06-28 00:30:28 43.9594 7.56813 145 ° 76 km/h 6226 m -8.7 m/s 402.80 MHz Ventimiglia (IT) 0.00 km UNKNOWN
M4130362 RS41 2018-06-27 11:56:52 43.9883 7.40993 167 ° 57 km/h 6314 m -7.3 m/s 402.80 MHz Contes (FR) 0.00 km UNKNOWN
M4130366 RS41 2018-06-27 00:40:04 43.5576 7.24069 179 ° 69 km/h 6896 m -4.5 m/s 402.80 MHz Antibes (FR) 0.00 km LOST
M4130361 RS41 2018-06-26 11:54:09 44.0032 7.05061 159 ° 89 km/h 13903 m -8.9 m/s 402.80 MHz Carros (FR) 0.00 km UNKNOWN
M4130334 RS41 2018-06-26 00:22:40 43.8028 7.24608 149 ° 35 km/h 4183 m -7.2 m/s 402.80 MHz Carros (FR) 0.00 km UNKNOWN
M4130335 RS41 2018-06-25 00:06:33 43.8368 7.11052 200 ° 176 km/h 11058 m -14.7 m/s 402.80 MHz Carros (FR) 0.00 km UNKNOWN
M4130581 RS41 2018-06-23 11:11:17 44.1524 8.09759 230 ° 15 km/h 21202 m 4.6 m/s 402.80 MHz Loano (IT) 0.00 km UNKNOWN
M4130568 RS41 2018-06-22 11:36:27 44.1659 7.93504 301 ° 28 km/h 28484 m 5.3 m/s 402.80 MHz Albenga (IT) 0.00 km UNKNOWN
M4130577 RS41 2018-06-22 00:05:40 44.1558 7.86049 155 ° 35 km/h 9800 m -4.5 m/s 402.80 MHz Mondovì (IT) 0.00 km UNKNOWN
M4220107 RS41 2018-06-21 00:17:08 44.226 7.19302 224 ° 22 km/h 4514 m -9.7 m/s 402.80 MHz Borgo San Dalmazzo (IT) 0.00 km UNKNOWN
M4130574 RS41 2018-06-20 12:23:47 44.2312 7.02412 215 ° 24 km/h 5438 m -3.8 m/s 402.80 MHz Borgo San Dalmazzo (IT) 0.00 km UNKNOWN
M4130570 RS41 2018-06-20 00:36:16 44.2741 7.06384 236 ° 39 km/h 3637 m -5.4 m/s 402.80 MHz Borgo San Dalmazzo (IT) 0.00 km UNKNOWN
M4130567 RS41 2018-06-19 00:20:58 43.8406 6.93777 192 ° 109 km/h 10449 m -7.1 m/s 402.80 MHz Vence (FR) 0.00 km UNKNOWN
M4130255 RS41 2018-06-18 12:01:58 43.7717 6.93015 210 ° 146 km/h 10611 m -4.8 m/s 402.80 MHz Grasse (FR) 0.00 km UNKNOWN
M4130256 RS41 2018-06-18 00:54:46 44.0969 7.7179 264 ° 9 km/h 3307 m -4.0 m/s 402.80 MHz Boves (IT) 0.00 km UNKNOWN
M4130258 RS41 2018-06-15 13:08:13 44.201 7.41823 111 ° 15 km/h 3419 m -2.6 m/s 402.80 MHz Borgo San Dalmazzo (IT) 0.00 km UNKNOWN
M4130566 RS41 2018-06-14 12:40:17 44.1996 7.18338 210 ° 46 km/h 6140 m -4.1 m/s 402.80 MHz Borgo San Dalmazzo (IT) 0.00 km UNKNOWN
M4130575 RS41 2018-06-14 01:14:19 44.0825 7.33095 222 ° 44 km/h 3167 m -3.4 m/s 402.80 MHz Contes (FR) 0.00 km UNKNOWN
M4130569 RS41 2018-06-13 12:09:29 44.2593 7.27214 221 ° 70 km/h 6866 m -8.4 m/s 402.80 MHz Borgo San Dalmazzo (IT) 0.00 km UNKNOWN
M4130445 RS41 2018-06-12 12:24:03 44.876 7.63945 316 ° 13 km/h 480 m -8.2 m/s 402.80 MHz Carignano (IT) 0.00 km UNKNOWN
M4130278 RS41 2018-06-12 01:03:08 45.0453 7.82412 170 ° 6 km/h 748 m -4.6 m/s 402.80 MHz Chieri (IT) 0.00 km UNKNOWN
M4130316 RS41 2018-06-10 11:58:08 44.7987 7.7226 265 ° 33 km/h 27814 m -26.3 m/s 402.80 MHz Racconigi (IT) 0.00 km FOUND
M4130087 RS41 2018-06-09 00:38:40 44.4328 7.66686 175 ° 13 km/h 2343 m -8.1 m/s 402.80 MHz Cuneo (IT) 0.00 km UNKNOWN
M4130089 RS41 2018-06-08 12:26:34 44.392 7.33491 218 ° 24 km/h 3628 m -4.2 m/s 402.80 MHz Borgo San Dalmazzo (IT) 0.00 km UNKNOWN
M4130537 RS41 2018-06-08 00:59:06 44.7493 6.96757 249 ° 33 km/h 3742 m -4.6 m/s 402.80 MHz Barge (IT) 0.00 km UNKNOWN
M4130086 RS41 2018-06-07 12:15:24 44.8748 7.47722 297 ° 6 km/h 758 m -2.8 m/s 402.80 MHz None (IT) 0.00 km UNKNOWN
M4130088 RS41 2018-06-06 12:47:47 45.2962 7.41732 337 ° 37 km/h 3663 m -2.7 m/s 402.80 MHz Ciriè (IT) 0.00 km UNKNOWN
M4130085 RS41 2018-06-06 00:53:11 44.8786 7.46845 310 ° 13 km/h 1556 m -5.1 m/s 402.80 MHz None (IT) 0.00 km UNKNOWN
M4130067 RS41 2018-05-31 01:08:53 45.2943 7.3215 7 ° 35 km/h 2932 m -2.2 m/s 402.80 MHz Ciriè (IT) 0.00 km UNKNOWN
M4120443 RS41 2018-05-30 12:18:31 45.2516 7.21705 342 ° 46 km/h 3472 m -2.7 m/s 402.80 MHz Avigliana (IT) 0.00 km UNKNOWN
M4130348 RS41 2018-05-27 01:01:15 44.8738 7.84207 275 ° 33 km/h 25725 m -24.3 m/s 402.80 MHz Poirino (IT) 0.00 km UNKNOWN
M4050110 RS41 2018-04-29 00:03:19 44.953 8.13784 53 ° 4 km/h 22662 m -17.4 m/s 402.80 MHz Asti (IT) 0.00 km UNKNOWN
N2220096 RS41 2018-04-10 00:26:32 44.9266 8.33024 78 ° 43 km/h 30128 m -39.3 m/s 402.80 MHz Asti (IT) 0.00 km UNKNOWN
N2240105 RS41 2018-04-05 00:10:32 44.6986 8.4277 164 ° 19 km/h 27308 m -28.7 m/s 402.80 MHz Acqui Terme (IT) 0.00 km UNKNOWN
N2220156 RS41 2018-03-18 01:04:34 44.7687 8.30795 54 ° 43 km/h 14196 m -13.6 m/s 404.00 MHz Nizza Monferrato (IT) 0.00 km UNKNOWN
N0740800 RS41 2018-02-05 01:08:12 44.5058 8.97868 124 ° 93 km/h 27929 m -28.7 m/s 402.80 MHz Serra Riccò (IT) 0.00 km UNKNOWN
N0610809 RS41 2018-01-09 01:11:23 45.2689 8.52706 37 ° 100 km/h 19524 m -10.2 m/s 402.80 MHz Vercelli (IT) 0.00 km UNKNOWN
N2220280 RS41 2017-11-09 01:12:16 44.6618 8.60857 118 ° 70 km/h 26373 m -19.8 m/s 402.80 MHz Ovada (IT) 0.00 km UNKNOWN
N2220250 RS41 2017-11-06 01:11:04 44.9314 8.35464 45 ° 74 km/h 30378 m -33.7 m/s 402.80 MHz Asti (IT) 0.00 km UNKNOWN